</
# Wetter Temperatur Luftdruck Luftfeuchtigkeit Sichtweite Windgeschwindigkeit Windrichtung Zeit
1 Clouds 24 1003 78 10000 3.6 290 09:40 14.07.2020
2 Clouds 24 1003 78 10000 3.6 290 09:22 14.07.2020
3 Rain 24 1003 78 10000 3.1 290 08:57 14.07.2020
4 Rain 24 1003 78 10000 3.1 290 08:37 14.07.2020
5 Rain 24 1003 78 10000 3.1 290 08:18 14.07.2020
6 Rain 24 1003 78 10000 4.1 300 07:42 14.07.2020
7 Rain 24 1003 83 10000 2.6 330 07:19 14.07.2020
8 Rain 24 1003 83 10000 2.6 330 06:50 14.07.2020
9 Rain 23 1004 94 10000 3.1 330 06:25 14.07.2020
10 Rain 23 1004 94 10000 3.1 330 05:42 14.07.2020
11 Rain 23 1004 94 10000 3.1 310 04:38 14.07.2020
12 Rain 23 1004 88 4000 3.6 270 03:52 14.07.2020
13 Rain 23 1004 94 6000 1.5 0 03:18 14.07.2020
14 Rain 23 1004 94 10000 1.5 320 02:26 14.07.2020
15 Rain 22 1003 94 10000 1.5 300 01:38 14.07.2020
16 Rain 23 1003 94 10000 3.1 250 00:56 14.07.2020
17 Rain 23 1003 94 10000 3.1 250 00:37 14.07.2020
18 Rain 23 1003 94 10000 3.1 250 00:19 14.07.2020
19 Rain 23 1003 94 0 2.24 330 23:38 13.07.2020
20 Rain 24 1003 93 0 7.34 278 23:19 13.07.2020
21 Rain 24 1003 93 0 7.34 278 22:43 13.07.2020
22 Rain 24 1003 94 0 7.97 271 22:22 13.07.2020
23 Rain 24 1003 94 0 7.97 271 21:59 13.07.2020
24 Rain 24 1003 94 0 7.97 271 21:41 13.07.2020
25 Rain 27 1006 88 0 6.68 252 21:21 13.07.2020
26 Rain 27 1004 88 0 6.68 252 20:59 13.07.2020
27 Rain 27 1004 88 0 6.68 252 20:41 13.07.2020
28 Rain 27 1004 88 0 8.55 223 20:22 13.07.2020
29 Rain 27 1006 88 0 8.55 223 19:57 13.07.2020
30 Rain 27 1004 88 0 8.55 223 19:38 13.07.2020
31 Rain 27 1004 88 0 7.74 219 19:19 13.07.2020
32 Rain 27 1006 88 0 7.74 219 18:42 13.07.2020
33 Rain 27 1006 88 0 8.29 218 18:24 13.07.2020
34 Rain 27 1004 88 0 8.29 218 17:58 13.07.2020
35 Rain 27 1004 88 0 8.29 218 17:40 13.07.2020
36 Rain 27 1004 88 0 7.85 215 17:21 13.07.2020
37 Rain 27 1004 88 0 7.85 215 16:58 13.07.2020
38 Rain 27 1004 88 0 7.85 215 16:40 13.07.2020
39 Rain 27 1004 88 0 8.35 215 16:20 13.07.2020
40 Rain 27 1004 88 8000 5.7 0 15:57 13.07.2020
41 Rain 27 1004 88 8000 5.7 0 15:37 13.07.2020
42 Rain 27 1004 88 8000 5.7 0 15:19 13.07.2020
43 Rain 27 1004 83 10000 6.7 210 14:56 13.07.2020
44 Rain 28 1004 83 10000 6.7 210 14:38 13.07.2020
45 Rain 28 1004 83 10000 6.7 210 14:19 13.07.2020
46 Rain 28 1004 83 10000 7.2 210 13:43 13.07.2020
47 Rain 28 1004 83 10000 7.2 210 13:43 13.07.2020
48 Rain 28 1004 83 10000 7.2 210 13:22 13.07.2020
49 Clouds 28 1004 83 10000 6.7 210 12:55 13.07.2020
50 Clouds 28 1004 83 10000 6.7 210 12:37 13.07.2020
51 Clouds 28 1004 83 10000 6.7 210 12:18 13.07.2020
52 Clouds 28 1004 78 10000 8.7 210 11:41 13.07.2020
53 Clouds 28 1004 78 10000 8.7 210 11:22 13.07.2020
54 Clouds 29 1004 74 10000 9.3 200 10:44 13.07.2020
55 Clouds 29 1004 74 10000 9.3 200 10:21 13.07.2020
56 Clouds 29 1004 74 10000 8.2 210 09:57 13.07.2020
57 Clouds 29 1004 74 10000 8.2 210 09:38 13.07.2020
58 Clouds 29 1004 74 10000 8.2 210 09:20 13.07.2020
59 Clouds 29 1004 74 10000 7.2 200 08:47 13.07.2020
60 Clouds 29 1004 74 10000 7.2 200 08:28 13.07.2020
61 Clouds 29 1004 74 10000 8.2 190 07:25 13.07.2020
62 Clouds 29 1005 74 10000 8.2 190 06:54 13.07.2020
63 Clouds 29 1005 74 10000 8.2 190 06:35 13.07.2020
64 Rain 29 1005 74 10000 7.7 180 05:35 13.07.2020
65 Clouds 28 1006 78 10000 6.7 190 03:31 13.07.2020
66 Clouds 28 1007 78 10000 5.7 180 01:44 13.07.2020
67 Clouds 28 1007 78 10000 5.7 180 01:22 13.07.2020
68 Clouds 27 1007 83 10000 4.6 180 00:44 13.07.2020
69 Clouds 27 1007 83 10000 4.6 180 00:22 13.07.2020
70 Clouds 27 1007 83 10000 3.6 170 23:43 12.07.2020
71 Clouds 25 1007 94 0 4.86 172 23:23 12.07.2020
72 Clouds 23 1008 88 0 5.36 150 22:57 12.07.2020
73 Rain 23 1008 88 0 5.36 150 22:37 12.07.2020
74 Rain 23 1008 88 0 5.36 150 22:18 12.07.2020
75 Rain 23 1008 88 0 5.36 150 21:57 12.07.2020
76 Rain 23 1008 88 0 5.36 150 21:38 12.07.2020
77 Rain 23 1008 88 0 5.36 150 21:19 12.07.2020
78 Rain 23 1008 88 0 5.36 150 20:42 12.07.2020
79 Rain 23 1008 88 0 5.36 150 20:20 12.07.2020
80 Rain 23 1008 88 0 5.36 150 19:59 12.07.2020
81 Rain 23 1008 88 0 5.36 150 19:40 12.07.2020
82 Clouds 23 1008 88 0 5.36 150 19:20 12.07.2020
83 Clouds 23 1008 88 0 5.36 150 18:54 12.07.2020
84 Clouds 23 1008 88 0 5.36 150 18:36 12.07.2020
85 Clouds 23 1008 88 0 5.36 150 18:18 12.07.2020
86 Clouds 23 1008 88 0 5.36 150 17:38 12.07.2020
87 Clouds 23 1008 88 0 5.36 150 17:20 12.07.2020
88 Clouds 23 1008 88 0 5.36 150 16:48 12.07.2020
89 Clouds 23 1008 88 0 5.36 150 16:23 12.07.2020
90 Clouds 23 1008 88 0 5.36 150 15:51 12.07.2020
91 Clouds 23 1008 88 10000 5.7 150 15:31 12.07.2020
92 Clouds 23 1008 88 10000 5.7 150 14:58 12.07.2020
93 Clouds 23 1008 88 10000 5.7 150 14:40 12.07.2020
94 Clouds 23 1008 88 10000 5.7 150 14:40 12.07.2020
95 Clouds 23 1008 88 10000 5.7 150 14:22 12.07.2020
96 Clouds 23 1008 88 10000 5.7 140 13:40 12.07.2020
97 Clouds 23 1008 88 10000 5.7 140 13:21 12.07.2020
98 Clouds 24 1008 83 10000 3.6 140 12:57 12.07.2020
99 Clouds 24 1008 83 10000 3.6 140 12:57 12.07.2020
100 Clouds 24 1008 83 10000 3.6 140 12:38 12.07.2020
101 Clouds 24 1008 83 10000 3.6 140 12:18 12.07.2020
102 Clouds 24 1008 78 10000 3.6 130 11:44 12.07.2020
103 Clouds 24 1008 78 10000 3.6 130 11:21 12.07.2020
104 Clouds 25 1008 78 10000 5.1 140 10:44 12.07.2020
105 Clouds 25 1008 78 10000 5.1 140 10:23 12.07.2020
106 Clouds 25 1009 83 10000 5.1 150 09:58 12.07.2020
107 Clouds 25 1009 83 10000 5.1 150 09:40 12.07.2020
108 Clouds 25 1009 83 10000 5.1 150 09:20 12.07.2020
109 Rain 25 1009 83 10000 1.5 290 08:54 12.07.2020
110 Rain 25 1009 83 10000 1.5 290 08:36 12.07.2020
111 Rain 25 1009 83 10000 1.5 290 08:18 12.07.2020
112 Clouds 25 1010 83 10000 1.5 300 07:42 12.07.2020
113 Clouds 25 1010 83 10000 1.5 300 07:42 12.07.2020
114 Clouds 25 1010 83 10000 1.5 300 07:21 12.07.2020
115 Clouds 25 1010 78 10000 3.6 160 06:51 12.07.2020
116 Clouds 25 1010 78 10000 3.6 160 06:21 12.07.2020
117 Clouds 25 1010 78 10000 5.1 160 05:33 12.07.2020
118 Clouds 25 1010 88 10000 4.6 150 04:55 12.07.2020
119 Clouds 25 1010 88 10000 4.6 150 04:25 12.07.2020
120 Clouds 24 1010 88 10000 1 0 03:34 12.07.2020
121 Rain 23 1010 94 10000 2.1 360 02:47 12.07.2020
122 Rain 23 1010 94 10000 2.1 360 02:47 12.07.2020
123 Rain 23 1010 100 8000 1.5 320 01:44 12.07.2020
124 Rain 23 1011 100 5000 1 0 00:44 12.07.2020
125 Rain 23 1011 100 4000 1.5 170 00:23 12.07.2020
126 Mist 23 1010 100 2000 1.5 150 23:56 11.07.2020
127 Rain 24 1009 100 0 2.24 310 23:38 11.07.2020
128 Rain 24 1009 100 0 2.24 310 23:19 11.07.2020
129 Rain 24 1009 100 0 2.24 310 22:45 11.07.2020
130 Rain 24 1009 100 0 2.24 310 22:26 11.07.2020
131 Rain 24 1009 100 0 2.24 310 21:59 11.07.2020
132 Rain 24 1009 100 0 2.24 310 21:40 11.07.2020
133 Rain 21 1010 89 0 3.45 18 21:21 11.07.2020
134 Rain 21 1010 89 0 3.45 18 20:56 11.07.2020
135 Rain 21 1010 89 0 3.45 18 20:38 11.07.2020
136 Rain 22 1009 87 0 2.49 19 20:19 11.07.2020
137 Rain 22 1009 87 0 2.49 19 19:56 11.07.2020
138 Rain 22 1009 87 0 2.49 19 19:38 11.07.2020
139 Rain 24 1009 100 0 2.24 310 19:19 11.07.2020
140 Rain 24 1009 100 0 2.24 310 18:54 11.07.2020
141 Rain 24 1009 100 0 2.24 310 18:36 11.07.2020
142 Rain 24 1009 100 0 2.24 310 18:36 11.07.2020
143 Rain 22 1010 88 0 0.72 352 18:18 11.07.2020
144 Rain 22 1010 88 0 0.72 352 17:40 11.07.2020
145 Rain 24 1009 100 0 2.24 310 17:21 11.07.2020
146 Rain 24 1009 100 0 2.24 310 16:58 11.07.2020
147 Rain 24 1009 100 0 2.24 310 16:38 11.07.2020
148 Mist 24 1009 100 3000 2.6 310 16:19 11.07.2020
149 Rain 24 1009 100 3000 2.6 310 15:42 11.07.2020
150 Rain 24 1009 100 3000 2.6 310 15:22 11.07.2020
151 Rain 24 1009 100 7000 1.93 359 14:59 11.07.2020
152 Rain 24 1009 100 7000 1.93 359 14:40 11.07.2020
153 Thunderstorm 24 1008 100 6000 1 0 14:22 11.07.2020
154 Rain 24 1008 100 7000 0.5 0 13:44 11.07.2020
155 Rain 24 1008 100 6000 1 320 13:23 11.07.2020
156 Rain 25 1008 94 8000 1.79 335 12:59 11.07.2020
157 Rain 25 1008 94 10000 0.5 320 12:41 11.07.2020
158 Rain 25 1008 94 10000 0.5 320 12:22 11.07.2020
159 Clouds 25 1007 94 10000 1.8 305 11:57 11.07.2020
160 Clouds 25 1007 94 10000 1.8 305 11:39 11.07.2020
161 Clouds 25 1007 94 10000 2.2 296 11:19 11.07.2020
162 Clouds 25 1007 94 10000 2.6 10 10:44 11.07.2020
163 Clouds 25 1007 94 10000 2.6 10 10:44 11.07.2020
164 Clouds 25 1007 94 10000 2.6 10 10:25 11.07.2020
165 Rain 26 1007 88 10000 1.5 260 09:45 11.07.2020
166 Rain 26 1007 88 10000 1.5 260 09:21 11.07.2020
167 Clouds 25 1007 94 10000 1 0 08:59 11.07.2020
168 Clouds 25 1007 94 10000 1 0 08:37 11.07.2020
169 Clouds 25 1007 94 10000 1 0 08:19 11.07.2020
170 Rain 26 1007 88 10000 1.5 280 07:42 11.07.2020
171 Rain 26 1007 88 10000 1.5 280 07:23 11.07.2020
172 Clouds 26 1007 88 10000 1 0 06:56 11.07.2020
173 Clouds 26 1007 88 10000 1 0 06:22 11.07.2020
174 Clouds 27 1007 88 10000 2.1 150 05:22 11.07.2020
175 Clouds 26 1007 88 10000 2.6 160 04:55 11.07.2020
176 Clouds 26 1007 88 10000 2.6 160 04:32 11.07.2020
177 Rain 26 1007 83 10000 1.5 10 03:24 11.07.2020
178 Clouds 25 1007 94 10000 1.5 20 02:38 11.07.2020
179 Rain 24 1007 94 7000 3.6 360 01:37 11.07.2020
180 Rain 24 1007 94 7000 3.6 360 01:18 11.07.2020
181 Clouds 24 1006 94 10000 3.1 350 00:41 11.07.2020
182 Clouds 24 1006 94 10000 3.1 350 00:22 11.07.2020
183 Rain 24 1006 100 9000 1 0 23:57 10.07.2020
184 Rain 24 1006 100 0 2.93 214 23:39 10.07.2020
185 Rain 26 1004 94 0 6.71 200 23:18 10.07.2020
186 Rain 26 1004 94 0 6.71 200 22:43 10.07.2020
187 Rain 26 1004 94 0 6.71 200 22:20 10.07.2020
188 Rain 26 1004 94 0 6.71 200 21:55 10.07.2020
189 Rain 26 1004 94 0 6.71 200 21:36 10.07.2020
190 Rain 26 1004 94 0 6.71 200 21:18 10.07.2020
191 Rain 26 1004 94 0 6.71 200 21:18 10.07.2020
192 Rain 26 1009 94 0 6.71 200 20:41 10.07.2020
193 Rain 26 1009 94 0 6.71 200 20:22 10.07.2020
194 Rain 26 1004 94 0 6.71 200 19:57 10.07.2020
195 Rain 26 1009 94 0 6.71 200 19:39 10.07.2020
196 Rain 26 1004 94 0 6.71 200 19:20 10.07.2020
197 Rain 26 1004 94 0 6.71 200 18:41 10.07.2020
198 Rain 26 1004 94 0 6.71 200 18:20 10.07.2020
199 Rain 26 1004 94 0 6.71 200 17:58 10.07.2020
200 Rain 26 1004 94 0 6.71 200 17:39 10.07.2020
201 Rain 26 1004 94 0 6.71 200 17:20 10.07.2020
202 Rain 26 1004 94 0 6.71 200 16:43 10.07.2020
203 Rain 26 1009 94 0 6.71 200 16:21 10.07.2020
204 Rain 26 1009 94 0 6.71 200 15:48 10.07.2020
205 Rain 26 1004 94 7000 6.7 200 15:26 10.07.2020
206 Rain 26 1004 94 7000 6.7 200 14:59 10.07.2020
207 Rain 26 1004 94 7000 6.7 200 14:40 10.07.2020
208 Rain 26 1004 94 7000 6.7 200 14:20 10.07.2020
209 Rain 26 1004 94 7000 6.7 200 14:20 10.07.2020
210 Rain 26 1004 94 8000 7.2 210 13:57 10.07.2020
211 Clouds 26 1004 88 10000 6.2 190 13:38 10.07.2020
212 Clouds 26 1004 88 10000 6.2 190 13:20 10.07.2020
213 Rain 26 1003 88 5000 7.2 190 12:56 10.07.2020
214 Rain 26 1003 88 5000 7.2 190 12:37 10.07.2020
215 Rain 26 1003 88 5000 7.2 190 12:19 10.07.2020
216 Mist 26 1003 88 5000 9.3 190 11:41 10.07.2020
217 Rain 26 1003 88 5000 9.3 190 11:20 10.07.2020
218 Rain 26 1003 88 4500 9.3 190 10:56 10.07.2020
219 Rain 26 1003 88 10000 9.3 200 10:38 10.07.2020
220 Rain 26 1003 88 10000 9.3 200 10:18 10.07.2020
221 Rain 26 1003 88 10000 9.3 200 09:40 10.07.2020
222 Rain 26 1003 88 10000 9.3 200 09:22 10.07.2020
223 Rain 26 1003 88 6000 9.3 200 08:58 10.07.2020
224 Rain 26 1003 88 4000 9.3 200 08:40 10.07.2020
225 Rain 26 1003 88 4000 9.3 200 08:21 10.07.2020
226 Thunderstorm 25 1003 94 3500 7.2 180 07:44 10.07.2020
227 Thunderstorm 25 1003 94 1000 7.2 180 07:23 10.07.2020
228 Thunderstorm 24 1004 94 3000 3.6 170 06:52 10.07.2020
229 Thunderstorm 24 1004 94 5000 2.1 0 06:27 10.07.2020
230 Thunderstorm 26 1004 88 5000 7.7 180 05:19 10.07.2020
231 Rain 25 1004 88 5000 9.8 160 03:42 10.07.2020
232 Rain 25 1004 88 5000 8.7 160 02:53 10.07.2020
233 Clouds 26 1004 83 10000 9.3 160 01:53 10.07.2020
234 Clouds 25 1004 88 10000 9.3 150 00:49 10.07.2020
235 Clouds 25 1004 88 10000 9.3 150 00:21 10.07.2020
236 Rain 25 1004 88 10000 8.7 150 23:55 09.07.2020
237 Rain 25 1004 88 0 8.49 150 23:36 09.07.2020
238 Rain 25 1006 94 0 4.92 140 23:18 09.07.2020
239 Rain 25 1006 94 0 4.92 140 22:41 09.07.2020
240 Rain 25 1006 94 0 4.92 140 22:21 09.07.2020
241 Rain 25 1006 94 0 4.92 140 21:59 09.07.2020
242 Rain 25 1010 94 0 4.92 140 21:39 09.07.2020
243 Rain 25 1010 94 0 4.92 140 21:19 09.07.2020
244 Clouds 25 1006 94 0 4.92 140 20:58 09.07.2020
245 Clouds 25 1010 94 0 4.92 140 20:39 09.07.2020
246 Rain 25 1010 94 0 4.92 140 20:21 09.07.2020
247 Rain 25 1006 94 0 4.92 140 19:42 09.07.2020
248 Rain 25 1006 94 0 4.92 140 19:21 09.07.2020
249 Rain 25 1006 94 0 4.92 140 18:43 09.07.2020
250 Rain 25 1010 94 0 4.92 140 18:25 09.07.2020
251 Rain 25 1006 94 0 4.92 140 17:56 09.07.2020
252 Rain 25 1006 94 0 4.92 140 17:38 09.07.2020
253 Rain 25 1006 94 0 4.92 140 17:20 09.07.2020
254 Rain 25 1006 94 0 4.92 140 16:56 09.07.2020
255 Rain 25 1006 94 0 4.92 140 16:56 09.07.2020
256 Rain 25 1006 94 0 4.92 140 16:38 09.07.2020
257 Rain 25 1006 94 0 4.92 140 16:19 09.07.2020
258 Rain 25 1006 94 0 4.92 140 15:55 09.07.2020
259 Rain 25 1006 94 10000 5.1 140 15:36 09.07.2020
260 Rain 25 1006 94 10000 5.1 140 15:18 09.07.2020
261 Rain 25 1006 94 10000 5.1 140 14:57 09.07.2020
262 Rain 25 1006 94 10000 5.1 140 14:39 09.07.2020
263 Rain 25 1006 94 10000 5.1 140 14:19 09.07.2020
264 Clouds 25 1005 88 10000 4.6 130 13:55 09.07.2020
265 Clouds 25 1005 88 10000 4.6 130 13:36 09.07.2020
266 Clouds 25 1005 88 10000 4.6 130 13:18 09.07.2020
267 Rain 25 1004 88 10000 6.7 190 12:40 09.07.2020
268 Rain 25 1004 88 10000 6.7 190 12:21 09.07.2020
269 Rain 25 1004 88 5000 5.7 170 11:56 09.07.2020
270 Rain 25 1004 88 6000 5.1 180 11:37 09.07.2020
271 Rain 25 1004 88 6000 5.1 180 11:18 09.07.2020
272 Rain 25 1004 88 6000 6.7 180 10:55 09.07.2020
273 Rain 25 1003 88 8000 8.7 170 10:37 09.07.2020
274 Rain 25 1003 88 8000 8.7 170 10:18 09.07.2020
275 Rain 25 1004 94 8000 7.2 160 09:41 09.07.2020
276 Rain 25 1003 94 8000 6.7 160 09:22 09.07.2020
277 Rain 25 1003 94 4000 4.1 160 08:45 09.07.2020
278 Rain 25 1003 94 4000 4.1 160 08:25 09.07.2020
279 Rain 24 1004 100 6000 2.6 120 07:47 09.07.2020
280 Rain 24 1004 100 3000 1.5 140 07:25 09.07.2020
281 Mist 24 1004 94 1500 5.1 120 06:54 09.07.2020
282 Mist 24 1004 94 1500 5.1 120 06:20 09.07.2020
283 Mist 24 1004 94 3000 8.2 130 05:26 09.07.2020
284 Rain 24 1004 94 6000 7.2 130 04:28 09.07.2020
285 Clouds 25 1004 88 10000 6.2 130 02:33 09.07.2020
286 Clouds 25 1005 88 10000 5.7 130 01:39 09.07.2020
287 Clouds 24 1004 94 10000 5.1 130 00:53 09.07.2020
288 Clouds 24 1004 94 10000 5.1 130 00:25 09.07.2020
289 Clouds 24 1005 94 10000 4.6 130 23:47 08.07.2020
290 Rain 24 1004 94 0 4.47 130 23:28 08.07.2020
291 Rain 25 1005 83 0 1.34 290 22:58 08.07.2020
292 Rain 25 1006 83 0 1.34 290 22:40 08.07.2020
293 Rain 25 1006 83 0 1.34 290 22:22 08.07.2020
294 Rain 25 1005 83 0 1.34 290 21:58 08.07.2020
295 Rain 25 1006 83 0 1.34 290 21:39 08.07.2020
296 Rain 25 1006 83 0 1.34 290 21:20 08.07.2020
297 Rain 25 1005 83 0 1.34 290 20:54 08.07.2020
298 Rain 25 1006 83 0 1.34 290 20:36 08.07.2020
299 Rain 25 1006 83 0 1.34 290 20:18 08.07.2020
300 Rain 25 1005 83 0 1.34 290 19:42 08.07.2020
301 Clouds 25 1005 83 0 1.34 290 19:22 08.07.2020
302 Clouds 25 1005 83 0 1.34 290 19:22 08.07.2020
303 Clouds 25 1005 83 0 1.34 290 18:57 08.07.2020
304 Clouds 25 1006 83 0 1.34 290 18:39 08.07.2020
305 Clouds 25 1006 83 0 1.34 290 18:19 08.07.2020
306 Clouds 25 1006 83 0 1.34 290 18:19 08.07.2020
307 Clouds 25 1005 83 0 1.34 290 17:55 08.07.2020
308 Clouds 25 1005 83 0 1.34 290 17:37 08.07.2020
309 Clouds 25 1005 83 0 1.34 290 17:18 08.07.2020
310 Clouds 25 1005 83 0 1.34 290 16:39 08.07.2020
311 Clouds 25 1005 83 0 1.34 290 16:20 08.07.2020
312 Clouds 25 1005 83 0 1.34 290 15:58 08.07.2020
313 Clouds 25 1005 83 0 1.34 290 15:40 08.07.2020
314 Clouds 25 1005 83 10000 1.5 290 15:19 08.07.2020
315 Clouds 25 1005 83 10000 1.5 290 14:48 08.07.2020
316 Clouds 25 1005 83 10000 1.5 290 14:29 08.07.2020
317 Clouds 25 1004 83 10000 3.1 140 13:58 08.07.2020
318 Clouds 25 1004 83 10000 3.1 140 13:40 08.07.2020
319 Clouds 25 1004 83 10000 3.1 140 13:20 08.07.2020
320 Clouds 26 1004 83 10000 3.1 190 12:43 08.07.2020
321 Clouds 26 1004 83 10000 3.1 190 12:21 08.07.2020
322 Clouds 26 1004 78 10000 3.1 280 11:56 08.07.2020
323 Clouds 26 1004 78 10000 3.1 280 11:38 08.07.2020
324 Clouds 26 1004 78 10000 3.1 280 11:20 08.07.2020
325 Clouds 27 1004 74 10000 3.6 270 10:44 08.07.2020
326 Clouds 27 1004 74 10000 3.6 270 10:26 08.07.2020
327 Clouds 28 1004 78 10000 2.6 270 09:46 08.07.2020
328 Clouds 28 1004 78 10000 2.6 270 09:26 08.07.2020
329 Clouds 28 1004 74 10000 3.1 280 08:58 08.07.2020
330 Clouds 28 1004 74 10000 3.1 280 08:39 08.07.2020
331 Clouds 28 1004 74 10000 3.1 280 08:20 08.07.2020
332 Clouds 28 1004 69 10000 2.1 270 07:44 08.07.2020
333 Clouds 28 1004 69 10000 2.1 270 07:22 08.07.2020
334 Clouds 27 1004 74 10000 3.1 280 06:52 08.07.2020
335 Clouds 27 1004 74 10000 3.1 280 06:31 08.07.2020
336 Clouds 27 1005 74 10000 2.1 290 05:49 08.07.2020
337 Clouds 26 1005 74 10000 2.1 20 04:50 08.07.2020
338 Clouds 26 1005 74 10000 2.1 20 04:19 08.07.2020
339 Clouds 25 1005 78 10000 2.1 340 02:19 08.07.2020
340 Clouds 24 1006 83 10000 2.6 20 01:38 08.07.2020
341 Clouds 24 1006 83 10000 2.1 320 00:51 08.07.2020
342 Clouds 24 1006 83 10000 2.1 320 00:20 08.07.2020
343 Clouds 23 1006 94 10000 1.5 300 23:44 07.07.2020
344 Clouds 23 1005 94 0 1.34 300 23:22 07.07.2020
345 Clouds 24 1006 94 0 1.59 324 22:57 07.07.2020
346 Clouds 24 1006 94 0 1.59 324 22:57 07.07.2020
347 Clouds 24 1006 94 0 1.59 324 22:38 07.07.2020
348 Clouds 23 1006 95 0 1.65 297 22:20 07.07.2020
349 Clouds 23 1006 95 0 1.65 297 21:57 07.07.2020
350 Clouds 23 1006 95 0 1.65 297 21:38 07.07.2020
351 Clouds 23 1006 95 0 1.65 297 21:38 07.07.2020
352 Clouds 24 1005 93 0 0.91 338 21:18 07.07.2020
353 Clouds 24 1005 93 0 0.91 338 20:42 07.07.2020
354 Clouds 24 1005 94 0 1.89 303 20:23 07.07.2020
355 Clouds 24 1005 94 0 1.89 303 19:58 07.07.2020
356 Clouds 24 1005 94 0 1.89 303 19:39 07.07.2020
357 Clouds 24 1005 94 0 1.89 303 19:39 07.07.2020
358 Rain 24 1005 95 0 3.94 272 19:20 07.07.2020
359 Rain 24 1005 95 0 3.94 272 18:55 07.07.2020
360 Rain 24 1005 95 0 3.94 272 18:37 07.07.2020
361 Rain 25 1005 94 0 6.94 259 18:18 07.07.2020
362 Rain 25 1005 94 0 6.94 259 17:44 07.07.2020
363 Rain 22 1003 100 10000 2.1 10 17:23 07.07.2020
364 Rain 22 1003 100 10000 2.1 10 16:58 07.07.2020
365 Rain 22 1003 100 10000 2.1 10 16:58 07.07.2020
366 Rain 22 1003 100 10000 2.1 10 16:40 07.07.2020
367 Rain 27 1004 88 0 9.09 230 16:21 07.07.2020
368 Rain 27 1003 88 6000 6.2 0 15:55 07.07.2020
369 Rain 27 1003 88 6000 6.2 0 15:36 07.07.2020
370 Rain 27 1003 88 6000 6.2 0 15:18 07.07.2020
371 Rain 27 1003 88 6000 6.2 0 14:42 07.07.2020
372 Rain 25 1002 100 8000 7.7 210 14:23 07.07.2020
373 Thunderstorm 24 1003 100 6000 5.1 130 13:40 07.07.2020
374 Thunderstorm 24 1003 100 6000 5.1 130 13:19 07.07.2020
375 Thunderstorm 24 1004 94 3000 4.6 110 12:47 07.07.2020
376 Thunderstorm 24 1004 94 3000 4.6 110 12:27 07.07.2020
377 Mist 23 1005 100 3500 1 0 11:59 07.07.2020
378 Thunderstorm 23 1005 100 3500 1 0 11:41 07.07.2020
379 Thunderstorm 23 1005 100 1000 5.1 350 11:21 07.07.2020
380 Thunderstorm 24 1005 94 4000 2.6 10 10:58 07.07.2020
381 Rain 24 1005 94 4000 3.6 10 10:38 07.07.2020
382 Rain 24 1005 94 4000 3.6 10 10:19 07.07.2020
383 Mist 24 1006 100 4500 2.1 90 09:41 07.07.2020
384 Rain 24 1006 94 4000 1.5 170 09:21 07.07.2020
385 Thunderstorm 25 1006 94 8000 4.1 140 08:42 07.07.2020
386 Rain 25 1006 94 8000 3.1 170 08:24 07.07.2020
387 Rain 25 1006 88 10000 4.6 200 07:49 07.07.2020
388 Rain 25 1006 88 10000 4.6 200 07:27 07.07.2020
389 Rain 25 1006 88 10000 4.6 200 07:27 07.07.2020
390 Rain 27 1006 83 10000 6.2 210 06:50 07.07.2020
391 Rain 27 1006 83 10000 6.2 210 06:32 07.07.2020
392 Rain 26 1006 88 10000 6.2 200 05:58 07.07.2020
393 Rain 26 1006 88 10000 6.2 200 05:23 07.07.2020
394 Rain 25 1007 88 6000 6.2 190 04:42 07.07.2020
395 Rain 26 1006 83 1500 10.3 210 03:41 07.07.2020
396 Rain 27 1006 88 8000 7.7 0 02:28 07.07.2020
397 Rain 27 1006 88 10000 3.1 0 01:25 07.07.2020
398 Clouds 27 1005 88 10000 8.2 210 00:54 07.07.2020
399 Clouds 27 1005 88 10000 8.2 210 00:36 07.07.2020
400 Clouds 27 1005 88 10000 8.2 210 00:18 07.07.2020
401 Rain 26 1005 94 8000 6.7 210 23:41 06.07.2020
402 Rain 23 1008 100 0 1.34 140 23:22 06.07.2020
403 Rain 23 1005 100 0 1.34 140 22:55 06.07.2020
404 Rain 23 1005 100 0 1.34 140 22:37 06.07.2020
405 Rain 23 1005 100 0 1.34 140 22:18 06.07.2020
406 Rain 23 1005 100 0 1.34 140 21:54 06.07.2020
407 Rain 23 1008 100 0 1.34 140 21:36 06.07.2020
408 Rain 23 1008 100 0 1.34 140 21:18 06.07.2020
409 Rain 23 1005 100 0 1.34 140 20:39 06.07.2020
410 Rain 23 1005 100 0 1.34 140 20:20 06.07.2020
411 Rain 23 1005 100 0 1.34 140 19:57 06.07.2020
412 Rain 23 1005 100 0 1.34 140 19:39 06.07.2020
413 Rain 23 1005 100 0 1.34 140 19:20 06.07.2020
414 Rain 23 1005 100 0 1.34 140 18:55 06.07.2020
415 Rain 23 1005 100 0 1.34 140 18:37 06.07.2020
416 Rain 23 1005 100 0 1.34 140 18:18 06.07.2020
417 Rain 23 1005 100 0 1.34 140 17:42 06.07.2020
418 Rain 23 1005 100 0 1.34 140 17:24 06.07.2020
419 Rain 23 1005 100 0 1.34 140 16:57 06.07.2020
420 Rain 23 1005 100 0 1.34 140 16:39 06.07.2020
421 Rain 23 1005 100 0 1.34 140 16:21 06.07.2020
422 Rain 23 1005 100 0 1.34 140 15:42 06.07.2020
423 Rain 23 1005 100 10000 1.5 140 15:24 06.07.2020
424 Rain 23 1005 100 10000 1.5 140 14:57 06.07.2020
425 Rain 23 1005 100 10000 1.5 140 14:37 06.07.2020
426 Rain 23 1005 100 10000 1.5 140 14:19 06.07.2020
427 Rain 23 1005 100 5000 2.1 0 13:48 06.07.2020
428 Rain 23 1005 100 5000 0.5 0 13:28 06.07.2020
429 Rain 23 1005 100 6000 0.5 0 12:57 06.07.2020
430 Thunderstorm 23 1005 100 4000 2.1 0 12:39 06.07.2020
431 Thunderstorm 23 1005 100 4000 2.1 0 12:18 06.07.2020
432 Rain 23 1005 100 2000 2.1 0 11:57 06.07.2020
433 Rain 23 1005 100 2000 0.5 0 11:37 06.07.2020
434 Rain 23 1005 100 2000 0.5 0 11:18 06.07.2020
435 Thunderstorm 23 1004 100 1500 2.1 0 10:41 06.07.2020
436 Thunderstorm 23 1004 100 1500 2.6 0 10:21 06.07.2020
437 Thunderstorm 24 1004 94 1500 4.1 180 09:55 06.07.2020
438 Thunderstorm 24 1003 100 3000 5.1 190 09:37 06.07.2020
439 Thunderstorm 24 1003 100 3000 5.1 190 09:19 06.07.2020
440 Thunderstorm 24 1003 100 3000 5.1 190 09:19 06.07.2020
441 Thunderstorm 23 1003 94 1500 3.6 0 08:41 06.07.2020
442 Thunderstorm 23 1004 100 1000 7.7 320 08:22 06.07.2020
443 Thunderstorm 23 1004 94 1500 4.6 250 07:53 06.07.2020
444 Thunderstorm 24 1003 94 1000 2.6 0 07:31 06.07.2020
445 Thunderstorm 27 1002 83 3000 11.3 210 06:56 06.07.2020
446 Rain 27 1001 88 4000 10.8 210 06:37 06.07.2020
447 Rain 26 1002 88 5000 10.3 210 05:55 06.07.2020
448 Rain 27 1002 88 5000 10.3 210 05:28 06.07.2020
449 Rain 27 1002 88 6000 9.8 210 03:58 06.07.2020
450 Rain 26 1002 94 2500 8.7 200 02:41 06.07.2020
451 Rain 25 1003 94 8000 1 0 01:55 06.07.2020
452 Rain 25 1003 94 5000 2.1 0 00:49 06.07.2020
453 Mist 25 1003 94 2500 2.1 0 00:24 06.07.2020
454 Rain 26 1002 88 10000 2.6 200 23:57 05.07.2020
455 Rain 26 1002 88 0 2.24 200 23:38 05.07.2020
456 Rain 25 1003 94 0 4.47 180 23:20 05.07.2020
457 Rain 25 1003 94 0 4.47 180 22:42 05.07.2020
458 Rain 25 1003 94 0 4.47 180 22:21 05.07.2020
459 Rain 25 1003 94 0 4.47 180 21:59 05.07.2020
460 Rain 25 1003 94 0 4.47 180 21:41 05.07.2020
461 Rain 25 1003 94 0 4.47 180 21:19 05.07.2020
462 Rain 25 1003 94 0 4.47 180 21:19 05.07.2020
463 Rain 25 1003 94 0 4.47 180 20:59 05.07.2020
464 Rain 25 1003 94 0 4.47 180 20:40 05.07.2020
465 Rain 25 1003 94 0 4.47 180 20:22 05.07.2020
466 Rain 25 1003 94 0 4.47 180 19:57 05.07.2020
467 Rain 25 1003 94 0 4.47 180 19:38 05.07.2020
468 Rain 25 1003 94 0 4.47 180 19:19 05.07.2020
469 Rain 25 1003 94 0 4.47 180 18:42 05.07.2020
470 Rain 25 1003 94 0 4.47 180 18:22 05.07.2020
471 Rain 25 1003 94 0 4.47 180 17:57 05.07.2020
472 Rain 25 1003 94 0 4.47 180 17:38 05.07.2020
473 Rain 25 1003 94 0 4.47 180 17:19 05.07.2020
474 Rain 24 1005 94 0 4.47 180 16:44 05.07.2020
475 Rain 24 1003 94 0 4.47 180 16:25 05.07.2020
476 Rain 24 1003 94 0 4.47 180 15:58 05.07.2020
477 Rain 24 1003 94 5000 4.6 180 15:37 05.07.2020
478 Rain 24 1003 94 5000 4.6 180 15:19 05.07.2020
479 Rain 24 1003 94 5000 4.6 180 14:42 05.07.2020
480 Rain 24 1003 94 5000 4.6 180 14:23 05.07.2020
481 Rain 24 1003 94 4000 5.1 200 13:43 05.07.2020
482 Rain 24 1003 100 6000 1 0 13:24 05.07.2020
483 Rain 24 1003 100 6000 1 90 12:56 05.07.2020
484 Rain 24 1003 100 3500 1.5 140 12:38 05.07.2020
485 Rain 24 1003 100 3500 1.5 140 12:20 05.07.2020
486 Rain 24 1003 100 3000 3.6 90 11:40 05.07.2020
487 Rain 24 1002 100 2000 3.6 90 11:21 05.07.2020
488 Rain 24 1003 94 6000 4.1 120 10:59 05.07.2020
489 Rain 24 1003 94 6000 4.1 120 10:40 05.07.2020
490 Rain 24 1003 94 6000 4.1 120 10:19 05.07.2020
491 Rain 24 1004 94 4000 3.1 110 09:56 05.07.2020
492 Rain 25 1004 94 7000 2.6 110 09:37 05.07.2020
493 Rain 25 1004 94 7000 2.6 110 09:19 05.07.2020
494 Rain 25 1004 88 10000 5.1 140 08:46 05.07.2020
495 Rain 25 1004 88 10000 5.1 140 08:27 05.07.2020
496 Rain 25 1004 83 10000 6.2 140 07:48 05.07.2020
497 Rain 25 1004 83 10000 6.2 140 07:29 05.07.2020
498 Clouds 28 1005 69 10000 4.6 140 06:51 05.07.2020
499 Rain 28 1005 69 10000 3.6 210 05:42 05.07.2020
500 Clouds 26 1006 83 10000 4.6 140 03:32 05.07.2020
501 Clouds 25 1006 88 10000 4.6 130 02:43 05.07.2020
502 Clouds 25 1006 88 10000 4.6 130 02:25 05.07.2020
503 Clouds 25 1006 88 10000 4.6 140 01:33 05.07.2020
504 Clouds 24 1006 88 10000 2.1 130 00:59 05.07.2020
505 Clouds 24 1006 88 10000 2.1 130 00:40 05.07.2020
506 Clouds 24 1006 88 10000 2.1 130 00:20 05.07.2020
507 Clouds 24 1006 88 10000 1 140 23:47 04.07.2020
508 Clouds 24 1006 88 0 0.89 140 23:28 04.07.2020
509 Clouds 22 1006 90 0 0.7 193 22:57 04.07.2020
510 Clouds 22 1006 90 0 0.7 193 22:37 04.07.2020
511 Clouds 22 1006 90 0 0.16 132 22:19 04.07.2020
512 Clouds 22 1006 90 0 0.16 132 21:42 04.07.2020
513 Clouds 22 1006 90 0 0.72 304 21:23 04.07.2020
514 Clouds 22 1006 89 0 1.2 245 20:57 04.07.2020
515 Clouds 22 1006 89 0 1.2 245 20:38 04.07.2020
516 Clouds 22 1006 89 0 1.39 231 20:18 04.07.2020
517 Clouds 22 1006 89 0 1.39 231 19:43 04.07.2020
518 Rain 22 1007 89 0 1.8 234 19:22 04.07.2020
519 Rain 22 1007 89 0 1.8 234 19:22 04.07.2020
520 Rain 22 1007 89 0 1.8 234 18:55 04.07.2020
521 Rain 22 1007 89 0 1.8 234 18:37 04.07.2020
522 Clouds 23 1007 85 0 2.21 242 18:19 04.07.2020
523 Clouds 23 1007 85 0 2.21 242 17:42 04.07.2020
524 Clouds 23 1006 88 10000 2.6 30 17:23 04.07.2020
525 Clouds 23 1006 88 10000 2.6 30 16:57 04.07.2020
526 Clouds 23 1006 88 10000 2.6 30 16:37 04.07.2020
527 Clouds 25 1006 78 0 1.16 244 16:19 04.07.2020
528 Clouds 25 1006 78 0 1.16 244 15:46 04.07.2020
529 Clouds 25 1006 78 10000 1 0 15:27 04.07.2020
530 Clouds 25 1006 78 10000 1 0 14:59 04.07.2020
531 Clouds 25 1006 78 10000 1 0 14:37 04.07.2020
532 Clouds 25 1006 78 10000 1 0 14:19 04.07.2020
533 Clouds 25 1006 78 10000 0.5 0 13:56 04.07.2020
534 Clouds 25 1006 78 10000 0.5 0 13:37 04.07.2020
535 Clouds 25 1006 78 10000 0.5 0 13:18 04.07.2020
536 Clouds 25 1005 78 10000 2.6 260 12:41 04.07.2020
537 Clouds 25 1005 78 10000 2.6 260 12:20 04.07.2020
538 Clouds 26 1004 74 10000 2.6 0 11:46 04.07.2020
539 Clouds 26 1004 74 10000 2.6 0 11:25 04.07.2020
540 Rain 27 1004 69 10000 4.6 210 10:59 04.07.2020
541 Rain 27 1004 69 10000 4.6 210 10:39 04.07.2020
542 Rain 27 1004 69 10000 4.6 210 10:21 04.07.2020
543 Clouds 28 1004 69 10000 3.6 260 09:56 04.07.2020
544 Clouds 28 1004 69 10000 3.6 260 09:36 04.07.2020
545 Clouds 28 1004 69 10000 3.6 260 09:18 04.07.2020
546 Clouds 28 1004 69 10000 2.1 280 08:46 04.07.2020
547 Clouds 28 1004 69 10000 2.1 280 08:27 04.07.2020
548 Clouds 27 1004 69 10000 2.1 170 07:44 04.07.2020
549 Clouds 27 1004 69 10000 2.1 170 07:26 04.07.2020
550 Clouds 28 1005 69 10000 2.1 250 06:51 04.07.2020
551 Clouds 28 1005 69 10000 2.1 250 06:20 04.07.2020
552 Clouds 26 1005 74 10000 2.6 280 05:34 04.07.2020
553 Clouds 26 1005 78 10000 3.6 270 04:31 04.07.2020
554 Clouds 25 1004 83 10000 5.7 330 02:49 04.07.2020
555 Clouds 24 1004 88 10000 4.6 330 01:54 04.07.2020
556 Clouds 24 1004 88 10000 4.6 330 01:24 04.07.2020
557 Rain 23 1004 94 10000 3.6 330 00:40 04.07.2020
558 Rain 23 1004 94 10000 3.6 330 00:21 04.07.2020
559 Rain 23 1004 94 0 2.24 320 23:39 03.07.2020
560 Rain 24 1005 94 0 1.79 140 23:19 03.07.2020
561 Rain 24 1005 94 0 1.79 140 22:54 03.07.2020
562 Rain 24 1005 94 0 1.79 140 22:36 03.07.2020
563 Rain 24 1005 94 0 1.79 140 22:18 03.07.2020
564 Rain 24 1005 94 0 1.79 140 21:39 03.07.2020
565 Rain 24 1005 94 0 1.79 140 21:19 03.07.2020
566 Rain 24 1005 94 0 1.79 140 20:46 03.07.2020
567 Rain 24 1005 94 0 1.79 140 20:27 03.07.2020
568 Rain 24 1005 94 0 1.79 140 19:59 03.07.2020
569 Rain 24 1005 94 0 1.79 140 19:40 03.07.2020
570 Rain 24 1005 94 0 1.79 140 19:18 03.07.2020
571 Rain 24 1005 94 0 1.79 140 18:45 03.07.2020
572 Rain 24 1005 94 0 1.79 140 18:24 03.07.2020
573 Rain 24 1005 94 0 1.79 140 17:59 03.07.2020
574 Rain 24 1005 94 0 1.79 140 17:41 03.07.2020
575 Rain 24 1005 94 0 1.79 140 17:20 03.07.2020
576 Rain 24 1005 94 0 1.79 140 16:41 03.07.2020
577 Rain 24 1005 94 0 1.79 140 16:23 03.07.2020
578 Rain 24 1005 94 0 1.79 140 15:46 03.07.2020
579 Clouds 24 1005 94 10000 2.1 140 15:24 03.07.2020
580 Clouds 24 1005 94 10000 2.1 140 14:57 03.07.2020
581 Clouds 24 1005 94 10000 2.1 140 14:39 03.07.2020
582 Clouds 24 1005 94 10000 2.1 140 14:19 03.07.2020
583 Rain 24 1005 88 10000 4.1 130 13:47 03.07.2020
584 Rain 24 1005 88 10000 4.1 130 13:28 03.07.2020
585 Clouds 23 1005 94 10000 5.1 130 12:45 03.07.2020
586 Clouds 23 1005 94 10000 5.1 130 12:24 03.07.2020
587 Rain 23 1005 94 10000 6.2 130 11:58 03.07.2020
588 Rain 23 1005 94 10000 6.2 130 11:40 03.07.2020
589 Rain 23 1005 94 10000 6.2 130 11:21 03.07.2020
590 Rain 23 1005 94 9000 6.2 150 10:55 03.07.2020
591 Rain 23 1005 94 9000 6.2 150 10:37 03.07.2020
592 Rain 23 1005 94 9000 6.2 150 10:18 03.07.2020
593 Rain 23 1005 94 7000 6.7 140 09:54 03.07.2020
594 Rain 23 1005 94 7000 6.7 140 09:54 03.07.2020
595 Rain 23 1005 94 7000 6.7 140 09:36 03.07.2020
596 Rain 23 1005 94 7000 6.7 140 09:18 03.07.2020
597 Rain 23 1006 94 10000 7.2 150 08:39 03.07.2020
598 Rain 23 1006 94 10000 7.2 150 08:18 03.07.2020
599 Rain 24 1007 88 10000 3.6 130 07:47 03.07.2020
600 Rain 24 1007 88 10000 3.6 130 07:24 03.07.2020
601 Rain 26 1008 69 10000 5.7 110 06:47 03.07.2020
602 Clouds 27 1008 65 10000 6.2 110 05:57 03.07.2020
603 Clouds 26 1008 74 10000 7.2 140 04:35 03.07.2020
604 Clouds 24 1009 78 10000 6.2 140 02:57 03.07.2020
605 Clouds 24 1009 78 10000 6.2 140 02:36 03.07.2020
606 Clouds 24 1009 78 10000 6.2 140 02:18 03.07.2020
607 Clouds 25 1009 78 10000 3.1 130 01:23 03.07.2020
608 Clouds 24 1009 83 10000 1 120 00:44 03.07.2020
609 Clouds 24 1009 83 10000 1 120 00:20 03.07.2020
610 Clouds 23 1009 94 0 2.79 37 23:43 02.07.2020
611 Clouds 24 1011 83 0 1.79 290 23:20 02.07.2020
612 Clouds 24 1011 83 0 1.79 290 22:57 02.07.2020
613 Clouds 24 1011 83 0 1.79 290 22:38 02.07.2020
614 Clouds 24 1011 83 0 1.79 290 22:20 02.07.2020
615 Clouds 24 1011 83 0 1.79 290 22:20 02.07.2020
616 Clouds 24 1011 83 0 1.79 290 21:54 02.07.2020
617 Clouds 24 1011 83 0 1.79 290 21:36 02.07.2020
618 Clouds 24 1011 83 0 1.79 290 21:36 02.07.2020
619 Clouds 24 1011 83 0 1.79 290 21:18 02.07.2020
620 Clouds 24 1011 83 0 1.79 290 20:42 02.07.2020
621 Clouds 24 1011 83 0 1.79 290 20:20 02.07.2020
622 Clouds 24 1011 83 0 1.79 290 19:57 02.07.2020
623 Clouds 24 1011 83 0 1.79 290 19:38 02.07.2020
624 Clouds 24 1011 83 0 1.79 290 19:20 02.07.2020
625 Clouds 24 1011 83 0 1.79 290 18:57 02.07.2020
626 Clouds 24 1011 83 0 1.79 290 18:38 02.07.2020
627 Clouds 24 1011 83 0 1.79 290 18:20 02.07.2020
628 Clouds 24 1011 83 0 1.79 290 17:39 02.07.2020
629 Clouds 24 1011 83 0 1.79 290 17:20 02.07.2020
630 Clouds 24 1011 83 0 1.79 290 16:56 02.07.2020
631 Clouds 24 1011 83 0 1.79 290 16:38 02.07.2020
632 Clouds 24 1011 83 0 1.79 290 16:19 02.07.2020
633 Clouds 24 1011 83 0 1.79 290 15:41 02.07.2020
634 Clouds 24 1011 83 10000 2.1 290 15:21 02.07.2020
635 Clouds 24 1011 83 10000 2.1 290 14:54 02.07.2020
636 Clouds 24 1011 83 10000 2.1 290 14:36 02.07.2020
637 Clouds 24 1011 83 10000 2.1 290 14:18 02.07.2020
638 Clouds 25 1010 73 10000 2.6 260 13:40 02.07.2020
639 Clouds 25 1010 73 10000 2.6 260 13:21 02.07.2020
640 Clouds 26 1009 69 10000 2.6 240 12:59 02.07.2020
641 Clouds 26 1009 69 10000 2.6 240 12:39 02.07.2020
642 Clouds 26 1009 69 10000 2.6 240 12:21 02.07.2020
643 Clouds 27 1009 65 10000 2.6 260 11:44 02.07.2020
644 Clouds 27 1009 65 10000 2.6 260 11:26 02.07.2020
645 Clouds 27 1009 65 10000 3.6 340 10:50 02.07.2020
646 Clouds 27 1009 65 10000 3.6 340 10:29 02.07.2020
647 Clouds 29 1009 54 10000 2.6 300 09:59 02.07.2020
648 Clouds 29 1009 54 10000 2.6 300 09:41 02.07.2020
649 Clouds 29 1009 54 10000 2.6 300 09:21 02.07.2020
650 Clouds 29 1009 51 10000 1.5 200 08:56 02.07.2020
651 Clouds 29 1009 51 10000 1.5 200 08:37 02.07.2020
652 Clouds 29 1009 51 10000 1.5 200 08:18 02.07.2020
653 Clouds 29 1009 62 10000 2.1 220 07:41 02.07.2020
654 Clouds 29 1009 62 10000 2.1 220 07:20 02.07.2020
655 Clouds 28 1010 61 10000 1.5 280 06:41 02.07.2020
656 Clouds 28 1010 61 10000 1.5 280 06:20 02.07.2020
657 Clouds 27 1010 57 10000 2.6 280 05:45 02.07.2020
658 Clouds 26 1010 74 10000 2.6 0 04:21 02.07.2020
659 Clouds 24 1010 78 10000 1.5 0 03:32 02.07.2020
660 Clouds 21 1010 94 10000 2.1 150 01:23 02.07.2020
661 Clouds 21 1010 94 10000 2.1 150 00:25 02.07.2020
662 Clouds 20 1010 94 10000 1.5 150 23:51 01.07.2020
663 Clouds 20 1009 93 0 1.34 150 23:30 01.07.2020
664 Clouds 21 1008 83 0 1.79 310 22:57 01.07.2020
665 Clouds 21 1008 83 0 1.79 310 22:38 01.07.2020
666 Clouds 21 1008 83 0 1.79 310 22:19 01.07.2020
667 Clouds 21 1008 83 0 1.79 310 21:58 01.07.2020
668 Clouds 21 1008 83 0 1.79 310 21:40 01.07.2020
669 Clear 21 1008 83 0 1.79 310 21:22 01.07.2020
670 Clear 21 1008 83 0 1.79 310 20:57 01.07.2020
671 Clear 21 1008 83 0 1.79 310 20:39 01.07.2020
672 Clouds 21 1008 83 0 1.79 310 20:20 01.07.2020
673 Clouds 21 1008 83 0 1.79 310 19:43 01.07.2020
674 Clouds 21 1008 83 0 1.79 310 19:24 01.07.2020
675 Clouds 21 1008 83 0 1.79 310 18:59 01.07.2020
676 Clouds 21 1008 83 0 1.79 310 18:40 01.07.2020
677 Clouds 21 1008 83 0 1.79 310 18:21 01.07.2020
678 Clouds 21 1008 83 0 1.79 310 17:56 01.07.2020
679 Clouds 21 1008 83 0 1.79 310 17:38 01.07.2020
680 Clear 21 1008 83 0 1.79 310 17:18 01.07.2020
681 Clear 21 1008 83 0 1.79 310 16:44 01.07.2020
682 Clear 21 1008 83 0 1.79 310 16:26 01.07.2020
683 Clear 21 1008 83 0 1.79 310 15:43 01.07.2020
684 Clouds 21 1008 83 10000 2.1 310 15:25 01.07.2020
685 Clouds 21 1008 83 10000 2.1 310 14:59 01.07.2020
686 Clouds 21 1008 83 10000 2.1 310 14:41 01.07.2020
687 Clouds 21 1008 83 10000 2.1 310 14:21 01.07.2020
688 Clouds 22 1007 78 10000 2.6 310 13:56 01.07.2020
689 Clouds 22 1007 78 10000 2.6 310 13:37 01.07.2020
690 Clouds 22 1007 78 10000 2.6 310 13:19 01.07.2020
691 Clouds 23 1006 73 10000 1.5 330 12:54 01.07.2020
692 Clouds 23 1006 73 10000 1.5 330 12:36 01.07.2020
693 Clouds 23 1006 73 10000 1.5 330 12:18 01.07.2020
694 Clouds 24 1006 64 10000 2.1 290 11:40 01.07.2020
695 Clouds 24 1006 64 10000 2.1 290 11:21 01.07.2020
696 Clouds 24 1005 64 10000 4.1 310 10:57 01.07.2020
697 Clouds 24 1005 64 10000 4.1 310 10:57 01.07.2020
698 Clouds 24 1005 64 10000 4.1 310 10:39 01.07.2020
699 Clouds 24 1005 64 10000 4.1 310 10:20 01.07.2020
700 Clouds 25 1004 65 10000 6.7 340 09:39 01.07.2020
701 Clouds 25 1004 65 10000 6.7 340 09:20 01.07.2020
702 Clouds 25 1004 65 10000 6.2 340 08:59 01.07.2020
703 Clouds 25 1004 65 10000 6.2 340 08:40 01.07.2020
704 Clouds 25 1004 65 10000 6.2 340 08:19 01.07.2020
705 Clouds 26 1004 65 10000 3.1 280 07:41 01.07.2020
706 Clouds 26 1004 65 10000 3.1 280 07:23 01.07.2020
707 Clouds 25 1004 69 10000 3.6 280 06:55 01.07.2020
708 Clouds 25 1004 69 10000 3.6 280 06:32 01.07.2020
709 Rain 24 1004 73 10000 4.1 270 05:44 01.07.2020
710 Clouds 24 1004 78 10000 4.1 260 04:26 01.07.2020
711 Clouds 25 1003 69 10000 3.6 260 03:40 01.07.2020
712 Clouds 25 1003 69 10000 3.6 260 03:20 01.07.2020
713 Clouds 23 1003 78 10000 3.6 260 01:56 01.07.2020
714 Clouds 23 1003 78 10000 2.1 0 00:48 01.07.2020
715 Clouds 23 1003 78 10000 2.1 0 00:27 01.07.2020
716 Clouds 23 1003 78 10000 1 0 23:57 30.06.2020
717 Clouds 22 1003 81 0 4.28 263 23:39 30.06.2020
718 Clouds 21 1003 84 0 4.76 263 23:19 30.06.2020
719 Clouds 21 1003 84 0 4.76 263 22:42 30.06.2020
720 Clouds 23 1001 78 0 2.24 200 22:19 30.06.2020
721 Clouds 23 1001 78 0 2.24 200 21:41 30.06.2020
722 Clouds 23 1001 78 0 2.24 200 21:19 30.06.2020
723 Rain 23 1001 78 0 2.24 200 20:57 30.06.2020
724 Rain 23 1001 78 0 2.24 200 20:39 30.06.2020
725 Clouds 23 1001 78 0 2.24 200 20:20 30.06.2020
726 Clouds 23 1001 78 0 2.24 200 19:43 30.06.2020
727 Clouds 23 1001 78 0 2.24 200 19:20 30.06.2020
728 Clouds 23 1001 78 0 2.24 200 18:54 30.06.2020
729 Clouds 23 1001 78 0 2.24 200 18:36 30.06.2020
730 Clouds 23 1001 78 0 2.24 200 18:18 30.06.2020
731 Clouds 23 1001 78 0 2.24 200 17:38 30.06.2020
732 Clouds 23 1001 78 0 2.24 200 17:19 30.06.2020
733 Clouds 23 1001 78 0 2.24 200 16:55 30.06.2020
734 Clouds 23 1001 78 0 2.24 200 16:36 30.06.2020
735 Clouds 23 1001 78 0 2.24 200 16:18 30.06.2020
736 Clouds 23 1001 78 0 2.24 200 15:41 30.06.2020
737 Clouds 23 1001 78 10000 2.6 200 15:22 30.06.2020
738 Clouds 23 1001 78 10000 2.6 200 14:56 30.06.2020
739 Clouds 23 1001 78 10000 2.6 200 14:38 30.06.2020
740 Clouds 23 1001 78 10000 2.6 200 14:18 30.06.2020
741 Clouds 23 1001 83 10000 2.1 0 13:41 30.06.2020
742 Clouds 23 1001 83 10000 2.1 0 13:20 30.06.2020
743 Clouds 23 1000 83 10000 2.6 0 12:58 30.06.2020
744 Clouds 23 1000 83 10000 2.6 0 12:40 30.06.2020
745 Clouds 23 1000 83 10000 2.6 0 12:21 30.06.2020
746 Clouds 24 999 78 10000 1.5 0 11:58 30.06.2020
747 Clouds 24 999 78 10000 1.5 0 11:58 30.06.2020
748 Clouds 24 999 78 10000 1.5 0 11:39 30.06.2020
749 Clouds 24 999 78 10000 1.5 0 11:19 30.06.2020
750 Clouds 24 999 83 10000 1 0 10:58 30.06.2020
751 Clouds 24 1006 88 10000 1.5 330 16:39 28.06.2020
752 Clouds 24 1006 88 10000 1.5 330 16:39 28.06.2020
753 Clouds 24 1006 88 10000 1.5 330 16:20 28.06.2020
754 Clouds 24 1006 94 10000 2.6 290 15:56 28.06.2020
755 Clouds 25 1006 88 10000 3.6 340 15:37 28.06.2020
756 Clouds 25 1006 88 10000 3.6 340 15:18 28.06.2020
757 Clouds 25 1006 88 10000 3.6 340 14:44 28.06.2020
758 Clouds 25 1006 88 10000 3.6 340 14:25 28.06.2020
759 Clouds 25 1005 83 10000 4.1 360 13:57 28.06.2020
760 Clouds 25 1005 83 10000 4.1 360 13:37 28.06.2020
761 Clouds 25 1005 83 10000 4.1 360 13:18 28.06.2020
762 Clouds 26 1005 74 10000 3.6 310 12:55 28.06.2020
763 Clouds 26 1005 74 10000 3.6 310 12:37 28.06.2020
764 Clouds 26 1005 74 10000 3.6 310 12:18 28.06.2020
765 Clouds 27 1004 78 10000 4.1 340 11:55 28.06.2020
766 Clouds 27 1004 78 10000 4.1 340 11:37 28.06.2020
767 Clouds 27 1004 78 10000 4.1 340 11:37 28.06.2020
768 Clouds 27 1004 78 10000 4.1 340 11:19 28.06.2020
769 Clouds 28 1003 74 10000 5.1 340 10:41 28.06.2020
770 Clouds 28 1003 74 10000 5.1 340 10:23 28.06.2020
771 Clouds 30 1003 70 10000 4.6 310 09:43 28.06.2020
772 Clouds 30 1003 70 10000 4.6 310 09:24 28.06.2020
773 Clouds 29 1003 70 10000 5.1 320 08:58 28.06.2020
774 Clouds 29 1003 70 10000 5.1 320 08:40 28.06.2020
775 Clouds 29 1003 70 10000 5.1 320 08:21 28.06.2020
776 Clouds 30 1003 70 10000 6.2 330 07:39 28.06.2020
777 Clouds 30 1003 66 10000 5.1 310 06:58 28.06.2020
778 Clouds 30 1003 66 10000 5.1 310 06:32 28.06.2020
779 Clouds 30 1003 62 10000 5.1 310 05:54 28.06.2020
780 Clouds 29 1003 70 10000 5.7 340 04:36 28.06.2020
781 Clouds 27 1003 83 10000 3.1 270 03:18 28.06.2020
782 Clouds 26 1002 83 10000 2.6 340 02:22 28.06.2020
783 Clouds 26 1002 83 10000 5.1 350 01:45 28.06.2020
784 Clouds 25 1001 88 10000 4.1 340 00:57 28.06.2020
785 Clouds 25 1001 88 10000 4.1 340 00:30 28.06.2020
786 Clouds 25 1001 94 10000 3.6 310 23:58 27.06.2020
787 Clouds 25 1001 94 0 3.58 310 23:39 27.06.2020
788 Clouds 25 1001 94 0 4.02 270 23:21 27.06.2020
789 Clouds 25 1001 94 0 4.02 270 22:42 27.06.2020
790 Rain 25 1001 94 0 4.02 270 22:23 27.06.2020
791 Rain 25 1001 94 0 4.02 270 21:59 27.06.2020
792 Rain 24 1001 94 0 2.33 346 21:40 27.06.2020
793 Clouds 23 1002 90 0 3.47 8 21:20 27.06.2020
794 Clouds 23 1002 90 0 3.47 8 20:55 27.06.2020
795 Clouds 23 1002 90 0 3.47 8 20:37 27.06.2020
796 Rain 24 1002 93 0 3.11 347 20:18 27.06.2020
797 Rain 24 1002 93 0 3.11 347 19:37 27.06.2020
798 Rain 24 1002 96 0 3.15 272 19:19 27.06.2020
799 Rain 24 1002 96 0 3.15 272 19:19 27.06.2020
800 Rain 24 1002 96 0 3.15 272 18:48 27.06.2020
801 Rain 25 1004 94 0 4.02 270 18:29 27.06.2020
802 -273 0 0 0 0 0 17:59 27.06.2020
803 Rain 24 1003 95 0 6.97 239 17:40 27.06.2020
804 Rain 25 1001 94 10000 5.7 230 17:20 27.06.2020
805 Rain 25 1001 94 0 4.02 270 16:57 27.06.2020
806 Rain 25 1001 94 0 4.02 270 16:38 27.06.2020
807 Rain 25 1001 94 0 4.02 270 16:18 27.06.2020
808 Rain 25 1001 94 10000 4.1 270 15:42 27.06.2020
809 Rain 25 1001 94 10000 4.1 270 15:23 27.06.2020
810 Rain 25 1001 94 10000 3.6 0 14:55 27.06.2020
811 Rain 25 1000 94 10000 5.1 200 14:37 27.06.2020
812 Rain 25 1000 94 10000 5.1 200 14:18 27.06.2020
813 Rain 25 1001 94 5000 7.2 120 13:39 27.06.2020
814 Rain 25 1001 94 5000 7.2 120 13:20 27.06.2020
815 Rain 25 1002 94 2000 6.2 110 12:58 27.06.2020
816 Rain 25 1003 94 10000 4.1 120 12:40 27.06.2020
817 Rain 25 1003 94 10000 4.1 120 12:21 27.06.2020
818 Rain 25 1004 94 10000 1.5 170 11:55 27.06.2020
819 Rain 25 1004 94 10000 1.5 170 11:37 27.06.2020
820 Rain 25 1004 94 10000 1.5 170 11:18 27.06.2020
821 Rain 25 1004 94 10000 1.5 170 11:18 27.06.2020
822 Rain 25 1004 94 3000 2.1 250 10:39 27.06.2020
823 Rain 25 1004 94 3000 2.1 250 10:19 27.06.2020
824 Clouds 26 1005 88 8000 2.6 0 09:42 27.06.2020
825 Thunderstorm 26 1004 94 6000 1.5 0 09:23 27.06.2020
826 Mist 26 1005 94 4000 2.1 0 08:59 27.06.2020
827 Rain 27 1005 88 10000 1.5 0 08:39 27.06.2020
828 Rain 27 1005 88 10000 1.5 0 08:21 27.06.2020
829 Clouds 27 1004 88 10000 2.1 0 07:45 27.06.2020
830 Clouds 27 1004 88 10000 2.1 0 07:24 27.06.2020
831 Clouds 28 1005 83 10000 2.1 220 06:46 27.06.2020
832 Clouds 28 1005 83 10000 2.1 220 06:27 27.06.2020
833 Clouds 26 1006 94 10000 1.5 0 04:23 27.06.2020
834 Clouds 26 1006 94 10000 1.5 0 03:52 27.06.2020
835 Rain 25 1006 88 10000 1.5 0 02:56 27.06.2020
836 Thunderstorm 25 1005 88 10000 1.5 0 02:34 27.06.2020
837 Thunderstorm 25 1006 94 2000 5.1 270 01:43 27.06.2020
838 Rain 27 1005 88 10000 6.2 210 00:57 27.06.2020
839 Rain 27 1005 88 10000 6.2 210 00:30 27.06.2020
840 Rain 27 1005 88 10000 9.3 210 23:44 26.06.2020
841 Rain 27 1005 88 0 8.94 210 23:25 26.06.2020
842 Rain 25 1009 83 0 1.34 200 22:56 26.06.2020
843 Rain 25 1009 83 0 1.34 200 22:38 26.06.2020
844 Rain 25 1010 83 0 1.34 200 22:19 26.06.2020
845 Rain 25 1010 83 0 1.34 200 21:57 26.06.2020
846 Rain 25 1010 83 0 1.34 200 21:37 26.06.2020
847 Rain 25 1010 83 0 1.34 200 21:19 26.06.2020
848 Rain 25 1009 83 0 1.34 200 20:43 26.06.2020
849 Rain 25 1010 83 0 1.34 200 20:20 26.06.2020
850 Rain 25 1010 83 0 1.34 200 19:44 26.06.2020
851 Rain 25 1009 83 0 1.34 200 19:23 26.06.2020
852 Rain 25 1009 83 0 1.34 200 18:57 26.06.2020
853 Rain 25 1009 83 0 1.34 200 18:37 26.06.2020
854 Rain 25 1009 83 0 1.34 200 18:18 26.06.2020
855 Rain 25 1009 83 0 1.34 200 17:43 26.06.2020
856 Rain 25 1010 83 0 1.34 200 17:24 26.06.2020
857 Rain 25 1009 83 0 1.34 200 16:49 26.06.2020
858 Clouds 25 1010 83 0 1.34 200 16:26 26.06.2020
859 Clouds 25 1010 83 0 1.34 200 15:55 26.06.2020
860 Clouds 25 1009 83 10000 1.5 200 15:37 26.06.2020
861 Clouds 25 1009 83 10000 1.5 200 15:18 26.06.2020
862 Clouds 25 1009 83 10000 1.5 200 14:41 26.06.2020
863 Clouds 25 1009 83 10000 1.5 200 14:22 26.06.2020
864 Clouds 25 1008 83 10000 0.5 0 13:59 26.06.2020
865 Clouds 25 1008 83 10000 0.5 0 13:41 26.06.2020
866 Clouds 25 1008 83 10000 0.5 0 13:18 26.06.2020
867 Clouds 25 1008 78 10000 1.5 240 12:41 26.06.2020
868 Clouds 25 1008 78 10000 1.5 240 12:23 26.06.2020
869 Clouds 26 1008 74 10000 2.6 260 11:59 26.06.2020
870 Clouds 26 1008 74 10000 2.6 260 11:39 26.06.2020
871 Clouds 27 1008 74 10000 2.6 260 11:21 26.06.2020
872 Clouds 27 1007 74 10000 2.6 0 10:58 26.06.2020
873 Clouds 27 1007 74 10000 2.6 0 10:38 26.06.2020
874 Clouds 27 1007 74 10000 2.6 0 10:19 26.06.2020
875 Clouds 28 1007 69 10000 4.6 260 09:44 26.06.2020
876 Clouds 28 1007 69 10000 4.6 260 09:25 26.06.2020
877 Clouds 27 1007 74 10000 2.6 290 08:57 26.06.2020
878 Clouds 27 1007 74 10000 2.6 290 08:29 26.06.2020
879 Clouds 27 1007 74 10000 3.1 360 07:53 26.06.2020
880 Clouds 27 1007 74 10000 3.1 360 07:25 26.06.2020
881 Clouds 27 1007 74 10000 3.6 350 06:59 26.06.2020
882 Clouds 27 1007 74 10000 3.6 350 06:41 26.06.2020
883 Clouds 27 1007 74 10000 3.6 350 06:23 26.06.2020
884 Clouds 26 1008 78 10000 4.6 340 05:48 26.06.2020
885 Clouds 25 1007 88 10000 5.7 330 03:55 26.06.2020
886 Clouds 24 1007 100 9000 4.1 330 02:22 26.06.2020
887 Rain 25 1007 94 10000 1.5 340 01:20 26.06.2020
888 Rain 25 1007 94 10000 0.5 0 00:41 26.06.2020
889 Rain 25 1007 94 10000 0.5 0 00:19 26.06.2020
890 Rain 25 1007 94 10000 0.5 0 23:42 25.06.2020
891 Rain 25 1007 94 0 4.3 235 23:18 25.06.2020
892 Rain 25 1007 94 0 4.3 235 22:56 25.06.2020
893 Rain 25 1007 94 0 4.3 235 22:37 25.06.2020
894 Rain 25 1006 91 0 4.34 222 22:18 25.06.2020
895 Rain 25 1006 91 0 4.34 222 21:56 25.06.2020
896 Rain 25 1006 91 0 4.34 222 21:56 25.06.2020
897 Rain 25 1006 91 0 4.34 222 21:38 25.06.2020
898 Rain 25 1007 95 0 2.42 228 21:19 25.06.2020
899 Rain 25 1007 95 0 2.42 228 21:19 25.06.2020
900 Rain 25 1007 95 0 2.42 228 20:44 25.06.2020
901 Rain 25 1006 94 0 3.39 230 20:23 25.06.2020
902 Rain 25 1006 94 0 3.39 230 19:58 25.06.2020
903 Rain 25 1006 94 0 3.39 230 19:39 25.06.2020
904 Rain 28 1005 83 0 4.92 210 19:19 25.06.2020
905 Rain 28 1005 83 0 4.92 210 18:55 25.06.2020
906 Rain 28 1005 83 0 4.92 210 18:55 25.06.2020
907 Rain 28 1008 83 0 4.92 210 18:36 25.06.2020
908 Rain 28 1008 83 0 4.92 210 18:18 25.06.2020
909 Rain 28 1005 83 0 4.92 210 17:39 25.06.2020
910 Clouds 28 1005 83 0 4.92 210 17:19 25.06.2020
911 Clouds 28 1005 83 0 4.92 210 16:42 25.06.2020
912 Rain 28 1005 83 0 4.92 210 16:22 25.06.2020
913 Rain 28 1005 83 0 4.92 210 15:59 25.06.2020
914 Rain 28 1005 83 0 4.92 210 15:40 25.06.2020
915 Clouds 28 1005 83 10000 5.1 210 15:19 25.06.2020
916 Clouds 28 1005 83 10000 5.1 210 14:43 25.06.2020
917 Clouds 28 1005 83 10000 5.1 210 14:23 25.06.2020
918 Clouds 28 1005 83 10000 5.1 220 13:56 25.06.2020
919 Clouds 28 1005 83 10000 5.1 220 13:37 25.06.2020
920 Clouds 28 1005 83 10000 5.1 220 13:19 25.06.2020
921 Clouds 28 1005 83 10000 6.2 210 12:44 25.06.2020
922 Clouds 28 1005 83 10000 6.2 210 12:20 25.06.2020
923 Clouds 28 1005 83 10000 6.2 200 11:45 25.06.2020
924 Clouds 28 1005 83 10000 6.2 200 11:25 25.06.2020
925 Clouds 29 1004 79 10000 6.2 200 10:59 25.06.2020
926 Clouds 29 1004 79 10000 6.2 200 10:40 25.06.2020
927 Clouds 29 1004 79 10000 6.2 200 10:22 25.06.2020
928 Clouds 29 1004 79 10000 7.2 210 09:41 25.06.2020
929 Clouds 29 1004 79 10000 7.2 210 09:41 25.06.2020
930 Clouds 29 1004 79 10000 7.2 210 09:23 25.06.2020
931 Clouds 30 1004 74 10000 6.7 210 08:47 25.06.2020
932 Clouds 30 1004 74 10000 6.7 210 08:20 25.06.2020
933 Clouds 30 1005 74 10000 8.2 210 07:46 25.06.2020
934 Clouds 30 1005 74 10000 8.2 210 07:28 25.06.2020
935 Rain 30 1004 79 10000 5.1 200 06:54 25.06.2020
936 Rain 30 1004 79 10000 5.1 200 06:27 25.06.2020
937 Rain 28 1005 83 10000 8.2 210 05:51 25.06.2020
938 Rain 29 1005 79 10000 7.2 200 04:29 25.06.2020
939 Rain 28 1005 83 10000 5.7 200 03:35 25.06.2020
940 Rain 27 1005 88 10000 7.7 210 02:43 25.06.2020
941 Rain 27 1005 88 7000 6.7 210 01:59 25.06.2020
942 Thunderstorm 27 1005 88 9000 7.7 200 01:26 25.06.2020
943 Thunderstorm 27 1005 88 10000 6.7 180 00:44 25.06.2020
944 Thunderstorm 26 1005 88 10000 6.7 180 00:21 25.06.2020
945 Thunderstorm 26 1005 88 8000 6.7 180 23:44 24.06.2020
946 Rain 26 1004 88 0 6.71 180 23:26 24.06.2020
947 Rain 24 1007 83 0 1.79 190 22:59 24.06.2020
948 Rain 24 1007 83 0 1.79 190 22:59 24.06.2020
949 Rain 24 1007 83 0 1.79 190 22:41 24.06.2020
950 Rain 24 1007 83 0 1.79 190 22:20 24.06.2020
951 Rain 24 1007 83 0 1.79 190 21:56 24.06.2020
952 Rain 24 1007 83 0 1.79 190 21:37 24.06.2020
953 Rain 24 1007 83 0 1.79 190 21:18 24.06.2020
954 Rain 24 1007 83 0 1.79 190 20:58 24.06.2020
955 Rain 24 1007 83 0 1.79 190 20:39 24.06.2020
956 Rain 24 1007 83 0 1.79 190 20:20 24.06.2020
957 Rain 24 1007 83 0 1.79 190 19:57 24.06.2020
958 Rain 24 1007 83 0 1.79 190 19:37 24.06.2020
959 Rain 24 1007 83 0 1.79 190 19:18 24.06.2020
960 Rain 24 1007 83 0 1.79 190 18:58 24.06.2020
961 Rain 24 1007 83 0 1.79 190 18:39 24.06.2020
962 Rain 24 1007 83 0 1.79 190 18:20 24.06.2020
963 Rain 24 1007 83 0 1.79 190 17:44 24.06.2020
964 Clouds 24 1007 83 0 1.79 190 17:21 24.06.2020
965 Clouds 24 1007 83 0 1.79 190 16:59 24.06.2020
966 Clouds 24 1007 83 0 1.79 190 16:41 24.06.2020
967 Clouds 24 1007 83 0 1.79 190 16:22 24.06.2020
968 Rain 24 1007 83 6000 2.1 190 15:59 24.06.2020
969 Rain 24 1007 83 6000 2.1 190 15:39 24.06.2020
970 Rain 24 1007 83 6000 2.1 190 15:20 24.06.2020
971 Rain 24 1007 78 3000 4.1 190 14:54 24.06.2020
972 Rain 25 1006 83 10000 1.5 60 14:36 24.06.2020
973 Rain 25 1006 83 10000 1.5 60 14:18 24.06.2020
974 Clouds 27 1006 65 10000 1 0 13:42 24.06.2020
975 Clouds 27 1006 65 10000 1 0 13:21 24.06.2020
976 Clouds 27 1005 69 10000 1.5 210 12:42 24.06.2020
977 Clouds 27 1005 69 10000 1.5 210 12:21 24.06.2020
978 Clouds 27 1005 69 10000 2.1 220 11:57 24.06.2020
979 Clouds 27 1005 69 10000 2.1 220 11:39 24.06.2020
980 Clouds 27 1005 69 10000 2.1 220 11:21 24.06.2020
981 Clouds 28 1005 69 10000 3.1 0 10:45 24.06.2020
982 Clouds 28 1005 69 10000 3.1 0 10:19 24.06.2020
983 Clouds 28 1005 65 10000 4.1 270 09:46 24.06.2020
984 Clouds 28 1005 65 10000 4.1 270 09:24 24.06.2020
985 Clouds 29 1006 62 10000 2.1 0 08:59 24.06.2020
986 Clouds 29 1006 62 10000 2.1 0 08:39 24.06.2020
987 Clouds 29 1006 62 10000 2.1 0 08:18 24.06.2020
988 Clouds 28 1006 65 10000 6.7 260 07:44 24.06.2020
989 Clouds 28 1006 65 10000 6.7 260 07:24 24.06.2020
990 Clouds 31 1006 52 10000 5.7 140 06:44 24.06.2020
991 Clouds 31 1006 52 10000 5.7 140 06:24 24.06.2020
992 Clouds 30 1006 51 10000 4.6 130 05:38 24.06.2020
993 Clouds 30 1007 51 10000 4.6 150 04:38 24.06.2020
994 Clouds 29 1007 51 10000 6.7 140 03:38 24.06.2020
995 Clear 27 1008 65 10000 2.1 130 02:53 24.06.2020
996 Clouds 27 1008 65 10000 2.1 130 02:18 24.06.2020
997 Clouds 24 1008 78 10000 0.5 0 00:51 24.06.2020
998 Clouds 24 1008 78 10000 0.5 0 00:33 24.06.2020
999 Clouds 25 1009 69 0 1.79 320 23:48 23.06.2020
1000 Clouds 25 1009 69 0 1.79 320 23:21 23.06.2020
1001 Clouds 25 1009 69 0 1.79 320 22:58 23.06.2020
1002 Clouds 25 1009 69 0 1.79 320 22:40 23.06.2020
1003 Clouds 25 1009 69 0 1.79 320 22:18 23.06.2020
1004 Clouds 25 1009 69 0 1.79 320 22:18 23.06.2020
1005 Clouds 25 1009 69 0 1.79 320 21:42 23.06.2020
1006 Clouds 25 1009 69 0 1.79 320 21:20 23.06.2020
1007 Clouds 25 1009 69 0 1.79 320 20:57 23.06.2020
1008 Clouds 25 1009 69 0 1.79 320 20:39 23.06.2020
1009 Clouds 25 1009 69 0 1.79 320 20:19 23.06.2020
1010 Clouds 25 1009 69 0 1.79 320 19:57 23.06.2020
1011 Clouds 25 1009 69 0 1.79 320 19:38 23.06.2020
1012 Clouds 25 1009 69 0 1.79 320 19:20 23.06.2020
1013 Clouds 25 1009 69 0 1.79 320 18:38 23.06.2020
1014 Clouds 25 1009 69 0 1.79 320 18:18 23.06.2020
1015 Clouds 25 1009 69 0 1.79 320 17:40 23.06.2020
1016 Clouds 25 1009 69 0 1.79 320 17:22 23.06.2020
1017 Clouds 25 1009 69 0 1.79 320 16:57 23.06.2020
1018 Clouds 25 1009 69 0 1.79 320 16:38 23.06.2020
1019 Clouds 25 1009 69 0 1.79 320 16:20 23.06.2020
1020 Clouds 25 1009 69 0 1.79 320 15:55 23.06.2020
1021 Clouds 25 1009 69 10000 2.1 320 15:37 23.06.2020
1022 Clouds 25 1009 69 10000 2.1 320 15:18 23.06.2020
1023 Clouds 25 1009 69 10000 2.1 320 14:42 23.06.2020
1024 Clouds 25 1009 69 10000 1.5 240 14:19 23.06.2020
1025 Clouds 26 1009 69 10000 1.5 240 13:56 23.06.2020
1026 Clouds 26 1009 69 10000 1.5 240 13:38 23.06.2020
1027 Clouds 26 1008 74 10000 1.5 310 13:20 23.06.2020
1028 Clouds 26 1008 74 10000 1.5 310 12:41 23.06.2020
1029 Clouds 26 1008 74 10000 1.5 310 12:22 23.06.2020
1030 Clouds 28 1008 65 10000 4.1 330 11:55 23.06.2020
1031 Clouds 28 1008 65 10000 4.1 330 11:37 23.06.2020
1032 Clouds 28 1008 65 10000 4.1 330 11:19 23.06.2020
1033 Clouds 29 1008 62 10000 3.6 260 10:41 23.06.2020
1034 Clouds 29 1008 62 10000 3.6 260 10:22 23.06.2020
1035 Clouds 30 1007 62 10000 4.1 260 09:59 23.06.2020
1036 Clouds 30 1007 62 10000 4.1 260 09:41 23.06.2020
1037 Clouds 30 1007 62 10000 4.1 260 09:20 23.06.2020
1038 Clouds 32 1008 52 10000 3.1 260 08:47 23.06.2020
1039 Clouds 30 1007 58 10000 3.6 250 08:28 23.06.2020
1040 Clouds 31 1008 55 10000 4.1 280 07:58 23.06.2020
1041 Clouds 31 1008 55 10000 4.1 280 07:39 23.06.2020
1042 Clouds 31 1008 52 10000 2.1 0 07:21 23.06.2020
1043 Clouds 31 1008 52 10000 2.1 0 06:47 23.06.2020
1044 Clouds 31 1008 52 10000 2.1 0 06:29 23.06.2020
1045 Clouds 30 1008 55 10000 2.6 270 05:39 23.06.2020
1046 Clouds 27 1009 57 10000 1.5 0 03:29 23.06.2020
1047 Clouds 25 1009 69 10000 2.1 160 02:54 23.06.2020
1048 Clouds 25 1009 69 10000 2.1 160 02:35 23.06.2020
1049 Clear 23 1009 83 10000 1.5 150 01:46 23.06.2020
1050 Clear 23 1009 83 10000 1.5 150 01:28 23.06.2020
1051 Clear 23 1010 83 10000 0.5 0 00:53 23.06.2020
1052 Clear 23 1010 83 10000 0.5 0 00:22 23.06.2020
1053 Clear 22 1010 88 10000 0.5 0 23:55 22.06.2020
1054 Clear 22 1010 88 10000 0.5 0 23:55 22.06.2020
1055 Clear 22 1010 88 10000 0.5 0 23:55 22.06.2020
1056 Clear 22 1010 88 0 1.39 9 23:37 22.06.2020
1057 Clear 23 1009 72 0 1.52 34 23:18 22.06.2020
1058 Clear 23 1009 72 0 1.52 34 22:55 22.06.2020
1059 Clear 23 1009 72 0 1.52 34 22:37 22.06.2020
1060 Clear 22 1009 72 0 1.76 58 22:18 22.06.2020
1061 Clear 22 1009 72 0 1.76 58 21:54 22.06.2020
1062 Clear 22 1009 72 0 1.76 58 21:36 22.06.2020
1063 Clear 22 1009 72 0 1.76 58 21:36 22.06.2020
1064 Clear 22 1009 72 0 2 56 21:18 22.06.2020
1065 Clear 22 1009 72 0 2 56 20:41 22.06.2020
1066 Clear 22 1010 72 0 2.04 45 20:21 22.06.2020
1067 Clear 22 1010 72 0 2.04 45 19:44 22.06.2020
1068 Clear 23 1010 72 0 1.8 26 19:20 22.06.2020
1069 Clear 23 1010 72 0 1.8 26 18:59 22.06.2020
1070 Clear 23 1010 72 0 1.8 26 18:39 22.06.2020
1071 Clear 23 1010 71 0 1.59 18 18:21 22.06.2020
1072 Clear 23 1010 71 0 1.59 18 17:56 22.06.2020
1073 Clouds 24 1010 73 10000 2.6 290 17:37 22.06.2020
1074 Clouds 24 1010 73 10000 2.6 290 17:19 22.06.2020
1075 Clouds 24 1010 73 10000 2.6 290 16:43 22.06.2020
1076 Clouds 24 1010 73 10000 2.6 290 16:24 22.06.2020
1077 Clouds 24 1010 83 10000 3.6 290 15:59 22.06.2020
1078 Clouds 24 1010 83 10000 3.6 290 15:40 22.06.2020
1079 Clouds 25 1009 65 10000 4.6 340 15:22 22.06.2020
1080 Clouds 25 1009 65 10000 4.6 340 14:41 22.06.2020
1081 Clouds 25 1009 65 10000 4.6 340 14:22 22.06.2020
1082 Clouds 24 1009 78 10000 2.6 330 13:59 22.06.2020
1083 Clouds 24 1009 78 10000 2.6 330 13:39 22.06.2020
1084 Clouds 24 1009 78 10000 2.6 330 13:21 22.06.2020
1085 Clouds 26 1008 57 10000 2.6 290 12:44 22.06.2020
1086 Clouds 26 1008 57 10000 2.6 290 12:24 22.06.2020
1087 Clouds 27 1007 54 10000 2.6 290 11:59 22.06.2020
1088 Clouds 27 1007 54 10000 2.6 290 11:37 22.06.2020
1089 Clouds 27 1007 54 10000 2.6 290 11:19 22.06.2020
1090 Clouds 28 1007 54 10000 4.1 270 10:55 22.06.2020
1091 Clouds 28 1007 54 10000 4.1 270 10:36 22.06.2020
1092 Clouds 28 1007 54 10000 4.1 270 10:18 22.06.2020
1093 Clouds 29 1007 58 10000 3.6 280 09:55 22.06.2020
1094 Clouds 29 1007 58 10000 3.6 280 09:36 22.06.2020
1095 Clouds 29 1007 58 10000 3.6 280 09:18 22.06.2020
1096 Clouds 30 1007 58 10000 3.6 280 08:40 22.06.2020
1097 Clouds 30 1007 58 10000 3.6 280 08:21 22.06.2020
1098 Clouds 29 1007 58 10000 3.6 250 07:53 22.06.2020
1099 Clouds 29 1007 58 10000 3.6 250 07:33 22.06.2020
1100 Clouds 29 1007 51 10000 5.1 140 06:47 22.06.2020
1101 Clouds 29 1007 51 10000 5.1 140 06:27 22.06.2020
1102 Clouds 28 1007 54 10000 3.1 190 05:58 22.06.2020
1103 Clouds 28 1007 54 10000 3.1 190 05:30 22.06.2020
1104 Clouds 24 1008 73 10000 1 0 02:56 22.06.2020
1105 Clouds 22 1008 83 10000 1 0 01:34 22.06.2020
1106 Clouds 20 1007 88 10000 0.5 0 00:41 22.06.2020
1107 Clouds 19 1007 93 10000 1.5 100 23:59 21.06.2020
1108 Clouds 19 1007 93 10000 1.5 100 23:59 21.06.2020
1109 Clouds 19 1007 93 10000 1.5 100 23:40 21.06.2020
1110 Clouds 20 1007 93 10000 1.5 100 23:21 21.06.2020
1111 Clear 22 1007 83 0 1.79 50 22:57 21.06.2020
1112 Clear 22 1007 83 0 1.79 50 22:38 21.06.2020
1113 Clear 22 1007 83 0 1.79 50 22:19 21.06.2020
1114 Clear 22 1007 83 0 1.79 50 21:58 21.06.2020
1115 Clear 22 1007 83 0 1.79 50 21:40 21.06.2020
1116 Clear 22 1007 83 0 1.79 50 21:21 21.06.2020
1117 Clear 22 1007 83 0 1.79 50 20:59 21.06.2020
1118 Clear 22 1007 83 0 1.79 50 20:38 21.06.2020
1119 Clear 22 1007 83 0 1.79 50 20:19 21.06.2020
1120 Clear 22 1007 83 0 1.79 50 19:56 21.06.2020
1121 Clear 22 1007 83 0 1.79 50 19:38 21.06.2020
1122 Clear 22 1007 83 0 1.79 50 19:19 21.06.2020
1123 Clear 22 1007 83 0 1.79 50 18:40 21.06.2020
1124 Clear 22 1007 83 0 1.79 50 18:22 21.06.2020
1125 Clear 22 1007 83 0 1.79 50 17:59 21.06.2020
1126 Clear 22 1007 83 0 1.79 50 17:39 21.06.2020
1127 Clear 22 1007 83 0 1.79 50 17:20 21.06.2020
1128 Clear 22 1007 83 0 1.79 50 16:43 21.06.2020
1129 Clear 22 1007 83 0 1.79 50 16:23 21.06.2020
1130 Clear 22 1007 83 0 1.79 50 15:57 21.06.2020
1131 Clouds 22 1007 83 10000 2.1 50 15:37 21.06.2020
1132 Clouds 22 1007 83 10000 2.1 50 15:19 21.06.2020
1133 Clouds 22 1007 83 10000 2.1 50 14:39 21.06.2020
1134 Clouds 22 1007 83 10000 2.1 50 14:20 21.06.2020
1135 Clouds 23 1006 78 10000 1 290 13:57 21.06.2020
1136 Clouds 23 1006 78 10000 1 290 13:39 21.06.2020
1137 Clouds 23 1006 78 10000 1 290 13:19 21.06.2020
1138 Clouds 24 1005 73 10000 1.5 300 12:44 21.06.2020
1139 Clouds 24 1005 73 10000 1.5 300 12:26 21.06.2020
1140 Clouds 25 1004 65 10000 1 0 11:58 21.06.2020
1141 Clouds 25 1004 65 10000 1 0 11:40 21.06.2020
1142 Clouds 25 1004 65 10000 1 0 11:40 21.06.2020
1143 Clouds 25 1004 65 10000 1 0 11:22 21.06.2020
1144 Clouds 25 1004 65 10000 2.6 270 10:56 21.06.2020
1145 Clouds 25 1004 65 10000 2.6 270 10:38 21.06.2020
1146 Clouds 25 1005 61 10000 2.1 240 10:20 21.06.2020
1147 Clouds 26 1005 61 10000 2.1 240 09:41 21.06.2020
1148 Clouds 26 1005 61 10000 2.1 240 09:19 21.06.2020
1149 Clouds 25 1005 65 10000 2.6 290 08:56 21.06.2020
1150 Clouds 25 1005 65 10000 2.6 290 08:38 21.06.2020
1151 Clouds 25 1005 65 10000 2.6 290 08:19 21.06.2020
1152 Clouds 25 1005 61 10000 2.6 270 07:41 21.06.2020
1153 Clouds 25 1005 61 10000 2.6 270 07:23 21.06.2020
1154 Rain 24 1005 64 10000 1.5 210 06:49 21.06.2020
1155 Rain 24 1005 64 10000 1.5 210 06:18 21.06.2020
1156 Clouds 24 1005 73 10000 2.1 280 05:54 21.06.2020
1157 Clouds 22 1006 83 10000 1.5 240 03:40 21.06.2020
1158 Clouds 22 1006 83 10000 1.5 240 03:18 21.06.2020
1159 Clouds 22 1006 88 10000 1.5 100 02:20 21.06.2020
1160 Clouds 21 1006 94 10000 1 220 01:32 21.06.2020
1161 Clouds 21 1006 94 10000 0.5 170 00:56 21.06.2020
1162 Clouds 21 1006 94 10000 0.5 170 00:38 21.06.2020
1163 Clouds 21 1006 94 10000 0.5 170 00:19 21.06.2020
1164 Clouds 20 1006 100 10000 0.5 0 23:44 20.06.2020
1165 Clouds 21 1006 100 10000 0.5 0 23:22 20.06.2020
1166 Clouds 22 1008 88 0 1.79 310 22:56 20.06.2020
1167 Clouds 22 1008 88 0 1.79 310 22:38 20.06.2020
1168 Clouds 22 1008 88 0 1.79 310 22:18 20.06.2020
1169 Clouds 22 1008 88 0 1.79 310 21:56 20.06.2020
1170 Clouds 22 1008 88 0 1.79 310 21:38 20.06.2020
1171 Clouds 22 1008 88 0 1.79 310 21:19 20.06.2020
1172 Clouds 22 1008 88 0 1.79 310 20:56 20.06.2020
1173 Clouds 22 1008 88 0 1.79 310 20:38 20.06.2020
1174 Clouds 22 1008 88 0 1.79 310 20:19 20.06.2020
1175 Clouds 22 1008 88 0 1.79 310 19:43 20.06.2020
1176 Clouds 22 1008 88 0 1.79 310 19:23 20.06.2020
1177 Clouds 22 1008 88 0 1.79 310 18:55 20.06.2020
1178 Clouds 22 1008 88 0 1.79 310 18:37 20.06.2020
1179 Clouds 22 1008 88 0 1.79 310 18:37 20.06.2020
1180 Clouds 22 1008 88 0 1.79 310 18:19 20.06.2020
1181 Clouds 22 1008 88 0 1.79 310 17:56 20.06.2020
1182 Clouds 22 1008 88 0 1.79 310 17:37 20.06.2020
1183 Clouds 22 1008 88 0 1.79 310 17:18 20.06.2020
1184 Clouds 22 1008 88 0 1.79 310 16:40 20.06.2020
1185 Clouds 22 1008 88 0 1.79 310 16:19 20.06.2020
1186 Clouds 22 1008 88 0 1.79 310 16:19 20.06.2020
1187 Clouds 22 1008 88 0 1.79 310 15:55 20.06.2020
1188 Clouds 22 1008 88 10000 2.1 310 15:37 20.06.2020
1189 Clouds 22 1008 88 10000 2.1 310 15:18 20.06.2020
1190 Clouds 22 1008 88 10000 2.1 310 14:42 20.06.2020
1191 Clouds 22 1008 88 10000 2.1 310 14:19 20.06.2020
1192 Clouds 23 1008 83 10000 2.6 310 13:41 20.06.2020
1193 Clouds 23 1008 83 10000 2.6 310 13:20 20.06.2020
1194 Clouds 24 1008 78 10000 4.1 330 12:55 20.06.2020
1195 Clouds 24 1008 78 10000 4.1 330 12:55 20.06.2020
1196 Clouds 24 1008 78 10000 4.1 330 12:37 20.06.2020
1197 Clouds 24 1008 78 10000 4.1 330 12:18 20.06.2020
1198 Clouds 25 1007 65 10000 2.6 260 11:39 20.06.2020
1199 Clouds 25 1007 65 10000 2.6 260 11:20 20.06.2020
1200 Clouds 27 1007 57 10000 3.6 260 10:57 20.06.2020
1201 Clouds 27 1007 57 10000 3.6 260 10:38 20.06.2020
1202 Clouds 27 1007 57 10000 3.6 260 10:38 20.06.2020
1203 Clouds 27 1007 57 10000 3.6 260 10:18 20.06.2020
1204 Clouds 26 1007 57 10000 3.1 280 09:41 20.06.2020
1205 Clouds 26 1007 57 10000 3.1 280 09:23 20.06.2020
1206 Clouds 27 1008 57 10000 2.1 180 08:57 20.06.2020
1207 Clouds 27 1008 57 10000 2.1 180 08:38 20.06.2020
1208 Clouds 27 1008 57 10000 2.1 180 08:20 20.06.2020
1209 Clouds 26 1008 61 10000 4.6 140 07:50 20.06.2020
1210 Clouds 26 1008 61 10000 4.6 140 07:25 20.06.2020
1211 Clouds 26 1008 61 10000 4.6 140 07:25 20.06.2020
1212 Clouds 25 1008 61 10000 2.1 200 06:40 20.06.2020
1213 Clouds 25 1009 61 10000 5.7 330 06:18 20.06.2020
1214 Clouds 26 1009 61 10000 5.7 330 05:47 20.06.2020
1215 Clouds 23 1009 64 10000 2.6 150 03:22 20.06.2020
1216 Clouds 21 1009 77 10000 6.7 340 01:53 20.06.2020
1217 Clouds 21 1009 77 10000 6.7 340 01:35 20.06.2020
1218 Clouds 21 1009 77 10000 7.2 350 00:40 20.06.2020
1219 Clouds 21 1009 77 10000 7.2 350 00:19 20.06.2020
1220 Clouds 21 1007 83 0 4.02 10 23:40 19.06.2020
1221 Clouds 21 1007 83 0 4.02 10 23:19 19.06.2020
1222 Clouds 21 1007 83 0 4.02 10 22:54 19.06.2020
1223 Clouds 21 1007 83 0 4.02 10 22:36 19.06.2020
1224 Clouds 21 1007 83 0 4.02 10 22:18 19.06.2020
1225 Clouds 21 1007 83 0 4.02 10 21:40 19.06.2020
1226 Clouds 19 1009 78 0 3.16 18 21:19 19.06.2020
1227 Clouds 19 1009 75 0 2.81 13 20:59 19.06.2020
1228 Clouds 19 1009 75 0 2.81 13 20:40 19.06.2020
1229 Clouds 19 1008 75 0 3.11 7 20:21 19.06.2020
1230 Clouds 19 1008 75 0 3.11 7 20:21 19.06.2020
1231 Clouds 19 1008 75 0 3.11 7 19:59 19.06.2020
1232 Clouds 19 1008 75 0 3.11 7 19:41 19.06.2020
1233 Clouds 20 1008 75 0 3.18 13 19:23 19.06.2020
1234 Clouds 20 1008 75 0 3.18 13 18:57 19.06.2020
1235 Clouds 20 1008 75 0 3.18 13 18:38 19.06.2020
1236 Clouds 21 1007 83 0 4.02 10 18:20 19.06.2020
1237 Clouds 21 1007 83 0 4.02 10 17:41 19.06.2020
1238 Clouds 21 1007 83 0 4.02 10 17:23 19.06.2020
1239 Clouds 21 1007 83 0 4.02 10 16:57 19.06.2020
1240 Clouds 21 1007 83 0 4.02 10 16:38 19.06.2020
1241 Clouds 21 1007 83 0 4.02 10 16:20 19.06.2020
1242 Clouds 21 1007 83 0 4.02 10 15:44 19.06.2020
1243 Clouds 21 1007 83 10000 4.1 10 15:25 19.06.2020
1244 Clouds 21 1007 83 10000 4.1 10 14:57 19.06.2020
1245 Clouds 21 1007 83 10000 4.1 10 14:39 19.06.2020
1246 Clouds 21 1007 83 10000 4.1 10 14:20 19.06.2020
1247 Clouds 22 1006 78 10000 4.6 350 13:55 19.06.2020
1248 Clouds 22 1006 78 10000 4.6 350 13:37 19.06.2020
1249 Clouds 22 1006 78 10000 4.6 350 13:18 19.06.2020
1250 Clouds 23 1006 73 10000 6.7 360 12:40 19.06.2020
1251 Clouds 23 1006 73 10000 6.7 360 12:18 19.06.2020
1252 Clouds 24 1005 73 10000 6.7 360 11:40 19.06.2020
1253 Clouds 24 1005 73 10000 6.7 360 11:19 19.06.2020
1254 Clouds 25 1004 69 10000 6.2 350 10:59 19.06.2020
1255 Clouds 25 1004 69 10000 6.2 350 10:41 19.06.2020
1256 Clouds 25 1004 69 10000 6.2 350 10:41 19.06.2020
1257 Clouds 25 1004 69 10000 6.2 350 10:41 19.06.2020
1258 Clouds 25 1004 69 10000 6.2 350 10:19 19.06.2020
1259 Clouds 24 1003 73 10000 8.2 350 09:44 19.06.2020
1260 Clouds 24 1003 73 10000 8.2 350 09:25 19.06.2020
1261 Clouds 24 1003 78 10000 7.7 350 08:58 19.06.2020
1262 Clouds 24 1003 78 10000 7.7 350 08:38 19.06.2020
1263 Clouds 24 1003 78 10000 7.7 350 08:20 19.06.2020
1264 Clouds 25 1002 73 10000 8.2 340 07:40 19.06.2020
1265 Clouds 25 1002 73 10000 8.2 340 07:21 19.06.2020
1266 Clouds 26 1002 78 10000 7.2 330 06:44 19.06.2020
1267 Clouds 26 1002 78 10000 7.2 330 06:19 19.06.2020
1268 Clouds 25 1001 78 10000 3.6 310 04:30 19.06.2020
1269 Clouds 24 1000 88 10000 3.1 290 03:22 19.06.2020
1270 Rain 22 1000 94 9000 5.1 330 00:59 19.06.2020
1271 Rain 23 999 94 10000 2.6 0 00:41 19.06.2020
1272 Rain 23 999 94 10000 2.6 0 00:21 19.06.2020
1273 Rain 23 999 94 7000 5.7 260 23:42 18.06.2020
1274 Rain 23 999 94 7000 5.7 260 23:24 18.06.2020
1275 Rain 23 1000 93 0 6.28 280 22:59 18.06.2020
1276 Rain 23 1000 93 0 6.28 280 22:39 18.06.2020
1277 Rain 23 999 96 0 6.22 268 22:19 18.06.2020
1278 Rain 23 999 96 0 6.22 268 21:40 18.06.2020
1279 Rain 26 998 88 0 7.6 210 21:21 18.06.2020
1280 Rain 26 998 88 0 7.6 210 20:59 18.06.2020
1281 Rain 26 998 88 0 7.6 210 20:40 18.06.2020
1282 Rain 26 998 88 0 7.6 210 20:19 18.06.2020
1283 Rain 26 998 88 0 7.6 210 19:54 18.06.2020
1284 Rain 26 998 88 0 7.6 210 19:36 18.06.2020
1285 Rain 26 998 88 0 7.6 210 19:18 18.06.2020
1286 Rain 26 1003 88 0 7.6 210 18:38 18.06.2020
1287 Rain 26 1003 88 0 7.6 210 18:19 18.06.2020
1288 Rain 26 1003 88 0 7.6 210 18:19 18.06.2020
1289 Rain 26 1003 88 0 7.6 210 17:45 18.06.2020
1290 Rain 26 1003 88 0 7.6 210 17:25 18.06.2020
1291 Rain 26 998 88 0 7.6 210 16:56 18.06.2020
1292 Rain 26 998 88 0 7.6 210 16:56 18.06.2020
1293 Rain 26 998 88 0 7.6 210 16:38 18.06.2020
1294 Rain 26 998 88 0 7.6 210 16:19 18.06.2020
1295 Rain 26 998 88 0 7.6 210 15:56 18.06.2020
1296 Clouds 26 998 88 9000 7.7 210 15:38 18.06.2020
1297 Clouds 26 998 88 9000 7.7 210 15:18 18.06.2020
1298 Clouds 26 998 88 9000 7.7 210 14:42 18.06.2020
1299 Clouds 26 998 88 9000 7.7 210 14:23 18.06.2020
1300 Clouds 26 999 88 8000 5.7 210 13:59 18.06.2020
1301 Rain 25 999 94 4500 5.1 210 13:41 18.06.2020
1302 Rain 25 999 94 4500 5.1 210 13:22 18.06.2020
1303 Rain 25 999 94 4500 5.1 210 12:55 18.06.2020
1304 Rain 25 999 94 4500 5.1 210 12:37 18.06.2020
1305 Rain 25 999 94 4500 5.1 210 12:19 18.06.2020
1306 Rain 25 999 94 6000 4.1 200 11:46 18.06.2020
1307 Rain 25 999 94 6000 4.1 200 11:21 18.06.2020
1308 Rain 25 999 94 7000 2.6 0 10:41 18.06.2020
1309 Rain 25 999 94 7000 2.6 0 10:20 18.06.2020
1310 Rain 25 999 94 8000 2.6 0 09:59 18.06.2020
1311 Rain 25 999 94 8000 2.6 0 09:41 18.06.2020
1312 Rain 25 999 94 8000 2.6 0 09:22 18.06.2020
1313 Rain 26 1000 88 7000 4.6 200 08:41 18.06.2020
1314 Rain 26 1000 88 7000 4.6 200 08:23 18.06.2020
1315 Rain 26 1000 94 6000 6.2 210 07:58 18.06.2020
1316 Rain 26 1000 94 6000 6.2 210 07:40 18.06.2020
1317 Rain 26 1000 94 6000 6.2 210 07:21 18.06.2020
1318 Rain 26 1000 94 8000 7.2 210 06:22 18.06.2020
1319 Rain 27 1000 88 8000 6.7 210 04:26 18.06.2020
1320 Rain 22 1001 100 8000 2.1 130 03:18 18.06.2020
1321 Rain 22 1002 94 8000 6.2 140 01:32 18.06.2020
1322 Rain 21 1001 100 6000 5.1 140 00:59 18.06.2020
1323 Rain 21 1001 100 6000 5.1 140 00:39 18.06.2020
1324 Rain 21 1001 100 6000 5.1 140 00:21 18.06.2020
1325 Rain 20 1002 94 6000 1.5 60 23:45 17.06.2020
1326 Rain 20 1002 94 6000 1.5 60 23:21 17.06.2020
1327 Rain 20 1003 93 0 2.5 111 22:58 17.06.2020
1328 Rain 20 1003 93 0 2.5 111 22:40 17.06.2020
1329 Rain 20 1004 93 0 2.77 109 22:21 17.06.2020
1330 Rain 20 1004 93 0 2.77 109 21:55 17.06.2020
1331 Rain 20 1004 93 0 2.77 109 21:37 17.06.2020
1332 Rain 20 1005 89 0 3.88 103 21:19 17.06.2020
1333 Rain 20 1005 89 0 3.88 103 20:38 17.06.2020
1334 Rain 20 1005 89 0 3.88 103 20:38 17.06.2020
1335 Rain 20 1005 89 0 3.61 75 20:20 17.06.2020
1336 Rain 20 1005 89 0 3.61 75 19:57 17.06.2020
1337 Rain 20 1005 89 0 3.61 75 19:57 17.06.2020
1338 Rain 20 1005 89 0 3.61 75 19:38 17.06.2020
1339 Rain 19 1006 92 0 3.16 59 19:19 17.06.2020
1340 Rain 19 1006 92 0 3.16 59 18:45 17.06.2020
1341 Rain 19 1006 90 0 2.89 47 18:27 17.06.2020
1342 Rain 19 1006 90 0 2.89 47 17:45 17.06.2020
1343 Clouds 23 1005 78 10000 1.5 340 17:23 17.06.2020
1344 Clouds 23 1005 78 10000 1.5 340 16:58 17.06.2020
1345 Clouds 23 1005 78 10000 1.5 340 16:39 17.06.2020
1346 Clouds 23 1005 78 10000 1.5 340 16:21 17.06.2020
1347 Rain 24 1006 69 10000 2.6 280 15:57 17.06.2020
1348 Rain 24 1006 69 10000 1 0 15:39 17.06.2020
1349 Rain 24 1006 69 10000 1 0 15:19 17.06.2020
1350 Rain 24 1006 69 10000 1 0 14:57 17.06.2020
1351 Rain 24 1006 69 10000 1 0 14:39 17.06.2020
1352 Rain 24 1006 69 10000 1 0 14:19 17.06.2020
1353 Clouds 24 1005 73 10000 1 270 13:55 17.06.2020
1354 Clouds 24 1005 73 10000 1 270 13:36 17.06.2020
1355 Clouds 23 1005 78 10000 2.1 320 13:18 17.06.2020
1356 Clouds 23 1005 78 10000 2.1 320 12:41 17.06.2020
1357 Clouds 23 1005 78 10000 2.1 320 12:21 17.06.2020
1358 Clouds 25 1005 65 10000 1 0 11:45 17.06.2020
1359 Clouds 25 1005 65 10000 1 0 11:26 17.06.2020
1360 Rain 25 1004 61 10000 1 310 10:58 17.06.2020
1361 Rain 25 1004 61 10000 1 310 10:38 17.06.2020
1362 Rain 25 1004 61 10000 1 310 10:19 17.06.2020
1363 Rain 25 1005 57 10000 0.5 0 09:55 17.06.2020
1364 Rain 25 1005 57 10000 0.5 0 09:36 17.06.2020
1365 Rain 25 1005 57 10000 0.5 0 09:18 17.06.2020
1366 Rain 25 1005 57 10000 4.6 260 09:18 17.06.2020
1367 Rain 25 1005 57 10000 4.6 260 08:42 17.06.2020
1368 Rain 25 1005 57 10000 4.6 260 08:19 17.06.2020
1369 Clouds 26 1005 57 10000 3.1 0 07:44 17.06.2020
1370 Clouds 26 1005 57 10000 3.1 0 07:23 17.06.2020
1371 Clouds 27 1005 65 10000 1.5 320 06:58 17.06.2020
1372 Clouds 27 1005 65 10000 1.5 320 06:39 17.06.2020
1373 Clouds 27 1005 65 10000 1.5 320 06:21 17.06.2020
1374 Clouds 26 1005 69 10000 2.1 220 05:48 17.06.2020
1375 Clouds 25 1005 78 10000 1 0 04:38 17.06.2020
1376 Clouds 23 1005 83 10000 0.5 0 01:59 17.06.2020
1377 Clouds 22 1005 94 10000 1.5 110 00:49 17.06.2020
1378 Clouds 22 1005 94 10000 1.5 110 00:29 17.06.2020
1379 Clouds 22 1005 88 10000 1.5 150 23:57 16.06.2020
1380 Clouds 22 1005 88 10000 1.5 150 23:39 16.06.2020
1381 Clouds 22 1005 88 10000 1.5 150 23:21 16.06.2020
1382 Clouds 23 1005 83 0 3.58 330 22:57 16.06.2020
1383 Clouds 23 1005 83 0 3.58 330 22:38 16.06.2020
1384 Clouds 23 1005 83 0 3.58 330 22:19 16.06.2020
1385 Clouds 23 1005 83 0 3.58 330 21:54 16.06.2020
1386 Clouds 23 1005 83 0 3.58 330 21:36 16.06.2020
1387 Clouds 23 1005 83 0 3.58 330 21:18 16.06.2020
1388 Clouds 23 1005 83 0 3.58 330 20:42 16.06.2020
1389 Clouds 23 1005 83 0 3.58 330 20:19 16.06.2020
1390 Clouds 23 1005 83 0 3.58 330 19:58 16.06.2020
1391 Clouds 23 1005 83 0 3.58 330 19:39 16.06.2020
1392 Clouds 23 1005 83 0 3.58 330 19:21 16.06.2020
1393 Clouds 23 1005 83 0 3.58 330 18:55 16.06.2020
1394 Clouds 23 1005 83 0 3.58 330 18:37 16.06.2020
1395 Clouds 23 1005 83 0 3.58 330 18:19 16.06.2020
1396 Clouds 23 1005 83 0 3.58 330 17:55 16.06.2020
1397 Clouds 23 1005 83 0 3.58 330 17:36 16.06.2020
1398 Clouds 23 1005 83 0 3.58 330 17:18 16.06.2020
1399 Clouds 23 1005 83 0 3.58 330 16:42 16.06.2020
1400 Clouds 23 1005 83 0 3.58 330 16:21 16.06.2020
1401 Clouds 23 1005 83 0 3.58 330 15:58 16.06.2020
1402 Clouds 23 1005 83 0 3.58 330 15:40 16.06.2020
1403 Clouds 23 1005 83 10000 3.6 330 15:22 16.06.2020
1404 Clouds 23 1005 83 10000 3.6 330 14:59 16.06.2020
1405 Clouds 23 1005 83 10000 3.6 330 14:41 16.06.2020
1406 Clouds 23 1005 83 10000 3.6 330 14:22 16.06.2020
1407 Clouds 23 1005 83 10000 3.6 320 13:48 16.06.2020
1408 Clouds 23 1005 83 10000 3.6 320 13:26 16.06.2020
1409 Clouds 25 1004 69 10000 4.1 310 12:57 16.06.2020
1410 Clouds 25 1004 69 10000 4.1 310 12:38 16.06.2020
1411 Clouds 25 1004 69 10000 4.1 310 12:38 16.06.2020
1412 Clouds 25 1004 69 10000 4.1 310 12:20 16.06.2020
1413 Clouds 26 1004 65 10000 4.1 310 11:54 16.06.2020
1414 Clouds 26 1004 65 10000 4.1 310 11:36 16.06.2020
1415 Clouds 26 1004 65 10000 4.1 310 11:36 16.06.2020
1416 Clouds 26 1004 61 10000 5.7 340 11:18 16.06.2020
1417 Clouds 27 1004 61 10000 5.7 340 10:42 16.06.2020
1418 Clouds 27 1004 61 10000 5.7 340 10:21 16.06.2020
1419 Clouds 27 1004 61 10000 5.7 340 09:57 16.06.2020
1420 Clouds 27 1004 61 10000 5.7 340 09:39 16.06.2020
1421 Clouds 27 1004 61 10000 5.7 340 09:20 16.06.2020
1422 Clouds 28 1005 65 10000 3.6 300 08:41 16.06.2020
1423 Clouds 28 1005 65 10000 3.6 300 08:22 16.06.2020
1424 Clouds 28 1005 61 10000 2.1 290 07:46 16.06.2020
1425 Clouds 28 1005 61 10000 2.1 290 07:26 16.06.2020
1426 Clouds 28 1005 58 10000 1.5 0 06:47 16.06.2020
1427 Clouds 28 1005 58 10000 1.5 0 06:19 16.06.2020
1428 Clouds 27 1005 61 10000 1 0 05:32 16.06.2020
1429 Clouds 26 1006 69 10000 1 0 04:27 16.06.2020
1430 Clouds 23 1006 88 10000 1 0 02:49 16.06.2020
1431 Clouds 21 1006 94 10000 1 0 01:44 16.06.2020
1432 Clouds 21 1006 94 10000 1 0 01:19 16.06.2020
1433 Clouds 21 1006 88 10000 0.5 0 00:37 16.06.2020
1434 Clouds 21 1006 94 9000 1.5 120 00:18 16.06.2020
1435 Clouds 21 1006 94 9000 1.5 120 23:41 15.06.2020
1436 Clouds 21 1006 94 9000 1.5 120 23:21 15.06.2020
1437 Clouds 22 1007 88 0 1.34 270 22:42 15.06.2020
1438 Clouds 22 1007 88 0 1.34 270 22:23 15.06.2020
1439 Clouds 22 1007 88 0 1.34 270 21:59 15.06.2020
1440 Clouds 22 1007 88 0 1.34 270 21:38 15.06.2020
1441 Clouds 22 1007 88 0 1.34 270 21:20 15.06.2020
1442 Clouds 22 1007 88 0 1.34 270 20:59 15.06.2020
1443 Clouds 22 1007 88 0 1.34 270 20:39 15.06.2020
1444 Clouds 22 1007 88 0 1.34 270 20:20 15.06.2020
1445 Clouds 22 1007 88 0 1.34 270 19:59 15.06.2020
1446 Clouds 22 1007 88 0 1.34 270 19:59 15.06.2020
1447 Clouds 22 1007 88 0 1.34 270 19:40 15.06.2020
1448 Clouds 22 1007 88 0 1.34 270 19:21 15.06.2020
1449 Clouds 22 1007 88 0 1.34 270 18:57 15.06.2020
1450 Clouds 22 1007 88 0 1.34 270 18:39 15.06.2020
1451 Clouds 22 1007 88 0 1.34 270 18:19 15.06.2020
1452 Clouds 22 1007 88 0 1.34 270 17:56 15.06.2020
1453 Clouds 22 1007 88 0 1.34 270 17:56 15.06.2020
1454 Clouds 22 1007 88 0 1.34 270 17:37 15.06.2020
1455 Clouds 22 1007 88 0 1.34 270 17:19 15.06.2020
1456 Clouds 22 1007 88 0 1.34 270 16:42 15.06.2020
1457 Clouds 22 1007 88 0 1.34 270 16:19 15.06.2020
1458 Clouds 22 1007 88 0 1.34 270 15:57 15.06.2020
1459 Clouds 22 1007 88 10000 1.5 270 15:39 15.06.2020
1460 Clouds 22 1007 88 10000 1.5 270 15:20 15.06.2020
1461 Clouds 22 1007 88 10000 1.5 270 14:55 15.06.2020
1462 Clouds 22 1007 88 10000 1.5 270 14:37 15.06.2020
1463 Clouds 22 1007 88 10000 1 0 14:18 15.06.2020
1464 Clouds 22 1007 88 10000 1 0 13:42 15.06.2020
1465 Clouds 22 1007 88 10000 1 0 13:23 15.06.2020
1466 Clouds 23 1007 78 10000 2.1 200 12:58 15.06.2020
1467 Clouds 23 1007 78 10000 2.1 200 12:39 15.06.2020
1468 Clouds 23 1007 78 10000 2.1 200 12:21 15.06.2020
1469 Clouds 24 1007 73 10000 2.1 260 11:45 15.06.2020
1470 Clouds 24 1007 73 10000 2.1 260 11:26 15.06.2020
1471 Clouds 24 1007 73 10000 2.1 260 11:26 15.06.2020
1472 Clouds 24 1006 78 10000 2.1 270 10:56 15.06.2020
1473 Clouds 25 1006 78 10000 2.1 270 10:38 15.06.2020
1474 Rain 25 1006 78 10000 4.1 190 10:19 15.06.2020
1475 Rain 25 1006 78 10000 4.1 190 10:19 15.06.2020
1476 Rain 24 1006 78 10000 4.1 190 09:41 15.06.2020
1477 Rain 24 1006 78 10000 4.1 190 09:22 15.06.2020
1478 Rain 24 1007 88 10000 1 0 08:43 15.06.2020
1479 Rain 24 1007 88 10000 1 0 08:24 15.06.2020
1480 Rain 24 1007 88 10000 1.5 260 07:50 15.06.2020
1481 Rain 24 1007 88 10000 1.5 260 07:32 15.06.2020
1482 Rain 25 1008 83 10000 2.1 250 06:50 15.06.2020
1483 Rain 25 1008 83 10000 2.1 250 06:26 15.06.2020
1484 Clouds 25 1008 83 10000 1 0 05:47 15.06.2020
1485 Clouds 25 1008 83 10000 1 0 05:27 15.06.2020
1486 Clouds 26 1009 78 10000 1.5 0 04:21 15.06.2020
1487 Clouds 24 1009 83 10000 1.5 130 03:47 15.06.2020
1488 Clouds 24 1009 83 10000 1 0 02:55 15.06.2020
1489 Clouds 23 1008 88 10000 2.1 350 01:58 15.06.2020
1490 Clouds 23 1008 88 10000 2.1 350 01:37 15.06.2020
1491 Clouds 23 1008 94 10000 5.1 340 01:18 15.06.2020
1492 Clouds 23 1008 94 10000 5.1 340 00:39 15.06.2020
1493 Clouds 23 1008 94 10000 5.1 340 00:20 15.06.2020
1494 Clouds 23 1008 94 10000 4.6 330 23:47 14.06.2020
1495 Clouds 23 1008 94 10000 4.6 330 23:25 14.06.2020
1496 Rain 24 1008 94 0 1.61 290 22:58 14.06.2020
1497 Rain 24 1008 94 0 1.61 290 22:39 14.06.2020
1498 Rain 24 1008 94 0 2.15 290 22:20 14.06.2020
1499 Rain 24 1008 94 0 2.15 290 21:57 14.06.2020
1500 Rain 24 1008 94 0 2.15 290 21:39 14.06.2020
1501 Rain 24 1008 94 0 2.31 300 21:19 14.06.2020
1502 Rain 24 1008 94 0 2.31 300 20:58 14.06.2020
1503 Rain 24 1008 94 0 2.31 300 20:39 14.06.2020
1504 Rain 24 1008 94 0 3.04 278 20:20 14.06.2020
1505 Rain 24 1008 94 0 3.04 278 19:59 14.06.2020
1506 Rain 24 1008 94 0 3.04 278 19:38 14.06.2020
1507 Clouds 24 1008 94 0 4.07 264 19:19 14.06.2020
1508 Clouds 24 1008 94 0 4.07 264 18:57 14.06.2020
1509 Clouds 24 1008 94 0 4.07 264 18:39 14.06.2020
1510 Rain 24 1008 94 0 4.15 257 18:20 14.06.2020
1511 Rain 24 1008 94 0 4.15 257 17:58 14.06.2020
1512 Rain 24 1009 94 0 4.15 257 17:39 14.06.2020
1513 Rain 24 1009 94 0 4.72 249 17:19 14.06.2020
1514 Rain 24 1009 94 0 4.72 249 16:41 14.06.2020
1515 Rain 24 1009 94 0 4.81 250 16:21 14.06.2020
1516 Rain 24 1008 94 0 4.81 250 15:59 14.06.2020
1517 Rain 24 1008 94 0 4.81 250 15:40 14.06.2020
1518 Rain 24 1008 94 8000 2.6 0 15:18 14.06.2020
1519 Rain 24 1008 94 8000 2.6 0 14:58 14.06.2020
1520 Rain 24 1008 94 8000 2.6 0 14:40 14.06.2020
1521 Rain 24 1008 94 8000 2.6 0 14:21 14.06.2020
1522 Clouds 24 1007 94 10000 1 0 13:55 14.06.2020
1523 Clouds 24 1007 94 10000 1 0 13:37 14.06.2020
1524 Clouds 24 1007 94 10000 1 0 13:19 14.06.2020
1525 Rain 25 1007 100 8000 5.1 200 12:55 14.06.2020
1526 Rain 24 1007 100 8000 5.1 200 12:37 14.06.2020
1527 Rain 24 1007 100 7000 2.6 0 12:18 14.06.2020
1528 Rain 24 1007 100 7000 2.6 0 11:55 14.06.2020
1529 Rain 24 1007 100 5000 2.1 0 11:36 14.06.2020
1530 Mist 24 1007 94 5000 2.6 0 11:18 14.06.2020
1531 Rain 25 1007 94 7000 3.1 0 10:41 14.06.2020
1532 Rain 25 1007 94 7000 3.1 0 10:19 14.06.2020
1533 Rain 25 1007 94 10000 2.6 0 09:44 14.06.2020
1534 Rain 25 1007 94 10000 2.6 0 09:24 14.06.2020
1535 Rain 25 1008 94 7000 3.1 0 08:44 14.06.2020
1536 Rain 25 1008 94 7000 3.1 0 08:22 14.06.2020
1537 Rain 26 1008 94 6000 3.1 0 07:58 14.06.2020
1538 Rain 26 1008 88 8000 3.1 0 07:37 14.06.2020
1539 Rain 26 1008 88 8000 3.1 0 07:19 14.06.2020
1540 Rain 27 1008 88 7000 8.7 210 05:58 14.06.2020
1541 Rain 27 1008 88 7000 8.7 210 05:39 14.06.2020
1542 Rain 26 1008 88 5000 9.3 210 04:43 14.06.2020
1543 Rain 26 1009 94 5000 8.2 210 03:57 14.06.2020
1544 Rain 27 1009 83 10000 6.7 210 02:44 14.06.2020
1545 Rain 27 1009 83 10000 6.7 210 02:23 14.06.2020
1546 Clouds 27 1009 83 10000 7.2 200 01:31 14.06.2020
1547 Rain 27 1008 83 10000 8.7 210 00:49 14.06.2020
1548 Rain 27 1008 83 10000 8.7 210 00:29 14.06.2020
1549 Rain 27 1009 83 10000 6.2 210 23:49 13.06.2020
1550 Rain 27 1009 83 10000 6.2 210 23:31 13.06.2020
1551 Rain 26 1009 94 0 6.45 204 22:59 13.06.2020
1552 Rain 26 1009 94 0 6.45 204 22:38 13.06.2020
1553 Rain 26 1009 94 0 6.6 205 22:19 13.06.2020
1554 Rain 26 1009 94 0 6.6 205 21:58 13.06.2020
1555 Rain 26 1009 94 0 6.6 205 21:40 13.06.2020
1556 Rain 26 1009 94 0 7.51 209 21:21 13.06.2020
1557 Rain 26 1009 94 0 7.51 209 20:54 13.06.2020
1558 Rain 26 1009 94 0 7.51 209 20:54 13.06.2020
1559 Rain 26 1009 94 0 7.51 209 20:36 13.06.2020
1560 Rain 26 1009 94 0 7.57 204 20:18 13.06.2020
1561 Rain 26 1009 94 0 7.57 204 19:39 13.06.2020
1562 Rain 26 1009 94 0 7.72 205 19:20 13.06.2020
1563 Rain 26 1009 94 0 7.72 205 18:58 13.06.2020
1564 Rain 26 1009 94 0 7.72 205 18:39 13.06.2020
1565 Rain 26 1009 94 0 7.18 203 18:20 13.06.2020
1566 Rain 26 1009 94 0 7.18 203 17:56 13.06.2020
1567 Rain 26 1009 94 0 7.18 203 17:37 13.06.2020
1568 Rain 26 1009 94 0 6.87 200 17:19 13.06.2020
1569 Rain 26 1009 94 0 6.87 200 16:41 13.06.2020
1570 Rain 26 1009 94 0 5.99 203 16:20 13.06.2020
1571 Rain 26 1009 94 0 5.99 203 15:59 13.06.2020
1572 Rain 26 1009 94 0 5.99 203 15:41 13.06.2020
1573 Rain 26 1009 94 10000 3.6 0 15:20 13.06.2020
1574 Rain 26 1009 94 10000 3.6 0 14:43 13.06.2020
1575 Rain 26 1009 94 10000 3.6 0 14:23 13.06.2020
1576 Clouds 26 1009 94 10000 4.6 0 13:56 13.06.2020
1577 Clouds 26 1009 94 10000 4.6 0 13:37 13.06.2020
1578 Clouds 26 1009 94 10000 4.6 0 13:37 13.06.2020
1579 Rain 26 1008 94 10000 3.6 0 13:18 13.06.2020
1580 Rain 26 1008 94 10000 3.6 0 12:43 13.06.2020
1581 Rain 26 1008 94 10000 3.6 0 12:25 13.06.2020
1582 Rain 25 1008 94 6000 3.1 270 11:55 13.06.2020
1583 Rain 25 1008 94 6000 3.1 270 11:55 13.06.2020
1584 Rain 25 1008 94 6000 3.1 270 11:37 13.06.2020
1585 Thunderstorm 25 1008 94 2000 3.6 0 11:18 13.06.2020
1586 Thunderstorm 25 1008 94 2000 3.6 0 10:49 13.06.2020
1587 Mist 25 1007 94 1500 7.2 200 10:27 13.06.2020
1588 Thunderstorm 26 1008 94 2000 4.1 0 09:56 13.06.2020
1589 Thunderstorm 26 1008 94 8000 3.6 210 09:38 13.06.2020
1590 Thunderstorm 26 1008 94 8000 3.6 210 09:19 13.06.2020
1591 Rain 26 1008 88 8000 3.1 0 08:44 13.06.2020
1592 Rain 26 1008 88 8000 3.1 0 08:26 13.06.2020
1593 Rain 26 1008 88 10000 3.6 0 07:45 13.06.2020
1594 Rain 26 1008 88 10000 3.6 0 07:26 13.06.2020
1595 Rain 27 1008 83 10000 2.1 0 06:44 13.06.2020
1596 Rain 27 1008 83 10000 2.1 0 06:26 13.06.2020
1597 Rain 26 1009 88 10000 3.1 0 05:30 13.06.2020
1598 Rain 26 1008 88 10000 3.1 0 04:41 13.06.2020
1599 Rain 26 1008 88 10000 3.6 0 03:43 13.06.2020
1600 Rain 27 1008 83 10000 4.1 0 02:52 13.06.2020
1601 Rain 26 1008 88 10000 3.6 0 01:50 13.06.2020
1602 Rain 26 1008 88 10000 3.6 0 01:24 13.06.2020
1603 Rain 26 1007 88 9000 4.1 0 00:55 13.06.2020
1604 Rain 26 1007 88 9000 4.1 0 00:29 13.06.2020
1605 Rain 27 1007 83 9000 5.7 210 23:59 12.06.2020
1606 Rain 27 1007 83 9000 5.7 210 23:38 12.06.2020
1607 Rain 25 1006 100 0 6.9 213 23:18 12.06.2020
1608 Rain 25 1006 100 0 6.9 213 22:43 12.06.2020
1609 Rain 25 1006 100 0 6.79 211 22:20 12.06.2020
1610 Rain 25 1006 100 0 6.79 211 21:59 12.06.2020
1611 Rain 25 1006 100 0 6.79 211 21:59 12.06.2020
1612 Rain 25 1006 100 0 6.79 211 21:40 12.06.2020
1613 Rain 25 1006 100 0 6.25 213 21:21 12.06.2020
1614 Rain 25 1006 100 0 6.25 213 20:56 12.06.2020
1615 Rain 25 1006 100 0 6.25 213 20:37 12.06.2020
1616 Rain 25 1006 100 0 5.88 213 20:19 12.06.2020
1617 Rain 25 1020 100 0 5.88 213 19:40 12.06.2020
1618 Rain 25 1020 100 0 5.63 208 19:21 12.06.2020
1619 Rain 25 1006 100 0 5.63 208 18:58 12.06.2020
1620 Rain 25 1006 100 0 5.63 208 18:36 12.06.2020
1621 Rain 25 1006 100 0 5.48 209 18:18 12.06.2020
1622 Rain 25 1006 100 0 5.48 209 17:40 12.06.2020
1623 Rain 25 1006 100 0 5.19 212 17:22 12.06.2020
1624 Rain 25 1006 100 0 5.19 212 16:45 12.06.2020
1625 Rain 25 1006 100 0 4.52 202 16:21 12.06.2020
1626 Rain 25 1006 100 0 4.52 202 15:50 12.06.2020
1627 Rain 25 1006 100 10000 1 0 15:28 12.06.2020
1628 Rain 25 1006 100 10000 1 0 14:59 12.06.2020
1629 Rain 25 1006 100 10000 1 0 14:39 12.06.2020
1630 Rain 25 1006 100 10000 1 0 14:21 12.06.2020
1631 Rain 25 1006 94 10000 2.6 110 13:43 12.06.2020
1632 Rain 25 1006 94 10000 2.6 110 13:22 12.06.2020
1633 Rain 25 1006 94 10000 2.6 120 12:55 12.06.2020
1634 Rain 25 1006 94 10000 2.6 120 12:37 12.06.2020
1635 Rain 25 1006 94 8000 2.6 130 12:18 12.06.2020
1636 Rain 25 1006 94 4000 1.5 190 11:43 12.06.2020
1637 Mist 25 1006 94 4000 1.5 190 11:23 12.06.2020
1638 Rain 25 1006 94 10000 3.6 140 10:49 12.06.2020
1639 Rain 25 1006 94 10000 3.6 140 10:26 12.06.2020
1640 Rain 25 1006 94 5000 2.1 150 09:58 12.06.2020
1641 Rain 25 1006 94 5000 1 0 09:39 12.06.2020
1642 Rain 25 1006 94 5000 1 0 09:19 12.06.2020
1643 Clouds 26 1006 83 10000 3.6 150 08:41 12.06.2020
1644 Clouds 26 1006 83 10000 3.6 150 08:22 12.06.2020
1645 Clouds 25 1006 88 10000 2.6 280 07:41 12.06.2020
1646 Clouds 25 1006 88 10000 2.6 280 07:23 12.06.2020
1647 Rain 26 1007 83 10000 3.1 260 06:41 12.06.2020
1648 Rain 26 1007 83 10000 3.1 260 06:20 12.06.2020
1649 Clouds 27 1007 74 10000 3.6 210 05:49 12.06.2020
1650 Clouds 27 1007 74 10000 3.6 210 05:23 12.06.2020
1651 Clouds 26 1007 83 10000 1.5 230 03:52 12.06.2020
1652 Clouds 24 1007 88 10000 1.5 200 02:25 12.06.2020
1653 Rain 24 1007 94 10000 1 0 01:35 12.06.2020
1654 Clouds 24 1006 94 10000 2.1 0 00:58 12.06.2020
1655 Clouds 24 1006 94 10000 2.1 0 00:38 12.06.2020
1656 Clouds 24 1006 94 10000 2.1 0 00:20 12.06.2020
1657 Clouds 24 1006 94 10000 2.1 200 23:56 11.06.2020
1658 Clouds 24 1006 94 10000 2.1 200 23:37 11.06.2020
1659 Clouds 23 1007 100 0 1.61 256 23:19 11.06.2020
1660 Clouds 23 1007 100 0 1.61 256 22:41 11.06.2020
1661 Rain 23 1007 100 0 2.01 236 22:21 11.06.2020
1662 Rain 23 1006 100 0 2.01 236 21:57 11.06.2020
1663 Rain 23 1007 100 0 2.01 236 21:38 11.06.2020
1664 Rain 23 1007 100 0 3.18 214 21:20 11.06.2020
1665 Rain 23 1006 100 0 3.18 214 20:55 11.06.2020
1666 Rain 23 1006 100 0 3.18 214 20:37 11.06.2020
1667 Rain 23 1006 100 0 3.49 224 20:19 11.06.2020
1668 Rain 23 1006 100 0 3.49 224 19:41 11.06.2020
1669 Rain 23 1006 100 0 4.3 230 19:22 11.06.2020
1670 Rain 23 1006 100 0 4.3 230 18:43 11.06.2020
1671 Rain 23 1006 100 0 4.46 230 18:25 11.06.2020
1672 Rain 23 1006 100 0 4.46 230 17:57 11.06.2020
1673 Rain 23 1006 100 0 4.46 230 17:38 11.06.2020
1674 Rain 23 1006 100 0 4.2 231 17:20 11.06.2020
1675 Rain 23 1006 100 0 4.2 231 17:20 11.06.2020
1676 Rain 23 1006 100 0 4.2 231 16:58 11.06.2020
1677 Rain 23 1007 100 0 4.2 231 16:40 11.06.2020
1678 Rain 23 1007 100 0 4.75 233 16:21 11.06.2020
1679 Rain 23 1006 100 2500 0.5 0 15:55 11.06.2020
1680 Mist 23 1006 100 2500 0.5 0 15:37 11.06.2020
1681 Rain 23 1006 100 2500 0.5 0 15:18 11.06.2020
1682 Rain 23 1005 100 3500 1 0 14:42 11.06.2020
1683 Mist 23 1005 100 3500 1 0 14:20 11.06.2020
1684 Rain 23 1005 100 4000 3.1 0 13:55 11.06.2020
1685 Rain 23 1005 100 4500 4.6 210 13:37 11.06.2020
1686 Rain 23 1005 100 4500 4.6 210 13:18 11.06.2020
1687 Rain 23 1005 100 4500 4.6 210 13:18 11.06.2020
1688 Rain 23 1005 100 4500 4.6 210 13:18 11.06.2020
1689 Mist 24 1004 94 4500 4.1 210 12:55 11.06.2020
1690 Rain 24 1004 94 4500 4.1 210 12:36 11.06.2020
1691 Rain 24 1004 94 4500 4.1 210 12:18 11.06.2020
1692 Rain 24 1004 94 4000 4.6 210 11:56 11.06.2020
1693 Rain 24 1004 94 4000 4.6 210 11:37 11.06.2020
1694 Rain 24 1004 94 7000 4.1 210 11:18 11.06.2020
1695 Rain 24 1004 94 7000 4.1 210 10:42 11.06.2020
1696 Rain 24 1004 94 7000 4.1 210 10:20 11.06.2020
1697 Rain 24 1004 94 6000 4.6 210 09:45 11.06.2020
1698 Rain 24 1004 94 6000 4.6 210 09:26 11.06.2020
1699 Rain 24 1004 94 4000 3.6 210 08:55 11.06.2020
1700 Rain 24 1004 94 3000 5.1 210 08:37 11.06.2020
1701 Rain 24 1004 94 3000 5.1 210 08:18 11.06.2020
1702 Rain 24 1004 94 2000 3.6 0 07:42 11.06.2020
1703 Rain 24 1004 94 2000 3.6 0 07:23 11.06.2020
1704 Rain 24 1004 94 10000 2.6 0 06:35 11.06.2020
1705 Rain 24 1005 94 4500 4.1 0 05:57 11.06.2020
1706 Rain 24 1005 94 5000 6.7 270 04:41 11.06.2020
1707 Rain 25 1004 100 3000 5.1 270 03:25 11.06.2020
1708 Rain 25 1004 94 1500 5.1 0 02:46 11.06.2020
1709 Rain 25 1004 94 4000 3.1 0 01:56 11.06.2020
1710 Rain 26 1004 88 10000 7.7 210 01:35 11.06.2020
1711 Rain 26 1005 88 8000 6.7 210 00:57 11.06.2020
1712 Rain 25 1005 88 7000 7.7 210 00:38 11.06.2020
1713 Rain 25 1005 88 7000 7.7 210 00:19 11.06.2020
1714 Rain 25 1007 88 0 4.92 190 23:40 10.06.2020
1715 Rain 25 1009 78 0 2.68 130 23:21 10.06.2020
1716 Rain 25 1009 78 0 2.68 130 22:41 10.06.2020
1717 Rain 25 1009 78 0 2.68 130 22:22 10.06.2020
1718 Rain 25 1009 78 0 2.68 130 21:59 10.06.2020
1719 Rain 25 1009 78 0 2.68 130 21:59 10.06.2020
1720 Rain 25 1009 78 0 2.68 130 21:41 10.06.2020
1721 Rain 25 1009 78 0 2.68 130 21:19 10.06.2020
1722 Rain 25 1009 78 0 2.68 130 20:58 10.06.2020
1723 Rain 25 1009 78 0 2.68 130 20:40 10.06.2020
1724 Rain 25 1009 78 0 2.68 130 20:40 10.06.2020
1725 Rain 25 1009 78 0 2.68 130 20:21 10.06.2020
1726 Rain 25 1009 78 0 2.68 130 19:58 10.06.2020
1727 Rain 25 1009 78 0 2.68 130 19:38 10.06.2020
1728 Rain 25 1009 78 0 2.68 130 19:18 10.06.2020
1729 Rain 25 1009 78 0 2.68 130 18:42 10.06.2020
1730 Rain 25 1009 78 0 2.68 130 18:22 10.06.2020
1731 Rain 25 1009 78 0 2.68 130 17:59 10.06.2020
1732 Rain 25 1009 78 0 2.68 130 17:41 10.06.2020
1733 Rain 25 1009 78 0 2.68 130 17:20 10.06.2020
1734 Rain 25 1009 78 0 2.68 130 16:59 10.06.2020
1735 Rain 25 1009 78 0 2.68 130 16:40 10.06.2020
1736 Rain 25 1009 78 0 2.68 130 16:20 10.06.2020
1737 Rain 25 1009 78 0 2.68 130 16:20 10.06.2020
1738 Rain 25 1009 78 0 2.68 130 15:57 10.06.2020
1739 Clouds 25 1009 78 10000 3.1 130 15:37 10.06.2020
1740 Clouds 25 1009 78 10000 3.1 130 15:18 10.06.2020
1741 Clouds 25 1009 78 10000 3.1 130 14:40 10.06.2020
1742 Clouds 25 1009 78 10000 3.1 130 14:21 10.06.2020
1743 Clouds 26 1008 69 10000 1.5 210 13:56 10.06.2020
1744 Clouds 26 1008 69 10000 1.5 210 13:38 10.06.2020
1745 Clouds 26 1008 74 10000 1.5 230 13:19 10.06.2020
1746 Clouds 26 1008 74 10000 1.5 230 12:40 10.06.2020
1747 Clouds 26 1008 65 10000 2.1 0 12:18 10.06.2020
1748 Clouds 27 1008 65 10000 2.1 0 11:44 10.06.2020
1749 Clouds 27 1008 65 10000 2.1 0 11:20 10.06.2020
1750 Clouds 27 1008 65 10000 3.1 0 10:58 10.06.2020
1751 Clouds 27 1008 65 10000 3.1 0 10:40 10.06.2020
1752 Clouds 27 1008 65 10000 3.1 0 10:40 10.06.2020
1753 Clouds 27 1008 61 10000 2.6 0 10:21 10.06.2020
1754 Clouds 28 1008 61 10000 2.6 0 09:44 10.06.2020
1755 Clouds 28 1008 61 10000 2.6 0 09:25 10.06.2020
1756 Clouds 29 1008 62 10000 4.6 270 08:59 10.06.2020
1757 Clouds 29 1008 62 10000 4.6 270 08:41 10.06.2020
1758 Clouds 29 1008 62 10000 4.6 270 08:22 10.06.2020
1759 Clouds 29 1008 62 10000 5.1 260 07:42 10.06.2020
1760 Clouds 29 1008 62 10000 5.1 260 07:23 10.06.2020
1761 Clouds 29 1009 62 10000 4.6 260 06:52 10.06.2020
1762 Clouds 29 1009 62 10000 4.6 260 06:33 10.06.2020
1763 Clouds 29 1009 58 10000 3.6 290 05:59 10.06.2020
1764 Clouds 29 1009 58 10000 3.6 290 05:30 10.06.2020
1765 Clouds 29 1009 54 10000 2.6 280 04:48 10.06.2020
1766 Clouds 29 1009 54 10000 2.6 280 04:28 10.06.2020
1767 Clouds 26 1010 65 10000 1.5 0 02:24 10.06.2020
1768 Clouds 25 1011 73 10000 3.1 250 01:40 10.06.2020
1769 Clouds 25 1011 78 10000 1 0 00:41 10.06.2020
1770 Clouds 25 1011 78 10000 1 0 00:23 10.06.2020
1771 Clouds 23 1011 83 10000 0.5 0 23:58 09.06.2020
1772 Clouds 23 1011 83 0 1.47 88 23:39 09.06.2020
1773 Clouds 23 1011 83 0 1.47 88 23:39 09.06.2020
1774 Clouds 23 1012 79 0 2.04 67 23:21 09.06.2020
1775 Clouds 23 1012 79 0 2.04 67 22:56 09.06.2020
1776 Clouds 23 1012 79 0 2.04 67 22:38 09.06.2020
1777 Clouds 25 1013 78 0 1.34 320 22:20 09.06.2020
1778 Clouds 25 1013 78 0 1.34 320 21:56 09.06.2020
1779 Clouds 22 1011 79 0 2.06 33 21:38 09.06.2020
1780 Clouds 22 1011 79 0 2.06 33 21:38 09.06.2020
1781 Clouds 22 1011 79 0 1.78 28 21:20 09.06.2020
1782 Clouds 22 1011 82 0 1.91 33 20:56 09.06.2020
1783 Clouds 22 1011 82 0 1.91 33 20:38 09.06.2020
1784 Clear 22 1011 78 0 2.41 54 20:18 09.06.2020
1785 Clear 22 1011 78 0 2.41 54 19:56 09.06.2020
1786 Clear 25 1013 78 0 1.34 320 19:38 09.06.2020
1787 Clear 25 1013 78 0 1.34 320 19:20 09.06.2020
1788 Clear 25 1013 78 0 1.34 320 18:45 09.06.2020
1789 Clear 25 1013 78 0 1.34 320 18:26 09.06.2020
1790 Clear 25 1013 78 0 1.34 320 17:58 09.06.2020
1791 Clear 25 1013 78 0 1.34 320 17:40 09.06.2020
1792 Clear 25 1013 78 0 1.34 320 17:22 09.06.2020
1793 Clear 25 1013 78 0 1.34 320 16:58 09.06.2020
1794 Clear 25 1014 73 10000 2.6 90 16:39 09.06.2020
1795 Clear 25 1014 73 10000 2.6 90 16:20 09.06.2020
1796 Clouds 26 1014 61 10000 5.1 90 15:41 09.06.2020
1797 Clouds 25 1013 78 10000 1.5 320 15:23 09.06.2020
1798 Clouds 25 1013 78 10000 1.5 320 14:59 09.06.2020
1799 Clouds 25 1013 78 10000 1.5 320 14:39 09.06.2020
1800 Clouds 25 1013 78 10000 1.5 320 14:19 09.06.2020
1801 Clouds 26 1013 74 10000 3.6 320 13:55 09.06.2020
1802 Clouds 26 1013 74 10000 3.6 320 13:37 09.06.2020
1803 Clouds 26 1013 69 10000 4.1 310 13:19 09.06.2020
1804 Clouds 26 1013 69 10000 4.1 310 12:42 09.06.2020
1805 Clouds 26 1013 69 10000 4.1 310 12:20 09.06.2020
1806 Clouds 27 1012 69 10000 5.7 330 11:58 09.06.2020
1807 Clouds 27 1012 69 10000 5.7 330 11:39 09.06.2020
1808 Clouds 27 1012 69 10000 5.7 330 11:20 09.06.2020
1809 Clouds 29 1012 66 10000 3.6 270 10:55 09.06.2020
1810 Clouds 30 1012 66 10000 3.6 270 10:36 09.06.2020
1811 Clouds 30 1012 66 10000 3.6 270 10:18 09.06.2020
1812 Clouds 30 1012 66 10000 3.6 270 10:18 09.06.2020
1813 Clouds 30 1012 62 10000 3.1 280 09:40 09.06.2020
1814 Clouds 30 1012 62 10000 3.1 280 09:19 09.06.2020
1815 Clouds 31 1013 52 10000 5.1 170 08:40 09.06.2020
1816 Clouds 31 1013 52 10000 5.1 170 08:21 09.06.2020
1817 Clouds 31 1013 48 10000 4.6 160 07:59 09.06.2020
1818 Clouds 31 1013 48 10000 4.6 160 07:36 09.06.2020
1819 Clouds 31 1013 41 10000 3.6 180 07:18 09.06.2020
1820 Clouds 32 1013 41 10000 3.6 180 06:51 09.06.2020
1821 Clouds 31 1013 41 10000 3.6 180 06:27 09.06.2020
1822 Clouds 29 1014 54 10000 3.1 0 04:35 09.06.2020
1823 Clouds 27 1014 65 10000 2.6 300 02:50 09.06.2020
1824 Clouds 25 1014 69 10000 1 0 01:39 09.06.2020
1825 Clouds 24 1015 83 10000 2.6 120 01:19 09.06.2020
1826 Clouds 23 1015 83 10000 2.6 120 00:44 09.06.2020
1827 Clouds 22 1015 88 10000 3.1 140 00:20 09.06.2020
1828 Clouds 22 1015 88 10000 3.1 140 23:43 08.06.2020
1829 Clouds 22 1015 88 10000 3.1 140 23:22 08.06.2020
1830 Clouds 22 1015 75 0 2.44 60 22:59 08.06.2020
1831 Clouds 22 1015 75 0 2.44 60 22:39 08.06.2020
1832 Clouds 22 1015 74 0 3.42 28 22:20 08.06.2020
1833 Clouds 22 1015 74 0 3.42 28 21:56 08.06.2020
1834 Clouds 22 1015 74 0 3.42 28 21:38 08.06.2020
1835 Clouds 22 1015 74 0 2.02 28 21:19 08.06.2020
1836 Clouds 22 1015 74 0 2.02 28 20:55 08.06.2020
1837 Clouds 22 1015 74 0 2.02 28 20:37 08.06.2020
1838 Clouds 21 1015 77 0 1 62 20:18 08.06.2020
1839 Clouds 21 1015 77 0 1 62 19:43 08.06.2020
1840 Clouds 21 1015 77 0 1 62 19:43 08.06.2020
1841 Clouds 22 1015 76 0 1.1 140 19:22 08.06.2020
1842 Clouds 22 1015 76 0 1.1 140 18:44 08.06.2020
1843 Clouds 25 1015 69 0 1.34 300 18:23 08.06.2020
1844 Clouds 25 1015 69 0 1.34 300 17:58 08.06.2020
1845 Clouds 25 1015 69 0 1.34 300 17:40 08.06.2020
1846 Clouds 25 1015 69 0 1.34 300 17:22 08.06.2020
1847 Clouds 25 1015 69 0 1.34 300 16:59 08.06.2020
1848 Clouds 25 1015 69 0 1.34 300 16:41 08.06.2020
1849 Clouds 25 1015 69 0 1.34 300 16:22 08.06.2020
1850 Clouds 25 1015 69 0 1.34 300 15:44 08.06.2020
1851 Clouds 25 1015 69 10000 1.5 300 15:22 08.06.2020
1852 Clouds 25 1015 69 10000 1.5 300 14:59 08.06.2020
1853 Clouds 25 1015 69 10000 1.5 300 14:39 08.06.2020
1854 Clouds 25 1015 69 10000 1.5 300 14:20 08.06.2020
1855 Clouds 25 1014 69 10000 2.1 340 13:44 08.06.2020
1856 Clouds 25 1014 69 10000 2.1 340 13:44 08.06.2020
1857 Clouds 25 1014 69 10000 2.1 340 13:24 08.06.2020
1858 Clouds 26 1014 61 10000 2.6 340 12:44 08.06.2020
1859 Clouds 26 1014 61 10000 2.6 340 12:21 08.06.2020
1860 Clouds 27 1014 54 10000 2.6 280 11:59 08.06.2020
1861 Clouds 28 1014 54 10000 2.6 280 11:41 08.06.2020
1862 Clouds 28 1014 54 10000 2.6 280 11:22 08.06.2020
1863 Clouds 28 1013 54 10000 3.6 260 10:58 08.06.2020
1864 Clouds 28 1013 54 10000 3.6 260 10:38 08.06.2020
1865 Clouds 28 1013 54 10000 3.6 260 10:38 08.06.2020
1866 Clouds 28 1013 54 10000 3.6 260 10:20 08.06.2020
1867 Clouds 29 1013 58 10000 4.1 330 09:57 08.06.2020
1868 Clouds 29 1013 58 10000 4.1 330 09:57 08.06.2020
1869 Clouds 29 1013 58 10000 4.1 330 09:39 08.06.2020
1870 Clouds 29 1013 58 10000 4.1 330 09:20 08.06.2020
1871 Clouds 29 1013 62 10000 5.1 340 08:44 08.06.2020
1872 Clouds 29 1013 62 10000 5.1 340 08:21 08.06.2020
1873 Clouds 30 1012 55 10000 4.1 260 07:46 08.06.2020
1874 Clouds 30 1012 55 10000 4.1 260 07:22 08.06.2020
1875 Clouds 30 1013 48 10000 2.6 250 06:49 08.06.2020
1876 Clouds 30 1013 48 10000 2.6 250 06:28 08.06.2020
1877 Clouds 29 1013 54 10000 1.5 240 05:46 08.06.2020
1878 Clouds 28 1014 61 10000 1.5 0 04:29 08.06.2020
1879 Clouds 25 1014 69 10000 1.5 10 02:32 08.06.2020
1880 Clear 23 1013 78 10000 3.6 140 01:45 08.06.2020
1881 Clear 23 1013 78 10000 3.6 140 01:26 08.06.2020
1882 Clear 22 1013 88 10000 3.1 150 00:30 08.06.2020
1883 Clear 21 1013 88 10000 3.1 130 23:41 07.06.2020
1884 Clear 21 1013 88 10000 3.1 130 23:20 07.06.2020
1885 Clear 22 1010 78 0 1.79 290 22:59 07.06.2020
1886 Clear 22 1010 78 0 1.79 290 22:39 07.06.2020
1887 Clear 22 1010 78 0 1.79 290 22:19 07.06.2020
1888 Clear 22 1010 78 0 1.79 290 21:58 07.06.2020
1889 Clear 22 1010 78 0 1.79 290 21:38 07.06.2020
1890 Clear 22 1010 78 0 1.79 290 21:19 07.06.2020
1891 Clear 22 1010 78 0 1.79 290 20:54 07.06.2020
1892 Clear 22 1010 78 0 1.79 290 20:36 07.06.2020
1893 Clear 22 1010 78 0 1.79 290 20:18 07.06.2020
1894 Clear 22 1010 78 0 1.79 290 19:54 07.06.2020
1895 Clear 22 1010 78 0 1.79 290 19:36 07.06.2020
1896 Clear 22 1010 78 0 1.79 290 19:18 07.06.2020
1897 Clear 22 1010 78 0 1.79 290 18:40 07.06.2020
1898 Clear 22 1010 78 0 1.79 290 18:21 07.06.2020
1899 Clear 22 1010 78 0 1.79 290 17:59 07.06.2020
1900 Clear 22 1010 78 0 1.79 290 17:40 07.06.2020
1901 Clear 22 1010 78 0 1.79 290 17:21 07.06.2020
1902 Clear 22 1010 78 0 1.79 290 16:44 07.06.2020
1903 Clear 22 1010 78 0 1.79 290 16:22 07.06.2020
1904 Clear 22 1010 78 0 1.79 290 15:44 07.06.2020
1905 Clear 22 1010 78 10000 2.1 290 15:22 07.06.2020
1906 Clear 22 1010 78 10000 2.1 290 14:59 07.06.2020
1907 Clear 22 1010 78 10000 2.1 290 14:59 07.06.2020
1908 Clear 22 1010 78 10000 2.1 290 14:59 07.06.2020
1909 Clear 22 1010 78 10000 2.1 290 14:36 07.06.2020
1910 Clear 22 1010 78 10000 2.1 290 14:18 07.06.2020
1911 Clear 24 1009 73 10000 4.1 300 13:41 07.06.2020
1912 Clear 24 1009 73 10000 4.1 300 13:41 07.06.2020
1913 Clear 24 1009 73 10000 4.1 300 13:41 07.06.2020
1914 Clear 24 1009 73 10000 4.1 300 13:41 07.06.2020
1915 Clear 24 1009 73 10000 4.1 300 13:41 07.06.2020
1916 Clear 24 1009 73 10000 4.1 300 13:19 07.06.2020
1917 Clear 25 1008 69 10000 4.6 320 12:43 07.06.2020
1918 Clouds 26 1008 61 10000 4.1 310 12:24 07.06.2020
1919 Clouds 27 1008 61 10000 4.1 310 11:55 07.06.2020
1920 Clouds 27 1008 61 10000 4.1 310 11:55 07.06.2020
1921 Clouds 27 1008 61 10000 4.1 310 11:37 07.06.2020
1922 Clouds 27 1008 61 10000 4.1 310 11:19 07.06.2020
1923 Clouds 29 1008 51 10000 4.6 340 10:54 07.06.2020
1924 Clouds 29 1008 51 10000 4.6 340 10:36 07.06.2020
1925 Clouds 29 1008 51 10000 4.6 340 10:18 07.06.2020
1926 Clear 30 1008 42 10000 4.6 310 09:41 07.06.2020
1927 Clear 30 1008 42 10000 4.6 310 09:21 07.06.2020
1928 Clear 30 1008 45 10000 3.1 290 08:59 07.06.2020
1929 Clear 30 1008 45 10000 3.1 290 08:40 07.06.2020
1930 Clear 30 1008 45 10000 3.1 290 08:21 07.06.2020
1931 Clear 28 1009 54 10000 3.6 280 07:41 07.06.2020
1932 Clear 28 1009 54 10000 3.6 280 07:41 07.06.2020
1933 Clear 28 1009 54 10000 3.6 280 07:41 07.06.2020
1934 Clouds 28 1009 61 10000 3.1 280 06:56 07.06.2020
1935 Clouds 26 1010 65 10000 2.1 170 05:57 07.06.2020
1936 Clouds 25 1010 73 10000 2.6 280 04:22 07.06.2020
1937 Clouds 24 1010 73 10000 3.6 330 03:48 07.06.2020
1938 Clouds 24 1010 73 10000 3.6 330 03:48 07.06.2020
1939 Clouds 23 1011 78 10000 5.7 340 02:19 07.06.2020
1940 Clouds 23 1010 78 9000 6.2 340 01:26 07.06.2020
1941 Clouds 22 1010 83 9000 5.7 330 00:48 07.06.2020
1942 Clouds 22 1010 83 9000 5.7 330 00:21 07.06.2020
1943 Clouds 21 1010 88 8000 2.1 10 23:59 06.06.2020
1944 Clouds 21 1010 88 0 1.79 10 23:38 06.06.2020
1945 Clouds 20 1011 89 0 2.61 28 23:20 06.06.2020
1946 Clouds 20 1011 89 0 2.61 28 22:57 06.06.2020
1947 Clouds 20 1011 89 0 2.61 28 22:39 06.06.2020
1948 Clouds 20 1010 89 0 2.88 24 22:20 06.06.2020
1949 Clouds 20 1010 89 0 2.88 24 21:56 06.06.2020
1950 Clouds 20 1010 89 0 2.88 24 21:37 06.06.2020
1951 Clouds 21 1010 89 0 2.7 4 21:19 06.06.2020
1952 Clouds 19 1010 92 0 2.07 18 20:40 06.06.2020
1953 Clouds 19 1009 92 0 1.59 358 20:20 06.06.2020
1954 Clouds 19 1009 92 0 1.59 358 19:58 06.06.2020
1955 Clouds 19 1009 92 0 1.59 358 19:40 06.06.2020
1956 Clouds 20 1010 92 0 2.54 327 19:21 06.06.2020
1957 Clouds 20 1010 92 0 2.54 327 18:55 06.06.2020
1958 Clouds 20 1010 92 0 2.54 327 18:36 06.06.2020
1959 Clouds 20 1010 91 0 2.38 308 18:18 06.06.2020
1960 Clouds 20 1010 91 0 2.38 308 17:43 06.06.2020
1961 Clouds 22 1008 88 0 4.47 330 17:20 06.06.2020
1962 Clouds 22 1008 88 0 4.47 330 16:56 06.06.2020
1963 Clouds 22 1008 88 0 4.47 330 16:38 06.06.2020
1964 Clouds 22 1008 88 0 4.47 330 16:19 06.06.2020
1965 Clouds 22 1008 88 0 4.47 330 15:44 06.06.2020
1966 Clouds 22 1008 88 10000 4.6 330 15:20 06.06.2020
1967 Clouds 22 1008 88 10000 4.6 330 14:57 06.06.2020
1968 Clouds 22 1008 88 10000 4.6 330 14:37 06.06.2020
1969 Clouds 22 1008 88 10000 4.6 330 14:19 06.06.2020
1970 Clouds 23 1008 83 10000 3.6 320 13:46 06.06.2020
1971 Clouds 23 1007 88 10000 4.1 300 13:19 06.06.2020
1972 Clouds 23 1007 88 10000 4.1 300 12:56 06.06.2020
1973 Clouds 23 1007 88 10000 4.1 300 12:38 06.06.2020
1974 Clouds 23 1007 88 10000 4.1 300 12:18 06.06.2020
1975 Clouds 24 1006 78 10000 1 0 11:40 06.06.2020
1976 Clouds 24 1006 78 10000 1 0 11:20 06.06.2020
1977 Clouds 24 1006 78 10000 2.1 260 10:59 06.06.2020
1978 Clouds 24 1006 78 10000 2.1 260 10:40 06.06.2020
1979 Clouds 24 1006 78 10000 2.1 260 10:22 06.06.2020
1980 Clouds 24 1006 78 10000 4.6 310 09:59 06.06.2020
1981 Clouds 24 1006 78 10000 4.6 310 09:40 06.06.2020
1982 Clouds 24 1006 78 10000 4.6 310 09:21 06.06.2020
1983 Clouds 24 1006 83 10000 3.6 330 08:45 06.06.2020
1984 Clouds 24 1006 83 10000 3.6 330 08:24 06.06.2020
1985 Clouds 24 1006 88 10000 1 0 07:49 06.06.2020
1986 Rain 24 1006 83 10000 1.5 330 07:23 06.06.2020
1987 Rain 24 1006 83 10000 1.5 330 06:52 06.06.2020
1988 Rain 24 1006 83 10000 1.5 330 06:34 06.06.2020
1989 Rain 24 1006 88 10000 0.5 0 05:59 06.06.2020
1990 Rain 24 1006 88 10000 0.5 0 05:31 06.06.2020
1991 Rain 23 1007 94 10000 2.6 270 04:47 06.06.2020
1992 Rain 23 1007 94 10000 1.5 20 03:21 06.06.2020
1993 Clouds 24 1007 83 10000 3.1 210 01:58 06.06.2020
1994 Clouds 24 1007 83 10000 3.1 210 01:20 06.06.2020
1995 Clouds 23 1006 88 10000 2.1 170 00:46 06.06.2020
1996 Clouds 23 1006 88 10000 2.1 170 00:27 06.06.2020
1997 Clouds 22 1007 94 10000 2.1 310 23:58 05.06.2020
1998 Clouds 22 1007 94 0 1.79 310 23:39 05.06.2020
1999 Clouds 23 1007 83 10000 3.1 50 23:18 05.06.2020
2000 Clouds 21 1009 89 0 0.5 7 22:55 05.06.2020
2001 Clouds 21 1009 89 0 0.5 7 22:37 05.06.2020
2002 Clouds 21 1009 89 0 0.73 27 22:18 05.06.2020
2003 Clouds 21 1009 89 0 0.73 27 22:18 05.06.2020
2004 Clouds 21 1009 89 0 0.73 27 21:41 05.06.2020
2005 Clouds 21 1008 89 0 0.97 226 21:22 05.06.2020
2006 Clouds 21 1009 85 0 1.69 327 20:57 05.06.2020
2007 Clouds 21 1009 85 0 1.69 327 20:38 05.06.2020
2008 Clouds 21 1008 84 0 1.99 284 20:20 05.06.2020
2009 Clouds 21 1008 84 0 1.99 284 19:41 05.06.2020
2010 Clouds 21 1008 83 0 2 262 19:22 05.06.2020
2011 Clouds 21 1008 83 0 2 262 18:56 05.06.2020
2012 Clouds 21 1008 83 0 2 262 18:38 05.06.2020
2013 Clouds 24 1008 83 0 1.79 200 18:19 05.06.2020
2014 Clouds 24 1008 83 0 1.79 200 17:56 05.06.2020
2015 Clouds 24 1008 83 0 1.79 200 17:37 05.06.2020
2016 Clouds 24 1008 83 0 1.79 200 17:18 05.06.2020
2017 Clouds 24 1008 83 0 1.79 200 16:38 05.06.2020
2018 Clouds 24 1008 83 0 1.79 200 16:20 05.06.2020
2019 Clouds 24 1008 83 0 1.79 200 15:42 05.06.2020
2020 Clouds 24 1008 83 10000 2.1 200 15:21 05.06.2020
2021 Clouds 24 1008 83 10000 2.1 200 14:58 05.06.2020
2022 Clouds 24 1008 83 10000 2.1 200 14:40 05.06.2020
2023 Clouds 24 1008 83 10000 2.1 200 14:22 05.06.2020
2024 Clouds 24 1007 78 10000 1 0 13:57 05.06.2020
2025 Clouds 24 1007 78 10000 1 0 13:37 05.06.2020
2026 Clouds 24 1007 78 10000 1 0 13:18 05.06.2020
2027 Clouds 25 1007 78 10000 2.6 360 12:40 05.06.2020
2028 Clouds 25 1007 78 10000 2.6 360 12:19 05.06.2020
2029 Clouds 25 1006 78 10000 1.5 350 11:43 05.06.2020
2030 Clouds 25 1006 78 10000 1.5 350 11:25 05.06.2020
2031 Clouds 25 1006 83 10000 3.1 360 10:59 05.06.2020
2032 Clouds 25 1006 83 10000 3.1 360 10:41 05.06.2020
2033 Clouds 25 1006 83 10000 3.1 360 10:20 05.06.2020
2034 Clouds 25 1007 83 10000 5.7 330 09:57 05.06.2020
2035 Clouds 25 1007 83 10000 5.7 330 09:39 05.06.2020
2036 Clouds 25 1007 83 10000 5.7 330 09:20 05.06.2020
2037 Clouds 26 1007 78 10000 5.1 340 08:57 05.06.2020
2038 Clouds 26 1007 78 10000 5.1 340 08:39 05.06.2020
2039 Clouds 26 1007 78 10000 5.1 340 08:18 05.06.2020
2040 Clouds 27 1007 65 10000 4.1 340 07:49 05.06.2020
2041 Clouds 27 1007 65 10000 4.1 340 07:31 05.06.2020
2042 Clouds 28 1007 69 10000 3.1 350 06:45 05.06.2020
2043 Clouds 27 1007 65 10000 2.6 270 05:23 05.06.2020
2044 Clouds 26 1007 74 10000 2.6 330 04:27 05.06.2020
2045 Clouds 24 1008 78 10000 2.1 290 03:29 05.06.2020
2046 Clouds 22 1008 88 10000 1.5 290 02:28 05.06.2020
2047 Clouds 22 1008 88 10000 2.1 160 01:58 05.06.2020
2048 Clouds 22 1008 88 10000 2.1 160 01:30 05.06.2020
2049 Clouds 21 1007 94 10000 1 0 00:43 05.06.2020
2050 Clouds 21 1007 94 10000 1 0 00:21 05.06.2020
2051 Clouds 21 1007 94 10000 1 0 00:21 05.06.2020
2052 Clouds 21 1007 94 10000 1.5 150 23:47 04.06.2020
2053 Clouds 21 1007 94 10000 1.5 150 23:29 04.06.2020
2054 Clouds 20 1008 89 0 0.09 45 22:57 04.06.2020
2055 Clouds 20 1008 89 0 0.09 45 22:38 04.06.2020
2056 Clear 20 1007 90 0 0.37 37 22:18 04.06.2020
2057 Clear 20 1007 90 0 0.37 37 21:57 04.06.2020
2058 Clear 20 1007 90 0 0.37 37 21:38 04.06.2020
2059 Clear 20 1007 90 0 0.37 37 21:38 04.06.2020
2060 Clear 20 1007 92 0 0.56 337 21:19 04.06.2020
2061 Clear 20 1007 92 0 0.56 337 20:55 04.06.2020
2062 Clear 20 1007 92 0 0.56 337 20:36 04.06.2020
2063 Clouds 20 1007 92 0 0.21 268 20:18 04.06.2020
2064 Clouds 20 1007 92 0 0.21 268 19:40 04.06.2020
2065 Clouds 23 1006 83 0 1.79 180 19:21 04.06.2020
2066 Clouds 23 1006 83 0 1.79 180 19:21 04.06.2020
2067 Clouds 23 1006 83 0 1.79 180 18:56 04.06.2020
2068 Clouds 23 1006 83 0 1.79 180 18:56 04.06.2020
2069 Clouds 23 1006 83 0 1.79 180 18:38 04.06.2020
2070 Clouds 23 1006 83 0 1.79 180 18:20 04.06.2020
2071 Clouds 23 1006 83 0 1.79 180 17:42 04.06.2020
2072 Clouds 23 1006 83 0 1.79 180 17:21 04.06.2020
2073 Clouds 23 1006 83 0 1.79 180 16:56 04.06.2020
2074 Clouds 23 1006 83 0 1.79 180 16:38 04.06.2020
2075 Clouds 23 1006 83 0 1.79 180 16:18 04.06.2020
2076 Clouds 23 1006 83 0 1.79 180 15:43 04.06.2020
2077 Clouds 23 1006 83 10000 2.1 180 15:24 04.06.2020
2078 Clouds 23 1006 83 10000 2.1 180 14:40 04.06.2020
2079 Clouds 23 1006 83 10000 2.1 180 14:21 04.06.2020
2080 Clouds 24 1006 78 10000 2.1 0 13:56 04.06.2020
2081 Clouds 24 1006 78 10000 2.1 0 13:38 04.06.2020
2082 Clouds 24 1006 78 10000 2.1 0 13:20 04.06.2020
2083 Clouds 23 1005 88 10000 3.6 270 12:55 04.06.2020
2084 Clouds 23 1005 88 10000 3.6 270 12:37 04.06.2020
2085 Clouds 23 1005 88 10000 3.6 270 12:18 04.06.2020
2086 Clouds 24 1004 83 10000 4.1 260 11:41 04.06.2020
2087 Clouds 24 1004 83 10000 4.1 260 11:20 04.06.2020
2088 Clouds 26 1004 74 10000 4.1 270 10:59 04.06.2020
2089 Clouds 26 1004 74 10000 4.1 270 10:38 04.06.2020
2090 Clouds 26 1004 74 10000 4.1 270 10:38 04.06.2020
2091 Clouds 26 1004 74 10000 4.1 270 10:20 04.06.2020
2092 Clouds 26 1004 78 10000 4.1 270 09:46 04.06.2020
2093 Clouds 26 1004 78 10000 4.1 270 09:28 04.06.2020
2094 Clouds 26 1004 74 10000 4.6 260 08:50 04.06.2020
2095 Clouds 26 1004 74 10000 4.6 260 08:30 04.06.2020
2096 Clouds 26 1004 74 10000 3.1 280 07:59 04.06.2020
2097 Clouds 26 1004 74 10000 3.1 280 07:30 04.06.2020
2098 Clouds 27 1004 65 10000 2.1 280 06:45 04.06.2020
2099 Clouds 27 1004 69 10000 2.6 160 06:26 04.06.2020
2100 Clouds 27 1004 69 10000 2.6 160 05:51 04.06.2020
2101 Clouds 27 1004 69 10000 2.6 160 05:30 04.06.2020
2102 Clouds 24 1005 83 10000 4.6 160 03:31 04.06.2020
2103 Rain 22 1005 88 10000 1.5 0 01:58 04.06.2020
2104 Clouds 22 1005 88 10000 1 0 01:20 04.06.2020
2105 Clouds 22 1005 88 10000 1 0 00:51 04.06.2020
2106 Clouds 21 1005 94 10000 1.5 130 23:56 03.06.2020
2107 Clouds 21 1005 94 0 1.34 130 23:36 03.06.2020
2108 Clouds 22 1006 88 0 0.89 160 23:18 03.06.2020
2109 Clouds 22 1006 88 0 0.89 160 22:40 03.06.2020
2110 Clouds 22 1006 88 0 0.89 160 22:19 03.06.2020
2111 Clouds 22 1006 88 0 0.89 160 21:58 03.06.2020
2112 Clouds 22 1006 88 0 0.89 160 21:40 03.06.2020
2113 Clouds 22 1006 88 0 0.89 160 21:21 03.06.2020
2114 Clouds 22 1006 88 0 0.89 160 21:21 03.06.2020
2115 Clouds 22 1006 88 0 0.89 160 20:57 03.06.2020
2116 Clouds 22 1016 88 0 0.89 160 20:38 03.06.2020
2117 Clouds 22 1016 88 0 0.89 160 20:20 03.06.2020
2118 Clouds 22 1006 88 0 0.89 160 19:56 03.06.2020
2119 Clouds 22 1006 88 0 0.89 160 19:37 03.06.2020
2120 Clouds 22 1006 88 0 0.89 160 19:19 03.06.2020
2121 Clouds 22 1006 88 0 0.89 160 18:54 03.06.2020
2122 Clouds 22 1006 88 0 0.89 160 18:36 03.06.2020
2123 Clouds 22 1006 88 0 0.89 160 18:18 03.06.2020
2124 Clouds 22 1015 88 0 0.89 160 17:41 03.06.2020
2125 Clouds 22 1015 88 0 0.89 160 17:21 03.06.2020
2126 Clouds 22 1006 88 10000 3.1 190 16:55 03.06.2020
2127 Clouds 22 1006 88 0 0.89 160 16:37 03.06.2020
2128 Clouds 22 1006 88 0 0.89 160 16:18 03.06.2020
2129 Clouds 22 1006 88 0 0.89 160 15:41 03.06.2020
2130 Rain 22 1006 88 10000 1 160 15:21 03.06.2020
2131 Rain 22 1006 88 10000 1 160 14:57 03.06.2020
2132 Rain 22 1006 88 10000 1 160 14:37 03.06.2020
2133 Rain 22 1006 88 10000 1 160 14:19 03.06.2020
2134 Clouds 22 1005 88 10000 1.5 190 13:38 03.06.2020
2135 Clouds 22 1005 88 10000 1.5 190 13:19 03.06.2020
2136 Rain 22 1005 88 10000 1.5 200 12:43 03.06.2020
2137 Rain 22 1005 88 10000 1.5 200 12:21 03.06.2020
2138 Clouds 23 1005 83 10000 1 0 11:47 03.06.2020
2139 Clouds 23 1005 83 10000 1 0 11:27 03.06.2020
2140 Clouds 23 1004 88 10000 4.1 130 10:58 03.06.2020
2141 Clouds 23 1004 88 10000 4.1 130 10:39 03.06.2020
2142 Clouds 23 1004 88 10000 4.1 130 10:21 03.06.2020
2143 Clouds 23 1004 88 10000 6.2 130 09:44 03.06.2020
2144 Clouds 23 1004 88 10000 6.2 130 09:20 03.06.2020
2145 Rain 23 1003 94 10000 7.7 140 08:56 03.06.2020
2146 Rain 23 1003 94 10000 7.7 140 08:36 03.06.2020
2147 Rain 23 1003 94 10000 7.7 140 08:18 03.06.2020
2148 Rain 24 1005 83 10000 1 0 07:42 03.06.2020
2149 Rain 24 1005 78 10000 2.6 110 07:20 03.06.2020
2150 Rain 24 1005 78 10000 2.6 110 06:50 03.06.2020
2151 Rain 23 1005 78 10000 2.6 110 06:30 03.06.2020
2152 Rain 23 1006 83 10000 2.6 120 05:46 03.06.2020
2153 Rain 23 1006 83 10000 3.1 140 04:46 03.06.2020
2154 Rain 23 1006 83 10000 5.1 140 03:50 03.06.2020
2155 Clouds 23 1006 83 10000 4.6 140 02:47 03.06.2020
2156 Clouds 22 1006 88 10000 5.7 150 01:51 03.06.2020
2157 Clouds 21 1005 94 10000 4.6 140 00:43 03.06.2020
2158 Clouds 21 1005 94 10000 4.6 140 00:24 03.06.2020
2159 Clouds 21 1006 94 10000 4.6 140 23:51 02.06.2020
2160 Clouds 21 1006 94 10000 4.6 140 23:28 02.06.2020
2161 Clouds 21 1006 94 10000 4.6 140 23:28 02.06.2020
2162 Clouds 21 1006 94 10000 4.6 140 23:28 02.06.2020
2163 Clouds 21 1008 83 0 2.24 150 22:57 02.06.2020
2164 Clouds 21 1008 83 0 2.24 150 22:38 02.06.2020
2165 Clouds 21 1008 83 0 2.24 150 22:19 02.06.2020
2166 Clouds 21 1008 83 0 2.24 150 21:56 02.06.2020
2167 Clouds 21 1008 83 0 2.24 150 21:37 02.06.2020
2168 Clouds 21 1008 83 0 2.24 150 21:19 02.06.2020
2169 Clouds 21 1008 83 0 2.24 150 20:55 02.06.2020
2170 Clouds 21 1008 83 0 2.24 150 20:36 02.06.2020
2171 Clouds 21 1008 83 0 2.24 150 20:18 02.06.2020
2172 Clouds 21 1008 83 0 2.24 150 19:42 02.06.2020
2173 Clouds 21 1008 83 0 2.24 150 19:23 02.06.2020
2174 Clouds 21 1008 83 0 2.24 150 18:57 02.06.2020
2175 Clouds 21 1008 83 0 2.24 150 18:38 02.06.2020
2176 Clouds 21 1008 83 0 2.24 150 18:19 02.06.2020
2177 Clouds 21 1008 83 0 2.24 150 17:43 02.06.2020
2178 Clouds 21 1008 83 0 2.24 150 17:23 02.06.2020
2179 Clouds 21 1008 83 0 2.24 150 16:59 02.06.2020
2180 Clouds 21 1008 83 0 2.24 150 16:40 02.06.2020
2181 Clouds 21 1008 83 0 2.24 150 16:21 02.06.2020
2182 Clouds 21 1008 83 0 2.24 150 15:57 02.06.2020
2183 Clouds 21 1008 83 10000 2.6 150 15:37 02.06.2020
2184 Clouds 21 1008 83 10000 2.6 150 15:18 02.06.2020
2185 Clouds 21 1008 83 10000 2.6 150 14:42 02.06.2020
2186 Clouds 21 1008 83 10000 2.6 150 14:23 02.06.2020
2187 Clouds 22 1008 78 10000 1.5 190 13:54 02.06.2020
2188 Clouds 22 1008 78 10000 1.5 190 13:36 02.06.2020
2189 Clouds 22 1008 78 10000 1.5 190 13:18 02.06.2020
2190 Clouds 23 1008 78 10000 3.6 260 12:40 02.06.2020
2191 Clouds 23 1008 78 10000 3.6 260 12:40 02.06.2020
2192 Clouds 23 1008 78 10000 3.6 260 12:21 02.06.2020
2193 Clouds 24 1008 73 10000 4.6 260 11:56 02.06.2020
2194 Clouds 24 1008 73 10000 4.6 260 11:38 02.06.2020
2195 Clouds 24 1008 73 10000 4.6 260 11:20 02.06.2020
2196 Clouds 24 1007 69 10000 3.6 270 10:47 02.06.2020
2197 Clouds 24 1007 69 10000 3.6 270 10:28 02.06.2020
2198 Clouds 25 1008 65 10000 5.1 260 09:58 02.06.2020
2199 Clouds 25 1008 65 10000 5.1 260 09:38 02.06.2020
2200 Clouds 25 1008 65 10000 5.1 260 09:20 02.06.2020
2201 Clouds 26 1008 54 10000 4.1 270 08:48 02.06.2020
2202 Clouds 26 1008 54 10000 4.1 270 08:21 02.06.2020
2203 Clouds 26 1008 54 10000 3.6 270 07:52 02.06.2020
2204 Clouds 26 1008 54 10000 3.6 270 07:25 02.06.2020
2205 Clouds 26 1009 57 10000 3.6 260 06:45 02.06.2020
2206 Clouds 25 1009 65 10000 2.6 270 05:58 02.06.2020
2207 Clouds 25 1009 65 10000 2.6 270 05:21 02.06.2020
2208 Clouds 23 1010 73 10000 1 0 03:25 02.06.2020
2209 Clouds 22 1011 73 10000 1 0 02:26 02.06.2020
2210 Clouds 21 1011 73 10000 1 0 01:22 02.06.2020
2211 Clouds 19 1010 93 10000 3.1 130 00:25 02.06.2020
2212 Clouds 18 1011 88 10000 2.1 100 23:56 01.06.2020
2213 Clear 18 1010 88 0 1.79 100 23:37 01.06.2020
2214 Clear 18 1010 82 0 0.45 208 23:18 01.06.2020
2215 Clear 18 1010 82 0 0.45 208 22:41 01.06.2020
2216 Clear 18 1010 84 0 0.24 226 22:21 01.06.2020
2217 Clear 18 1010 84 0 0.24 226 22:21 01.06.2020
2218 Clear 18 1010 84 0 0.24 226 21:58 01.06.2020
2219 Clear 18 1010 84 0 0.24 226 21:39 01.06.2020
2220 Clear 17 1010 87 0 0.66 306 21:19 01.06.2020
2221 Clear 17 1010 87 0 0.66 306 20:55 01.06.2020
2222 Clear 17 1010 87 0 0.66 306 20:55 01.06.2020
2223 Clear 17 1010 87 0 0.66 306 20:37 01.06.2020
2224 Clear 18 1010 87 0 0.75 315 20:18 01.06.2020
2225 Clear 18 1010 87 0 0.75 315 19:43 01.06.2020
2226 Clear 18 1011 87 0 1.42 318 19:21 01.06.2020
2227 Clear 18 1011 87 0 1.42 318 18:59 01.06.2020
2228 Clear 18 1011 87 0 1.42 318 18:39 01.06.2020
2229 Clear 18 1011 87 0 1.83 309 18:20 01.06.2020
2230 Clear 18 1011 87 0 1.83 309 17:56 01.06.2020
2231 Clouds 20 1010 88 10000 2.6 290 17:38 01.06.2020
2232 Clouds 20 1010 88 10000 2.6 290 17:18 01.06.2020
2233 Clouds 20 1010 88 10000 2.6 290 16:40 01.06.2020
2234 Clear 21 1010 88 0 4.47 340 16:22 01.06.2020
2235 Clear 21 1010 88 0 4.47 340 15:56 01.06.2020
2236 Clouds 21 1010 88 10000 4.6 340 15:37 01.06.2020
2237 Clouds 21 1010 88 10000 4.6 340 15:18 01.06.2020
2238 Clouds 21 1010 88 10000 4.6 340 14:56 01.06.2020
2239 Clouds 21 1010 88 10000 4.6 340 14:38 01.06.2020
2240 Clouds 21 1010 88 10000 4.6 340 14:19 01.06.2020
2241 Clouds 22 1010 83 10000 3.1 350 13:43 01.06.2020
2242 Clouds 22 1010 83 10000 3.1 350 13:21 01.06.2020
2243 Clouds 22 1009 83 10000 3.6 320 12:58 01.06.2020
2244 Clouds 22 1009 83 10000 3.6 320 12:40 01.06.2020
2245 Clouds 22 1009 83 10000 3.6 320 12:40 01.06.2020
2246 Clouds 22 1009 83 10000 3.6 320 12:21 01.06.2020
2247 Clouds 23 1009 83 10000 5.1 320 11:57 01.06.2020
2248 Clouds 23 1009 83 10000 5.1 320 11:37 01.06.2020
2249 Clouds 23 1009 83 10000 5.1 320 11:18 01.06.2020
2250 Clouds 24 1008 83 10000 1.5 240 10:54 01.06.2020
2251 Clouds 24 1008 83 10000 1.5 240 10:36 01.06.2020
2252 Clouds 24 1008 83 10000 1.5 240 10:18 01.06.2020
2253 Rain 24 1009 88 10000 3.1 270 09:43 01.06.2020
2254 Rain 24 1009 88 10000 3.1 270 09:24 01.06.2020
2255 Clouds 24 1009 88 10000 2.1 0 08:54 01.06.2020
2256 Clouds 24 1009 88 10000 2.1 0 08:31 01.06.2020
2257 Clouds 24 1009 83 10000 3.6 280 07:57 01.06.2020
2258 Clouds 24 1009 83 10000 3.6 280 07:38 01.06.2020
2259 Clouds 24 1009 83 10000 3.6 280 07:20 01.06.2020
2260 Clouds 25 1009 78 10000 3.1 290 06:49 01.06.2020
2261 Clouds 24 1009 83 10000 1 0 05:54 01.06.2020
2262 Clouds 24 1009 83 10000 3.6 130 04:56 01.06.2020
2263 Clouds 24 1010 78 10000 3.1 130 03:55 01.06.2020
2264 Clouds 24 1010 78 10000 3.1 130 03:35 01.06.2020
2265 Clouds 23 1010 83 10000 3.6 130 02:34 01.06.2020
2266 Rain 22 1010 88 10000 4.6 140 01:35 01.06.2020
2267 Clouds 22 1009 88 10000 4.6 140 00:59 01.06.2020
2268 Clouds 22 1009 88 10000 4.6 140 00:40 01.06.2020
2269 Clouds 22 1009 88 10000 4.6 140 00:21 01.06.2020
2270 Clouds 22 1010 88 10000 3.6 140 23:58 31.05.2020
2271 Clouds 22 1010 88 10000 3.6 140 23:39 31.05.2020
2272 Clouds 22 1010 88 10000 3.6 140 23:20 31.05.2020
2273 Clouds 23 1010 78 0 1.34 290 22:54 31.05.2020
2274 Clouds 23 1010 78 0 1.34 290 22:36 31.05.2020
2275 Rain 23 1010 78 0 1.34 290 22:18 31.05.2020
2276 Rain 23 1010 78 0 1.34 290 21:42 31.05.2020
2277 Clouds 23 1010 78 0 1.34 290 21:23 31.05.2020
2278 Rain 23 1010 78 0 1.34 290 20:58 31.05.2020
2279 Rain 23 1010 78 0 1.34 290 20:40 31.05.2020
2280 Rain 23 1010 78 0 1.34 290 20:21 31.05.2020
2281 Rain 23 1010 78 0 1.34 290 19:56 31.05.2020
2282 Rain 23 1010 78 0 1.34 290 19:37 31.05.2020
2283 Rain 23 1010 78 0 1.34 290 19:19 31.05.2020
2284 Rain 23 1010 78 0 1.34 290 18:44 31.05.2020
2285 Clouds 23 1010 78 0 1.34 290 18:25 31.05.2020
2286 Clouds 23 1010 78 0 1.34 290 17:46 31.05.2020
2287 Clouds 23 1010 78 0 1.34 290 17:26 31.05.2020
2288 Clouds 23 1010 78 0 1.34 290 16:59 31.05.2020
2289 Clouds 23 1010 78 0 1.34 290 16:40 31.05.2020
2290 Clouds 23 1010 78 0 1.34 290 16:21 31.05.2020
2291 Clouds 23 1010 78 0 1.34 290 16:21 31.05.2020
2292 Clouds 23 1010 78 0 1.34 290 15:40 31.05.2020
2293 Clouds 23 1010 78 10000 1.5 290 15:21 31.05.2020
2294 Clouds 23 1010 78 10000 1.5 290 14:47 31.05.2020
2295 Clouds 23 1010 78 10000 1.5 290 14:23 31.05.2020
2296 Clouds 23 1009 78 10000 1.5 300 13:57 31.05.2020
2297 Clouds 23 1009 78 10000 1.5 300 13:38 31.05.2020
2298 Clouds 23 1009 78 10000 1.5 300 13:20 31.05.2020
2299 Clouds 24 1009 69 10000 2.6 280 12:58 31.05.2020
2300 Clouds 24 1009 69 10000 2.6 280 12:38 31.05.2020
2301 Clouds 24 1009 69 10000 2.6 280 12:19 31.05.2020
2302 Clouds 24 1009 69 10000 2.6 280 12:19 31.05.2020
2303 Clouds 24 1009 69 10000 2.6 280 11:49 31.05.2020
2304 Clouds 24 1009 69 10000 2.6 280 11:24 31.05.2020
2305 Clouds 25 1009 65 10000 4.1 260 10:57 31.05.2020
2306 Clouds 25 1009 65 10000 4.1 260 10:39 31.05.2020
2307 Clouds 25 1009 65 10000 4.1 260 10:20 31.05.2020
2308 Clouds 27 1009 57 10000 4.1 180 09:42 31.05.2020
2309 Clouds 27 1009 57 10000 4.1 180 09:42 31.05.2020
2310 Clouds 27 1009 57 10000 4.1 180 09:23 31.05.2020
2311 Clouds 28 1009 58 10000 4.1 140 08:58 31.05.2020
2312 Clouds 28 1009 58 10000 4.1 140 08:38 31.05.2020
2313 Clouds 28 1009 58 10000 4.1 140 08:20 31.05.2020
2314 Clouds 28 1009 54 10000 4.1 160 07:44 31.05.2020
2315 Clouds 28 1009 54 10000 4.1 160 07:21 31.05.2020
2316 Clouds 26 1009 57 10000 5.7 170 06:54 31.05.2020
2317 Clouds 26 1009 57 10000 5.7 170 06:32 31.05.2020
2318 Clouds 25 1010 61 10000 1.5 0 05:44 31.05.2020
2319 Clouds 23 1011 73 10000 3.1 310 04:29 31.05.2020
2320 Clouds 23 1011 78 10000 1 0 03:49 31.05.2020
2321 Clouds 22 1012 78 10000 2.1 250 02:59 31.05.2020
2322 Clouds 20 1013 88 9000 1 0 01:50 31.05.2020
2323 Clouds 19 1013 88 9000 1 0 01:27 31.05.2020
2324 Clouds 19 1012 93 8000 1 0 00:31 31.05.2020
2325 Clouds 19 1013 93 8000 2.1 160 23:57 30.05.2020
2326 Clouds 20 1013 93 8000 2.1 160 23:38 30.05.2020
2327 Clouds 20 1013 93 8000 2.1 160 23:38 30.05.2020
2328 Clouds 20 1013 93 8000 2.1 160 23:19 30.05.2020
2329 Clouds 21 1016 73 0 1.34 190 22:41 30.05.2020
2330 Clouds 21 1016 73 0 1.34 190 22:23 30.05.2020
2331 Clouds 21 1016 73 0 1.34 190 21:56 30.05.2020
2332 Clouds 21 1016 73 0 1.34 190 21:56 30.05.2020
2333 Clouds 21 1016 73 0 1.34 190 21:37 30.05.2020
2334 Rain 21 1016 73 0 1.34 190 21:19 30.05.2020
2335 Rain 21 1016 73 0 1.34 190 20:56 30.05.2020
2336 Rain 21 1016 73 0 1.34 190 20:37 30.05.2020
2337 Rain 21 1016 73 0 1.34 190 20:37 30.05.2020
2338 Rain 21 1016 73 0 1.34 190 20:19 30.05.2020
2339 Rain 21 1016 73 0 1.34 190 19:42 30.05.2020
2340 Rain 21 1016 73 0 1.34 190 19:22 30.05.2020
2341 Rain 21 1016 73 0 1.34 190 18:46 30.05.2020
2342 Rain 18 1015 89 0 2.1 135 18:24 30.05.2020
2343 Rain 18 1015 89 0 2.1 135 18:24 30.05.2020
2344 Rain 18 1015 89 0 2.1 135 17:55 30.05.2020
2345 Rain 21 1015 77 10000 2.1 260 17:37 30.05.2020
2346 Rain 21 1016 73 0 1.34 190 17:18 30.05.2020
2347 Rain 21 1016 73 0 1.34 190 16:42 30.05.2020
2348 Rain 21 1016 73 0 1.34 190 16:22 30.05.2020
2349 Rain 21 1016 73 0 1.34 190 15:49 30.05.2020
2350 Rain 21 1016 73 10000 1.5 190 15:29 30.05.2020
2351 Rain 21 1016 73 10000 1.5 190 14:59 30.05.2020
2352 Rain 21 1016 73 10000 1.5 190 14:41 30.05.2020
2353 Rain 21 1016 73 10000 1.5 190 14:18 30.05.2020
2354 Rain 22 1015 68 10000 2.6 250 13:41 30.05.2020
2355 Rain 22 1015 68 10000 2.6 250 13:18 30.05.2020
2356 Clouds 22 1015 68 10000 3.6 260 12:39 30.05.2020
2357 Clouds 22 1015 68 10000 3.6 260 12:20 30.05.2020
2358 Clouds 23 1014 64 10000 2.6 260 11:54 30.05.2020
2359 Clouds 23 1014 64 10000 2.6 260 11:36 30.05.2020
2360 Clouds 23 1014 64 10000 2.6 260 11:18 30.05.2020
2361 Clouds 24 1015 60 10000 1.5 310 10:39 30.05.2020
2362 Clouds 24 1015 60 10000 1.5 310 10:20 30.05.2020
2363 Clouds 24 1015 57 10000 1.5 270 09:45 30.05.2020
2364 Clouds 24 1015 57 10000 1.5 270 09:27 30.05.2020
2365 Clouds 24 1015 57 10000 1 0 08:46 30.05.2020
2366 Clouds 24 1015 57 10000 1 0 08:27 30.05.2020
2367 Clouds 24 1016 64 10000 2.1 190 07:43 30.05.2020
2368 Clouds 24 1016 64 10000 2.1 190 07:20 30.05.2020
2369 Clouds 24 1016 64 10000 1 0 06:31 30.05.2020
2370 Clouds 23 1017 53 10000 1.5 130 05:52 30.05.2020
2371 Clouds 23 1017 53 10000 1.5 130 05:20 30.05.2020
2372 Clouds 22 1017 68 10000 2.6 140 03:35 30.05.2020
2373 Clouds 21 1017 77 10000 2.1 150 02:29 30.05.2020
2374 Clouds 20 1017 77 10000 2.6 130 01:30 30.05.2020
2375 Clouds 20 1016 82 10000 2.6 140 00:36 30.05.2020
2376 Clouds 20 1016 82 10000 2.6 140 00:18 30.05.2020
2377 Clouds 19 1017 88 10000 1.5 110 23:41 29.05.2020
2378 Clouds 20 1017 88 10000 1.5 110 23:20 29.05.2020
2379 Clouds 21 1014 77 0 4.02 340 22:56 29.05.2020
2380 Clouds 21 1014 77 0 4.02 340 22:37 29.05.2020
2381 Clouds 21 1014 77 0 4.02 340 22:18 29.05.2020
2382 Clouds 21 1014 77 0 4.02 340 22:18 29.05.2020
2383 Clouds 21 1014 77 0 4.02 340 21:41 29.05.2020
2384 Clouds 21 1014 77 0 4.02 340 21:21 29.05.2020
2385 Clouds 21 1014 77 0 4.02 340 20:58 29.05.2020
2386 Clouds 21 1014 77 0 4.02 340 20:39 29.05.2020
2387 Clouds 21 1014 77 0 4.02 340 20:19 29.05.2020
2388 Clouds 21 1014 77 0 4.02 340 19:43 29.05.2020
2389 Clouds 21 1014 77 0 4.02 340 19:25 29.05.2020
2390 Clouds 21 1014 77 0 4.02 340 18:48 29.05.2020
2391 Clouds 21 1014 77 0 4.02 340 18:24 29.05.2020
2392 Clouds 21 1014 77 0 4.02 340 17:59 29.05.2020
2393 Clouds 21 1014 77 0 4.02 340 17:39 29.05.2020
2394 Clouds 21 1014 77 0 4.02 340 17:21 29.05.2020
2395 Clouds 21 1014 77 0 4.02 340 16:55 29.05.2020
2396 Clouds 21 1014 77 0 4.02 340 16:37 29.05.2020
2397 Clouds 21 1014 77 0 4.02 340 16:19 29.05.2020
2398 Clouds 21 1014 77 0 4.02 340 15:42 29.05.2020
2399 Clouds 21 1014 77 10000 4.1 340 15:21 29.05.2020
2400 Clouds 21 1014 77 10000 4.1 340 14:58 29.05.2020
2401 Clouds 21 1014 77 10000 4.1 340 14:38 29.05.2020
2402 Clouds 21 1014 77 10000 4.1 340 14:38 29.05.2020
2403 Clouds 21 1014 77 10000 4.1 340 14:19 29.05.2020
2404 Clouds 22 1014 73 10000 5.7 320 13:43 29.05.2020
2405 Clouds 22 1014 73 10000 5.7 320 13:22 29.05.2020
2406 Clouds 22 1013 68 10000 4.6 310 12:56 29.05.2020
2407 Clouds 22 1013 68 10000 4.6 310 12:56 29.05.2020
2408 Clouds 22 1013 68 10000 4.6 310 12:37 29.05.2020
2409 Clouds 22 1013 68 10000 4.6 310 12:18 29.05.2020
2410 Clouds 24 1013 64 10000 3.1 300 11:42 29.05.2020
2411 Clouds 24 1013 64 10000 3.1 300 11:42 29.05.2020
2412 Clouds 24 1013 64 10000 3.1 300 11:42 29.05.2020
2413 Clouds 24 1013 64 10000 3.1 300 11:42 29.05.2020
2414 Clouds 24 1013 64 10000 3.1 300 11:24 29.05.2020
2415 Clouds 24 1012 60 10000 4.1 310 10:46 29.05.2020
2416 Clouds 24 1012 60 10000 4.1 310 10:24 29.05.2020
2417 Clouds 25 1012 57 10000 4.1 320 09:58 29.05.2020
2418 Clouds 25 1012 57 10000 4.1 320 09:40 29.05.2020
2419 Clouds 25 1012 57 10000 4.1 320 09:19 29.05.2020
2420 Clouds 25 1013 53 10000 3.1 270 08:47 29.05.2020
2421 Clouds 25 1013 53 10000 3.1 270 08:24 29.05.2020
2422 Clouds 25 1012 53 10000 2.6 260 07:48 29.05.2020
2423 Clouds 25 1012 53 10000 2.6 260 07:29 29.05.2020
2424 Clouds 25 1013 53 10000 2.6 290 06:56 29.05.2020
2425 Clouds 24 1013 53 10000 2.6 290 06:37 29.05.2020
2426 Clouds 24 1013 53 10000 2.6 290 06:18 29.05.2020
2427 Clouds 24 1013 53 10000 2.6 270 05:40 29.05.2020
2428 Clouds 21 1013 68 10000 1 0 01:53 29.05.2020
2429 Clouds 21 1013 68 10000 1 0 01:27 29.05.2020
2430 Clouds 18 1013 88 10000 2.1 140 00:51 29.05.2020
2431 Clouds 18 1013 88 10000 2.1 140 00:29 29.05.2020
2432 Clouds 19 1013 80 0 0.91 58 23:56 28.05.2020
2433 Clouds 19 1013 80 0 0.91 58 23:38 28.05.2020
2434 Clouds 18 1013 83 0 1.09 23 23:18 28.05.2020
2435 Clouds 18 1013 83 0 1.09 23 22:40 28.05.2020
2436 Clouds 18 1013 83 0 1.09 23 22:40 28.05.2020
2437 Clear 17 1012 84 0 0.99 359 22:20 28.05.2020
2438 Clear 17 1012 84 0 0.99 359 21:55 28.05.2020
2439 Clear 17 1012 84 0 0.99 359 21:37 28.05.2020
2440 Clouds 18 1012 84 0 1.18 298 21:18 28.05.2020
2441 Clouds 18 1012 84 0 1.18 298 20:42 28.05.2020
2442 Clouds 18 1012 83 0 1.22 279 20:20 28.05.2020
2443 Clouds 18 1012 83 0 1.22 279 19:59 28.05.2020
2444 Clouds 18 1012 83 0 1.22 279 19:41 28.05.2020
2445 Clouds 18 1012 81 0 1.6 273 19:20 28.05.2020
2446 Clouds 18 1012 81 0 1.6 273 18:57 28.05.2020
2447 Clouds 18 1012 81 0 1.6 273 18:38 28.05.2020
2448 Clouds 18 1012 79 0 1.98 263 18:20 28.05.2020
2449 Clouds 18 1012 79 0 1.98 263 17:40 28.05.2020
2450 Clouds 19 1012 63 10000 1.5 40 17:21 28.05.2020
2451 Clouds 19 1012 63 10000 1.5 40 16:47 28.05.2020
2452 Clouds 19 1012 63 10000 1.5 40 16:21 28.05.2020
2453 Clouds 19 1011 63 10000 2.6 280 15:59 28.05.2020
2454 Clouds 19 1011 63 10000 2.6 280 15:40 28.05.2020
2455 Clouds 21 1011 56 10000 2.1 210 15:22 28.05.2020
2456 Clouds 21 1011 56 10000 2.1 210 14:42 28.05.2020
2457 Clouds 21 1011 56 10000 2.1 210 14:23 28.05.2020
2458 Clouds 22 1010 56 10000 1 0 13:47 28.05.2020
2459 Clouds 22 1010 56 10000 1 0 13:29 28.05.2020
2460 Clouds 22 1010 56 10000 2.6 250 12:57 28.05.2020
2461 Clouds 22 1010 56 10000 2.6 250 12:38 28.05.2020
2462 Clouds 22 1010 56 10000 2.6 250 12:18 28.05.2020
2463 Clouds 23 1009 49 10000 1.5 0 11:41 28.05.2020
2464 Clouds 23 1009 49 10000 1.5 0 11:23 28.05.2020
2465 Clouds 24 1009 50 10000 3.1 260 10:50 28.05.2020
2466 Clouds 24 1009 50 10000 3.1 260 10:28 28.05.2020
2467 Clouds 25 1009 38 10000 1.5 260 09:59 28.05.2020
2468 Clouds 25 1009 38 10000 1.5 260 09:39 28.05.2020
2469 Clouds 25 1009 38 10000 1.5 260 09:19 28.05.2020
2470 Clouds 25 1009 33 10000 4.1 340 08:44 28.05.2020
2471 Clouds 25 1009 33 10000 4.1 340 08:25 28.05.2020
2472 Clear 25 1009 33 10000 4.1 340 07:45 28.05.2020
2473 Clear 25 1009 33 10000 4.1 340 07:24 28.05.2020
2474 Clouds 24 1010 41 10000 6.7 340 06:51 28.05.2020
2475 Clouds 24 1010 41 10000 6.7 340 06:31 28.05.2020
2476 Clouds 24 1010 50 10000 5.1 340 05:40 28.05.2020
2477 Clouds 23 1010 53 10000 3.6 340 04:46 28.05.2020
2478 Clouds 23 1010 53 10000 3.6 340 04:22 28.05.2020
2479 Clouds 22 1010 49 10000 2.1 340 03:42 28.05.2020
2480 Clear 20 1010 64 10000 1.5 0 02:45 28.05.2020
2481 Clouds 19 1010 77 10000 0.5 0 01:46 28.05.2020
2482 Clouds 19 1009 77 10000 0.5 0 00:50 28.05.2020
2483 Clouds 19 1009 77 10000 0.5 0 00:22 28.05.2020
2484 Clouds 18 1010 70 0 1.46 354 23:56 27.05.2020
2485 Clouds 18 1010 70 0 1.46 354 23:38 27.05.2020
2486 Clouds 17 1009 77 0 1.93 351 23:19 27.05.2020
2487 Clouds 17 1009 77 0 1.93 351 22:43 27.05.2020
2488 Clouds 16 1009 80 0 2.19 352 22:23 27.05.2020
2489 Clouds 16 1009 80 0 2.19 352 21:57 27.05.2020
2490 Clouds 16 1009 80 0 2.19 352 21:39 27.05.2020
2491 Clear 16 1009 78 0 2.47 358 21:20 27.05.2020
2492 Clear 16 1009 78 0 2.47 358 20:58 27.05.2020
2493 Clear 16 1009 78 0 2.47 358 20:39 27.05.2020
2494 Clouds 17 1009 79 0 2.88 345 20:20 27.05.2020
2495 Clouds 17 1009 79 0 2.88 345 19:46 27.05.2020
2496 Clouds 17 1009 79 0 2.79 341 19:21 27.05.2020
2497 Clouds 17 1009 79 0 2.79 341 18:54 27.05.2020
2498 Clouds 17 1009 79 0 2.79 341 18:36 27.05.2020
2499 Clouds 17 1009 78 0 2.53 335 18:18 27.05.2020
2500 Clouds 17 1009 78 0 2.53 335 17:42 27.05.2020
2501 Clouds 19 1008 82 10000 2.1 310 17:23 27.05.2020
2502 Clouds 19 1008 82 10000 2.1 310 16:56 27.05.2020
2503 Clouds 19 1008 82 10000 2.1 310 16:38 27.05.2020
2504 Clouds 19 1008 82 10000 2.1 310 16:38 27.05.2020
2505 Clouds 19 1008 82 0 3.58 300 16:19 27.05.2020
2506 Clouds 19 1008 82 0 3.58 300 15:48 27.05.2020
2507 Clouds 19 1008 82 10000 3.6 300 15:22 27.05.2020
2508 Clouds 19 1008 82 10000 3.6 300 14:47 27.05.2020
2509 Clouds 19 1008 82 10000 3.6 300 14:23 27.05.2020
2510 Clouds 20 1007 77 10000 3.6 300 13:59 27.05.2020
2511 Clouds 20 1007 77 10000 3.6 300 13:41 27.05.2020
2512 Clouds 20 1007 77 10000 3.6 300 13:22 27.05.2020
2513 Clouds 21 1007 73 10000 4.1 300 12:42 27.05.2020
2514 Clouds 21 1007 73 10000 4.1 300 12:23 27.05.2020
2515 Clouds 22 1006 68 10000 4.6 310 11:56 27.05.2020
2516 Clouds 22 1006 68 10000 4.6 310 11:37 27.05.2020
2517 Clouds 22 1006 68 10000 4.6 310 11:18 27.05.2020
2518 Clouds 22 1006 73 10000 6.2 330 10:43 27.05.2020
2519 Clouds 22 1006 73 10000 6.2 330 10:24 27.05.2020
2520 Clouds 23 1006 69 10000 7.7 340 09:57 27.05.2020
2521 Clouds 23 1006 69 10000 7.7 340 09:57 27.05.2020
2522 Clouds 23 1006 69 10000 7.7 340 09:39 27.05.2020
2523 Clouds 24 1006 64 10000 5.1 340 09:20 27.05.2020
2524 Clouds 24 1006 64 10000 5.1 340 08:42 27.05.2020
2525 Clouds 24 1006 64 10000 5.1 340 08:24 27.05.2020
2526 Clouds 24 1007 60 10000 2.1 260 07:53 27.05.2020
2527 Clouds 24 1007 60 10000 2.1 260 07:34 27.05.2020
2528 Clouds 24 1007 64 10000 2.1 280 06:55 27.05.2020
2529 Clouds 24 1007 64 10000 2.1 280 06:30 27.05.2020
2530 Clouds 24 1008 60 10000 3.6 260 05:50 27.05.2020
2531 Clouds 24 1008 60 10000 3.6 260 05:25 27.05.2020
2532 Clouds 22 1008 68 10000 3.1 330 03:21 27.05.2020
2533 Clouds 20 1009 72 10000 2.1 350 02:27 27.05.2020
2534 Clouds 19 1008 77 10000 0.5 0 01:32 27.05.2020
2535 Clouds 18 1008 88 10000 1.5 130 00:50 27.05.2020
2536 Clouds 18 1008 88 10000 1.5 130 00:24 27.05.2020
2537 Clouds 18 1009 88 0 1.79 140 23:58 26.05.2020
2538 Clouds 18 1009 88 0 1.79 140 23:39 26.05.2020
2539 Clouds 18 1009 88 0 1.79 140 23:21 26.05.2020
2540 Clouds 18 1009 88 0 1.79 140 22:57 26.05.2020
2541 Clouds 18 1009 88 0 1.79 140 22:37 26.05.2020
2542 Clouds 18 1009 88 0 1.79 140 22:19 26.05.2020
2543 Clouds 18 1009 88 0 1.79 140 21:55 26.05.2020
2544 Clouds 17 1009 82 0 2.47 328 21:36 26.05.2020
2545 Clouds 17 1008 82 0 1.85 336 21:18 26.05.2020
2546 Clouds 17 1009 82 0 2.2 336 20:41 26.05.2020
2547 Clouds 18 1009 88 0 1.79 140 20:20 26.05.2020
2548 Clouds 18 1009 88 0 1.79 140 19:41 26.05.2020
2549 Clouds 18 1009 88 0 1.79 140 19:21 26.05.2020
2550 Clouds 18 1009 88 0 1.79 140 18:59 26.05.2020
2551 Clouds 18 1009 88 0 1.79 140 18:39 26.05.2020
2552 Clouds 18 1009 88 0 1.79 140 18:21 26.05.2020
2553 Clouds 18 1009 88 0 1.79 140 17:42 26.05.2020
2554 Clouds 18 1009 88 0 1.79 140 17:23 26.05.2020
2555 Clouds 18 1009 88 0 1.79 140 16:49 26.05.2020
2556 Clouds 18 1009 88 0 1.79 140 16:23 26.05.2020
2557 Clouds 18 1009 88 0 1.79 140 15:59 26.05.2020
2558 Clouds 18 1009 88 0 1.79 140 15:40 26.05.2020
2559 Clouds 18 1009 88 10000 2.1 140 15:20 26.05.2020
2560 Clouds 18 1009 88 10000 2.1 140 14:55 26.05.2020
2561 Clouds 18 1009 88 10000 2.1 140 14:36 26.05.2020
2562 Clouds 18 1009 88 10000 2.1 140 14:18 26.05.2020
2563 Clouds 19 1009 77 10000 2.1 150 13:41 26.05.2020
2564 Clouds 19 1009 77 10000 2.1 150 13:22 26.05.2020
2565 Clouds 19 1009 82 10000 1 210 12:44 26.05.2020
2566 Clouds 19 1009 82 10000 1 210 12:23 26.05.2020
2567 Clouds 19 1009 72 10000 0.5 180 11:59 26.05.2020
2568 Clouds 19 1009 72 10000 0.5 180 11:40 26.05.2020
2569 Clouds 19 1009 72 10000 0.5 180 11:40 26.05.2020
2570 Clouds 19 1009 72 10000 0.5 180 11:19 26.05.2020
2571 Clouds 19 1009 72 10000 0.5 180 11:19 26.05.2020
2572 Rain 19 1008 72 10000 1.5 340 10:47 26.05.2020
2573 Rain 19 1008 72 10000 1.5 340 10:19 26.05.2020
2574 Clouds 20 1008 72 10000 1.5 350 09:55 26.05.2020
2575 Clouds 20 1008 72 10000 1.5 350 09:37 26.05.2020
2576 Clouds 20 1008 72 10000 1.5 350 09:18 26.05.2020
2577 Rain 19 1009 72 10000 3.1 310 08:39 26.05.2020
2578 Rain 19 1009 72 10000 3.1 310 08:21 26.05.2020
2579 Rain 18 1009 72 10000 5.7 320 07:41 26.05.2020
2580 Rain 18 1009 72 10000 5.7 320 07:22 26.05.2020
2581 Rain 21 1010 77 10000 5.7 320 06:49 26.05.2020
2582 Rain 21 1010 77 10000 5.7 320 06:23 26.05.2020
2583 Rain 21 1010 94 10000 3.6 340 05:35 26.05.2020
2584 Rain 22 1009 83 10000 2.1 330 04:58 26.05.2020
2585 Rain 22 1009 83 10000 2.1 330 04:40 26.05.2020
2586 Rain 22 1009 83 10000 2.1 330 04:21 26.05.2020
2587 Clouds 22 1009 83 10000 1.5 280 02:52 26.05.2020
2588 Clouds 22 1009 83 10000 1.5 280 02:21 26.05.2020
2589 Clouds 22 1009 83 10000 1 0 01:40 26.05.2020
2590 Clouds 22 1009 83 10000 1 0 00:39 26.05.2020
2591 Clouds 22 1009 83 10000 1 0 00:20 26.05.2020
2592 Clouds 22 1011 88 0 1.34 260 23:58 25.05.2020
2593 Clouds 22 1011 88 0 1.34 260 23:38 25.05.2020
2594 Clouds 22 1011 88 0 1.34 260 23:19 25.05.2020
2595 Clouds 22 1011 88 0 1.34 260 22:55 25.05.2020
2596 Clouds 22 1011 88 0 1.34 260 22:37 25.05.2020
2597 Clouds 22 1011 88 0 1.34 260 22:37 25.05.2020
2598 Clouds 22 1011 88 0 1.34 260 22:19 25.05.2020
2599 Clouds 22 1011 88 0 1.34 260 21:57 25.05.2020
2600 Clouds 22 1011 88 0 1.34 260 21:36 25.05.2020
2601 Clouds 19 1009 92 0 1.48 200 21:18 25.05.2020
2602 Clouds 19 1009 92 0 1.32 187 20:43 25.05.2020
2603 Clouds 19 1009 92 0 1.32 187 20:43 25.05.2020
2604 Clouds 19 1010 92 0 1.07 181 20:22 25.05.2020
2605 Clouds 19 1010 92 0 1.07 181 19:59 25.05.2020
2606 Clouds 19 1010 92 0 1.07 181 19:41 25.05.2020
2607 Clouds 19 1010 92 0 0.8 222 19:19 25.05.2020
2608 Clouds 19 1010 92 0 0.8 222 18:58 25.05.2020
2609 Clouds 19 1010 92 0 0.8 222 18:38 25.05.2020
2610 Clouds 19 1011 92 0 0.86 245 18:20 25.05.2020
2611 Clouds 19 1011 92 0 0.86 245 17:44 25.05.2020
2612 Clouds 19 1011 92 0 0.86 245 17:44 25.05.2020
2613 Clouds 22 1012 88 0 1.34 260 17:23 25.05.2020
2614 Clouds 22 1012 88 0 1.34 260 16:57 25.05.2020
2615 Clouds 22 1012 88 0 1.34 260 16:39 25.05.2020
2616 Clouds 22 1012 88 0 1.34 260 16:20 25.05.2020
2617 Clouds 22 1012 88 0 1.34 260 15:44 25.05.2020
2618 Clouds 22 1011 88 10000 1.5 260 15:20 25.05.2020
2619 Clouds 22 1011 88 10000 1.5 260 14:59 25.05.2020
2620 Clouds 22 1011 88 10000 1.5 260 14:38 25.05.2020
2621 Clouds 22 1011 88 10000 1.5 260 14:20 25.05.2020
2622 Clouds 22 1011 83 10000 2.6 260 13:40 25.05.2020
2623 Clouds 22 1011 83 10000 2.6 260 13:21 25.05.2020
2624 Clouds 23 1010 78 10000 2.1 240 12:58 25.05.2020
2625 Clouds 23 1010 78 10000 2.1 240 12:39 25.05.2020
2626 Clouds 23 1010 78 10000 2.1 240 12:20 25.05.2020
2627 Clouds 23 1010 78 10000 2.1 0 11:40 25.05.2020
2628 Clouds 23 1010 78 10000 2.1 0 11:20 25.05.2020
2629 Clouds 24 1010 73 10000 1.5 0 10:56 25.05.2020
2630 Clouds 24 1010 73 10000 1.5 0 10:56 25.05.2020
2631 Clouds 24 1010 73 10000 1.5 0 10:37 25.05.2020
2632 Clouds 24 1010 73 10000 1.5 0 10:19 25.05.2020
2633 Clouds 25 1010 73 10000 2.6 260 09:54 25.05.2020
2634 Clouds 25 1010 73 10000 2.6 260 09:36 25.05.2020
2635 Clouds 25 1010 73 10000 2.6 260 09:18 25.05.2020
2636 Clouds 25 1011 65 10000 2.6 0 08:39 25.05.2020
2637 Clouds 25 1011 65 10000 2.6 0 08:20 25.05.2020
2638 Clouds 25 1011 65 10000 4.6 270 07:49 25.05.2020
2639 Clouds 25 1011 65 10000 4.6 270 07:27 25.05.2020
2640 Clouds 26 1010 65 10000 2.6 270 06:57 25.05.2020
2641 Clouds 26 1010 65 10000 2.6 270 06:35 25.05.2020
2642 Clouds 24 1011 69 10000 2.6 280 05:24 25.05.2020
2643 Clouds 24 1011 69 10000 1.5 150 03:26 25.05.2020
2644 Clouds 22 1012 78 10000 1 0 02:47 25.05.2020
2645 Clouds 21 1012 78 10000 1 0 02:18 25.05.2020
2646 Clouds 21 1012 83 10000 1.5 160 01:41 25.05.2020
2647 Clouds 20 1012 88 10000 1.5 150 00:46 25.05.2020
2648 Clouds 20 1012 88 10000 1.5 150 00:24 25.05.2020
2649 Clouds 20 1013 77 0 0.57 312 23:58 24.05.2020
2650 Clouds 20 1013 77 0 0.57 312 23:39 24.05.2020
2651 Clouds 20 1012 78 0 0.81 346 23:19 24.05.2020
2652 Clouds 20 1012 78 0 0.81 346 22:42 24.05.2020
2653 Clouds 20 1012 78 0 0.81 346 22:42 24.05.2020
2654 Clouds 20 1012 77 0 0.67 339 22:20 24.05.2020
2655 Clouds 20 1012 77 0 0.67 339 21:59 24.05.2020
2656 Clouds 20 1012 77 0 0.67 339 21:40 24.05.2020
2657 Clouds 20 1012 80 0 1.31 318 21:22 24.05.2020
2658 Clouds 20 1012 80 0 1.31 318 20:57 24.05.2020
2659 Clouds 20 1012 80 0 1.31 318 20:38 24.05.2020
2660 Clouds 20 1011 78 0 1.21 316 20:18 24.05.2020
2661 Clouds 20 1011 78 0 1.21 316 19:56 24.05.2020
2662 Clouds 20 1011 78 0 1.21 316 19:36 24.05.2020
2663 Clouds 20 1011 78 0 1.39 310 19:18 24.05.2020
2664 Clouds 20 1011 78 0 1.39 310 18:42 24.05.2020
2665 Clouds 22 1011 73 0 2.68 320 18:23 24.05.2020
2666 Clouds 22 1011 73 0 2.68 320 17:57 24.05.2020
2667 Clouds 22 1011 73 0 2.68 320 17:38 24.05.2020
2668 Clouds 22 1011 73 0 2.68 320 17:19 24.05.2020
2669 Clouds 22 1011 73 0 2.68 320 16:54 24.05.2020
2670 Clouds 22 1011 73 0 2.68 320 16:36 24.05.2020
2671 Clouds 22 1011 73 0 2.68 320 16:18 24.05.2020
2672 Clouds 22 1011 73 0 2.68 320 15:40 24.05.2020
2673 Clouds 22 1011 73 0 2.68 320 15:40 24.05.2020
2674 Clouds 22 1011 73 10000 3.1 320 15:20 24.05.2020
2675 Clouds 22 1011 73 10000 3.1 320 15:20 24.05.2020
2676 Clouds 22 1011 73 10000 3.1 320 14:58 24.05.2020
2677 Clouds 22 1011 73 10000 3.1 320 14:40 24.05.2020
2678 Clouds 22 1011 73 10000 3.1 320 14:21 24.05.2020
2679 Clouds 22 1010 73 10000 4.1 310 13:55 24.05.2020
2680 Clouds 22 1010 73 10000 4.1 310 13:36 24.05.2020
2681 Clouds 22 1010 73 10000 4.1 310 13:18 24.05.2020
2682 Clouds 24 1010 69 10000 5.1 340 12:55 24.05.2020
2683 Clouds 24 1010 69 10000 5.1 340 12:37 24.05.2020
2684 Clouds 24 1010 69 10000 5.1 340 12:18 24.05.2020
2685 Clouds 26 1009 57 10000 1.5 290 11:45 24.05.2020
2686 Clouds 26 1009 57 10000 1.5 290 11:26 24.05.2020
2687 Clouds 27 1009 54 10000 1.5 0 10:59 24.05.2020
2688 Clouds 27 1009 54 10000 1.5 0 10:40 24.05.2020
2689 Clouds 27 1009 54 10000 1.5 0 10:22 24.05.2020
2690 Clouds 27 1009 57 10000 4.1 330 09:55 24.05.2020
2691 Clouds 27 1009 57 10000 4.1 330 09:37 24.05.2020
2692 Clouds 27 1009 57 10000 4.1 330 09:18 24.05.2020
2693 Clouds 27 1009 54 10000 6.2 330 08:40 24.05.2020
2694 Clouds 27 1009 54 10000 6.2 330 08:22 24.05.2020
2695 Clouds 28 1009 54 10000 3.6 320 07:54 24.05.2020
2696 Clouds 28 1009 54 10000 3.6 320 07:36 24.05.2020
2697 Clouds 28 1009 54 10000 3.6 320 07:18 24.05.2020
2698 Clouds 28 1009 51 10000 2.6 330 06:38 24.05.2020
2699 Clouds 27 1010 54 10000 2.6 280 05:43 24.05.2020
2700 Clouds 25 1011 65 10000 0.5 0 03:46 24.05.2020
2701 Clouds 22 1010 78 10000 2.1 150 02:52 24.05.2020
2702 Clouds 22 1010 78 10000 2.1 150 02:18 24.05.2020
2703 Clouds 20 1010 88 10000 1 0 00:49 24.05.2020
2704 Clouds 20 1010 88 10000 1 0 00:27 24.05.2020
2705 Clouds 20 1010 88 10000 1 0 00:27 24.05.2020
2706 Clear 20 1011 76 0 0.69 119 23:59 23.05.2020
2707 Clear 20 1011 76 0 0.69 119 23:36 23.05.2020
2708 Clear 19 1011 76 0 1.94 110 23:18 23.05.2020
2709 Clear 19 1011 76 0 1.94 110 22:55 23.05.2020
2710 Clear 19 1011 76 0 1.94 110 22:37 23.05.2020
2711 Clear 19 1011 77 0 1.21 65 22:18 23.05.2020
2712 Clear 19 1011 77 0 1.21 65 21:42 23.05.2020
2713 Clear 19 1011 77 0 0.95 57 21:21 23.05.2020
2714 Clear 19 1011 77 0 1.13 18 20:59 23.05.2020
2715 Clear 19 1011 77 0 1.13 18 20:39 23.05.2020
2716 Clouds 19 1011 78 0 0.72 27 20:19 23.05.2020
2717 Clouds 19 1011 78 0 0.72 27 19:55 23.05.2020
2718 Clouds 19 1011 78 0 0.72 27 19:37 23.05.2020
2719 Clouds 19 1011 79 0 0.36 344 19:18 23.05.2020
2720 Clouds 19 1011 79 0 0.36 344 18:40 23.05.2020
2721 Clouds 22 1010 78 0 3.58 360 18:22 23.05.2020
2722 Clouds 22 1010 78 0 3.58 360 17:57 23.05.2020
2723 Clouds 22 1010 78 0 3.58 360 17:39 23.05.2020
2724 Clouds 22 1010 78 0 3.58 360 17:19 23.05.2020
2725 Clouds 22 1010 78 0 3.58 360 16:57 23.05.2020
2726 Clouds 22 1010 78 0 3.58 360 16:39 23.05.2020
2727 Clouds 22 1010 78 0 3.58 360 16:19 23.05.2020
2728 Clouds 22 1010 78 0 3.58 360 15:43 23.05.2020
2729 Clouds 22 1010 78 10000 3.6 360 15:24 23.05.2020
2730 Clouds 22 1010 78 10000 3.6 360 14:58 23.05.2020
2731 Clouds 22 1010 78 10000 3.6 360 14:39 23.05.2020
2732 Clouds 22 1010 78 10000 3.6 360 14:21 23.05.2020
2733 Clouds 22 1010 73 10000 1.5 330 13:41 23.05.2020
2734 Clouds 22 1010 73 10000 1.5 330 13:19 23.05.2020
2735 Clouds 22 1010 73 10000 1.5 330 13:19 23.05.2020
2736 Clouds 23 1009 69 10000 2.6 360 12:56 23.05.2020
2737 Clouds 23 1009 69 10000 2.6 360 12:38 23.05.2020
2738 Clouds 23 1009 69 10000 2.6 360 12:19 23.05.2020
2739 Clouds 23 1009 69 10000 4.1 330 11:43 23.05.2020
2740 Clouds 23 1009 69 10000 4.1 330 11:22 23.05.2020
2741 Clouds 25 1009 57 10000 6.2 330 10:57 23.05.2020
2742 Clouds 25 1009 57 10000 6.2 330 10:39 23.05.2020
2743 Clouds 25 1009 57 10000 6.2 330 10:20 23.05.2020
2744 Clouds 27 1009 51 10000 3.6 250 09:58 23.05.2020
2745 Clouds 27 1009 51 10000 3.6 250 09:39 23.05.2020
2746 Clouds 27 1009 51 10000 3.6 250 09:21 23.05.2020
2747 Clouds 27 1009 54 10000 3.1 270 08:43 23.05.2020
2748 Clouds 27 1009 54 10000 3.1 270 08:19 23.05.2020
2749 Clouds 26 1010 47 10000 3.1 270 07:47 23.05.2020
2750 Clouds 26 1010 47 10000 3.1 270 07:29 23.05.2020
2751 Clouds 26 1010 50 10000 3.1 320 06:55 23.05.2020
2752 Clouds 26 1010 50 10000 3.1 320 06:36 23.05.2020
2753 Clouds 23 1011 64 10000 2.1 270 04:49 23.05.2020
2754 Clouds 21 1011 73 10000 2.6 290 03:29 23.05.2020
2755 Clouds 20 1011 77 10000 2.1 340 02:56 23.05.2020
2756 Clouds 19 1012 82 10000 1 0 01:55 23.05.2020
2757 Clouds 19 1012 82 10000 1 0 01:20 23.05.2020
2758 Clouds 18 1011 88 10000 0.5 0 00:45 23.05.2020
2759 Clouds 18 1011 88 10000 0.5 0 00:25 23.05.2020
2760 Clouds 17 1011 93 10000 0.5 0 23:56 22.05.2020
2761 Clouds 17 1011 93 10000 0.5 0 23:38 22.05.2020
2762 Clouds 18 1011 93 10000 0.5 0 23:18 22.05.2020
2763 Clouds 19 1011 82 0 2.68 310 22:42 22.05.2020
2764 Clouds 19 1011 82 0 2.68 310 22:21 22.05.2020
2765 Clouds 19 1011 82 0 2.68 310 21:56 22.05.2020
2766 Clouds 19 1011 82 0 2.68 310 21:56 22.05.2020
2767 Clouds 19 1011 82 0 2.68 310 21:38 22.05.2020
2768 Clouds 19 1011 82 0 2.68 310 21:20 22.05.2020
2769 Clouds 19 1011 82 0 2.68 310 20:45 22.05.2020
2770 Clouds 19 1011 82 0 2.68 310 20:21 22.05.2020
2771 Clouds 19 1011 82 0 2.68 310 19:45 22.05.2020
2772 Clouds 19 1011 82 0 2.68 310 19:26 22.05.2020
2773 Clouds 19 1011 82 0 2.68 310 18:58 22.05.2020
2774 Clouds 19 1011 82 0 2.68 310 18:39 22.05.2020
2775 Clouds 19 1011 82 0 2.68 310 18:19 22.05.2020
2776 Clouds 19 1011 82 0 2.68 310 17:41 22.05.2020
2777 Clouds 19 1011 82 0 2.68 310 17:20 22.05.2020
2778 Clouds 19 1011 82 0 2.68 310 16:58 22.05.2020
2779 Clouds 19 1011 82 0 2.68 310 16:39 22.05.2020
2780 Clear 19 1011 82 0 2.68 310 16:20 22.05.2020
2781 Clear 19 1011 82 0 2.68 310 15:56 22.05.2020
2782 Clear 19 1011 82 10000 3.1 310 15:38 22.05.2020
2783 Clear 19 1011 82 10000 3.1 310 15:18 22.05.2020
2784 Clear 19 1011 82 10000 3.1 310 14:40 22.05.2020
2785 Clouds 19 1011 82 10000 3.1 310 14:21 22.05.2020
2786 Clouds 20 1010 77 10000 3.1 310 13:42 22.05.2020
2787 Clouds 20 1010 77 10000 3.1 310 13:19 22.05.2020
2788 Clouds 21 1010 68 10000 4.1 320 12:43 22.05.2020
2789 Clouds 21 1010 68 10000 4.1 320 12:24 22.05.2020
2790 Clouds 21 1010 68 10000 4.1 320 12:24 22.05.2020
2791 Clouds 23 1010 56 10000 4.1 330 11:48 22.05.2020
2792 Clouds 23 1010 56 10000 4.1 330 11:22 22.05.2020
2793 Clouds 25 1010 47 10000 3.1 280 10:59 22.05.2020
2794 Clouds 25 1010 47 10000 3.1 280 10:39 22.05.2020
2795 Clouds 25 1010 47 10000 3.1 280 10:20 22.05.2020
2796 Clouds 25 1010 44 10000 2.6 290 09:55 22.05.2020
2797 Clouds 25 1010 44 10000 2.6 290 09:36 22.05.2020
2798 Clouds 25 1010 44 10000 2.6 290 09:18 22.05.2020
2799 Clouds 24 1010 50 10000 3.6 280 08:42 22.05.2020
2800 Clouds 24 1010 50 10000 3.6 280 08:19 22.05.2020
2801 Clouds 24 1010 50 10000 1 0 07:52 22.05.2020
2802 Clouds 24 1010 50 10000 1 0 07:23 22.05.2020
2803 Clouds 23 1011 53 10000 2.6 350 06:53 22.05.2020
2804 Clouds 23 1011 53 10000 2.6 350 06:31 22.05.2020
2805 Clouds 22 1012 56 10000 3.1 330 05:37 22.05.2020
2806 Clouds 22 1012 53 10000 1 0 04:50 22.05.2020
2807 Clouds 20 1013 64 10000 2.6 280 03:57 22.05.2020
2808 Clouds 20 1013 64 10000 2.6 280 03:39 22.05.2020
2809 Clouds 18 1013 77 10000 1.5 10 02:55 22.05.2020
2810 Clouds 17 1013 82 10000 1.5 140 01:48 22.05.2020
2811 Clouds 17 1013 82 10000 1.5 140 01:22 22.05.2020
2812 Clouds 16 1013 82 10000 0.5 0 00:34 22.05.2020
2813 Clouds 15 1013 87 10000 1 120 23:58 21.05.2020
2814 Clouds 15 1013 87 10000 1 120 23:40 21.05.2020
2815 Clouds 15 1013 87 10000 1 120 23:22 21.05.2020
2816 Clouds 16 1014 70 0 2.5 48 22:57 21.05.2020
2817 Clouds 16 1014 70 0 2.5 48 22:37 21.05.2020
2818 Clouds 16 1013 70 0 1.8 59 22:19 21.05.2020
2819 Clouds 16 1013 70 0 1.8 59 21:48 21.05.2020
2820 Clouds 16 1014 68 0 1.79 73 21:27 21.05.2020
2821 Clouds 16 1014 68 0 2.13 65 20:57 21.05.2020
2822 Clouds 16 1014 68 0 2.13 65 20:39 21.05.2020
2823 Clouds 16 1014 67 0 2.03 67 20:21 21.05.2020
2824 Clouds 16 1014 67 0 2.03 67 19:40 21.05.2020
2825 Clouds 16 1014 67 0 2.77 56 19:20 21.05.2020
2826 Clouds 16 1014 67 0 2.77 56 18:57 21.05.2020
2827 Clouds 16 1014 67 0 2.77 56 18:36 21.05.2020
2828 Clear 16 1015 69 0 2.16 60 18:18 21.05.2020
2829 Clear 16 1015 69 0 2.16 60 17:45 21.05.2020
2830 Clear 14 1014 82 10000 2.1 340 17:26 21.05.2020
2831 Clear 14 1014 82 10000 2.1 340 16:48 21.05.2020
2832 Clear 14 1014 82 10000 2.1 340 16:28 21.05.2020
2833 Clear 14 1015 87 10000 2.6 350 15:59 21.05.2020
2834 Clear 14 1015 87 10000 2.6 350 15:40 21.05.2020
2835 Clear 18 1014 77 10000 0.5 0 15:21 21.05.2020
2836 Clear 18 1014 77 10000 0.5 0 14:41 21.05.2020
2837 Clouds 18 1014 77 10000 0.5 0 14:22 21.05.2020
2838 Clouds 19 1014 72 10000 3.1 250 13:55 21.05.2020
2839 Clouds 19 1014 72 10000 3.1 250 13:37 21.05.2020
2840 Clouds 19 1013 68 10000 3.1 260 13:18 21.05.2020
2841 Clouds 20 1013 68 10000 3.1 260 12:39 21.05.2020
2842 Clouds 20 1013 68 10000 3.1 260 12:20 21.05.2020
2843 Clouds 22 1013 53 10000 2.6 170 11:56 21.05.2020
2844 Clouds 22 1013 53 10000 2.6 170 11:37 21.05.2020
2845 Clouds 22 1013 53 10000 2.6 170 11:19 21.05.2020
2846 Clouds 22 1012 53 10000 3.1 160 10:43 21.05.2020
2847 Clouds 22 1012 53 10000 3.1 160 10:23 21.05.2020
2848 Clouds 22 1013 53 10000 2.6 160 09:57 21.05.2020
2849 Clouds 22 1013 53 10000 2.6 160 09:39 21.05.2020
2850 Clouds 22 1013 53 10000 2.6 160 09:21 21.05.2020
2851 Clouds 22 1013 53 10000 3.1 150 08:50 21.05.2020
2852 Clouds 22 1013 53 10000 3.1 150 08:31 21.05.2020
2853 Clouds 21 1013 56 10000 3.6 170 07:49 21.05.2020
2854 Clouds 21 1013 56 10000 3.6 170 07:28 21.05.2020
2855 Clouds 21 1013 56 10000 3.6 340 06:55 21.05.2020
2856 Clouds 21 1013 56 10000 3.6 340 06:25 21.05.2020
2857 Clouds 21 1014 52 10000 4.6 340 05:47 21.05.2020
2858 Clouds 19 1014 63 10000 3.1 180 03:22 21.05.2020
2859 Clouds 17 1014 72 10000 1.5 150 02:54 21.05.2020
2860 Clouds 17 1014 72 10000 1.5 150 02:30 21.05.2020
2861 Clouds 16 1014 72 10000 2.6 170 01:47 21.05.2020
2862 Clouds 16 1014 72 10000 2.6 170 01:23 21.05.2020
2863 Clouds 16 1014 77 10000 1.5 160 00:53 21.05.2020
2864 Clouds 16 1014 77 10000 1.5 160 00:25 21.05.2020
2865 Clouds 14 1014 87 10000 2.1 130 23:47 20.05.2020
2866 Clouds 14 1014 87 10000 2.1 130 23:21 20.05.2020
2867 Clouds 15 1015 75 0 3.22 38 22:58 20.05.2020
2868 Clouds 15 1015 75 0 3.22 38 22:39 20.05.2020
2869 Clouds 14 1014 75 0 3.28 33 22:21 20.05.2020
2870 Clouds 14 1014 75 0 3.28 33 21:41 20.05.2020
2871 Clouds 15 1013 73 0 2.93 28 21:23 20.05.2020
2872 Clouds 15 1013 73 0 2.93 28 20:45 20.05.2020
2873 Clouds 15 1013 73 0 3.2 25 20:27 20.05.2020
2874 Clouds 15 1013 73 0 3.2 25 19:59 20.05.2020
2875 Clouds 15 1013 73 0 3.2 25 19:38 20.05.2020
2876 Clouds 15 1013 73 0 3.2 25 19:38 20.05.2020
2877 Clouds 15 1013 74 0 3.47 27 19:20 20.05.2020
2878 Clouds 15 1013 74 0 3.47 27 18:50 20.05.2020
2879 Clouds 15 1013 75 0 3.24 30 18:31 20.05.2020
2880 Clouds 15 1013 75 0 3.24 30 17:58 20.05.2020
2881 Clouds 15 1013 77 10000 3.1 10 17:37 20.05.2020
2882 Clouds 15 1013 77 10000 3.1 10 17:19 20.05.2020
2883 Clouds 15 1013 77 10000 3.1 10 16:41 20.05.2020
2884 Clouds 15 1013 77 10000 3.1 10 16:22 20.05.2020
2885 Clouds 16 1013 72 10000 3.6 40 15:56 20.05.2020
2886 Clouds 17 1012 72 10000 4.1 10 15:36 20.05.2020
2887 Clouds 17 1012 72 10000 4.1 10 15:18 20.05.2020
2888 Clouds 17 1012 72 10000 4.1 10 14:41 20.05.2020
2889 Clouds 17 1012 72 10000 4.1 10 14:20 20.05.2020
2890 Clouds 18 1011 72 10000 4.1 310 13:40 20.05.2020
2891 Clouds 18 1011 72 10000 4.1 310 13:19 20.05.2020
2892 Clouds 18 1011 72 10000 4.1 310 13:19 20.05.2020
2893 Clouds 18 1010 72 10000 4.1 310 12:43 20.05.2020
2894 Clouds 18 1010 72 10000 4.1 310 12:21 20.05.2020
2895 Clouds 19 1010 68 10000 4.1 300 11:58 20.05.2020
2896 Clouds 19 1010 68 10000 4.1 300 11:36 20.05.2020
2897 Clouds 19 1010 68 10000 4.1 300 11:36 20.05.2020
2898 Clouds 19 1010 68 10000 4.1 300 11:18 20.05.2020
2899 Clouds 20 1009 56 10000 6.2 320 10:42 20.05.2020
2900 Clouds 21 1009 60 10000 8.2 330 10:20 20.05.2020
2901 Clouds 22 1009 60 10000 8.2 330 09:44 20.05.2020
2902 Clouds 22 1009 60 10000 8.2 330 09:44 20.05.2020
2903 Clouds 22 1009 60 10000 8.2 330 09:21 20.05.2020
2904 Clouds 22 1009 60 10000 8.2 330 09:21 20.05.2020
2905 Clouds 22 1009 56 10000 3.6 280 08:54 20.05.2020
2906 Clouds 22 1009 56 10000 3.6 280 08:36 20.05.2020
2907 Clouds 22 1009 56 10000 3.6 280 08:18 20.05.2020
2908 Clouds 22 1009 53 10000 3.1 280 07:41 20.05.2020
2909 Clouds 22 1009 53 10000 3.1 280 07:19 20.05.2020
2910 Clouds 22 1009 53 10000 3.1 290 06:34 20.05.2020
2911 Clouds 22 1010 53 10000 2.1 0 05:19 20.05.2020
2912 Clouds 20 1010 52 10000 3.1 280 04:25 20.05.2020
2913 Clouds 20 1010 64 10000 4.1 330 03:37 20.05.2020
2914 Clouds 18 1009 72 10000 4.1 360 01:58 20.05.2020
2915 Clouds 18 1009 72 10000 4.1 360 01:25 20.05.2020
2916 Clouds 16 1008 77 10000 2.6 290 00:42 20.05.2020
2917 Clouds 16 1008 77 10000 2.6 290 00:42 20.05.2020
2918 Clouds 16 1008 77 10000 2.6 290 00:23 20.05.2020
2919 Clouds 16 1008 77 10000 2.6 290 23:39 19.05.2020
2920 Clouds 16 1008 77 10000 2.6 290 23:19 19.05.2020
2921 Clouds 15 1009 78 0 3.75 306 22:55 19.05.2020
2922 Clouds 15 1009 78 0 3.75 306 22:37 19.05.2020
2923 Clouds 15 1008 79 0 3.9 305 22:18 19.05.2020
2924 Clouds 15 1008 79 0 3.9 305 21:55 19.05.2020
2925 Clouds 15 1008 79 0 3.9 305 21:36 19.05.2020
2926 Clouds 15 1007 80 0 4.3 298 21:18 19.05.2020
2927 Clouds 15 1007 80 0 4.35 293 20:56 19.05.2020
2928 Clouds 15 1007 80 0 4.35 293 20:38 19.05.2020
2929 Clouds 16 1007 79 0 4.93 290 20:19 19.05.2020
2930 Clouds 16 1007 79 0 4.93 290 19:39 19.05.2020
2931 Clouds 16 1007 79 0 5.02 286 19:20 19.05.2020
2932 Clouds 16 1007 79 0 5.02 286 18:45 19.05.2020
2933 Clouds 16 1007 77 0 5.47 284 18:23 19.05.2020
2934 Clouds 16 1007 77 0 5.47 284 17:59 19.05.2020
2935 Clouds 16 1007 77 0 5.47 284 17:40 19.05.2020
2936 Clouds 17 1006 72 10000 4.6 250 17:20 19.05.2020
2937 Clouds 17 1006 72 10000 4.6 250 16:56 19.05.2020
2938 Clouds 17 1006 72 10000 4.6 250 16:37 19.05.2020
2939 Clouds 17 1006 72 10000 4.6 250 16:19 19.05.2020
2940 Clouds 17 1006 72 10000 7.7 260 15:43 19.05.2020
2941 Clouds 18 1005 72 10000 5.7 290 15:20 19.05.2020
2942 Clouds 18 1005 72 10000 5.7 290 14:55 19.05.2020
2943 Clouds 18 1005 72 10000 5.7 290 14:37 19.05.2020
2944 Clouds 18 1005 72 10000 5.7 290 14:19 19.05.2020
2945 Clouds 18 1004 77 10000 3.6 300 13:55 19.05.2020
2946 Clouds 18 1004 77 10000 3.6 300 13:37 19.05.2020
2947 Clouds 18 1004 77 10000 3.6 300 13:18 19.05.2020
2948 Clouds 19 1003 68 10000 6.2 260 12:55 19.05.2020
2949 Clouds 19 1003 68 10000 6.2 260 12:36 19.05.2020
2950 Clouds 19 1003 68 10000 6.2 260 12:18 19.05.2020
2951 Clouds 20 1002 64 10000 6.7 260 11:41 19.05.2020
2952 Clouds 20 1002 64 10000 6.7 260 11:22 19.05.2020
2953 Clouds 20 1002 64 10000 6.7 260 11:22 19.05.2020
2954 Clouds 20 1002 64 10000 5.1 0 10:55 19.05.2020
2955 Clouds 20 1002 64 10000 5.1 0 10:37 19.05.2020
2956 Clouds 20 1002 64 10000 5.1 0 10:18 19.05.2020
2957 Clouds 20 1002 64 10000 6.7 270 09:42 19.05.2020
2958 Clouds 20 1002 64 10000 6.7 270 09:24 19.05.2020
2959 Clouds 21 1002 56 10000 8.2 270 08:47 19.05.2020
2960 Clouds 21 1002 56 10000 8.2 270 08:25 19.05.2020
2961 Clouds 21 1002 52 10000 4.6 0 07:47 19.05.2020
2962 Clouds 21 1002 52 10000 4.6 0 07:27 19.05.2020
2963 Clouds 21 1003 56 10000 3.1 0 06:55 19.05.2020
2964 Clouds 21 1003 56 10000 3.1 0 06:26 19.05.2020
2965 Clouds 21 1003 49 10000 5.1 260 05:42 19.05.2020
2966 Clouds 21 1003 49 10000 5.1 260 05:19 19.05.2020
2967 Clouds 21 1003 52 10000 4.6 260 04:35 19.05.2020
2968 Clouds 19 1003 63 10000 5.7 270 02:21 19.05.2020
2969 Clouds 18 1002 72 10000 3.1 310 00:48 19.05.2020
2970 Clouds 18 1002 72 10000 3.1 310 00:26 19.05.2020
2971 Clouds 17 1002 72 10000 3.6 310 23:58 18.05.2020
2972 Clouds 17 1002 72 10000 3.6 310 23:40 18.05.2020
2973 Clouds 17 1002 72 10000 3.6 310 23:20 18.05.2020
2974 Clouds 16 1002 68 0 4.43 299 22:41 18.05.2020
2975 Clouds 16 1001 68 0 6.1 313 22:22 18.05.2020
2976 Clouds 16 1001 68 0 6.1 313 21:58 18.05.2020
2977 Clouds 16 1001 68 0 6.1 313 21:40 18.05.2020
2978 Clouds 16 1000 73 0 6.89 305 21:19 18.05.2020
2979 Clouds 16 1000 73 0 6.89 305 20:43 18.05.2020
2980 Clouds 17 999 82 0 8.26 308 20:23 18.05.2020
2981 Clouds 17 1000 77 0 7.21 305 19:59 18.05.2020
2982 Clouds 17 1000 77 0 7.21 305 19:41 18.05.2020
2983 Clouds 20 998 93 0 1.79 110 19:19 18.05.2020
2984 Clouds 20 998 93 0 1.79 110 18:46 18.05.2020
2985 Rain 20 998 93 0 1.79 110 18:25 18.05.2020
2986 Rain 20 998 93 0 1.79 110 17:55 18.05.2020
2987 Rain 20 998 93 0 1.79 110 17:37 18.05.2020
2988 Rain 20 998 93 0 1.79 110 17:18 18.05.2020
2989 Rain 20 998 93 0 1.79 110 16:43 18.05.2020
2990 Rain 20 998 93 0 1.79 110 16:21 18.05.2020
2991 Rain 20 998 93 0 1.79 110 15:58 18.05.2020
2992 Rain 20 998 93 0 1.79 110 15:39 18.05.2020
2993 Clouds 20 998 94 10000 2.1 110 15:21 18.05.2020
2994 Clouds 20 998 94 10000 2.1 110 14:56 18.05.2020
2995 Clouds 20 998 94 10000 2.1 110 14:38 18.05.2020
2996 Clouds 20 998 94 10000 2.1 110 14:19 18.05.2020
2997 Clouds 20 998 94 10000 2.6 210 13:41 18.05.2020
2998 Clouds 20 998 94 10000 2.6 210 13:20 18.05.2020
2999 Clouds 21 998 88 10000 4.1 120 12:58 18.05.2020
3000 Clouds 21 998 88 10000 4.1 120 12:40 18.05.2020
3001 Clouds 21 998 88 10000 4.1 120 12:19 18.05.2020
3002 Clouds 21 997 94 10000 8.2 130 11:57 18.05.2020
3003 Clouds 21 997 94 10000 8.2 130 11:38 18.05.2020
3004 Clouds 21 997 94 10000 8.2 130 11:20 18.05.2020
3005 Rain 21 997 94 8000 7.7 120 10:42 18.05.2020
3006 Rain 21 997 94 8000 7.7 120 10:23 18.05.2020
3007 Rain 21 999 100 10000 5.1 130 09:45 18.05.2020
3008 Rain 21 999 100 10000 5.1 130 09:26 18.05.2020
3009 Rain 21 1000 100 8000 2.1 120 08:54 18.05.2020
3010 Rain 21 1000 100 6000 3.1 120 08:36 18.05.2020
3011 Rain 21 1000 100 6000 3.1 120 08:18 18.05.2020
3012 Rain 22 1000 94 10000 3.6 130 07:41 18.05.2020
3013 Rain 22 1000 94 10000 3.6 130 07:20 18.05.2020
3014 Rain 22 1001 88 10000 1.5 120 06:46 18.05.2020
3015 Rain 22 1001 88 10000 1.5 120 06:18 18.05.2020
3016 Rain 22 1001 88 10000 3.6 140 05:42 18.05.2020
3017 Rain 21 1002 94 10000 2.1 120 03:37 18.05.2020
3018 Rain 21 1003 94 5000 2.6 120 02:31 18.05.2020
3019 Rain 21 1003 100 4000 2.1 140 01:32 18.05.2020
3020 Rain 21 1003 100 8000 2.6 120 00:28 18.05.2020
3021 Rain 22 1003 94 10000 3.1 130 23:58 17.05.2020
3022 Rain 22 1003 94 10000 3.1 130 23:40 17.05.2020
3023 Rain 22 1003 94 10000 3.1 130 23:20 17.05.2020
3024 Clouds 22 1006 83 0 0.89 70 22:58 17.05.2020
3025 Clouds 22 1006 83 0 0.89 70 22:39 17.05.2020
3026 Rain 22 1006 83 0 0.89 70 22:20 17.05.2020
3027 Rain 22 1006 83 0 0.89 70 21:57 17.05.2020
3028 Rain 22 1006 83 0 0.89 70 21:39 17.05.2020
3029 Rain 22 1006 83 0 0.89 70 21:19 17.05.2020
3030 Rain 22 1006 83 0 0.89 70 20:42 17.05.2020
3031 Clouds 22 1006 83 0 0.89 70 20:22 17.05.2020
3032 Clouds 22 1006 83 0 0.89 70 19:58 17.05.2020
3033 Clouds 22 1006 83 0 0.89 70 19:40 17.05.2020
3034 Clouds 22 1006 83 0 0.89 70 19:21 17.05.2020
3035 Clouds 22 1006 83 0 0.89 70 18:54 17.05.2020
3036 Clouds 22 1006 83 0 0.89 70 18:36 17.05.2020
3037 Clouds 22 1006 83 0 0.89 70 18:18 17.05.2020
3038 Clouds 22 1006 83 0 0.89 70 17:40 17.05.2020
3039 Rain 22 1006 83 0 0.89 70 17:21 17.05.2020
3040 Rain 22 1006 83 0 0.89 70 16:40 17.05.2020
3041 Clouds 22 1006 83 0 0.89 70 16:21 17.05.2020
3042 Clouds 22 1006 83 0 0.89 70 15:59 17.05.2020
3043 Clouds 22 1006 83 0 0.89 70 15:40 17.05.2020
3044 Clouds 22 1006 83 10000 1 70 15:22 17.05.2020
3045 Clouds 22 1006 83 10000 1 70 14:56 17.05.2020
3046 Clouds 22 1006 83 10000 1 70 14:37 17.05.2020
3047 Clouds 22 1006 83 10000 1 70 14:19 17.05.2020
3048 Clouds 21 1005 83 10000 1 0 13:41 17.05.2020
3049 Clouds 21 1005 83 10000 1 0 13:20 17.05.2020
3050 Clouds 25 1006 65 10000 1 0 04:51 17.05.2020
3051 Clouds 23 1006 73 10000 1.5 280 03:18 17.05.2020
3052 Clouds 23 1006 78 10000 2.6 10 02:20 17.05.2020
3053 Clouds 21 1006 88 10000 2.6 360 01:47 17.05.2020
3054 Clouds 20 1006 94 10000 2.6 340 00:41 17.05.2020
3055 Clouds 20 1006 94 10000 2.6 340 00:21 17.05.2020
3056 Clouds 20 1007 94 8000 2.6 350 23:40 16.05.2020
3057 Clouds 20 1007 94 8000 2.6 350 23:21 16.05.2020
3058 Clouds 21 1006 94 0 2.68 270 22:59 16.05.2020
3059 Clouds 21 1006 94 0 2.68 270 22:40 16.05.2020
3060 Clouds 21 1006 94 0 2.68 270 22:20 16.05.2020
3061 Clouds 21 1006 94 0 2.68 270 21:55 16.05.2020
3062 Clouds 21 1006 94 0 2.68 270 21:36 16.05.2020
3063 Clouds 19 1006 92 0 1.69 360 21:18 16.05.2020
3064 Clouds 19 1006 92 0 1.69 360 20:42 16.05.2020
3065 Clouds 21 1006 94 0 2.68 270 20:22 16.05.2020
3066 Clouds 21 1006 94 0 2.68 270 19:58 16.05.2020
3067 Clouds 21 1006 94 0 2.68 270 19:40 16.05.2020
3068 Clouds 21 1006 94 0 2.68 270 19:22 16.05.2020
3069 Clouds 21 1006 94 0 2.68 270 18:43 16.05.2020
3070 Clouds 21 1006 94 0 2.68 270 18:25 16.05.2020
3071 Clouds 21 1007 94 0 2.68 270 17:57 16.05.2020
3072 Clouds 21 1007 94 0 2.68 270 17:38 16.05.2020
3073 Clouds 21 1007 94 0 2.68 270 17:19 16.05.2020
3074 Clouds 21 1006 94 0 2.68 270 16:41 16.05.2020
3075 Clouds 21 1006 94 0 2.68 270 16:22 16.05.2020
3076 Clouds 21 1006 94 0 2.68 270 15:58 16.05.2020
3077 Clouds 21 1007 94 0 2.68 270 15:39 16.05.2020
3078 Rain 21 1006 94 10000 3.1 270 15:19 16.05.2020
3079 Rain 21 1006 94 10000 3.1 270 14:46 16.05.2020
3080 Rain 21 1006 94 10000 3.1 270 14:21 16.05.2020
3081 Clouds 22 1005 94 10000 2.6 170 13:58 16.05.2020
3082 Clouds 22 1005 94 10000 2.6 170 13:40 16.05.2020
3083 Clouds 22 1005 94 10000 2.6 170 13:22 16.05.2020
3084 Rain 22 1005 88 10000 1.5 210 12:45 16.05.2020
3085 Rain 22 1005 88 10000 1.5 210 12:22 16.05.2020
3086 Clouds 23 1005 88 10000 2.1 260 11:59 16.05.2020
3087 Clouds 23 1005 88 10000 2.1 260 11:38 16.05.2020
3088 Clouds 23 1005 88 10000 2.1 260 11:20 16.05.2020
3089 Clouds 23 1004 88 10000 3.6 260 10:56 16.05.2020
3090 Clouds 23 1004 88 10000 3.6 260 10:37 16.05.2020
3091 Clouds 23 1004 88 10000 3.6 260 10:18 16.05.2020
3092 Clouds 24 1004 83 10000 1 0 09:44 16.05.2020
3093 Clouds 24 1004 83 10000 1 0 09:26 16.05.2020
3094 Clouds 25 1005 78 10000 1 0 08:43 16.05.2020
3095 Clouds 25 1005 78 10000 1 0 08:21 16.05.2020
3096 Clouds 24 1005 88 10000 3.6 350 07:46 16.05.2020
3097 Clouds 24 1005 88 10000 3.6 350 07:27 16.05.2020
3098 Clouds 24 1006 83 10000 2.1 320 06:59 16.05.2020
3099 Clouds 24 1006 83 10000 2.1 320 06:41 16.05.2020
3100 Clouds 24 1006 83 10000 2.1 320 06:18 16.05.2020
3101 Clouds 24 1006 88 10000 2.1 340 05:38 16.05.2020
3102 Clouds 22 1007 100 10000 2.6 360 03:58 16.05.2020
3103 Rain 22 1007 100 10000 2.1 290 02:59 16.05.2020
3104 Rain 22 1007 100 10000 2.1 290 02:21 16.05.2020
3105 Rain 21 1007 94 4000 2.1 230 01:53 16.05.2020
3106 Rain 21 1007 100 10000 1.5 210 01:27 16.05.2020
3107 Rain 20 1007 100 5000 2.1 150 00:51 16.05.2020
3108 Rain 20 1007 100 10000 2.6 180 00:22 16.05.2020
3109 Rain 20 1007 100 3000 2.6 160 23:41 15.05.2020
3110 Rain 20 1007 100 3000 2.6 160 23:41 15.05.2020
3111 Rain 20 1007 100 3000 2.6 160 23:20 15.05.2020
3112 Rain 20 1010 93 0 4.02 110 22:58 15.05.2020
3113 Rain 20 1010 93 0 4.02 110 22:40 15.05.2020
3114 Rain 20 1010 93 0 4.02 110 22:19 15.05.2020
3115 Rain 20 1010 93 0 4.02 110 21:40 15.05.2020
3116 Rain 20 1010 93 0 4.02 110 21:22 15.05.2020
3117 Rain 20 1010 93 0 4.02 110 20:59 15.05.2020
3118 Rain 20 1010 93 0 4.02 110 20:59 15.05.2020
3119 Rain 20 1010 93 0 4.02 110 20:41 15.05.2020
3120 Rain 20 1010 93 0 4.02 110 20:22 15.05.2020
3121 Rain 20 1010 93 0 4.02 110 19:56 15.05.2020
3122 Rain 21 1009 97 0 3.99 187 19:37 15.05.2020
3123 Rain 21 1009 96 0 4.71 179 19:19 15.05.2020
3124 Rain 21 1009 97 0 3.65 176 18:45 15.05.2020
3125 Rain 21 1009 96 0 3.75 162 18:27 15.05.2020
3126 Rain 21 1009 96 0 3.75 162 17:40 15.05.2020
3127 Clouds 19 1010 100 10000 2.6 90 17:20 15.05.2020
3128 Clouds 19 1010 100 10000 2.6 90 16:58 15.05.2020
3129 Clouds 19 1010 100 10000 2.6 90 16:39 15.05.2020
3130 Clouds 19 1010 100 10000 2.6 90 16:19 15.05.2020
3131 Rain 19 1010 100 5000 4.6 120 15:55 15.05.2020
3132 Rain 20 1010 94 6000 4.1 110 15:37 15.05.2020
3133 Rain 20 1010 94 6000 4.1 110 15:18 15.05.2020
3134 Rain 20 1010 94 6000 4.1 110 14:42 15.05.2020
3135 Rain 20 1010 94 6000 4.1 110 14:24 15.05.2020
3136 Rain 20 1010 94 3500 5.7 120 13:58 15.05.2020
3137 Rain 20 1009 94 4000 5.7 110 13:39 15.05.2020
3138 Rain 20 1009 94 4000 5.7 110 13:19 15.05.2020
3139 Thunderstorm 20 1009 94 6000 4.1 90 12:39 15.05.2020
3140 Thunderstorm 20 1009 94 4000 5.7 120 12:18 15.05.2020
3141 Thunderstorm 20 1009 94 4000 5.7 120 11:57 15.05.2020
3142 Thunderstorm 20 1009 88 10000 6.2 120 11:38 15.05.2020
3143 Thunderstorm 20 1009 88 10000 6.2 120 11:20 15.05.2020
3144 Mist 19 1008 93 3000 4.6 120 10:58 15.05.2020
3145 Mist 20 1009 88 4000 1.5 0 10:39 15.05.2020
3146 Rain 20 1009 88 4000 1.5 0 10:20 15.05.2020
3147 Rain 20 1008 94 5000 8.7 130 09:58 15.05.2020
3148 Rain 20 1008 88 4000 10.3 140 09:37 15.05.2020
3149 Rain 20 1008 88 4000 10.3 140 09:18 15.05.2020
3150 Rain 22 1008 73 10000 8.2 130 08:39 15.05.2020
3151 Rain 22 1008 73 10000 8.2 130 08:20 15.05.2020
3152 Clouds 22 1009 73 10000 7.2 140 07:59 15.05.2020
3153 Clouds 22 1009 73 10000 7.2 140 07:40 15.05.2020
3154 Clouds 22 1009 73 10000 7.2 140 07:21 15.05.2020
3155 Rain 21 1010 77 8000 5.7 160 06:32 15.05.2020
3156 Clouds 22 1010 60 10000 8.2 130 05:33 15.05.2020
3157 Clouds 22 1012 49 10000 5.1 120 03:52 15.05.2020
3158 Clouds 21 1013 56 10000 5.7 140 02:58 15.05.2020
3159 Clouds 20 1014 68 10000 6.2 150 01:37 15.05.2020
3160 Clouds 20 1014 68 10000 6.2 150 01:18 15.05.2020
3161 Clouds 20 1014 60 10000 4.6 130 00:40 15.05.2020
3162 Clouds 20 1014 60 10000 4.6 130 00:22 15.05.2020
3163 Clouds 20 1015 60 10000 4.6 130 23:41 14.05.2020
3164 Clouds 20 1015 60 10000 4.6 130 23:19 14.05.2020
3165 Clouds 18 1016 71 0 2.76 123 22:42 14.05.2020
3166 Clouds 18 1016 71 0 2.74 146 22:24 14.05.2020
3167 Clouds 18 1016 71 0 2.74 146 22:24 14.05.2020
3168 Clouds 18 1016 71 0 2.74 146 21:59 14.05.2020
3169 Clouds 18 1016 71 0 2.74 146 21:40 14.05.2020
3170 Clouds 18 1016 71 0 2.74 146 21:40 14.05.2020
3171 Clouds 18 1015 72 0 3.45 147 21:20 14.05.2020
3172 Clouds 18 1015 72 0 3.45 147 21:20 14.05.2020
3173 Clouds 18 1015 72 0 3.45 147 20:57 14.05.2020
3174 Clouds 18 1015 72 0 3.45 147 20:38 14.05.2020
3175 Clouds 18 1015 74 0 3.42 150 20:19 14.05.2020
3176 Clouds 18 1015 74 0 3.42 150 19:56 14.05.2020
3177 Clouds 18 1015 74 0 3.42 150 19:37 14.05.2020
3178 Clouds 18 1015 75 0 3.39 159 19:19 14.05.2020
3179 Clouds 18 1015 75 0 3.39 159 18:56 14.05.2020
3180 Clouds 18 1015 75 0 3.39 159 18:37 14.05.2020
3181 Clouds 18 1016 76 0 2.84 155 18:18 14.05.2020
3182 Clouds 18 1016 76 0 2.84 155 17:56 14.05.2020
3183 Clouds 20 1016 77 10000 2.6 170 17:36 14.05.2020
3184 Clouds 20 1016 77 10000 2.6 170 17:18 14.05.2020
3185 Clouds 20 1016 77 10000 2.6 170 16:39 14.05.2020
3186 Clouds 20 1016 77 10000 2.6 170 16:20 14.05.2020
3187 Clouds 20 1016 77 10000 1 90 15:57 14.05.2020
3188 Clouds 20 1016 77 10000 1 90 15:39 14.05.2020
3189 Clear 21 1016 60 10000 1 0 15:19 14.05.2020
3190 Clear 21 1016 60 10000 1 0 14:56 14.05.2020
3191 Clear 21 1016 60 10000 1 0 14:38 14.05.2020
3192 Clouds 21 1016 60 10000 1 0 14:19 14.05.2020
3193 Clouds 22 1016 49 10000 0.5 0 13:55 14.05.2020
3194 Clouds 22 1016 49 10000 0.5 0 13:37 14.05.2020
3195 Clouds 22 1016 49 10000 0.5 0 13:18 14.05.2020
3196 Clouds 22 1015 46 10000 2.1 0 12:56 14.05.2020
3197 Clouds 22 1015 46 10000 2.1 0 12:37 14.05.2020
3198 Clouds 22 1015 46 10000 2.1 0 12:18 14.05.2020
3199 Clouds 23 1014 43 10000 2.1 0 11:42 14.05.2020
3200 Clouds 23 1014 43 10000 2.1 0 11:24 14.05.2020
3201 Clouds 24 1015 44 10000 3.1 290 10:58 14.05.2020
3202 Clouds 24 1015 44 10000 3.1 290 10:40 14.05.2020
3203 Clouds 24 1015 44 10000 3.1 290 10:21 14.05.2020
3204 Clouds 26 1015 29 10000 4.1 260 09:43 14.05.2020
3205 Clouds 26 1015 29 10000 4.1 260 09:23 14.05.2020
3206 Clouds 26 1016 31 10000 4.1 260 08:56 14.05.2020
3207 Clouds 26 1016 31 10000 4.1 260 08:36 14.05.2020
3208 Clouds 26 1016 31 10000 4.1 260 08:18 14.05.2020
3209 Clouds 26 1016 29 10000 3.6 270 07:43 14.05.2020
3210 Clouds 25 1017 38 10000 2.6 0 07:20 14.05.2020
3211 Clouds 25 1017 38 10000 2.6 0 06:43 14.05.2020
3212 Clouds 25 1017 38 10000 2.6 0 06:23 14.05.2020
3213 Clouds 23 1018 40 10000 3.6 360 05:37 14.05.2020
3214 Clouds 23 1018 43 10000 2.1 0 04:43 14.05.2020
3215 Clouds 21 1019 46 10000 1.5 10 03:32 14.05.2020
3216 Clouds 18 1019 55 10000 1 0 02:57 14.05.2020
3217 Clouds 18 1019 55 10000 1 0 02:57 14.05.2020
3218 Clouds 18 1019 55 10000 1 0 02:34 14.05.2020
3219 Clear 17 1019 59 10000 1.5 120 01:47 14.05.2020
3220 Clear 15 1019 72 10000 2.6 110 00:51 14.05.2020
3221 Clear 15 1019 72 10000 2.6 110 00:27 14.05.2020
3222 Clear 13 1019 82 10000 2.6 130 23:45 13.05.2020
3223 Clear 13 1019 82 10000 2.6 130 23:23 13.05.2020
3224 Clear 15 1019 50 0 1.75 79 22:59 13.05.2020
3225 Clear 15 1019 50 0 1.75 79 22:40 13.05.2020
3226 Clear 15 1018 48 0 2 74 22:21 13.05.2020
3227 Clear 15 1018 48 0 2 74 21:57 13.05.2020
3228 Clear 15 1018 48 0 2 74 21:39 13.05.2020
3229 Clear 16 1018 47 0 2.27 74 21:19 13.05.2020
3230 Clear 16 1018 47 0 2.27 74 20:41 13.05.2020
3231 Clear 16 1018 46 0 2.99 38 20:23 13.05.2020
3232 Clear 16 1018 46 0 2.99 38 19:57 13.05.2020
3233 Clear 16 1018 46 0 2.99 38 19:39 13.05.2020
3234 Clear 16 1018 46 0 3.24 28 19:21 13.05.2020
3235 Clear 16 1018 46 0 3.24 28 18:42 13.05.2020
3236 Clear 16 1018 47 0 3.35 23 18:21 13.05.2020
3237 Clear 16 1018 47 0 3.35 23 17:40 13.05.2020
3238 Clear 14 1018 67 10000 1 0 17:20 13.05.2020
3239 -273 0 0 0 0 0 16:59 13.05.2020
3240 Clear 14 1018 67 10000 1 0 16:40 13.05.2020
3241 Clear 14 1018 67 10000 1 0 16:19 13.05.2020
3242 Clear 15 1018 67 10000 1.5 320 15:54 13.05.2020
3243 Clear 17 1017 51 10000 4.6 330 15:36 13.05.2020
3244 Clear 17 1017 51 10000 4.6 330 15:18 13.05.2020
3245 Clear 17 1017 51 10000 4.6 330 14:41 13.05.2020
3246 Clear 17 1017 51 10000 4.6 330 14:22 13.05.2020
3247 Clear 18 1017 55 10000 5.1 350 13:58 13.05.2020
3248 Clear 18 1017 55 10000 5.1 350 13:39 13.05.2020
3249 Clear 18 1017 55 10000 5.1 350 13:39 13.05.2020
3250 Clear 18 1017 55 10000 5.1 350 13:21 13.05.2020
3251 Clear 19 1016 52 10000 8.2 310 12:57 13.05.2020
3252 Clear 19 1016 52 10000 8.2 310 12:38 13.05.2020
3253 Clear 19 1016 52 10000 8.2 310 12:18 13.05.2020
3254 Clear 21 1015 46 10000 7.7 310 11:55 13.05.2020
3255 Clear 21 1015 46 10000 7.7 310 11:36 13.05.2020
3256 Clear 21 1015 46 10000 7.7 310 11:18 13.05.2020
3257 Clear 22 1014 46 10000 8.7 310 10:56 13.05.2020
3258 Clear 22 1014 46 10000 8.7 310 10:37 13.05.2020
3259 Clear 22 1014 46 10000 8.7 310 10:18 13.05.2020
3260 Clear 23 1014 38 10000 7.2 310 09:41 13.05.2020
3261 Clear 23 1014 38 10000 7.2 310 09:23 13.05.2020
3262 Clear 23 1014 38 10000 7.2 310 09:23 13.05.2020
3263 Clear 23 1014 40 10000 7.7 310 08:54 13.05.2020
3264 Clear 23 1014 40 10000 7.7 310 08:36 13.05.2020
3265 Clear 23 1014 40 10000 7.7 310 08:18 13.05.2020
3266 Clear 22 1015 37 10000 7.7 310 07:42 13.05.2020
3267 Clear 22 1015 37 10000 7.7 310 07:24 13.05.2020
3268 Clouds 23 1015 35 10000 6.2 300 06:47 13.05.2020
3269 Clouds 22 1015 40 10000 6.2 310 05:59 13.05.2020
3270 Clouds 21 1015 46 10000 5.7 310 04:49 13.05.2020
3271 Clear 19 1015 52 10000 5.1 310 03:26 13.05.2020
3272 Clear 18 1015 52 10000 4.1 320 02:27 13.05.2020
3273 Clear 17 1015 59 10000 4.1 350 01:28 13.05.2020
3274 Clouds 16 1014 63 10000 4.1 340 00:45 13.05.2020
3275 Clouds 16 1014 63 10000 4.1 340 00:20 13.05.2020
3276 Clouds 16 1014 63 10000 6.7 330 23:40 12.05.2020
3277 Clouds 16 1014 63 10000 6.7 330 23:21 12.05.2020
3278 Clear 15 1014 63 0 4.85 333 22:57 12.05.2020
3279 Clear 15 1014 63 0 4.85 333 22:39 12.05.2020
3280 Clear 15 1013 59 0 5.73 328 22:20 12.05.2020
3281 Clear 15 1013 59 0 5.73 328 21:55 12.05.2020
3282 Clear 15 1013 59 0 5.73 328 21:37 12.05.2020
3283 Clear 15 1013 62 0 5.5 322 21:18 12.05.2020
3284 Clear 15 1013 62 0 5.5 322 20:56 12.05.2020
3285 Clear 15 1013 62 0 5.5 322 20:38 12.05.2020
3286 Clear 16 1012 66 0 5.02 318 20:19 12.05.2020
3287 Clear 16 1012 66 0 5.02 318 19:55 12.05.2020
3288 Clear 16 1012 66 0 5.02 318 19:37 12.05.2020
3289 Clear 17 1011 77 0 1.34 180 19:18 12.05.2020
3290 Clear 17 1010 77 0 1.34 180 18:41 12.05.2020
3291 Clear 17 1010 77 0 1.34 180 18:23 12.05.2020
3292 Clear 17 1010 77 0 1.34 180 17:54 12.05.2020
3293 Clear 17 1011 77 0 1.34 180 17:36 12.05.2020
3294 Clear 17 1011 77 0 1.34 180 17:18 12.05.2020
3295 Clear 17 1011 77 0 1.34 180 16:42 12.05.2020
3296 Clear 17 1011 77 0 1.34 180 16:21 12.05.2020
3297 Clear 17 1011 77 0 1.34 180 15:55 12.05.2020
3298 Clear 17 1011 77 0 1.34 180 15:55 12.05.2020
3299 Clear 17 1011 77 0 1.34 180 15:55 12.05.2020
3300 Clear 17 1010 77 10000 1.5 180 15:36 12.05.2020
3301 Clear 17 1010 77 10000 1.5 180 15:18 12.05.2020
3302 Clear 17 1010 77 10000 1.5 180 14:54 12.05.2020
3303 Clear 17 1010 77 10000 1.5 180 14:36 12.05.2020
3304 Clouds 17 1010 77 10000 1.5 180 14:18 12.05.2020
3305 Clouds 19 1009 72 10000 2.6 220 13:54 12.05.2020
3306 Clouds 20 1009 72 10000 2.6 220 13:36 12.05.2020
3307 Clouds 20 1009 72 10000 2.6 220 13:18 12.05.2020
3308 Clouds 21 1009 52 10000 3.1 260 12:54 12.05.2020
3309 Clouds 21 1009 52 10000 3.1 260 12:36 12.05.2020
3310 Clouds 21 1009 52 10000 3.1 260 12:36 12.05.2020
3311 Clouds 21 1009 52 10000 3.1 260 12:36 12.05.2020
3312 Clouds 21 1009 52 10000 3.1 260 12:18 12.05.2020
3313 Clouds 22 1008 53 10000 2.6 210 11:55 12.05.2020
3314 Clouds 22 1008 53 10000 2.6 210 11:36 12.05.2020
3315 Clouds 22 1008 53 10000 2.6 210 11:18 12.05.2020
3316 Clouds 22 1008 46 10000 1.5 150 10:54 12.05.2020
3317 Clouds 22 1008 46 10000 1.5 150 10:36 12.05.2020
3318 Clouds 22 1008 46 10000 1.5 150 10:18 12.05.2020
3319 Clouds 22 1008 33 10000 4.6 350 09:54 12.05.2020
3320 Clouds 22 1008 33 10000 4.6 350 09:36 12.05.2020
3321 Clouds 22 1008 33 10000 4.6 350 09:18 12.05.2020
3322 Clouds 23 1008 53 10000 2.1 270 08:39 12.05.2020
3323 Clouds 22 1008 60 9000 2.6 0 08:19 12.05.2020
3324 Clouds 22 1008 60 9000 2.6 0 07:42 12.05.2020
3325 Clouds 21 1008 73 7000 3.1 260 07:24 12.05.2020
3326 Clouds 21 1008 73 7000 3.1 260 06:50 12.05.2020
3327 Clouds 21 1008 73 7000 3.1 260 06:29 12.05.2020
3328 Clouds 21 1008 73 8000 3.1 260 05:54 12.05.2020
3329 Clouds 21 1008 73 8000 3.1 260 05:35 12.05.2020
3330 Clouds 19 1008 72 7000 3.1 260 03:27 12.05.2020
3331 Clouds 19 1008 72 10000 1.5 230 02:52 12.05.2020
3332 Clouds 19 1008 72 10000 1.5 230 02:25 12.05.2020
3333 Clouds 18 1009 82 10000 2.1 290 01:27 12.05.2020
3334 Clouds 17 1008 88 10000 1 0 00:37 12.05.2020
3335 Clouds 17 1008 88 10000 1 0 00:18 12.05.2020
3336 Clouds 15 1008 93 10000 1 0 23:42 11.05.2020
3337 Clouds 15 1008 93 10000 1 0 23:21 11.05.2020
3338 Clouds 18 1008 79 0 3.31 268 22:59 11.05.2020
3339 Clouds 18 1008 79 0 3.31 268 22:59 11.05.2020
3340 Clouds 18 1008 79 0 3.31 268 22:40 11.05.2020
3341 Clouds 17 1008 82 0 2.75 269 22:20 11.05.2020
3342 Clouds 17 1008 82 0 2.75 269 21:58 11.05.2020
3343 Clouds 17 1008 82 0 2.75 269 21:40 11.05.2020
3344 Clouds 17 1008 82 0 2.63 262 21:19 11.05.2020
3345 Clouds 18 1008 83 0 2.89 256 20:59 11.05.2020
3346 Clouds 18 1008 83 0 2.89 256 20:40 11.05.2020
3347 Clouds 18 1008 83 0 3.49 263 20:21 11.05.2020
3348 Clouds 18 1008 83 0 3.49 263 19:55 11.05.2020
3349 Clouds 18 1008 83 0 3.49 263 19:37 11.05.2020
3350 Clear 17 1008 83 0 3.19 256 19:19 11.05.2020
3351 Clear 17 1008 83 0 3.19 256 18:55 11.05.2020
3352 Clear 17 1008 83 0 3.19 256 18:37 11.05.2020
3353 Clear 17 1008 81 0 2.61 248 18:18 11.05.2020
3354 Clear 17 1008 81 0 2.61 248 17:55 11.05.2020
3355 Clear 19 1008 68 10000 2.1 200 17:36 11.05.2020
3356 Clear 19 1008 68 10000 2.1 200 17:36 11.05.2020
3357 Clear 19 1008 68 10000 2.1 200 17:18 11.05.2020
3358 Clear 19 1008 68 10000 2.1 200 16:41 11.05.2020
3359 Clear 19 1008 68 10000 2.1 200 16:22 11.05.2020
3360 Clear 18 1008 82 10000 1 0 15:58 11.05.2020
3361 Clear 18 1008 82 10000 1 0 15:39 11.05.2020
3362 Clear 19 1008 68 10000 3.6 350 15:19 11.05.2020
3363 Clear 19 1008 68 10000 3.6 350 15:19 11.05.2020
3364 Clear 19 1008 68 10000 3.6 350 14:54 11.05.2020
3365 Clear 19 1008 68 10000 3.6 350 14:36 11.05.2020
3366 Clear 19 1008 68 10000 3.6 350 14:36 11.05.2020
3367 Clear 19 1008 68 10000 4.1 350 14:18 11.05.2020
3368 Clear 19 1008 68 10000 4.1 350 13:41 11.05.2020
3369 Clear 19 1008 68 10000 4.1 350 13:19 11.05.2020
3370 Clear 20 1008 68 10000 3.6 340 12:58 11.05.2020
3371 Clear 20 1008 68 10000 3.6 340 12:40 11.05.2020
3372 Clear 20 1008 68 10000 3.6 340 12:21 11.05.2020
3373 Clear 21 1008 73 10000 4.1 350 11:56 11.05.2020
3374 Clear 21 1008 73 10000 4.1 350 11:37 11.05.2020
3375 Clear 21 1008 73 10000 4.1 350 11:19 11.05.2020
3376 Clouds 24 1007 57 10000 5.1 320 10:55 11.05.2020
3377 Clouds 24 1007 57 10000 5.1 320 10:37 11.05.2020
3378 Clouds 24 1007 57 10000 5.1 320 10:18 11.05.2020
3379 Clouds 24 1008 57 10000 5.7 330 09:54 11.05.2020
3380 Clouds 24 1008 57 10000 5.7 330 09:36 11.05.2020
3381 Clouds 24 1008 57 10000 5.7 330 09:18 11.05.2020
3382 Clouds 24 1008 57 10000 4.1 310 08:39 11.05.2020
3383 Clouds 24 1008 57 10000 4.1 310 08:19 11.05.2020
3384 Clouds 22 1009 68 10000 4.1 10 07:50 11.05.2020
3385 Clouds 22 1009 68 10000 4.1 10 07:32 11.05.2020
3386 Clouds 23 1009 69 10000 5.7 340 06:54 11.05.2020
3387 Clouds 23 1009 69 10000 5.7 340 06:26 11.05.2020
3388 Clouds 22 1010 68 10000 4.6 340 05:30 11.05.2020
3389 Clouds 20 1011 72 10000 3.1 340 04:44 11.05.2020
3390 Clouds 20 1011 77 8000 2.1 350 03:46 11.05.2020
3391 Clouds 19 1011 77 8000 1.5 330 02:35 11.05.2020
3392 Clouds 18 1011 82 8000 2.6 330 01:46 11.05.2020
3393 Clouds 17 1011 88 8000 2.6 290 00:54 11.05.2020
3394 Clouds 17 1011 88 8000 2.6 290 00:22 11.05.2020
3395 Clouds 16 1011 93 8000 2.1 320 23:45 10.05.2020
3396 Clouds 16 1011 93 8000 2.1 320 23:26 10.05.2020
3397 Clouds 17 1010 93 0 1.34 320 22:58 10.05.2020
3398 Clouds 17 1010 93 0 1.34 320 22:40 10.05.2020
3399 Clouds 17 1010 93 0 1.34 320 22:22 10.05.2020
3400 Clouds 17 1010 93 0 1.34 320 21:44 10.05.2020
3401 Clouds 17 1010 93 0 1.34 320 21:20 10.05.2020
3402 Clouds 17 1010 93 0 1.34 320 20:56 10.05.2020
3403 Clouds 17 1009 93 0 1.34 320 20:38 10.05.2020
3404 Clouds 17 1009 93 0 1.34 320 20:20 10.05.2020
3405 Clouds 17 1010 93 0 1.34 320 19:41 10.05.2020
3406 Clouds 17 1010 93 0 1.34 320 19:23 10.05.2020
3407 Clouds 17 1010 93 0 1.34 320 18:57 10.05.2020
3408 Clouds 17 1010 93 0 1.34 320 18:38 10.05.2020
3409 Clouds 17 1010 93 0 1.34 320 18:19 10.05.2020
3410 Clouds 17 1010 93 0 1.34 320 17:59 10.05.2020
3411 Clouds 17 1010 93 0 1.34 320 17:40 10.05.2020
3412 Clouds 17 1010 93 0 1.34 320 17:22 10.05.2020
3413 Clouds 17 1010 93 0 1.34 320 16:58 10.05.2020
3414 Clouds 17 1010 93 0 1.34 320 16:40 10.05.2020
3415 Clouds 17 1010 93 10000 1.5 320 16:19 10.05.2020
3416 Clouds 17 1010 93 10000 1.5 320 15:55 10.05.2020
3417 Clouds 17 1010 93 10000 1.5 320 15:36 10.05.2020
3418 Rain 17 1010 93 9000 2.6 310 15:18 10.05.2020
3419 Rain 17 1009 93 10000 2.6 280 14:38 10.05.2020
3420 Rain 17 1009 93 10000 2.6 280 14:38 10.05.2020
3421 Rain 17 1009 93 10000 2.6 280 14:20 10.05.2020
3422 Rain 17 1009 93 10000 2.6 280 14:20 10.05.2020
3423 Clouds 17 1009 93 10000 1 0 13:59 10.05.2020
3424 Clouds 17 1009 93 10000 1 0 13:38 10.05.2020
3425 Clouds 17 1009 93 10000 1 0 13:20 10.05.2020
3426 Rain 17 1008 93 10000 1.5 300 12:58 10.05.2020
3427 Rain 17 1008 93 10000 1.5 300 12:40 10.05.2020
3428 Rain 17 1008 93 10000 1.5 300 12:21 10.05.2020
3429 Clouds 17 1008 93 10000 1 360 11:57 10.05.2020
3430 Clouds 17 1008 93 10000 1 360 11:39 10.05.2020
3431 Clouds 17 1008 93 10000 1 360 11:20 10.05.2020
3432 Rain 17 1008 93 8000 2.6 340 10:47 10.05.2020
3433 Rain 17 1008 93 8000 2.6 340 10:29 10.05.2020
3434 Rain 18 1007 88 10000 3.1 350 09:59 10.05.2020
3435 Rain 18 1007 88 10000 3.1 350 09:40 10.05.2020
3436 Rain 18 1007 88 10000 3.1 350 09:21 10.05.2020
3437 Rain 18 1008 82 10000 4.1 320 08:51 10.05.2020
3438 Rain 18 1008 82 10000 4.1 320 08:24 10.05.2020
3439 Clouds 19 1009 82 10000 3.6 310 07:45 10.05.2020
3440 Clouds 19 1009 82 10000 3.6 310 07:21 10.05.2020
3441 Clouds 19 1008 82 10000 5.1 340 06:57 10.05.2020
3442 Clouds 19 1008 82 10000 5.1 340 06:35 10.05.2020
3443 Clouds 19 1008 77 10000 3.1 270 05:52 10.05.2020
3444 Clouds 21 1008 83 10000 3.1 290 04:55 10.05.2020
3445 Clouds 21 1008 83 10000 3.1 290 04:36 10.05.2020
3446 Clouds 21 1008 83 10000 1.5 240 03:57 10.05.2020
3447 Clouds 21 1008 83 10000 1.5 240 03:38 10.05.2020
3448 Clouds 19 1008 93 10000 1 0 02:48 10.05.2020
3449 Clouds 19 1008 93 10000 1 0 02:19 10.05.2020
3450 Clouds 18 1008 93 10000 1.5 20 01:42 10.05.2020
3451 Clouds 18 1008 93 10000 2.1 20 01:20 10.05.2020
3452 Clouds 18 1008 93 10000 2.1 20 00:54 10.05.2020
3453 Rain 18 1008 93 6000 3.1 360 00:24 10.05.2020
3454 Rain 18 1008 93 2000 3.1 20 23:59 09.05.2020
3455 Rain 18 1008 93 6000 4.1 10 23:39 09.05.2020
3456 Rain 19 1008 93 6000 4.1 10 23:20 09.05.2020
3457 Rain 20 1009 93 0 5.36 120 22:42 09.05.2020
3458 Rain 20 1009 93 0 5.36 120 22:24 09.05.2020
3459 Rain 20 1009 93 0 5.36 120 21:58 09.05.2020
3460 Rain 20 1009 93 0 5.36 120 21:40 09.05.2020
3461 Rain 20 1009 93 0 5.36 120 21:21 09.05.2020
3462 Rain 20 1010 93 0 5.36 120 20:58 09.05.2020
3463 Rain 20 1010 93 0 5.36 120 20:38 09.05.2020
3464 Rain 20 1010 93 0 5.36 120 20:38 09.05.2020
3465 Rain 20 1010 93 0 5.36 120 20:20 09.05.2020
3466 Rain 20 1009 93 0 5.36 120 19:56 09.05.2020
3467 Rain 20 1009 93 0 5.36 120 19:37 09.05.2020
3468 Rain 20 1009 93 0 5.36 120 19:18 09.05.2020
3469 Rain 20 1009 93 0 5.36 120 19:18 09.05.2020
3470 Rain 20 1009 93 0 5.36 120 18:43 09.05.2020
3471 Rain 20 1009 93 0 5.36 120 18:24 09.05.2020
3472 Rain 20 1010 93 0 5.36 120 17:46 09.05.2020
3473 Rain 20 1010 93 0 5.36 120 17:23 09.05.2020
3474 Rain 20 1010 93 0 5.36 120 16:57 09.05.2020
3475 Rain 20 1009 93 0 5.36 120 16:38 09.05.2020
3476 Rain 20 1009 93 0 5.36 120 16:38 09.05.2020
3477 Rain 20 1009 93 0 5.36 120 16:19 09.05.2020
3478 Rain 20 1009 93 0 5.36 120 15:43 09.05.2020
3479 Rain 20 1009 94 7000 5.7 120 15:22 09.05.2020
3480 Rain 20 1009 94 7000 5.7 120 14:56 09.05.2020
3481 Rain 20 1009 94 7000 5.7 120 14:37 09.05.2020
3482 Rain 20 1009 94 7000 5.7 120 14:18 09.05.2020
3483 Rain 20 1009 94 10000 5.1 130 13:55 09.05.2020
3484 Rain 20 1009 94 10000 5.1 130 13:37 09.05.2020
3485 Rain 20 1009 94 10000 5.1 130 13:18 09.05.2020
3486 Rain 19 1008 88 9000 4.1 130 12:39 09.05.2020
3487 Rain 19 1008 88 9000 4.1 130 12:21 09.05.2020
3488 Rain 19 1009 93 8000 4.6 120 11:45 09.05.2020
3489 Rain 19 1009 93 8000 4.6 120 11:20 09.05.2020
3490 Rain 19 1009 93 8000 4.1 130 10:55 09.05.2020
3491 Rain 19 1009 93 8000 4.1 130 10:37 09.05.2020
3492 Rain 19 1009 93 8000 4.1 130 10:19 09.05.2020
3493 Rain 19 1009 93 9000 3.1 130 09:44 09.05.2020
3494 Rain 19 1009 93 9000 3.1 130 09:20 09.05.2020
3495 Rain 19 1009 93 10000 4.1 130 08:57 09.05.2020
3496 Rain 19 1009 93 10000 4.1 130 08:38 09.05.2020
3497 Rain 19 1009 93 10000 4.1 130 08:20 09.05.2020
3498 Rain 19 1009 93 9000 3.6 120 07:44 09.05.2020
3499 Rain 19 1009 93 9000 3.6 120 07:25 09.05.2020
3500 Rain 19 1009 82 7000 1 0 06:40 09.05.2020
3501 Rain 19 1009 82 7000 1 0 06:18 09.05.2020
3502 Rain 20 1010 77 10000 6.2 140 05:39 09.05.2020
3503 Rain 21 1010 60 10000 9.3 140 03:40 09.05.2020
3504 Clouds 21 1011 64 10000 8.7 130 02:54 09.05.2020
3505 Clouds 21 1011 64 10000 8.7 130 02:30 09.05.2020
3506 Clouds 21 1011 64 10000 9.3 140 01:50 09.05.2020
3507 Clouds 21 1011 64 10000 9.3 140 01:22 09.05.2020
3508 Clouds 20 1012 64 10000 8.2 140 00:43 09.05.2020
3509 Clouds 20 1012 64 10000 8.2 140 00:19 09.05.2020
3510 Clouds 19 1013 76 0 6.78 153 23:44 08.05.2020
3511 Clouds 18 1014 77 0 6.75 150 23:25 08.05.2020
3512 Clouds 18 1014 77 0 6.75 150 22:56 08.05.2020
3513 Clouds 18 1014 77 0 6.75 150 22:38 08.05.2020
3514 Clouds 18 1013 76 0 6.98 151 22:19 08.05.2020
3515 Clouds 18 1013 76 0 6.98 151 21:55 08.05.2020
3516 Clouds 18 1013 76 0 6.98 151 21:36 08.05.2020
3517 Clouds 18 1014 75 0 7.54 151 21:18 08.05.2020
3518 Clouds 18 1014 75 0 7.54 151 20:55 08.05.2020
3519 Clouds 18 1014 75 0 7.54 151 20:37 08.05.2020
3520 Clouds 18 1014 74 0 8 151 20:19 08.05.2020
3521 Clouds 18 1014 74 0 8 151 19:42 08.05.2020
3522 Clouds 18 1014 73 0 8.12 156 19:21 08.05.2020
3523 Clouds 18 1014 73 0 8.12 156 18:46 08.05.2020
3524 Clouds 18 1014 73 0 8.12 156 18:46 08.05.2020
3525 Clouds 18 1015 73 0 7.08 158 18:28 08.05.2020
3526 Clouds 18 1015 73 0 7.08 158 17:43 08.05.2020
3527 Clouds 20 1015 72 10000 3.6 150 17:20 08.05.2020
3528 Clouds 20 1015 72 10000 3.6 150 16:56 08.05.2020
3529 Clouds 20 1015 72 10000 3.6 150 16:38 08.05.2020
3530 Clouds 20 1015 72 10000 3.6 150 16:19 08.05.2020
3531 Clouds 20 1015 72 10000 4.6 150 15:43 08.05.2020
3532 Clouds 21 1015 52 10000 9.3 160 15:22 08.05.2020
3533 Clouds 21 1015 52 10000 9.3 160 14:57 08.05.2020
3534 Clouds 21 1015 52 10000 9.3 160 14:39 08.05.2020
3535 Clouds 21 1015 53 10000 3.6 180 14:19 08.05.2020
3536 Clouds 22 1015 53 10000 3.6 180 13:56 08.05.2020
3537 Clouds 22 1015 53 10000 3.6 180 13:37 08.05.2020
3538 Clouds 22 1015 53 10000 3.6 180 13:18 08.05.2020
3539 Clouds 22 1014 56 10000 3.6 170 12:42 08.05.2020
3540 Clouds 22 1014 56 10000 3.6 170 12:23 08.05.2020
3541 Clouds 23 1014 60 10000 2.6 220 11:54 08.05.2020
3542 Clouds 23 1014 60 10000 2.6 220 11:36 08.05.2020
3543 Clouds 23 1014 60 10000 2.6 220 11:18 08.05.2020
3544 Clouds 25 1014 44 10000 3.6 190 10:42 08.05.2020
3545 Clouds 25 1014 44 10000 5.1 160 10:19 08.05.2020
3546 Clouds 25 1014 44 10000 5.1 160 09:57 08.05.2020
3547 Clouds 25 1014 44 10000 5.1 160 09:38 08.05.2020
3548 Clouds 25 1014 44 10000 5.1 160 09:18 08.05.2020
3549 Clouds 25 1014 44 10000 5.1 160 09:18 08.05.2020
3550 Clouds 26 1014 44 10000 5.1 150 08:42 08.05.2020
3551 Clouds 26 1014 44 10000 5.1 150 08:22 08.05.2020
3552 Clouds 26 1015 41 10000 5.1 140 07:43 08.05.2020
3553 Clouds 26 1015 41 10000 5.1 140 07:25 08.05.2020
3554 Clouds 26 1015 36 10000 4.6 140 06:51 08.05.2020
3555 Clouds 26 1015 36 10000 4.6 140 06:24 08.05.2020
3556 Clouds 24 1016 44 10000 4.6 140 05:51 08.05.2020
3557 Clouds 23 1017 46 10000 6.2 140 04:38 08.05.2020
3558 Clear 21 1017 49 10000 4.1 120 02:34 08.05.2020
3559 Clouds 19 1017 55 10000 3.1 120 01:53 08.05.2020
3560 Clouds 19 1017 55 10000 3.1 120 01:28 08.05.2020
3561 Clouds 16 1017 67 10000 2.1 100 00:52 08.05.2020
3562 Clouds 16 1017 67 10000 2.1 100 00:30 08.05.2020
3563 Clouds 15 1017 77 10000 0.5 0 23:59 07.05.2020
3564 Clouds 15 1017 77 10000 0.5 0 23:40 07.05.2020
3565 Clouds 15 1017 77 10000 0.5 0 23:40 07.05.2020
3566 Clouds 15 1017 77 10000 0.5 0 23:40 07.05.2020
3567 Clouds 16 1017 77 10000 0.5 0 23:21 07.05.2020
3568 Clouds 17 1015 72 0 2.68 310 22:56 07.05.2020
3569 Clouds 17 1015 72 0 2.68 310 22:37 07.05.2020
3570 Clouds 17 1015 72 0 2.68 310 22:19 07.05.2020
3571 Clouds 17 1015 72 0 2.68 310 21:55 07.05.2020
3572 Clouds 17 1015 72 0 2.68 310 21:36 07.05.2020
3573 Clouds 17 1015 72 0 2.68 310 21:18 07.05.2020
3574 Clouds 17 1015 72 0 2.68 310 20:42 07.05.2020
3575 Clouds 17 1015 72 0 2.68 310 20:22 07.05.2020
3576 Clouds 17 1015 72 0 2.68 310 19:54 07.05.2020
3577 Clouds 17 1015 72 0 2.68 310 19:36 07.05.2020
3578 Clouds 17 1015 72 0 2.68 310 19:18 07.05.2020
3579 Clouds 17 1015 72 0 2.68 310 18:43 07.05.2020
3580 Clouds 17 1015 72 0 2.68 310 18:24 07.05.2020
3581 Clouds 17 1015 72 0 2.68 310 17:43 07.05.2020
3582 Clouds 17 1015 72 0 2.68 310 17:21 07.05.2020
3583 Clouds 17 1015 72 0 2.68 310 16:59 07.05.2020
3584 Clouds 17 1015 72 0 2.68 310 16:40 07.05.2020
3585 Clouds 17 1015 72 0 2.68 310 16:18 07.05.2020
3586 Clouds 17 1015 72 0 2.68 310 16:18 07.05.2020
3587 Clouds 17 1015 72 0 2.68 310 15:55 07.05.2020
3588 Clouds 17 1015 72 10000 3.1 310 15:37 07.05.2020
3589 Clear 17 1015 72 10000 3.1 310 15:18 07.05.2020
3590 Clear 17 1015 72 10000 3.1 310 14:43 07.05.2020
3591 Clouds 17 1015 72 10000 3.1 310 14:20 07.05.2020
3592 Clouds 18 1014 72 10000 5.1 330 13:44 07.05.2020
3593 Clouds 18 1014 72 10000 5.1 330 13:25 07.05.2020
3594 Clouds 19 1013 63 10000 7.2 320 12:45 07.05.2020
3595 Clouds 20 1012 56 10000 9.3 330 12:20 07.05.2020
3596 Clouds 21 1012 56 10000 9.3 330 11:59 07.05.2020
3597 Clouds 21 1012 56 10000 9.3 330 11:39 07.05.2020
3598 Clouds 21 1012 56 10000 9.3 330 11:21 07.05.2020
3599 Clouds 22 1012 56 10000 8.7 330 10:43 07.05.2020
3600 Clouds 22 1012 56 10000 8.7 330 10:24 07.05.2020
3601 Clouds 23 1011 49 10000 7.7 330 09:41 07.05.2020
3602 Clouds 23 1011 49 10000 7.7 330 09:21 07.05.2020
3603 Clouds 27 1012 19 10000 5.1 10 08:59 07.05.2020
3604 Clouds 27 1012 19 10000 5.1 10 08:41 07.05.2020
3605 Clouds 26 1012 24 10000 3.6 40 08:21 07.05.2020
3606 Clouds 26 1012 24 10000 3.6 40 07:49 07.05.2020
3607 Clouds 26 1012 24 10000 3.6 40 07:31 07.05.2020
3608 Clouds 26 1012 24 10000 4.1 60 06:56 07.05.2020
3609 Clouds 26 1012 24 10000 4.1 60 06:35 07.05.2020
3610 Clouds 26 1013 19 10000 6.2 60 05:38 07.05.2020
3611 Clouds 24 1014 22 10000 3.6 50 04:25 07.05.2020
3612 Clear 23 1015 25 10000 5.1 10 03:26 07.05.2020
3613 Clear 23 1015 23 10000 5.1 50 02:53 07.05.2020
3614 Clouds 21 1014 28 10000 6.2 360 01:46 07.05.2020
3615 Clouds 21 1014 28 10000 6.2 360 01:24 07.05.2020
3616 Clouds 19 1014 42 10000 5.7 10 00:47 07.05.2020
3617 Clouds 19 1014 42 10000 5.7 10 00:28 07.05.2020
3618 Clouds 17 1014 55 10000 6.7 350 23:48 06.05.2020
3619 Clouds 17 1014 55 10000 6.7 350 23:26 06.05.2020
3620 Clouds 16 1014 49 0 5.51 25 22:58 06.05.2020
3621 Clouds 16 1014 49 0 5.51 25 22:40 06.05.2020
3622 Clear 16 1013 53 0 5.08 27 22:20 06.05.2020
3623 Clear 16 1013 53 0 5.08 27 21:58 06.05.2020
3624 Clear 16 1013 53 0 5.08 27 21:40 06.05.2020
3625 Clear 16 1013 53 0 5.08 27 21:40 06.05.2020
3626 Clear 17 1013 53 0 4.91 25 21:21 06.05.2020
3627 Clear 17 1013 53 0 4.91 25 20:43 06.05.2020
3628 Clear 17 1013 54 0 5 29 20:25 06.05.2020
3629 Clear 17 1013 54 0 5 29 19:59 06.05.2020
3630 Clear 17 1013 54 0 5 29 19:39 06.05.2020
3631 Clear 17 1013 54 0 5 29 19:39 06.05.2020
3632 Clear 18 1012 53 0 5.49 32 19:21 06.05.2020
3633 Clear 18 1012 53 0 5.49 32 19:21 06.05.2020
3634 Clear 18 1012 53 0 5.49 32 18:59 06.05.2020
3635 Clear 18 1012 53 0 5.49 32 18:41 06.05.2020
3636 Clear 19 1010 68 0 8.94 340 18:22 06.05.2020
3637 Clear 19 1010 68 0 8.94 340 17:59 06.05.2020
3638 Clear 19 1010 68 0 8.94 340 17:40 06.05.2020
3639 Clear 19 1010 68 0 8.94 340 17:22 06.05.2020
3640 Clear 19 1010 68 0 8.94 340 16:59 06.05.2020
3641 Clear 19 1010 68 0 8.94 340 16:59 06.05.2020
3642 Clear 19 1010 68 0 8.94 340 16:40 06.05.2020
3643 Clear 19 1010 68 0 8.94 340 16:21 06.05.2020
3644 Clear 19 1010 68 0 8.94 340 15:58 06.05.2020
3645 Clear 19 1010 68 0 8.94 340 15:40 06.05.2020
3646 Clouds 19 1010 68 10000 9.3 340 15:21 06.05.2020
3647 Clouds 19 1010 68 10000 9.3 340 14:55 06.05.2020
3648 Clouds 19 1010 68 10000 9.3 340 14:36 06.05.2020
3649 Clouds 19 1009 68 10000 9.3 340 14:18 06.05.2020
3650 Clouds 19 1009 68 10000 9.3 340 13:43 06.05.2020
3651 Clouds 19 1009 68 10000 9.3 340 13:24 06.05.2020
3652 Clouds 20 1008 68 10000 8.7 330 12:56 06.05.2020
3653 Clouds 20 1008 68 10000 8.7 330 12:37 06.05.2020
3654 Clouds 20 1008 68 10000 8.7 330 12:19 06.05.2020
3655 Clouds 22 1007 64 10000 8.2 330 11:40 06.05.2020
3656 Clouds 22 1007 64 10000 8.2 330 11:21 06.05.2020
3657 Clear 23 1007 60 10000 8.2 330 10:57 06.05.2020
3658 Clear 23 1007 60 10000 8.2 330 10:38 06.05.2020
3659 Clear 23 1007 60 10000 8.2 330 10:19 06.05.2020
3660 Clouds 25 1007 57 10000 8.2 330 09:43 06.05.2020
3661 Clouds 25 1007 57 10000 8.2 330 09:22 06.05.2020
3662 Clouds 25 1007 61 10000 8.7 330 08:49 06.05.2020
3663 Clouds 25 1007 61 10000 8.7 330 08:23 06.05.2020
3664 Clouds 25 1008 61 10000 6.7 310 07:59 06.05.2020
3665 Clouds 25 1008 61 10000 6.7 310 07:39 06.05.2020
3666 Clouds 24 1008 61 10000 6.7 310 07:20 06.05.2020
3667 Clouds 23 1009 64 10000 6.7 300 06:51 06.05.2020
3668 Clouds 23 1009 64 10000 6.7 300 06:21 06.05.2020
3669 Clouds 23 1009 69 10000 4.1 310 05:52 06.05.2020
3670 Clouds 24 1009 69 10000 4.1 310 05:34 06.05.2020
3671 Clouds 23 1010 69 10000 7.2 330 04:31 06.05.2020
3672 Clouds 22 1009 73 10000 7.2 330 03:36 06.05.2020
3673 Clouds 21 1009 83 9000 7.7 320 02:58 06.05.2020
3674 Clouds 21 1009 83 9000 7.7 320 02:29 06.05.2020
3675 Clouds 21 1009 83 9000 7.7 320 02:29 06.05.2020
3676 Clouds 20 1009 88 6000 1.5 290 01:53 06.05.2020
3677 Clouds 20 1009 88 6000 1.5 290 01:28 06.05.2020
3678 Clouds 19 1009 93 6000 1 0 00:46 06.05.2020
3679 Clouds 19 1009 93 6000 1 0 00:23 06.05.2020
3680 Clouds 18 1009 93 6000 1.5 160 23:43 05.05.2020
3681 Clouds 18 1009 93 6000 1.5 160 23:21 05.05.2020
3682 Clouds 19 1010 93 0 0.9 28 22:59 05.05.2020
3683 Clouds 19 1010 93 0 0.9 28 22:40 05.05.2020
3684 Clouds 19 1010 93 0 0.9 28 22:40 05.05.2020
3685 Rain 19 1010 93 0 1.16 16 22:19 05.05.2020
3686 Rain 19 1010 93 0 1.16 16 21:56 05.05.2020
3687 Rain 19 1010 93 0 1.16 16 21:38 05.05.2020
3688 Rain 19 1010 93 0 1.55 36 21:19 05.05.2020
3689 Rain 19 1010 93 0 1.55 36 21:19 05.05.2020
3690 Clouds 19 1010 93 0 0.41 100 20:56 05.05.2020
3691 Clouds 19 1010 93 0 0.41 100 20:56 05.05.2020
3692 Clouds 19 1010 93 0 0.41 100 20:37 05.05.2020
3693 Clouds 19 1010 93 0 0.29 111 20:18 05.05.2020
3694 Clouds 19 1010 93 0 0.29 111 19:41 05.05.2020
3695 Clouds 19 1010 93 0 0.65 132 19:23 05.05.2020
3696 Clouds 19 1010 93 0 0.65 132 18:57 05.05.2020
3697 Clouds 19 1010 93 0 0.65 132 18:39 05.05.2020
3698 Clouds 19 1010 93 0 1.87 308 18:20 05.05.2020
3699 Clouds 19 1010 93 0 1.87 308 17:57 05.05.2020
3700 Clouds 19 1010 93 0 1.87 308 17:57 05.05.2020
3701 Clouds 19 1010 93 0 1.87 308 17:57 05.05.2020
3702 Clouds 19 1010 93 0 1.87 308 17:38 05.05.2020
3703 Clouds 19 1010 93 0 2.3 235 17:20 05.05.2020
3704 Clouds 19 1010 93 0 2.3 235 16:40 05.05.2020
3705 Clouds 19 1010 93 0 1.51 101 16:21 05.05.2020
3706 Clouds 19 1010 93 0 1.51 101 15:59 05.05.2020
3707 Clouds 19 1010 93 0 1.51 101 15:39 05.05.2020
3708 Clouds 19 1010 93 10000 0.5 0 15:21 05.05.2020
3709 Clouds 19 1010 93 10000 0.5 0 14:55 05.05.2020
3710 Clouds 19 1010 93 10000 0.5 0 14:55 05.05.2020
3711 Clouds 19 1010 93 10000 0.5 0 14:37 05.05.2020
3712 Clouds 19 1010 93 10000 0.5 0 14:19 05.05.2020
3713 Clouds 19 1010 93 8000 2.6 360 13:55 05.05.2020
3714 Clouds 19 1010 93 8000 2.6 360 13:37 05.05.2020
3715 Clouds 19 1010 93 8000 2.6 360 13:18 05.05.2020
3716 Clouds 20 1011 88 8000 1 0 12:55 05.05.2020
3717 Clouds 20 1011 88 8000 1 0 12:37 05.05.2020
3718 Clouds 20 1011 88 8000 1 0 12:19 05.05.2020
3719 Clouds 20 1011 88 7000 2.6 0 11:40 05.05.2020
3720 Clouds 20 1011 88 7000 2.6 0 11:20 05.05.2020
3721 Clouds 21 1009 83 10000 3.6 270 10:55 05.05.2020
3722 Clouds 21 1009 83 10000 3.6 270 10:37 05.05.2020
3723 Clouds 21 1009 78 10000 3.6 270 10:18 05.05.2020
3724 Clouds 22 1009 78 10000 3.6 270 09:44 05.05.2020
3725 Clouds 22 1009 78 10000 3.6 270 09:26 05.05.2020
3726 Clouds 22 1009 78 10000 5.1 250 08:59 05.05.2020
3727 Clouds 22 1009 78 10000 5.1 250 08:59 05.05.2020
3728 Clouds 22 1009 78 10000 5.1 250 08:39 05.05.2020
3729 Clouds 22 1009 78 10000 5.1 250 08:18 05.05.2020
3730 Clouds 21 1009 83 9000 5.1 270 07:44 05.05.2020
3731 Clouds 21 1009 83 9000 5.1 270 07:22 05.05.2020
3732 Clouds 24 1009 78 10000 3.6 280 06:58 05.05.2020
3733 Clouds 24 1009 78 10000 3.6 280 06:39 05.05.2020
3734 Clouds 23 1009 78 10000 3.1 340 05:56 05.05.2020
3735 Clouds 23 1009 78 10000 3.1 340 05:25 05.05.2020
3736 Clouds 19 1011 93 8000 2.1 360 02:41 05.05.2020
3737 Mist 18 1011 93 5000 1.5 340 00:57 05.05.2020
3738 Mist 18 1011 93 4500 2.1 340 00:37 05.05.2020
3739 Mist 17 1011 100 2500 1 0 23:55 04.05.2020
3740 Mist 17 1011 100 2500 1 0 23:36 04.05.2020
3741 Mist 17 1011 100 2500 1 0 23:18 04.05.2020
3742 Clouds 18 1010 93 0 5.36 340 22:42 04.05.2020
3743 Clouds 18 1010 93 0 5.36 340 22:23 04.05.2020
3744 Clouds 18 1010 93 0 5.36 340 21:59 04.05.2020
3745 Clouds 18 1010 93 0 5.36 340 21:41 04.05.2020
3746 Clouds 18 1010 93 0 5.36 340 21:41 04.05.2020
3747 Clouds 18 1010 93 0 5.36 340 21:41 04.05.2020
3748 Clouds 18 1010 93 0 5.36 340 21:41 04.05.2020
3749 Clouds 18 1010 93 0 5.36 340 21:19 04.05.2020
3750 Clouds 18 1010 93 0 5.36 340 20:41 04.05.2020
3751 Clear 18 1010 93 0 5.36 340 20:21 04.05.2020
3752 Clear 18 1010 93 0 5.36 340 19:58 04.05.2020
3753 Clear 18 1010 93 0 5.36 340 19:40 04.05.2020
3754 Clear 18 1010 93 0 5.36 340 19:40 04.05.2020
3755 Clear 18 1010 93 0 5.36 340 19:18 04.05.2020
3756 Clear 18 1010 93 0 5.36 340 18:39 04.05.2020
3757 Clear 18 1010 93 0 5.36 340 18:20 04.05.2020
3758 Clear 18 1010 93 0 5.36 340 17:57 04.05.2020
3759 Clear 18 1010 93 0 5.36 340 17:38 04.05.2020
3760 Clear 18 1010 93 0 5.36 340 17:20 04.05.2020
3761 Clear 18 1010 93 0 5.36 340 16:56 04.05.2020
3762 Clear 18 1010 93 0 5.36 340 16:37 04.05.2020
3763 Clear 18 1010 93 0 5.36 340 16:19 04.05.2020
3764 Clear 18 1010 93 0 5.36 340 16:19 04.05.2020
3765 Clear 18 1010 93 0 5.36 340 15:40 04.05.2020
3766 Clouds 18 1010 93 8000 5.7 340 15:22 04.05.2020
3767 Clouds 18 1010 93 8000 5.7 340 14:49 04.05.2020
3768 Clouds 18 1010 93 8000 5.7 340 14:22 04.05.2020
3769 Clouds 18 1010 93 8000 5.7 340 14:22 04.05.2020
3770 Clouds 18 1010 93 8000 5.7 340 14:22 04.05.2020
3771 Clouds 19 1009 88 9000 4.6 350 13:22 04.05.2020
3772 Clouds 19 1009 88 9000 4.6 350 13:22 04.05.2020
3773 Clouds 19 1009 88 9000 4.6 350 13:22 04.05.2020
3774 Clouds 19 1009 88 9000 4.6 350 13:22 04.05.2020
3775 Clouds 20 1008 88 9000 5.7 350 12:44 04.05.2020
3776 Clouds 20 1008 88 9000 5.7 350 12:44 04.05.2020
3777 Clouds 20 1008 88 9000 5.7 350 12:44 04.05.2020
3778 Clouds 20 1008 88 9000 5.7 350 12:44 04.05.2020
3779 Clouds 20 1008 88 9000 5.7 350 12:44 04.05.2020
3780 Clouds 21 1008 83 10000 4.6 320 11:27 04.05.2020
3781 Clouds 21 1008 83 10000 4.6 320 11:27 04.05.2020
3782 Clouds 21 1008 83 10000 4.6 320 11:27 04.05.2020
3783 Clouds 21 1008 83 10000 4.6 320 11:27 04.05.2020
3784 Clouds 21 1008 83 10000 4.6 320 11:27 04.05.2020
3785 Clouds 23 1006 78 10000 3.1 300 09:28 04.05.2020
3786 Clouds 22 1007 73 10000 3.6 280 07:54 04.05.2020
3787 Clouds 22 1007 73 10000 3.6 280 07:34 04.05.2020
3788 Clouds 22 1007 73 10000 2.6 320 05:49 04.05.2020
3789 Clouds 21 1008 83 10000 2.1 350 04:52 04.05.2020
3790 Clouds 21 1008 83 10000 2.1 350 04:52 04.05.2020
3791 Clouds 19 1007 93 7000 1.5 10 02:54 04.05.2020
3792 Mist 19 1007 93 5000 1 0 01:39 04.05.2020
3793 Mist 19 1006 93 4000 2.1 170 00:18 04.05.2020
3794 Mist 19 1006 93 3000 3.1 260 23:43 03.05.2020
3795 Mist 19 1006 93 3000 3.1 260 23:43 03.05.2020
3796 Mist 19 1006 93 3000 3.1 260 23:23 03.05.2020
3797 Clouds 18 1005 100 0 6.71 150 22:44 03.05.2020
3798 Clouds 18 1005 100 0 6.71 150 22:44 03.05.2020
3799 Clouds 18 1005 100 0 6.71 150 22:25 03.05.2020
3800 Clouds 18 1005 100 0 6.71 150 22:25 03.05.2020
3801 Clouds 18 1005 100 0 6.71 150 21:55 03.05.2020
3802 Clouds 18 1005 100 0 6.71 150 21:37 03.05.2020
3803 Clouds 18 1005 100 0 6.71 150 21:18 03.05.2020
3804 Clouds 18 1005 100 0 6.71 150 20:42 03.05.2020
3805 Clouds 18 1005 100 0 6.71 150 20:42 03.05.2020
3806 Clouds 18 1005 100 0 6.71 150 20:20 03.05.2020
3807 Clouds 18 1005 100 0 6.71 150 20:20 03.05.2020
3808 Clouds 18 1005 100 0 6.71 150 19:48 03.05.2020
3809 Clouds 18 1005 100 0 6.71 150 19:30 03.05.2020
3810 Rain 18 1005 100 0 6.71 150 18:56 03.05.2020
3811 Rain 18 1005 100 0 6.71 150 18:56 03.05.2020
3812 Rain 18 1005 100 0 6.71 150 18:37 03.05.2020
3813 Rain 18 1005 100 0 6.71 150 18:18 03.05.2020
3814 Rain 18 1005 100 0 6.71 150 18:18 03.05.2020
3815 Rain 18 1005 100 0 6.71 150 18:18 03.05.2020
3816 Rain 18 1005 100 0 6.71 150 18:18 03.05.2020
3817 Rain 18 1005 100 0 6.71 150 18:18 03.05.2020
3818 Rain 18 1006 100 0 6.71 150 17:40 03.05.2020
3819 Rain 18 1006 100 0 6.71 150 17:21 03.05.2020
3820 Rain 18 1006 100 0 6.71 150 16:45 03.05.2020
3821 Rain 18 1006 100 0 6.71 150 16:45 03.05.2020
3822 Rain 18 1006 100 0 6.71 150 16:20 03.05.2020
3823 Rain 18 1006 100 0 6.71 150 16:20 03.05.2020
3824 Rain 18 1005 100 0 6.71 150 15:58 03.05.2020
3825 Rain 18 1006 100 0 6.71 150 15:39 03.05.2020
3826 Clouds 18 1005 100 10000 6.7 150 15:20 03.05.2020
3827 Clouds 18 1005 100 10000 6.7 150 14:58 03.05.2020
3828 Clouds 18 1005 100 10000 6.7 150 14:39 03.05.2020
3829 Clouds 18 1005 100 10000 6.7 150 14:20 03.05.2020
3830 Clouds 18 1005 100 10000 6.2 160 13:51 03.05.2020
3831 Clouds 18 1005 100 10000 6.2 160 13:50 03.05.2020
3832 Clouds 18 1005 100 10000 6.2 160 13:50 03.05.2020
3833 Clouds 18 1005 100 10000 6.2 160 13:49 03.05.2020
3834 Clouds 18 1005 100 10000 6.2 160 13:49 03.05.2020
3835 Clouds 19 1005 93 10000 5.1 160 12:59 03.05.2020
3836 Clouds 19 1005 93 10000 5.1 160 12:41 03.05.2020
3837 Clouds 19 1004 93 10000 6.2 160 12:18 03.05.2020
3838 Clouds 19 1004 93 10000 6.2 160 11:55 03.05.2020
3839 Clouds 19 1004 93 10000 6.2 160 11:37 03.05.2020
3840 Clouds 19 1004 93 10000 6.2 160 11:18 03.05.2020
3841 Clouds 19 1005 100 10000 6.2 140 10:39 03.05.2020
3842 Clouds 19 1005 100 10000 6.2 140 10:39 03.05.2020
3843 Clouds 19 1005 100 10000 6.2 140 10:39 03.05.2020
3844 Clouds 19 1005 100 10000 6.2 140 10:39 03.05.2020
3845 Clouds 19 1005 100 10000 6.2 140 10:39 03.05.2020
3846 Rain 19 1005 100 10000 3.1 150 09:52 03.05.2020
3847 Rain 19 1005 100 10000 3.1 150 09:52 03.05.2020
3848 Rain 19 1005 100 10000 3.1 150 09:52 03.05.2020
3849 Rain 19 1005 100 10000 3.1 150 09:52 03.05.2020
3850 Rain 19 1005 100 10000 3.1 150 09:52 03.05.2020
3851 Rain 19 1005 100 10000 3.1 150 09:28 03.05.2020
3852 Rain 19 1005 100 10000 3.1 150 09:28 03.05.2020
3853 Rain 19 1005 100 10000 3.1 150 09:27 03.05.2020
3854 Rain 19 1005 93 9000 4.1 140 08:54 03.05.2020
3855 Rain 19 1005 93 9000 4.1 140 08:54 03.05.2020
3856 Rain 19 1005 93 9000 4.1 140 08:54 03.05.2020
3857 Rain 19 1005 93 9000 4.1 140 08:54 03.05.2020
3858 Rain 19 1005 93 9000 4.1 140 08:54 03.05.2020
3859 Rain 19 1005 93 9000 4.1 140 08:19 03.05.2020
3860 Rain 19 1005 93 9000 4.1 140 08:19 03.05.2020
3861 Rain 19 1005 93 9000 4.1 140 08:19 03.05.2020
3862 Rain 19 1005 93 9000 4.1 140 08:19 03.05.2020
3863 Rain 18 1006 100 6000 4.1 130 07:38 03.05.2020
3864 Rain 18 1006 100 6000 4.1 130 07:38 03.05.2020
3865 Rain 18 1007 100 3000 5.7 140 06:19 03.05.2020
3866 Rain 18 1007 100 3000 5.7 140 06:19 03.05.2020
3867 Rain 19 1007 93 4000 3.6 140 05:44 03.05.2020
3868 Rain 19 1008 93 8000 5.7 140 04:29 03.05.2020
3869 Rain 17 1008 100 8000 4.6 140 03:58 03.05.2020
3870 Rain 17 1008 100 6000 6.7 140 02:47 03.05.2020
3871 Rain 17 1008 100 6000 6.7 140 02:22 03.05.2020
3872 Rain 18 1008 93 6000 5.7 120 01:41 03.05.2020
3873 Rain 18 1008 93 6000 5.7 120 01:23 03.05.2020
3874 Rain 18 1009 93 3500 5.1 150 00:40 03.05.2020
3875 Rain 18 1009 93 3500 5.1 150 00:21 03.05.2020
3876 Rain 18 1009 88 8000 3.1 130 23:49 02.05.2020
3877 Rain 18 1009 88 8000 3.1 130 23:30 02.05.2020
3878 Rain 17 1009 91 0 5.53 121 22:59 02.05.2020
3879 Rain 17 1009 91 0 5.53 121 22:41 02.05.2020
3880 Rain 17 1009 91 0 5.87 125 22:22 02.05.2020
3881 Rain 17 1009 91 0 5.87 125 21:54 02.05.2020
3882 Rain 17 1010 88 0 4.07 115 21:36 02.05.2020
3883 Rain 21 1012 73 0 4.92 130 21:18 02.05.2020
3884 Rain 21 1012 73 0 4.92 130 20:54 02.05.2020
3885 Rain 21 1012 73 0 4.92 130 20:36 02.05.2020
3886 Rain 21 1012 73 0 4.92 130 20:36 02.05.2020
3887 Clouds 21 1012 73 0 4.92 130 20:18 02.05.2020
3888 Clouds 21 1012 73 0 4.92 130 20:18 02.05.2020
3889 Clouds 21 1012 73 0 4.92 130 19:39 02.05.2020
3890 Clouds 21 1012 73 0 4.92 130 19:20 02.05.2020
3891 Clouds 21 1012 73 0 4.92 130 18:57 02.05.2020
3892 Clouds 21 1012 73 0 4.92 130 18:38 02.05.2020
3893 Clouds 21 1012 73 0 4.92 130 18:20 02.05.2020
3894 Clouds 21 1012 73 0 4.92 130 17:57 02.05.2020
3895 Clouds 21 1012 73 0 4.92 130 17:38 02.05.2020
3896 Clouds 21 1012 73 0 4.92 130 17:19 02.05.2020
3897 Clouds 21 1012 73 0 4.92 130 16:54 02.05.2020
3898 Clouds 21 1012 73 0 4.92 130 16:36 02.05.2020
3899 Clouds 21 1012 73 0 4.92 130 16:18 02.05.2020
3900 Clouds 21 1012 73 0 4.92 130 15:41 02.05.2020
3901 Clouds 21 1012 73 10000 5.1 130 15:19 02.05.2020
3902 Clouds 21 1012 73 10000 5.1 130 14:42 02.05.2020
3903 Clouds 21 1012 73 10000 5.1 130 14:24 02.05.2020
3904 Clouds 20 1012 77 10000 2.1 170 13:58 02.05.2020
3905 Clouds 20 1012 77 10000 2.1 170 13:39 02.05.2020
3906 Clouds 20 1012 77 10000 2.1 170 13:19 02.05.2020
3907 Clouds 21 1011 73 10000 3.1 130 12:41 02.05.2020
3908 Clouds 21 1012 64 10000 2.6 210 12:21 02.05.2020
3909 Clouds 22 1012 64 10000 2.6 210 11:57 02.05.2020
3910 Clouds 22 1012 64 10000 2.6 210 11:39 02.05.2020
3911 Clouds 22 1012 64 10000 2.6 210 11:20 02.05.2020
3912 Clouds 22 1012 68 10000 1 0 10:40 02.05.2020
3913 Clouds 22 1012 68 10000 1 0 10:40 02.05.2020
3914 Clouds 22 1012 68 10000 1 0 10:22 02.05.2020
3915 Clouds 22 1012 60 10000 3.6 0 09:59 02.05.2020
3916 Clouds 23 1012 60 10000 3.6 0 09:41 02.05.2020
3917 Clouds 23 1012 60 10000 3.6 0 09:23 02.05.2020
3918 Clouds 24 1012 47 10000 3.6 0 08:55 02.05.2020
3919 Clouds 24 1012 47 10000 3.6 0 08:37 02.05.2020
3920 Clouds 24 1012 47 10000 3.6 0 08:37 02.05.2020
3921 Clouds 24 1012 47 10000 3.6 0 08:19 02.05.2020
3922 Clouds 24 1012 53 10000 3.1 290 07:42 02.05.2020
3923 Clouds 24 1012 53 10000 3.1 290 07:23 02.05.2020
3924 Clouds 24 1013 53 10000 3.6 280 06:43 02.05.2020
3925 Clouds 22 1014 57 10000 3.1 270 05:28 02.05.2020
3926 Clouds 22 1015 60 10000 1.5 0 04:30 02.05.2020
3927 Clouds 21 1015 68 10000 1 0 03:50 02.05.2020
3928 Clouds 19 1016 72 10000 2.1 360 02:42 02.05.2020
3929 Clouds 18 1016 93 10000 3.1 140 01:58 02.05.2020
3930 Clouds 18 1016 93 10000 3.1 140 01:26 02.05.2020
3931 Clouds 17 1015 93 8000 2.6 130 00:43 02.05.2020
3932 Clouds 17 1015 93 8000 2.6 130 00:22 02.05.2020
3933 Clouds 16 1015 93 8000 3.1 140 23:55 01.05.2020
3934 Clouds 16 1015 93 8000 3.1 140 23:37 01.05.2020
3935 Clouds 16 1015 93 8000 3.1 140 23:18 01.05.2020
3936 Clouds 16 1016 88 0 1.67 115 22:39 01.05.2020
3937 Clouds 16 1015 88 0 1.75 140 22:19 01.05.2020
3938 Clouds 16 1015 88 0 1.75 140 21:57 01.05.2020
3939 Clouds 16 1015 88 0 1.75 140 21:39 01.05.2020
3940 Clouds 16 1015 88 0 1.66 157 21:20 01.05.2020
3941 Clouds 16 1016 86 0 1.72 144 20:57 01.05.2020
3942 Clouds 16 1016 86 0 1.72 144 20:38 01.05.2020
3943 Clouds 18 1016 88 0 1.41 152 20:19 01.05.2020
3944 Clouds 18 1016 88 0 1.41 152 19:55 01.05.2020
3945 Clouds 18 1016 88 0 1.41 152 19:37 01.05.2020
3946 Clouds 18 1016 88 0 1.49 158 19:19 01.05.2020
3947 Clouds 18 1016 88 0 1.49 158 18:55 01.05.2020
3948 Clouds 18 1016 88 0 1.49 158 18:36 01.05.2020
3949 Clouds 18 1016 88 0 1.5 177 18:18 01.05.2020
3950 Clouds 18 1016 88 0 1.5 177 17:40 01.05.2020
3951 Clouds 18 1016 88 0 1.51 173 17:21 01.05.2020
3952 Clouds 18 1016 88 0 1.51 173 16:57 01.05.2020
3953 Clouds 18 1016 88 0 1.51 173 16:39 01.05.2020
3954 Clear 18 1016 88 0 1.78 194 16:20 01.05.2020
3955 Clear 18 1016 88 0 1.78 194 15:57 01.05.2020
3956 Clouds 18 1016 88 10000 0.5 0 15:38 01.05.2020
3957 Clouds 18 1016 88 10000 0.5 0 15:19 01.05.2020
3958 Clouds 18 1016 88 10000 0.5 0 14:43 01.05.2020
3959 Clouds 18 1016 88 10000 0.5 0 14:24 01.05.2020
3960 Clouds 19 1016 82 10000 1 0 13:54 01.05.2020
3961 Clouds 20 1016 82 10000 1 0 13:36 01.05.2020
3962 Clouds 20 1015 77 10000 3.1 260 13:18 01.05.2020
3963 Clouds 20 1015 77 10000 3.1 260 12:40 01.05.2020
3964 Clouds 20 1015 77 10000 3.1 260 12:21 01.05.2020
3965 Clouds 21 1015 73 10000 4.1 260 11:59 01.05.2020
3966 Clouds 21 1015 73 10000 4.1 260 11:41 01.05.2020
3967 Clouds 22 1015 68 10000 4.1 260 11:21 01.05.2020
3968 Clouds 22 1015 68 10000 4.1 260 10:56 01.05.2020
3969 Clouds 22 1015 68 10000 4.1 260 10:36 01.05.2020
3970 Clouds 23 1015 60 10000 4.6 260 10:18 01.05.2020
3971 Clouds 23 1015 60 10000 4.6 260 09:42 01.05.2020
3972 Clouds 23 1015 60 10000 4.6 260 09:19 01.05.2020
3973 Clouds 23 1016 60 10000 4.1 260 08:46 01.05.2020
3974 Clouds 23 1016 60 10000 4.1 260 08:28 01.05.2020
3975 Clouds 23 1016 60 10000 4.6 270 07:59 01.05.2020
3976 Clouds 23 1016 60 10000 4.6 270 07:39 01.05.2020
3977 Clouds 23 1016 60 10000 4.6 270 07:18 01.05.2020
3978 Clouds 24 1017 57 10000 4.1 260 06:18 01.05.2020
3979 Clouds 23 1018 60 10000 3.6 270 05:21 01.05.2020
3980 Clouds 22 1018 64 10000 2.6 140 03:44 01.05.2020
3981 Clouds 20 1018 72 10000 4.1 140 02:53 01.05.2020
3982 Clouds 20 1018 72 10000 4.1 140 02:34 01.05.2020
3983 Clouds 17 1018 88 10000 4.1 140 01:47 01.05.2020
3984 Clouds 17 1018 88 10000 4.1 140 01:27 01.05.2020
3985 Clouds 16 1018 93 10000 3.6 130 00:40 01.05.2020
3986 Clouds 16 1018 93 10000 3.6 130 00:21 01.05.2020
3987 Clouds 15 1018 93 10000 5.7 140 23:57 30.04.2020
3988 Clouds 15 1018 93 10000 5.7 140 23:38 30.04.2020
3989 Clouds 15 1018 93 10000 5.7 140 23:38 30.04.2020
3990 Clouds 15 1018 93 10000 5.7 140 23:19 30.04.2020
3991 Clouds 17 1018 77 0 2.4 141 22:54 30.04.2020
3992 Clouds 17 1018 77 0 2.4 141 22:36 30.04.2020
3993 Clear 17 1018 77 0 2.42 133 22:18 30.04.2020
3994 Clear 17 1018 77 0 2.42 133 21:41 30.04.2020
3995 Clear 15 1017 87 0 2.09 133 21:21 30.04.2020
3996 Clouds 15 1018 87 0 2.13 126 20:57 30.04.2020
3997 Clouds 15 1018 87 0 2.13 126 20:39 30.04.2020
3998 Clear 17 1018 77 0 1.87 138 20:18 30.04.2020
3999 Clear 17 1018 77 0 1.87 138 20:18 30.04.2020
4000 Clear 17 1018 77 0 1.87 138 19:45 30.04.2020
4001 Clear 17 1018 77 0 2.21 151 19:26 30.04.2020
4002 Clear 17 1018 77 0 2.21 151 18:57 30.04.2020
4003 Clear 17 1018 77 0 2.21 151 18:39 30.04.2020
4004 Clear 17 1018 77 0 2.28 154 18:21 30.04.2020
4005 Clear 17 1018 77 0 2.28 154 17:57 30.04.2020
4006 Clear 17 1018 77 0 2.28 154 17:39 30.04.2020
4007 Clear 17 1018 77 0 2.09 163 17:20 30.04.2020
4008 Clear 17 1018 77 0 2.09 163 16:56 30.04.2020
4009 Clear 17 1018 77 0 2.09 163 16:37 30.04.2020
4010 Clear 17 1018 77 0 1.86 159 16:18 30.04.2020
4011 Clear 17 1018 77 0 1.86 159 15:44 30.04.2020
4012 Clear 17 1018 77 10000 0.5 0 15:23 30.04.2020
4013 Clear 17 1018 77 10000 0.5 0 15:23 30.04.2020
4014 Clear 17 1018 77 10000 0.5 0 14:43 30.04.2020
4015 Clear 17 1018 77 10000 0.5 0 14:22 30.04.2020
4016 Clear 18 1018 68 10000 1 0 13:59 30.04.2020
4017 Clear 18 1018 68 10000 1 0 13:41 30.04.2020
4018 Clear 18 1018 68 10000 1 0 13:23 30.04.2020
4019 Clear 19 1017 68 10000 1.5 0 12:59 30.04.2020
4020 Clear 19 1017 68 10000 1.5 0 12:41 30.04.2020
4021 Clear 19 1017 68 10000 1.5 0 12:19 30.04.2020
4022 Clear 20 1017 68 10000 1.5 0 11:38 30.04.2020
4023 Clear 20 1017 68 10000 1.5 0 11:19 30.04.2020
4024 Clouds 21 1017 60 10000 4.1 0 10:58 30.04.2020
4025 Clouds 21 1017 60 10000 4.1 0 10:39 30.04.2020
4026 Clouds 21 1017 60 10000 4.1 0 10:21 30.04.2020
4027 Clouds 21 1017 49 10000 4.1 260 09:56 30.04.2020
4028 Clouds 21 1017 49 10000 4.1 260 09:37 30.04.2020
4029 Clouds 21 1017 49 10000 4.1 260 09:18 30.04.2020
4030 Clouds 22 1017 49 10000 4.1 260 08:44 30.04.2020
4031 Clouds 22 1017 49 10000 4.1 260 08:24 30.04.2020
4032 Clouds 23 1018 43 10000 2.1 0 07:43 30.04.2020
4033 Clouds 23 1018 43 10000 2.1 0 07:25 30.04.2020
4034 Clouds 22 1019 49 10000 2.1 0 06:52 30.04.2020
4035 Clouds 22 1020 49 10000 2.1 120 06:18 30.04.2020
4036 Clouds 22 1020 49 10000 2.1 120 05:44 30.04.2020
4037 Clouds 21 1020 52 10000 2.6 160 04:36 30.04.2020
4038 Clouds 19 1021 59 10000 3.1 140 03:57 30.04.2020
4039 Clouds 18 1021 68 10000 4.1 140 02:46 30.04.2020
4040 Clouds 18 1021 68 10000 4.1 140 02:24 30.04.2020
4041 Clouds 15 1021 82 10000 3.1 140 01:36 30.04.2020
4042 Clouds 13 1021 82 10000 1.5 130 00:42 30.04.2020
4043 Clouds 13 1021 82 10000 1.5 130 00:19 30.04.2020
4044 Clouds 11 1021 81 10000 2.1 140 23:57 29.04.2020
4045 Clouds 11 1021 81 10000 2.1 140 23:37 29.04.2020
4046 Clouds 11 1021 81 10000 2.1 140 23:37 29.04.2020
4047 Clouds 11 1021 81 10000 2.1 140 23:18 29.04.2020
4048 Clear 14 1021 66 0 1.01 174 22:40 29.04.2020
4049 Clear 14 1020 58 0 1.79 80 22:21 29.04.2020
4050 Clear 14 1020 58 0 1.79 80 22:21 29.04.2020
4051 Clear 14 1020 58 0 1.79 80 21:57 29.04.2020
4052 Clear 14 1021 67 0 0.98 204 21:37 29.04.2020
4053 Clear 14 1021 68 0 0.99 221 21:18 29.04.2020
4054 Clear 14 1021 68 0 0.99 221 20:55 29.04.2020
4055 Clear 14 1021 68 0 0.99 221 20:36 29.04.2020
4056 Clear 14 1020 58 0 1.79 80 20:18 29.04.2020
4057 Clear 14 1020 58 0 1.79 80 19:42 29.04.2020
4058 Clear 14 1020 58 0 1.79 80 19:20 29.04.2020
4059 Clear 14 1020 58 0 1.79 80 18:43 29.04.2020
4060 Clear 14 1020 58 0 1.79 80 18:25 29.04.2020
4061 Clear 14 1020 58 0 1.79 80 17:58 29.04.2020
4062 Clear 14 1020 58 0 1.79 80 17:40 29.04.2020
4063 Clear 14 1020 58 0 1.79 80 17:21 29.04.2020
4064 Clear 14 1020 58 0 1.79 80 16:39 29.04.2020
4065 Clear 14 1020 58 0 1.79 80 16:19 29.04.2020
4066 Clear 14 1020 58 0 1.79 80 15:57 29.04.2020
4067 Clear 14 1020 58 0 1.79 80 15:39 29.04.2020
4068 Clear 14 1020 58 10000 2.1 80 15:21 29.04.2020
4069 Clear 14 1020 58 10000 2.1 80 14:57 29.04.2020
4070 Clear 14 1020 58 10000 2.1 80 14:38 29.04.2020
4071 Clear 14 1020 58 10000 2.1 80 14:20 29.04.2020
4072 Clear 15 1020 62 10000 2.1 310 13:42 29.04.2020
4073 Clear 15 1020 62 10000 2.1 310 13:20 29.04.2020
4074 Clear 15 1020 62 10000 2.1 310 13:20 29.04.2020
4075 Clear 17 1020 55 10000 1.5 300 12:59 29.04.2020
4076 Clear 17 1020 55 10000 1.5 300 12:40 29.04.2020
4077 Clear 17 1020 55 10000 1.5 300 12:19 29.04.2020
4078 Clear 19 1019 45 10000 2.1 310 11:58 29.04.2020
4079 Clear 19 1019 45 10000 2.1 310 11:36 29.04.2020
4080 Clear 19 1019 40 10000 4.1 340 11:18 29.04.2020
4081 Clear 20 1019 40 10000 4.1 340 10:37 29.04.2020
4082 Clear 20 1019 45 10000 2.1 290 10:19 29.04.2020
4083 Clear 20 1019 45 10000 2.1 290 09:42 29.04.2020
4084 Clear 20 1019 45 10000 2.1 290 09:24 29.04.2020
4085 Clear 20 1019 45 10000 3.1 290 08:59 29.04.2020
4086 Clear 20 1019 45 10000 3.1 290 08:41 29.04.2020
4087 Clear 20 1019 45 10000 3.1 290 08:23 29.04.2020
4088 Clouds 21 1020 43 10000 2.6 280 07:47 29.04.2020
4089 Clouds 21 1020 43 10000 2.6 280 07:24 29.04.2020
4090 Clouds 19 1020 45 10000 2.6 290 06:51 29.04.2020
4091 Clouds 19 1020 45 10000 2.6 290 06:31 29.04.2020
4092 Clouds 19 1021 45 10000 3.6 340 05:22 29.04.2020
4093 Clear 18 1022 45 10000 3.1 20 04:45 29.04.2020
4094 Clear 18 1022 45 10000 3.1 20 04:18 29.04.2020
4095 Clear 16 1022 51 10000 2.1 160 02:43 29.04.2020
4096 Clear 14 1021 67 10000 4.1 140 01:44 29.04.2020
4097 Clear 14 1021 67 10000 4.1 140 01:26 29.04.2020
4098 Clear 11 1021 66 10000 1.5 120 00:42 29.04.2020
4099 Clear 11 1021 66 10000 1.5 120 00:20 29.04.2020
4100 Clear 10 1021 76 10000 2.1 140 23:51 28.04.2020
4101 Clear 10 1021 76 10000 2.1 140 23:24 28.04.2020
4102 Clear 12 1021 55 0 1.07 45 22:58 28.04.2020
4103 Clear 12 1021 55 0 1.07 45 22:37 28.04.2020
4104 Clear 11 1021 56 0 1.19 45 22:18 28.04.2020
4105 Clear 11 1021 56 0 1.19 45 21:56 28.04.2020
4106 Clear 11 1021 56 0 1.19 45 21:37 28.04.2020
4107 Clear 11 1021 53 0 1.49 37 21:37 28.04.2020
4108 Clear 11 1021 54 0 1.53 36 21:19 28.04.2020
4109 Clear 11 1021 54 0 1.53 36 20:55 28.04.2020
4110 Clear 11 1021 54 0 1.53 36 20:36 28.04.2020
4111 Clear 11 1021 54 0 1.53 36 20:36 28.04.2020
4112 Clear 11 1020 55 0 1.81 29 20:18 28.04.2020
4113 Clear 11 1020 55 0 1.81 29 19:42 28.04.2020
4114 Clear 12 1021 55 0 2.1 11 19:22 28.04.2020
4115 Clear 12 1021 55 0 2.1 11 18:59 28.04.2020
4116 Clear 12 1021 55 0 2.1 11 18:40 28.04.2020
4117 Clear 12 1021 55 0 2.67 6 18:19 28.04.2020
4118 Clear 12 1021 55 0 2.67 6 17:57 28.04.2020
4119 Clear 9 1020 76 10000 2.1 340 17:36 28.04.2020
4120 Clear 9 1020 76 10000 2.1 340 17:18 28.04.2020
4121 Clear 9 1020 76 10000 2.1 340 16:42 28.04.2020
4122 Clear 9 1020 76 10000 2.1 340 16:23 28.04.2020
4123 Clear 11 1020 71 10000 2.1 330 15:58 28.04.2020
4124 Clear 11 1020 71 10000 2.1 330 15:39 28.04.2020
4125 Clear 13 1021 58 10000 3.1 310 15:21 28.04.2020
4126 Clear 13 1021 58 10000 3.1 310 14:58 28.04.2020
4127 Clear 13 1021 58 10000 3.1 310 14:58 28.04.2020
4128 Clear 13 1021 58 10000 3.1 310 14:40 28.04.2020
4129 Clear 13 1021 58 10000 3.1 310 14:21 28.04.2020
4130 Clear 13 1021 58 10000 3.1 310 14:21 28.04.2020
4131 Clear 14 1020 47 10000 4.6 300 13:57 28.04.2020
4132 Clear 14 1020 47 10000 4.6 300 13:37 28.04.2020
4133 Clear 14 1020 47 10000 4.6 300 13:19 28.04.2020
4134 Clear 14 1020 41 10000 5.7 310 12:44 28.04.2020
4135 Clear 15 1020 41 10000 5.7 310 12:24 28.04.2020
4136 Clear 15 1019 38 10000 6.7 310 11:45 28.04.2020
4137 Clear 16 1019 38 10000 6.7 310 11:24 28.04.2020
4138 Clouds 18 1019 39 10000 7.2 310 10:59 28.04.2020
4139 Clouds 18 1019 39 10000 7.2 310 10:39 28.04.2020
4140 Clouds 18 1019 39 10000 7.2 310 10:39 28.04.2020
4141 Clouds 18 1019 37 10000 7.2 310 10:19 28.04.2020
4142 Clouds 19 1019 37 10000 7.2 310 09:57 28.04.2020
4143 Clouds 19 1019 37 10000 7.2 310 09:39 28.04.2020
4144 Clouds 19 1019 37 10000 7.2 310 09:20 28.04.2020
4145 Clouds 20 1019 34 10000 4.1 290 08:45 28.04.2020
4146 Clouds 20 1019 34 10000 4.1 290 08:26 28.04.2020
4147 Clouds 18 1020 48 10000 2.6 350 07:45 28.04.2020
4148 Clouds 18 1020 48 10000 2.6 350 07:20 28.04.2020
4149 Clouds 19 1020 48 10000 6.2 310 06:48 28.04.2020
4150 Clouds 19 1020 48 10000 6.2 310 06:20 28.04.2020
4151 Clouds 17 1021 59 10000 4.1 310 05:40 28.04.2020
4152 Clouds 18 1021 48 10000 2.6 270 04:39 28.04.2020
4153 Clouds 15 1021 58 10000 1.5 0 02:59 28.04.2020
4154 Clouds 15 1021 58 10000 1.5 0 02:27 28.04.2020
4155 Clouds 14 1021 67 10000 1 0 01:23 28.04.2020
4156 Clouds 13 1020 71 10000 1 140 00:51 28.04.2020
4157 Clouds 13 1020 71 10000 1 140 00:20 28.04.2020
4158 Clouds 11 1020 81 10000 2.6 100 23:43 27.04.2020
4159 Clouds 11 1020 81 10000 2.6 100 23:43 27.04.2020
4160 Clouds 11 1020 81 10000 2.6 100 23:21 27.04.2020
4161 Clear 12 1021 62 0 3.11 317 22:43 27.04.2020
4162 Clear 12 1021 60 0 3.76 318 22:24 27.04.2020
4163 Clear 12 1021 60 0 3.76 318 21:58 27.04.2020
4164 Clear 12 1021 60 0 3.76 318 21:39 27.04.2020
4165 Clear 12 1020 61 0 4.21 319 21:20 27.04.2020
4166 Clear 12 1020 61 0 4.21 319 20:59 27.04.2020
4167 Clear 12 1020 61 0 4.21 319 20:40 27.04.2020
4168 Clouds 13 1020 60 0 4.33 314 20:21 27.04.2020
4169 Clouds 13 1020 60 0 4.33 314 19:57 27.04.2020
4170 Clouds 13 1020 60 0 4.33 314 19:38 27.04.2020
4171 Clouds 13 1020 58 0 4.54 310 19:19 27.04.2020
4172 Clouds 13 1020 58 0 4.54 310 18:56 27.04.2020
4173 Clouds 13 1020 58 0 4.54 310 18:37 27.04.2020
4174 Clouds 13 1021 57 0 4 314 18:18 27.04.2020
4175 Clouds 13 1021 57 0 4 314 17:41 27.04.2020
4176 Clouds 14 1020 67 10000 2.6 310 17:20 27.04.2020
4177 Clouds 14 1020 67 10000 2.6 310 16:54 27.04.2020
4178 Clouds 14 1020 67 10000 2.6 310 16:36 27.04.2020
4179 Clouds 13 1019 76 10000 2.1 360 16:18 27.04.2020
4180 Clouds 13 1019 76 10000 2.1 360 15:55 27.04.2020
4181 Clouds 14 1019 62 10000 4.6 310 15:36 27.04.2020
4182 Clear 14 1019 62 10000 4.6 310 15:18 27.04.2020
4183 Clear 14 1019 62 10000 4.6 310 14:40 27.04.2020
4184 Clouds 14 1019 62 10000 4.6 310 14:19 27.04.2020
4185 Clouds 15 1019 58 10000 5.1 300 13:57 27.04.2020
4186 Clouds 15 1019 58 10000 5.1 300 13:37 27.04.2020
4187 Clouds 15 1019 58 10000 5.1 300 13:18 27.04.2020
4188 Clouds 16 1018 59 10000 4.6 300 12:43 27.04.2020
4189 Clear 16 1018 59 10000 4.6 300 12:22 27.04.2020
4190 Clouds 17 1018 45 10000 5.7 310 11:55 27.04.2020
4191 Clouds 17 1018 45 10000 5.7 310 11:37 27.04.2020
4192 Clouds 18 1018 42 10000 5.7 300 11:18 27.04.2020
4193 Clouds 19 1018 42 10000 5.7 300 10:42 27.04.2020
4194 Clouds 19 1018 42 10000 5.7 300 10:24 27.04.2020
4195 Clouds 19 1018 42 10000 5.7 300 10:24 27.04.2020
4196 Clouds 20 1018 34 10000 4.6 300 09:58 27.04.2020
4197 Clouds 20 1018 34 10000 4.6 300 09:39 27.04.2020
4198 Clouds 20 1018 34 10000 4.6 300 09:18 27.04.2020
4199 Clouds 20 1018 34 10000 5.7 320 08:48 27.04.2020
4200 Clouds 20 1018 34 10000 5.7 320 08:30 27.04.2020
4201 Clouds 21 1018 37 10000 6.2 340 07:45 27.04.2020
4202 Clouds 21 1018 37 10000 6.2 340 07:24 27.04.2020
4203 Clouds 20 1018 40 10000 7.2 330 06:58 27.04.2020
4204 Clouds 20 1018 40 10000 7.2 330 06:30 27.04.2020
4205 Clouds 20 1019 40 10000 4.1 320 05:55 27.04.2020
4206 Clouds 17 1019 51 10000 2.1 250 04:59 27.04.2020
4207 Clouds 17 1019 51 10000 2.1 250 04:37 27.04.2020
4208 Clouds 16 1019 59 10000 1 0 03:45 27.04.2020
4209 Clouds 13 1019 71 10000 0.5 0 01:53 27.04.2020
4210 Clouds 13 1019 71 10000 0.5 0 01:20 27.04.2020
4211 Clouds 12 1019 76 10000 0.5 0 00:21 27.04.2020
4212 Clouds 12 1019 76 10000 0.5 0 00:21 27.04.2020
4213 Clouds 11 1019 76 10000 0.5 0 23:59 26.04.2020
4214 Clouds 11 1019 76 10000 0.5 0 23:41 26.04.2020
4215 Clouds 11 1019 76 10000 0.5 0 23:22 26.04.2020
4216 Clouds 12 1019 57 0 1.33 2 22:59 26.04.2020
4217 Clouds 12 1019 57 0 1.33 2 22:40 26.04.2020
4218 Clouds 12 1019 57 0 1.33 2 22:21 26.04.2020
4219 Clouds 12 1019 57 0 1.33 2 21:58 26.04.2020
4220 Clouds 12 1020 57 0 1.11 355 21:39 26.04.2020
4221 Clouds 13 1019 58 0 2.31 322 21:18 26.04.2020
4222 Clouds 13 1019 58 0 2.31 322 20:55 26.04.2020
4223 Clouds 13 1019 58 0 2.31 322 20:37 26.04.2020
4224 Clouds 13 1019 58 0 2.31 322 20:37 26.04.2020
4225 Clouds 13 1019 58 0 2.31 322 20:18 26.04.2020
4226 Clouds 13 1019 58 0 2.31 322 19:57 26.04.2020
4227 Clouds 13 1019 58 0 2.31 322 19:36 26.04.2020
4228 Clouds 12 1018 66 0 1.34 20 19:18 26.04.2020
4229 Clouds 12 1018 66 0 1.34 20 18:43 26.04.2020
4230 Clouds 12 1018 66 0 1.34 20 18:24 26.04.2020
4231 Clouds 12 1018 66 0 1.34 20 17:43 26.04.2020
4232 Clouds 12 1018 66 0 1.34 20 17:23 26.04.2020
4233 Clouds 12 1018 66 0 1.34 20 16:57 26.04.2020
4234 Clouds 12 1018 66 0 1.34 20 16:38 26.04.2020
4235 Clouds 12 1018 66 0 1.34 20 16:19 26.04.2020
4236 Clouds 12 1018 66 0 1.34 20 15:57 26.04.2020
4237 Clouds 12 1018 66 10000 1.5 20 15:37 26.04.2020
4238 Clouds 12 1018 66 10000 1.5 20 15:18 26.04.2020
4239 Clouds 12 1018 66 10000 1.5 20 14:41 26.04.2020
4240 Clouds 12 1018 66 10000 1.5 20 14:41 26.04.2020
4241 Clouds 12 1018 66 10000 1.5 20 14:19 26.04.2020
4242 Clouds 14 1017 58 10000 3.6 350 13:58 26.04.2020
4243 Clouds 14 1017 58 10000 3.6 350 13:40 26.04.2020
4244 Clouds 14 1017 58 10000 3.6 350 13:22 26.04.2020
4245 Clouds 14 1017 58 10000 3.1 340 12:56 26.04.2020
4246 Clouds 14 1017 58 10000 3.1 340 12:37 26.04.2020
4247 Clouds 14 1017 58 10000 3.1 340 12:19 26.04.2020
4248 Clouds 16 1016 51 10000 3.1 360 11:54 26.04.2020
4249 Clouds 16 1016 51 10000 3.1 360 11:36 26.04.2020
4250 Clouds 16 1017 59 10000 5.1 360 11:18 26.04.2020
4251 Clouds 16 1017 59 10000 5.1 360 10:42 26.04.2020
4252 Clouds 16 1017 59 10000 5.1 360 10:24 26.04.2020
4253 Clouds 17 1017 55 10000 6.2 350 09:58 26.04.2020
4254 Clouds 17 1017 55 10000 6.2 350 09:38 26.04.2020
4255 Clouds 17 1017 55 10000 6.2 350 09:19 26.04.2020
4256 Clouds 18 1016 55 10000 5.7 350 08:41 26.04.2020
4257 Clouds 18 1016 55 10000 5.7 350 08:22 26.04.2020
4258 Clouds 18 1017 59 10000 4.1 320 07:48 26.04.2020
4259 Clouds 18 1017 59 10000 4.1 320 07:24 26.04.2020
4260 Clouds 18 1017 72 10000 4.6 360 06:47 26.04.2020
4261 Clouds 18 1017 72 10000 4.6 360 06:23 26.04.2020
4262 Clouds 19 1017 72 10000 2.1 0 05:49 26.04.2020
4263 Clouds 19 1017 72 10000 2.1 0 05:30 26.04.2020
4264 Clouds 18 1017 72 10000 2.1 0 04:37 26.04.2020
4265 Clouds 19 1017 63 10000 2.6 0 03:39 26.04.2020
4266 Clouds 18 1017 63 10000 4.6 250 02:37 26.04.2020
4267 Clouds 18 1017 63 10000 4.6 250 02:19 26.04.2020
4268 Clouds 18 1017 63 10000 3.1 0 01:36 26.04.2020
4269 Clouds 18 1016 63 10000 2.6 0 00:41 26.04.2020
4270 Clouds 18 1016 63 10000 2.6 0 00:21 26.04.2020
4271 Clouds 17 1016 67 10000 2.1 0 23:55 25.04.2020
4272 Clouds 17 1016 67 10000 2.1 0 23:36 25.04.2020
4273 Clouds 17 1016 67 10000 2.1 0 23:18 25.04.2020
4274 Clouds 16 1017 74 0 5.03 232 22:42 25.04.2020
4275 Clouds 16 1017 74 0 5.03 232 22:20 25.04.2020
4276 Clouds 16 1017 74 0 5.03 232 21:58 25.04.2020
4277 Clouds 16 1017 74 0 5.33 230 21:38 25.04.2020
4278 Clouds 16 1017 73 0 6.21 225 21:18 25.04.2020
4279 Clouds 16 1017 73 0 6.21 225 20:43 25.04.2020
4280 Clouds 16 1017 73 0 6.21 225 20:23 25.04.2020
4281 Clouds 16 1017 73 0 6.21 225 19:59 25.04.2020
4282 Clouds 16 1017 73 0 6.21 225 19:39 25.04.2020
4283 Clouds 16 1017 73 0 6.21 225 19:20 25.04.2020
4284 Clouds 16 1017 73 0 6.21 225 18:44 25.04.2020
4285 Clouds 16 1018 72 0 6.67 220 18:22 25.04.2020
4286 Clouds 16 1018 72 0 6.67 220 17:59 25.04.2020
4287 Clouds 16 1018 72 0 6.67 220 17:40 25.04.2020
4288 Clouds 16 1017 77 10000 5.7 190 17:22 25.04.2020
4289 Clouds 16 1017 77 10000 5.7 190 16:59 25.04.2020
4290 Clouds 16 1017 77 10000 5.7 190 16:41 25.04.2020
4291 Clouds 16 1017 77 10000 5.7 190 16:23 25.04.2020
4292 Clouds 16 1017 77 10000 4.6 190 15:55 25.04.2020
4293 Clouds 17 1017 63 10000 4.1 190 15:37 25.04.2020
4294 Clouds 17 1017 63 10000 4.1 190 15:18 25.04.2020
4295 Clouds 17 1017 63 10000 4.1 190 14:56 25.04.2020
4296 Clouds 17 1017 63 10000 4.1 190 14:37 25.04.2020
4297 Clouds 17 1017 63 10000 5.1 190 14:18 25.04.2020
4298 Clouds 17 1017 63 10000 5.1 190 13:41 25.04.2020
4299 Clouds 17 1017 63 10000 5.1 190 13:19 25.04.2020
4300 Clouds 17 1016 63 10000 4.6 200 12:55 25.04.2020
4301 Clouds 17 1016 63 10000 4.6 200 12:37 25.04.2020
4302 Clouds 17 1016 63 10000 4.6 200 12:18 25.04.2020
4303 Clouds 17 1016 63 10000 4.6 200 12:18 25.04.2020
4304 Clouds 17 1016 59 10000 6.2 210 11:42 25.04.2020
4305 Clouds 17 1016 59 10000 6.2 210 11:24 25.04.2020
4306 Clouds 18 1016 55 10000 5.1 210 10:57 25.04.2020
4307 Clouds 18 1016 55 10000 5.1 210 10:38 25.04.2020
4308 Clouds 18 1016 55 10000 5.1 210 10:20 25.04.2020
4309 Clouds 19 1016 52 10000 5.1 210 09:43 25.04.2020
4310 Clouds 19 1016 52 10000 5.1 210 09:22 25.04.2020
4311 Clouds 19 1016 45 10000 6.7 210 08:55 25.04.2020
4312 Clouds 19 1016 45 10000 6.7 210 08:37 25.04.2020
4313 Clouds 19 1016 45 10000 6.7 210 08:19 25.04.2020
4314 Clouds 19 1017 48 10000 6.2 210 07:43 25.04.2020
4315 Clouds 19 1017 48 10000 6.2 210 07:22 25.04.2020
4316 Clouds 19 1017 52 10000 4.6 0 06:42 25.04.2020
4317 Clouds 19 1017 52 10000 4.6 0 06:42 25.04.2020
4318 Clouds 19 1018 45 10000 4.1 0 05:46 25.04.2020
4319 Clouds 19 1018 45 10000 4.1 0 05:27 25.04.2020
4320 Clouds 18 1018 48 10000 5.7 210 04:24 25.04.2020
4321 Clouds 17 1018 59 10000 5.1 130 02:44 25.04.2020
4322 Clouds 17 1018 59 10000 5.1 130 02:19 25.04.2020
4323 Clouds 15 1018 67 10000 6.2 130 01:49 25.04.2020
4324 Clouds 15 1018 67 10000 6.2 130 01:19 25.04.2020
4325 Clouds 12 1018 81 10000 4.6 130 00:46 25.04.2020
4326 Clouds 12 1018 81 10000 4.6 130 00:28 25.04.2020
4327 Clouds 11 1019 76 10000 3.6 120 23:42 24.04.2020
4328 Clouds 11 1019 76 10000 3.6 120 23:21 24.04.2020
4329 Clear 10 1020 66 0 4.07 196 22:41 24.04.2020
4330 Clear 10 1020 66 0 4.07 196 22:21 24.04.2020
4331 Clear 10 1020 66 0 4.07 196 21:59 24.04.2020
4332 Clear 10 1020 66 0 4.07 196 21:40 24.04.2020
4333 Clear 10 1020 66 0 3.44 204 21:22 24.04.2020
4334 Clear 10 1020 66 0 3.44 204 20:58 24.04.2020
4335 Clear 10 1020 66 0 3.44 204 20:40 24.04.2020
4336 Clear 10 1020 66 0 3.44 204 20:19 24.04.2020
4337 Clear 10 1020 66 0 3.44 204 19:47 24.04.2020
4338 Clear 10 1020 66 0 3.44 204 19:28 24.04.2020
4339 Clear 10 1020 66 0 3.44 204 18:58 24.04.2020
4340 Clear 10 1020 66 0 3.44 204 18:38 24.04.2020
4341 Clear 10 1020 66 0 2.87 240 18:20 24.04.2020
4342 Clear 10 1020 66 0 2.87 240 18:20 24.04.2020
4343 Clear 10 1020 66 0 2.87 240 17:42 24.04.2020
4344 Clear 10 1020 66 0 2.87 240 17:24 24.04.2020
4345 Clear 10 1020 66 0 2.87 240 16:59 24.04.2020
4346 Clear 10 1020 66 0 2.87 240 16:40 24.04.2020
4347 Clear 10 1020 66 0 2.87 240 16:40 24.04.2020
4348 Clear 10 1020 66 0 2.87 240 16:40 24.04.2020
4349 Clear 10 1020 66 0 2.87 240 16:40 24.04.2020
4350 Clear 10 1020 66 0 2.87 240 16:22 24.04.2020
4351 Clear 10 1020 66 0 2.87 240 15:59 24.04.2020
4352 Clear 10 1020 66 10000 1 0 15:37 24.04.2020
4353 Clear 10 1020 66 10000 1 0 15:18 24.04.2020
4354 Clear 10 1020 66 10000 1 0 14:40 24.04.2020
4355 Clear 10 1020 66 10000 1 0 14:20 24.04.2020
4356 Clear 11 1019 50 10000 1.5 240 13:55 24.04.2020
4357 Clear 11 1019 50 10000 1.5 240 13:36 24.04.2020
4358 Clear 11 1018 47 10000 3.6 250 13:18 24.04.2020
4359 Clear 12 1018 47 10000 3.6 250 12:41 24.04.2020
4360 Clear 12 1018 46 10000 3.6 250 12:21 24.04.2020
4361 Clouds 14 1017 33 10000 3.6 300 11:57 24.04.2020
4362 Clouds 14 1017 33 10000 3.6 300 11:37 24.04.2020
4363 Clouds 14 1017 33 10000 3.6 300 11:19 24.04.2020
4364 Clouds 15 1017 33 10000 3.6 290 10:39 24.04.2020
4365 Clouds 15 1017 33 10000 3.6 290 10:20 24.04.2020
4366 Clouds 15 1017 46 10000 3.1 280 09:58 24.04.2020
4367 Clouds 15 1017 46 10000 3.1 280 09:39 24.04.2020
4368 Clouds 15 1017 44 10000 3.1 280 09:21 24.04.2020
4369 Clouds 15 1017 33 10000 4.6 280 08:55 24.04.2020
4370 Clouds 15 1017 33 10000 4.6 280 08:37 24.04.2020
4371 Clouds 15 1018 44 10000 4.6 300 08:18 24.04.2020
4372 Clouds 15 1018 44 10000 4.6 300 07:43 24.04.2020
4373 Clouds 15 1018 44 10000 4.6 300 07:24 24.04.2020
4374 Clouds 15 1018 44 10000 5.1 300 06:49 24.04.2020
4375 Clouds 15 1018 44 10000 5.1 300 06:30 24.04.2020
4376 Clouds 15 1018 48 10000 6.7 310 05:42 24.04.2020
4377 Clouds 14 1018 48 10000 7.2 300 03:57 24.04.2020
4378 Clouds 14 1018 35 10000 8.2 310 02:56 24.04.2020
4379 Clouds 14 1018 35 10000 8.2 310 02:37 24.04.2020
4380 Clouds 12 1017 50 10000 6.2 300 01:47 24.04.2020
4381 Clouds 12 1017 46 10000 4.1 300 00:56 24.04.2020
4382 Clouds 12 1017 46 10000 4.1 300 00:20 24.04.2020
4383 Clouds 11 1017 50 10000 4.6 300 23:48 23.04.2020
4384 Clouds 11 1017 50 10000 4.6 300 23:28 23.04.2020
4385 Clouds 10 1017 61 0 6.13 307 22:59 23.04.2020
4386 Clouds 10 1017 61 0 6.13 307 22:41 23.04.2020
4387 Clouds 10 1017 61 0 6.13 307 22:21 23.04.2020
4388 Clouds 10 1017 61 0 6.13 307 21:58 23.04.2020
4389 Clouds 10 1017 61 0 6.13 307 21:40 23.04.2020
4390 Clouds 10 1017 61 0 6.52 288 21:21 23.04.2020
4391 Clouds 10 1017 61 0 6.52 288 20:59 23.04.2020
4392 Clouds 10 1017 61 0 6.52 288 20:41 23.04.2020
4393 Clouds 10 1017 61 0 6.52 288 20:21 23.04.2020
4394 Clouds 10 1017 61 0 6.52 288 19:56 23.04.2020
4395 Clouds 10 1017 61 0 6.52 288 19:38 23.04.2020
4396 Clouds 10 1017 61 0 6.52 288 19:20 23.04.2020
4397 Clouds 10 1017 61 0 6.52 288 18:43 23.04.2020
4398 Clear 10 1017 61 0 6.48 301 18:25 23.04.2020
4399 Clear 10 1017 61 0 6.48 301 17:59 23.04.2020
4400 Clear 10 1017 61 0 6.48 301 17:59 23.04.2020
4401 Clear 10 1017 61 0 6.48 301 17:39 23.04.2020
4402 Clear 10 1017 61 0 6.48 301 17:21 23.04.2020
4403 Clear 10 1017 61 0 6.48 301 16:57 23.04.2020
4404 Clear 10 1017 61 0 6.48 301 16:38 23.04.2020
4405 Clear 10 1017 61 0 6.48 301 16:18 23.04.2020
4406 Clear 10 1017 61 0 6.48 301 15:42 23.04.2020
4407 Clouds 10 1017 61 10000 1 0 15:22 23.04.2020
4408 Clouds 10 1017 61 10000 1 0 14:56 23.04.2020
4409 Clouds 10 1017 61 10000 1 0 14:37 23.04.2020
4410 Clouds 10 1017 61 10000 1 0 14:19 23.04.2020
4411 Clouds 11 1017 53 10000 3.1 300 13:55 23.04.2020
4412 Clouds 11 1017 53 10000 3.1 300 13:36 23.04.2020
4413 Clouds 11 1017 53 10000 3.1 300 13:36 23.04.2020
4414 Clouds 11 1016 53 10000 5.1 300 13:18 23.04.2020
4415 Clouds 11 1016 53 10000 5.1 300 12:42 23.04.2020
4416 Clouds 11 1016 53 10000 5.1 300 12:23 23.04.2020
4417 Clouds 12 1016 50 10000 6.7 300 11:55 23.04.2020
4418 Clouds 12 1016 50 10000 6.7 300 11:36 23.04.2020
4419 Clouds 12 1016 47 10000 8.2 310 11:18 23.04.2020
4420 Clouds 13 1016 47 10000 8.2 310 10:41 23.04.2020
4421 Clouds 13 1016 47 10000 8.2 310 10:41 23.04.2020
4422 Clouds 13 1016 47 10000 8.2 310 10:20 23.04.2020
4423 Clouds 13 1015 43 10000 6.7 310 09:41 23.04.2020
4424 Clouds 13 1015 43 10000 6.7 310 09:20 23.04.2020
4425 Clouds 13 1016 47 10000 7.2 310 08:55 23.04.2020
4426 Clouds 13 1016 47 10000 7.2 310 08:37 23.04.2020
4427 Clouds 13 1016 47 10000 7.2 310 08:37 23.04.2020
4428 Clouds 11 1016 57 10000 5.7 290 08:18 23.04.2020
4429 Clouds 11 1016 57 10000 5.7 290 07:41 23.04.2020
4430 Clouds 11 1016 57 10000 5.7 290 07:22 23.04.2020
4431 Clouds 12 1016 54 10000 6.2 300 06:46 23.04.2020
4432 Clouds 12 1017 50 10000 7.2 300 05:56 23.04.2020
4433 Rain 11 1017 71 10000 8.2 320 05:22 23.04.2020
4434 Rain 11 1017 71 10000 8.2 320 04:50 23.04.2020
4435 Clouds 12 1017 50 10000 6.7 310 02:24 23.04.2020
4436 Clouds 11 1017 50 10000 6.7 310 01:41 23.04.2020
4437 Clouds 10 1017 53 10000 6.2 300 00:57 23.04.2020
4438 Clouds 10 1017 53 10000 6.2 300 00:29 23.04.2020
4439 Clouds 10 1018 53 10000 5.1 300 23:59 22.04.2020
4440 Clouds 10 1018 53 10000 5.1 300 23:41 22.04.2020
4441 Clouds 10 1018 53 10000 5.1 300 23:22 22.04.2020
4442 Clouds 9 1018 66 0 7.11 308 22:41 22.04.2020
4443 Clouds 9 1018 66 0 7.11 308 22:20 22.04.2020
4444 Clouds 9 1018 66 0 7.11 308 21:59 22.04.2020
4445 Clouds 9 1018 66 0 7.11 308 21:59 22.04.2020
4446 Clouds 9 1018 66 0 7.11 308 21:41 22.04.2020
4447 Clouds 9 1018 63 0 7.68 312 21:22 22.04.2020
4448 Clouds 9 1018 63 0 7.68 312 20:59 22.04.2020
4449 Clouds 9 1018 63 0 7.68 312 20:59 22.04.2020
4450 Clouds 9 1018 63 0 7.68 312 20:41 22.04.2020
4451 Clouds 9 1018 63 0 7.68 312 20:19 22.04.2020
4452 Clouds 9 1018 63 0 7.68 312 19:57 22.04.2020
4453 Clouds 9 1018 63 0 7.68 312 19:37 22.04.2020
4454 Clouds 9 1018 63 0 7.68 312 19:18 22.04.2020
4455 Clouds 9 1018 63 0 7.68 312 18:56 22.04.2020
4456 Clouds 9 1018 63 0 7.68 312 18:38 22.04.2020
4457 Clouds 9 1018 63 0 7.68 312 18:38 22.04.2020
4458 Clouds 10 1019 60 0 9.8 308 18:20 22.04.2020
4459 Clouds 11 1016 60 10000 7.2 290 17:43 22.04.2020
4460 Clouds 11 1016 60 10000 7.2 290 17:25 22.04.2020
4461 Clouds 11 1016 60 10000 7.2 290 16:56 22.04.2020
4462 Clouds 11 1016 60 10000 7.2 290 16:38 22.04.2020
4463 Clouds 11 1016 60 10000 7.2 290 16:19 22.04.2020
4464 Clouds 11 1017 50 10000 9.8 280 15:41 22.04.2020
4465 Clouds 12 1017 46 10000 9.3 300 15:22 22.04.2020
4466 Clouds 12 1017 46 10000 9.3 300 14:58 22.04.2020
4467 Clouds 12 1017 46 10000 9.3 300 14:38 22.04.2020
4468 Clouds 12 1017 46 10000 9.3 300 14:19 22.04.2020
4469 Clouds 12 1016 46 10000 8.7 300 13:44 22.04.2020
4470 Clouds 12 1016 46 10000 8.2 300 13:20 22.04.2020
4471 Clouds 12 1016 46 10000 8.2 300 12:57 22.04.2020
4472 Clouds 12 1016 46 10000 8.2 300 12:39 22.04.2020
4473 Clouds 12 1016 46 10000 8.2 300 12:20 22.04.2020
4474 Clouds 13 1015 49 10000 8.7 300 11:40 22.04.2020
4475 Clouds 13 1015 49 10000 8.7 300 11:20 22.04.2020
4476 Clouds 13 1015 49 10000 8.7 300 11:20 22.04.2020
4477 Clouds 13 1015 49 10000 8.7 300 10:57 22.04.2020
4478 Clouds 13 1015 49 10000 8.7 300 10:38 22.04.2020
4479 Clouds 13 1015 49 10000 9.8 310 10:18 22.04.2020
4480 Clouds 14 1015 49 10000 9.8 310 09:39 22.04.2020
4481 Clouds 14 1015 43 10000 9.8 310 09:19 22.04.2020
4482 Clouds 15 1016 33 10000 10.8 310 08:54 22.04.2020
4483 Clouds 15 1016 33 10000 10.8 310 08:54 22.04.2020
4484 Clouds 15 1016 33 10000 10.8 310 08:36 22.04.2020
4485 Clouds 15 1016 33 10000 10.8 310 08:18 22.04.2020
4486 Clouds 15 1016 33 10000 9.3 300 07:46 22.04.2020
4487 Clouds 15 1016 33 10000 9.3 300 07:22 22.04.2020
4488 Clouds 14 1017 35 10000 7.7 300 06:45 22.04.2020
4489 Clouds 14 1017 33 10000 8.2 300 05:45 22.04.2020
4490 Clouds 14 1017 33 10000 8.2 300 05:23 22.04.2020
4491 Clouds 13 1018 35 10000 10.3 320 03:54 22.04.2020
4492 Clouds 12 1018 34 10000 11.3 320 02:35 22.04.2020
4493 Clouds 12 1018 37 10000 11.8 310 01:41 22.04.2020
4494 Clouds 12 1018 37 10000 11.8 310 01:23 22.04.2020
4495 Clouds 11 1018 37 10000 8.7 310 00:41 22.04.2020
4496 Clouds 11 1018 37 10000 8.7 310 00:20 22.04.2020
4497 Clouds 10 1019 46 10000 7.2 310 23:44 21.04.2020
4498 Clouds 10 1019 46 10000 7.2 310 23:22 21.04.2020
4499 Clouds 10 1020 50 0 8.3 327 22:58 21.04.2020
4500 Clouds 10 1020 50 0 8.3 327 22:39 21.04.2020
4501 Clouds 10 1020 50 0 8.3 327 22:19 21.04.2020
4502 Clouds 10 1020 50 0 8.3 327 21:55 21.04.2020
4503 Clouds 10 1020 50 0 8.3 327 21:37 21.04.2020
4504 Clouds 10 1020 49 0 9.13 335 21:18 21.04.2020
4505 Clouds 10 1020 51 0 9.87 329 20:40 21.04.2020
4506 Clouds 10 1020 49 0 9.13 335 20:22 21.04.2020
4507 Clouds 10 1020 49 0 9.13 335 19:57 21.04.2020
4508 Clouds 10 1020 51 0 9.87 329 19:37 21.04.2020
4509 Clouds 10 1020 49 0 9.13 335 19:18 21.04.2020
4510 Clouds 10 1020 49 0 9.13 335 18:54 21.04.2020
4511 Clouds 10 1020 51 0 9.87 329 18:36 21.04.2020
4512 Clouds 11 1020 53 0 10.51 327 18:18 21.04.2020
4513 Clouds 11 1020 51 0 9.88 329 17:39 21.04.2020
4514 Clouds 12 1016 50 10000 5.1 280 17:19 21.04.2020
4515 Clouds 12 1016 50 10000 5.1 280 16:54 21.04.2020
4516 Clouds 12 1016 50 10000 5.1 280 16:36 21.04.2020
4517 Clouds 13 1016 50 10000 6.2 280 16:18 21.04.2020
4518 Clouds 13 1016 50 10000 6.2 280 15:54 21.04.2020
4519 Clouds 14 1016 44 10000 5.1 300 15:36 21.04.2020
4520 Clouds 14 1016 44 10000 5.1 300 15:18 21.04.2020
4521 Clouds 14 1016 44 10000 5.1 300 14:43 21.04.2020
4522 Clouds 14 1016 44 10000 5.1 300 14:23 21.04.2020
4523 Clouds 14 1016 47 10000 4.6 300 13:55 21.04.2020
4524 Clouds 14 1016 47 10000 4.6 300 13:37 21.04.2020
4525 Clouds 14 1015 44 10000 5.7 290 13:18 21.04.2020
4526 Clouds 14 1015 44 10000 5.7 290 12:38 21.04.2020
4527 Clouds 14 1015 44 10000 5.7 290 12:19 21.04.2020
4528 Clouds 15 1015 44 10000 5.7 300 11:57 21.04.2020
4529 Clouds 15 1015 44 10000 5.7 300 11:38 21.04.2020
4530 Clouds 15 1014 41 10000 6.2 300 11:19 21.04.2020
4531 Clouds 16 1014 41 10000 6.2 300 10:58 21.04.2020
4532 Clouds 16 1014 41 10000 6.2 300 10:39 21.04.2020
4533 Clouds 16 1014 41 10000 6.2 300 10:20 21.04.2020
4534 Clouds 16 1014 38 10000 6.2 310 09:55 21.04.2020
4535 Clouds 16 1014 38 10000 6.2 310 09:36 21.04.2020
4536 Clouds 16 1014 38 10000 6.2 310 09:36 21.04.2020
4537 Clouds 16 1014 27 10000 7.7 310 09:18 21.04.2020
4538 Clouds 17 1014 27 10000 7.7 310 08:42 21.04.2020
4539 Clouds 17 1014 27 10000 7.7 310 08:23 21.04.2020
4540 Clouds 18 1014 36 10000 6.7 330 07:49 21.04.2020
4541 Clouds 18 1014 36 10000 6.7 330 07:26 21.04.2020
4542 Clouds 18 1015 39 10000 6.7 330 06:50 21.04.2020
4543 Clouds 18 1015 39 10000 6.7 330 06:24 21.04.2020
4544 Clouds 17 1015 42 10000 7.2 320 05:49 21.04.2020
4545 Clouds 16 1016 48 10000 5.7 310 04:54 21.04.2020
4546 Clouds 14 1016 58 10000 4.6 320 03:45 21.04.2020
4547 Clouds 14 1015 62 10000 6.2 320 01:53 21.04.2020
4548 Clouds 14 1015 62 10000 6.2 320 01:29 21.04.2020
4549 Clouds 14 1015 58 10000 4.6 310 00:37 21.04.2020
4550 Clouds 14 1015 58 10000 4.6 310 00:37 21.04.2020
4551 Clouds 14 1015 67 10000 4.1 310 23:48 20.04.2020
4552 Clouds 14 1015 67 10000 4.1 310 23:25 20.04.2020
4553 Clouds 14 1014 82 0 5.78 331 22:58 20.04.2020
4554 Clouds 14 1014 82 0 5.78 331 22:40 20.04.2020
4555 Clouds 14 1014 82 0 5.78 331 22:21 20.04.2020
4556 Clouds 14 1014 82 0 5.78 331 21:58 20.04.2020
4557 Clouds 14 1014 82 0 5.4 326 21:39 20.04.2020
4558 Clouds 14 1014 82 0 4.93 309 21:19 20.04.2020
4559 Clouds 14 1014 82 0 4.93 309 20:58 20.04.2020
4560 Clouds 14 1015 82 0 4.93 309 20:39 20.04.2020
4561 Clouds 14 1015 82 0 4.93 309 20:19 20.04.2020
4562 Clouds 14 1015 82 0 4.93 309 20:19 20.04.2020
4563 Clouds 14 1014 82 0 4.93 309 19:58 20.04.2020
4564 Clouds 14 1014 82 0 4.93 309 19:39 20.04.2020
4565 Clouds 14 1014 82 0 4.93 309 19:19 20.04.2020
4566 Clouds 14 1014 82 0 4.93 309 18:43 20.04.2020
4567 Clouds 14 1014 82 0 2.85 293 18:24 20.04.2020
4568 Clouds 14 1014 82 0 2.85 293 17:58 20.04.2020
4569 Clouds 14 1014 82 0 2.85 293 17:40 20.04.2020
4570 Clouds 14 1014 82 0 2.85 293 17:21 20.04.2020
4571 Clouds 14 1014 82 0 2.85 293 16:59 20.04.2020
4572 Clouds 14 1014 82 0 2.85 293 16:39 20.04.2020
4573 Clouds 14 1014 82 0 2.85 293 16:19 20.04.2020
4574 Clouds 14 1014 82 0 2.85 293 15:45 20.04.2020
4575 Clouds 14 1014 82 10000 1 0 15:24 20.04.2020
4576 Clouds 14 1014 82 10000 1 0 14:58 20.04.2020
4577 Clouds 14 1014 82 10000 1 0 14:40 20.04.2020
4578 Clouds 14 1014 82 10000 1 0 14:19 20.04.2020
4579 Clouds 14 1014 76 10000 1 0 13:54 20.04.2020
4580 Clouds 14 1014 76 10000 1 0 13:54 20.04.2020
4581 Clouds 14 1014 76 10000 1 0 13:54 20.04.2020
4582 Clouds 14 1014 76 10000 1 0 13:36 20.04.2020
4583 Clouds 15 1013 72 10000 3.6 300 13:18 20.04.2020
4584 Clouds 15 1013 72 10000 3.6 300 12:42 20.04.2020
4585 Clouds 15 1013 72 10000 3.6 300 12:21 20.04.2020
4586 Clouds 16 1012 67 10000 6.7 310 11:42 20.04.2020
4587 Clouds 16 1012 67 10000 6.7 310 11:22 20.04.2020
4588 Clouds 17 1012 67 10000 6.7 320 10:57 20.04.2020
4589 Clouds 17 1012 67 10000 6.7 320 10:39 20.04.2020
4590 Clouds 17 1012 67 10000 6.7 320 10:20 20.04.2020
4591 Clouds 17 1012 67 10000 6.2 340 09:58 20.04.2020
4592 Clouds 17 1012 67 10000 6.2 340 09:39 20.04.2020
4593 Clouds 17 1012 67 10000 6.2 340 09:21 20.04.2020
4594 Clouds 18 1012 63 10000 7.2 340 08:41 20.04.2020
4595 Clouds 18 1012 63 10000 7.2 340 08:23 20.04.2020
4596 Clouds 18 1012 59 10000 7.7 340 07:53 20.04.2020
4597 -273 0 0 0 0 0 07:29 20.04.2020
4598 Clouds 18 1012 59 10000 7.7 340 07:29 20.04.2020
4599 Clouds 18 1012 59 10000 4.6 300 06:58 20.04.2020
4600 Clouds 18 1012 59 10000 4.6 300 06:36 20.04.2020
4601 Clouds 18 1012 63 10000 5.7 320 05:44 20.04.2020
4602 Clouds 17 1012 72 10000 7.7 330 04:28 20.04.2020
4603 Clouds 15 1011 82 10000 4.6 320 02:47 20.04.2020
4604 Clouds 15 1010 82 10000 5.1 310 01:56 20.04.2020
4605 Clouds 15 1010 82 10000 5.1 310 01:28 20.04.2020
4606 Clouds 15 1009 87 10000 5.7 310 00:39 20.04.2020
4607 Clouds 15 1008 87 10000 5.7 310 23:59 19.04.2020
4608 Clouds 15 1008 87 10000 5.7 310 23:39 19.04.2020
4609 Clouds 15 1008 87 10000 5.7 310 23:20 19.04.2020
4610 Rain 16 1003 100 0 8.94 140 22:43 19.04.2020
4611 Rain 16 1003 100 0 8.94 140 22:23 19.04.2020
4612 Rain 16 1003 100 0 8.94 140 21:59 19.04.2020
4613 Rain 16 1003 100 0 8.94 140 21:41 19.04.2020
4614 Rain 16 1003 100 0 8.94 140 21:41 19.04.2020
4615 Rain 16 1003 100 0 8.94 140 21:21 19.04.2020
4616 Rain 16 1003 100 0 8.94 140 20:55 19.04.2020
4617 Rain 16 1005 100 0 8.94 140 20:37 19.04.2020
4618 Rain 16 1005 100 0 8.94 140 20:19 19.04.2020
4619 Rain 16 1005 100 0 8.94 140 19:41 19.04.2020
4620 Rain 16 1005 100 0 8.94 140 19:23 19.04.2020
4621 Rain 16 1005 100 0 8.94 140 18:59 19.04.2020
4622 Rain 16 1003 100 0 8.94 140 18:40 19.04.2020
4623 Rain 16 1003 100 8000 7.2 180 18:21 19.04.2020
4624 Rain 16 1003 100 8000 7.2 180 17:59 19.04.2020
4625 Rain 16 1003 100 8000 7.2 180 17:41 19.04.2020
4626 Rain 16 1003 100 8000 7.2 180 17:22 19.04.2020
4627 Rain 16 1003 93 4000 8.2 180 16:59 19.04.2020
4628 Rain 16 1003 93 4000 8.2 180 16:39 19.04.2020
4629 Rain 16 1004 100 6000 9.3 140 16:21 19.04.2020
4630 Rain 16 1004 100 6000 9.3 140 15:54 19.04.2020
4631 Rain 16 1004 100 6000 9.3 140 15:36 19.04.2020
4632 Rain 16 1004 93 3000 9.3 140 15:18 19.04.2020
4633 Rain 15 1004 100 3000 10.8 140 14:38 19.04.2020
4634 Rain 15 1004 100 3000 10.8 140 14:20 19.04.2020
4635 Rain 15 1004 93 10000 9.8 130 13:41 19.04.2020
4636 Rain 15 1004 93 10000 9.8 130 13:22 19.04.2020
4637 Rain 14 1005 93 6000 9.3 120 12:59 19.04.2020
4638 Rain 14 1005 93 5000 8.7 130 12:41 19.04.2020
4639 Rain 14 1005 93 5000 8.7 130 12:23 19.04.2020
4640 Rain 14 1005 93 5000 8.7 130 12:23 19.04.2020
4641 Rain 14 1007 93 6000 8.2 140 11:39 19.04.2020
4642 Rain 14 1007 93 6000 8.2 140 11:20 19.04.2020
4643 Rain 14 1008 87 7000 6.2 130 10:58 19.04.2020
4644 Rain 14 1008 87 7000 6.2 130 10:40 19.04.2020
4645 Rain 14 1008 87 7000 6.2 130 10:20 19.04.2020
4646 Rain 13 1010 87 6000 5.1 140 09:46 19.04.2020
4647 Rain 14 1010 87 6000 5.1 140 09:28 19.04.2020
4648 Rain 15 1012 82 3500 4.6 170 08:59 19.04.2020
4649 Rain 16 1012 59 10000 1 0 08:37 19.04.2020
4650 Clouds 16 1013 59 10000 1 0 08:18 19.04.2020
4651 Clouds 16 1013 59 10000 1 0 07:44 19.04.2020
4652 Clouds 16 1013 59 10000 1 0 07:24 19.04.2020
4653 Clouds 16 1014 63 10000 0.5 0 06:31 19.04.2020
4654 Clouds 15 1015 62 10000 1 0 05:56 19.04.2020
4655 Clouds 15 1016 62 10000 1 0 04:48 19.04.2020
4656 Clouds 15 1016 67 10000 1 0 02:59 19.04.2020
4657 Clouds 15 1016 67 10000 1 0 02:21 19.04.2020
4658 Clouds 14 1016 71 10000 1 0 01:39 19.04.2020
4659 Clouds 11 1017 87 10000 0.5 0 00:50 19.04.2020
4660 Clouds 11 1017 87 10000 0.5 0 00:26 19.04.2020
4661 Clouds 10 1017 87 10000 0.5 0 23:56 18.04.2020
4662 Clouds 10 1017 87 10000 0.5 0 23:36 18.04.2020
4663 Clouds 13 1018 76 0 4.02 330 23:18 18.04.2020
4664 Clouds 13 1018 76 0 4.02 330 22:42 18.04.2020
4665 Clouds 13 1018 76 0 4.02 330 22:21 18.04.2020
4666 Clouds 13 1018 76 0 4.02 330 21:57 18.04.2020
4667 Clouds 13 1018 76 0 4.02 330 21:38 18.04.2020
4668 Clouds 13 1018 76 0 4.02 330 21:20 18.04.2020
4669 Clouds 13 1018 76 0 4.02 330 20:42 18.04.2020
4670 Clouds 13 1018 76 0 4.02 330 20:22 18.04.2020
4671 Clouds 13 1018 76 0 4.02 330 19:59 18.04.2020
4672 Clouds 13 1018 76 0 4.02 330 19:38 18.04.2020
4673 Clouds 13 1018 76 0 4.02 330 19:20 18.04.2020
4674 Clouds 13 1018 76 0 4.02 330 18:38 18.04.2020
4675 Clouds 13 1018 76 0 4.02 330 18:20 18.04.2020
4676 Clouds 13 1018 76 0 4.02 330 17:55 18.04.2020
4677 Clouds 12 1018 81 10000 2.6 360 17:36 18.04.2020
4678 Clouds 12 1018 81 10000 2.6 360 17:18 18.04.2020
4679 Clouds 12 1018 81 10000 2.6 360 16:42 18.04.2020
4680 Clouds 12 1018 81 10000 2.6 360 16:22 18.04.2020
4681 Clouds 12 1018 87 10000 2.6 10 15:40 18.04.2020
4682 Clouds 12 1018 87 10000 2.6 10 15:40 18.04.2020
4683 Clear 12 1018 76 10000 4.1 330 15:22 18.04.2020
4684 Clear 12 1018 76 10000 4.1 330 14:54 18.04.2020
4685 Clear 12 1018 76 10000 4.1 330 14:36 18.04.2020
4686 Clouds 13 1017 71 10000 4.6 360 14:18 18.04.2020
4687 Clouds 13 1017 71 10000 4.6 360 13:42 18.04.2020
4688 Clouds 14 1016 76 10000 5.1 310 13:20 18.04.2020
4689 Clouds 14 1016 76 10000 5.1 310 12:43 18.04.2020
4690 Clouds 14 1016 76 10000 5.1 310 12:24 18.04.2020
4691 Clouds 16 1016 63 10000 6.2 310 11:57 18.04.2020
4692 Clouds 16 1016 63 10000 6.2 310 11:39 18.04.2020
4693 Clouds 17 1015 59 10000 7.7 320 11:20 18.04.2020
4694 Clouds 17 1015 59 10000 7.7 320 10:42 18.04.2020
4695 Clouds 17 1015 59 10000 7.7 320 10:22 18.04.2020
4696 Clouds 17 1015 59 10000 7.7 320 10:22 18.04.2020
4697 Clouds 18 1015 55 10000 6.7 340 09:59 18.04.2020
4698 Clouds 18 1015 55 10000 6.7 340 09:39 18.04.2020
4699 Clouds 18 1015 55 10000 6.7 340 09:20 18.04.2020
4700 Clouds 18 1015 52 10000 5.7 350 08:42 18.04.2020
4701 Clouds 18 1015 52 10000 5.7 350 08:21 18.04.2020
4702 Clouds 18 1015 48 10000 5.1 320 07:45 18.04.2020
4703 Clouds 18 1015 48 10000 5.1 320 07:23 18.04.2020
4704 Clouds 17 1016 52 10000 5.1 310 06:39 18.04.2020
4705 Clouds 17 1016 55 10000 7.7 330 05:48 18.04.2020
4706 Clouds 17 1016 59 10000 7.7 310 04:54 18.04.2020
4707 Clouds 17 1016 59 10000 7.7 310 04:30 18.04.2020
4708 Clouds 17 1015 59 10000 7.2 300 02:59 18.04.2020
4709 Clouds 17 1015 59 10000 7.2 300 02:40 18.04.2020
4710 Clouds 17 1015 59 10000 7.2 300 02:40 18.04.2020
4711 Clouds 17 1015 59 10000 7.2 300 02:20 18.04.2020
4712 Clouds 16 1014 59 10000 3.1 280 01:37 18.04.2020
4713 Clouds 15 1014 62 10000 3.6 270 00:54 18.04.2020
4714 Clouds 15 1014 62 10000 3.6 270 00:24 18.04.2020
4715 Clouds 15 1014 67 10000 3.6 260 23:57 17.04.2020
4716 Clouds 15 1014 67 10000 3.6 260 23:57 17.04.2020
4717 Clouds 15 1014 67 10000 3.6 260 23:39 17.04.2020
4718 Clouds 15 1014 67 10000 3.6 260 23:19 17.04.2020
4719 Clouds 15 1014 67 0 8.28 294 22:56 17.04.2020
4720 Clouds 15 1014 67 0 8.28 294 22:38 17.04.2020
4721 Clouds 15 1014 67 0 8.28 294 22:19 17.04.2020
4722 Clouds 15 1014 67 0 8.28 294 21:44 17.04.2020
4723 Clouds 15 1012 81 0 4.3 295 21:22 17.04.2020
4724 Clouds 15 1012 81 0 4.3 295 20:59 17.04.2020
4725 Clouds 15 1012 81 0 4.3 295 20:38 17.04.2020
4726 Clouds 15 1012 81 0 4.3 295 20:19 17.04.2020
4727 Clouds 15 1012 81 0 4.3 295 19:59 17.04.2020
4728 Clouds 15 1012 81 0 4.3 295 19:41 17.04.2020
4729 Clouds 15 1012 81 0 4.3 295 19:22 17.04.2020
4730 Clouds 15 1012 81 0 4.3 295 18:44 17.04.2020
4731 Rain 17 1010 77 0 9.39 170 18:24 17.04.2020
4732 Rain 17 1010 77 0 9.39 170 18:24 17.04.2020
4733 Rain 16 1011 93 8000 5.1 220 17:56 17.04.2020
4734 Rain 16 1011 93 8000 5.1 220 17:37 17.04.2020
4735 Rain 16 1011 93 8000 5.1 220 17:18 17.04.2020
4736 Rain 16 1011 93 5000 5.7 230 16:42 17.04.2020
4737 Rain 16 1011 93 5000 5.7 230 16:23 17.04.2020
4738 Rain 17 1010 82 10000 9.3 190 15:42 17.04.2020
4739 Clouds 17 1010 77 10000 9.8 170 15:24 17.04.2020
4740 Clouds 17 1010 77 10000 9.8 170 14:57 17.04.2020
4741 Clouds 17 1010 77 10000 9.8 170 14:38 17.04.2020
4742 Clouds 17 1010 77 10000 9.8 170 14:20 17.04.2020
4743 Rain 17 1011 77 10000 9.3 170 13:41 17.04.2020
4744 Rain 17 1011 77 10000 9.3 170 13:22 17.04.2020
4745 Rain 16 1012 87 8000 9.8 150 12:59 17.04.2020
4746 Rain 16 1012 87 8000 9.8 150 12:41 17.04.2020
4747 Rain 16 1012 87 8000 9.8 150 12:22 17.04.2020
4748 Rain 17 1012 77 10000 10.3 170 11:40 17.04.2020
4749 Rain 17 1014 72 9000 6.7 180 11:19 17.04.2020
4750 Rain 17 1014 72 9000 6.7 180 10:44 17.04.2020
4751 Rain 17 1014 72 9000 6.7 180 10:24 17.04.2020
4752 Rain 18 1014 63 10000 8.7 170 09:59 17.04.2020
4753 Rain 18 1014 63 10000 8.7 170 09:40 17.04.2020
4754 Rain 18 1014 63 10000 8.7 170 09:20 17.04.2020
4755 Rain 18 1014 63 9000 8.2 170 08:49 17.04.2020
4756 Rain 18 1014 63 9000 8.2 170 08:28 17.04.2020
4757 Clouds 20 1015 60 10000 5.1 160 07:59 17.04.2020
4758 Clouds 20 1015 60 10000 5.1 160 07:41 17.04.2020
4759 Clouds 20 1016 56 10000 5.7 140 07:20 17.04.2020
4760 Clouds 21 1016 56 10000 5.7 140 06:45 17.04.2020
4761 Clouds 21 1016 56 10000 5.7 140 06:20 17.04.2020
4762 Clouds 17 1018 68 10000 5.1 130 03:36 17.04.2020
4763 Clouds 17 1018 68 10000 5.1 130 03:18 17.04.2020
4764 Clouds 15 1018 87 10000 5.1 130 01:52 17.04.2020
4765 Clouds 15 1018 87 10000 5.1 130 01:22 17.04.2020
4766 Clouds 14 1018 82 10000 6.2 140 00:26 17.04.2020
4767 Clouds 13 1018 82 10000 4.1 130 23:55 16.04.2020
4768 Clouds 14 1017 82 0 4.02 130 23:37 16.04.2020
4769 Clouds 14 1018 82 0 2.68 290 23:19 16.04.2020
4770 Clouds 14 1018 82 0 2.68 290 22:40 16.04.2020
4771 Clouds 14 1018 82 0 2.68 290 22:22 16.04.2020
4772 Clouds 14 1018 82 0 2.68 290 21:59 16.04.2020
4773 Clouds 14 1018 82 0 2.68 290 21:40 16.04.2020
4774 Clouds 14 1018 82 0 2.68 290 21:19 16.04.2020
4775 Clouds 14 1018 82 0 2.68 290 20:43 16.04.2020
4776 Clouds 14 1018 82 0 2.68 290 20:23 16.04.2020
4777 Clouds 14 1018 82 0 2.68 290 19:59 16.04.2020
4778 Clouds 14 1018 82 0 2.68 290 19:39 16.04.2020
4779 Clouds 14 1018 82 0 2.68 290 19:19 16.04.2020
4780 Clouds 14 1018 82 0 2.68 290 18:56 16.04.2020
4781 Clouds 14 1018 82 0 2.68 290 18:37 16.04.2020
4782 Clear 14 1018 82 0 2.68 290 18:19 16.04.2020
4783 Clear 14 1018 82 0 2.68 290 17:43 16.04.2020
4784 Clear 13 1019 87 10000 1 0 17:24 16.04.2020
4785 Clear 13 1019 87 10000 1 0 16:55 16.04.2020
4786 Clear 13 1019 87 10000 1 0 16:37 16.04.2020
4787 Clear 13 1019 87 10000 1 0 16:18 16.04.2020
4788 Clear 13 1018 87 10000 1.5 310 15:41 16.04.2020
4789 Clouds 13 1018 82 10000 3.1 290 15:19 16.04.2020
4790 Clouds 14 1018 82 10000 3.1 290 14:58 16.04.2020
4791 Clouds 14 1018 82 10000 3.1 290 14:38 16.04.2020
4792 Clouds 14 1018 82 10000 3.1 290 14:19 16.04.2020
4793 Clouds 15 1016 72 10000 3.6 320 13:42 16.04.2020
4794 Clouds 15 1016 72 10000 3.6 320 13:23 16.04.2020
4795 Clouds 16 1015 72 10000 4.6 340 12:58 16.04.2020
4796 Clouds 16 1015 72 10000 4.6 340 12:40 16.04.2020
4797 Clouds 16 1015 72 10000 4.6 340 12:20 16.04.2020
4798 Clouds 18 1016 59 10000 5.1 330 12:00 16.04.2020
4799 Clouds 18 1016 59 10000 5.1 330 11:41 16.04.2020
4800 Clouds 18 1016 59 10000 5.1 330 11:21 16.04.2020
4801 Clouds 20 1016 42 10000 6.7 310 10:56 16.04.2020
4802 Clouds 20 1016 42 10000 6.7 310 10:38 16.04.2020
4803 Clouds 20 1016 42 10000 6.7 310 10:18 16.04.2020
4804 Clouds 21 1016 40 10000 5.7 310 09:54 16.04.2020
4805 Clouds 21 1016 40 10000 5.7 310 09:36 16.04.2020
4806 Clouds 21 1016 40 10000 5.7 310 09:18 16.04.2020
4807 Clouds 21 1016 46 10000 7.2 310 08:41 16.04.2020
4808 Clouds 21 1016 46 10000 7.2 310 08:21 16.04.2020
4809 Clouds 21 1016 46 10000 2.1 290 07:46 16.04.2020
4810 Clouds 21 1016 46 10000 2.1 290 07:26 16.04.2020
4811 Clouds 20 1016 49 10000 2.1 230 06:43 16.04.2020
4812 Clouds 20 1016 49 10000 2.1 230 06:24 16.04.2020
4813 Clouds 19 1016 55 10000 2.6 280 05:30 16.04.2020
4814 Clouds 16 1017 72 10000 2.6 160 03:49 16.04.2020
4815 Clouds 16 1017 72 10000 2.6 160 03:23 16.04.2020
4816 Clouds 15 1017 77 10000 2.1 190 02:47 16.04.2020
4817 Clouds 15 1017 77 10000 2.1 190 02:26 16.04.2020
4818 Clouds 13 1016 87 10000 1.5 150 01:18 16.04.2020
4819 Clouds 13 1016 87 10000 1.5 150 01:18 16.04.2020
4820 Clouds 12 1016 87 10000 1 0 00:28 16.04.2020
4821 Clouds 10 1016 87 10000 3.27 10 23:57 15.04.2020
4822 Clouds 11 1016 87 0 3.27 10 23:39 15.04.2020
4823 Clouds 14 1015 71 0 3.27 10 23:20 15.04.2020
4824 Clouds 14 1015 71 0 3.27 10 22:40 15.04.2020
4825 Clouds 14 1015 71 0 3.27 10 22:21 15.04.2020
4826 Clouds 14 1015 71 0 3.27 10 21:58 15.04.2020
4827 Clouds 14 1014 71 0 3.27 10 21:40 15.04.2020
4828 Rain 14 1014 71 0 3.16 13 21:22 15.04.2020
4829 Rain 14 1014 71 0 3.16 13 20:57 15.04.2020
4830 Rain 14 1014 71 0 3.16 13 20:39 15.04.2020
4831 Rain 14 1014 71 0 3.16 13 20:21 15.04.2020
4832 Rain 14 1014 71 0 3.16 13 19:42 15.04.2020
4833 Rain 14 1014 71 0 3.16 13 19:21 15.04.2020
4834 Rain 14 1014 71 0 3.16 13 18:55 15.04.2020
4835 Rain 14 1014 71 0 3.16 13 18:36 15.04.2020
4836 Rain 14 1014 71 0 1.91 16 18:18 15.04.2020
4837 Rain 14 1014 76 10000 2.1 40 17:40 15.04.2020
4838 Rain 14 1014 76 10000 2.1 40 17:21 15.04.2020
4839 Rain 14 1014 76 10000 2.1 40 16:58 15.04.2020
4840 Rain 14 1014 76 10000 2.1 40 16:39 15.04.2020
4841 Rain 14 1014 76 10000 2.1 40 16:20 15.04.2020
4842 Rain 14 1014 76 10000 2.1 50 15:58 15.04.2020
4843 Rain 14 1014 71 10000 0.5 0 15:39 15.04.2020
4844 Rain 14 1014 71 10000 0.5 0 15:20 15.04.2020
4845 Rain 14 1014 71 10000 0.5 0 14:58 15.04.2020
4846 Rain 14 1014 71 10000 0.5 0 14:39 15.04.2020
4847 Rain 14 1014 71 10000 0.5 0 14:39 15.04.2020
4848 Clouds 14 1014 71 10000 0.5 0 14:21 15.04.2020
4849 Clouds 15 1014 62 10000 1.5 310 13:58 15.04.2020
4850 Clouds 15 1014 62 10000 1.5 310 13:39 15.04.2020
4851 Clouds 15 1014 62 10000 1.5 310 13:20 15.04.2020
4852 Clouds 16 1014 59 10000 1 0 12:56 15.04.2020
4853 Clouds 16 1014 59 10000 1 0 12:38 15.04.2020
4854 Clouds 16 1014 59 10000 1 0 12:19 15.04.2020
4855 Clouds 17 1013 63 10000 1.5 280 11:42 15.04.2020
4856 Clouds 17 1013 63 10000 1.5 280 11:24 15.04.2020
4857 Clouds 18 1013 52 10000 2.6 260 10:58 15.04.2020
4858 Clouds 18 1013 52 10000 2.6 260 10:36 15.04.2020
4859 Clouds 18 1013 52 10000 2.6 260 10:18 15.04.2020
4860 Clouds 19 1013 32 10000 2.1 250 09:55 15.04.2020
4861 Clouds 19 1013 32 10000 2.1 250 09:37 15.04.2020
4862 Clouds 19 1013 32 10000 2.1 250 09:18 15.04.2020
4863 Clouds 19 1013 30 10000 3.1 270 08:41 15.04.2020
4864 Clouds 19 1013 30 10000 3.1 270 08:21 15.04.2020
4865 Clouds 18 1014 36 10000 2.6 290 07:55 15.04.2020
4866 Clouds 19 1014 36 10000 2.6 290 07:34 15.04.2020
4867 Clouds 19 1014 32 10000 1.5 0 06:37 15.04.2020
4868 Clouds 17 1015 39 10000 1 0 05:57 15.04.2020
4869 Clouds 17 1015 39 10000 1 0 05:21 15.04.2020
4870 Clouds 15 1015 48 10000 1.5 40 04:45 15.04.2020
4871 Clouds 15 1016 54 10000 2.6 160 03:51 15.04.2020
4872 Clouds 15 1016 54 10000 2.6 160 03:18 15.04.2020
4873 Clouds 12 1016 66 10000 1.5 170 02:33 15.04.2020
4874 Clouds 12 1016 66 10000 1.5 180 01:44 15.04.2020
4875 Clouds 12 1016 66 10000 1.5 180 01:20 15.04.2020
4876 Clouds 11 1016 71 10000 1 70 00:37 15.04.2020
4877 Clouds 11 1016 71 10000 1 70 00:19 15.04.2020
4878 Clouds 10 1016 71 10000 0.5 0 23:55 14.04.2020
4879 Clouds 9 1016 87 10000 2.1 340 23:36 14.04.2020
4880 Clouds 7 1016 87 10000 2.1 340 23:18 14.04.2020
4881 Clouds 13 1015 53 0 1.59 300 22:55 14.04.2020
4882 Clouds 13 1015 53 0 1.59 300 22:36 14.04.2020
4883 Clouds 13 1015 53 0 1.59 300 22:18 14.04.2020
4884 Clouds 13 1015 53 0 1.59 300 21:55 14.04.2020
4885 Clouds 13 1015 53 0 1.59 300 21:36 14.04.2020
4886 Clouds 14 1016 48 0 1.6 295 21:18 14.04.2020
4887 Clouds 14 1016 48 0 1.6 295 21:18 14.04.2020
4888 Clouds 14 1016 48 0 1.6 295 20:40 14.04.2020
4889 Clouds 14 1016 48 0 1.6 295 20:40 14.04.2020
4890 Clouds 13 1017 62 0 1.6 295 20:22 14.04.2020
4891 Clouds 13 1017 62 0 1.6 295 19:58 14.04.2020
4892 Clouds 13 1017 62 0 0.95 299 19:39 14.04.2020
4893 Clouds 13 1017 62 0 0.95 299 19:20 14.04.2020
4894 Clouds 13 1017 62 0 1.6 295 18:55 14.04.2020
4895 Clouds 13 1017 62 0 0.95 299 18:37 14.04.2020
4896 Clouds 14 1017 45 0 1.25 0 18:18 14.04.2020
4897 Clouds 14 1017 47 0 1.57 350 17:55 14.04.2020
4898 Clouds 10 1016 66 10000 2.6 340 17:36 14.04.2020
4899 Clouds 12 1016 66 10000 2.6 340 17:18 14.04.2020
4900 Clouds 12 1016 66 10000 2.6 340 16:41 14.04.2020
4901 Clouds 12 1016 66 10000 2.6 340 16:22 14.04.2020
4902 Clouds 11 1016 76 10000 2.1 320 15:57 14.04.2020
4903 Clouds 12 1017 62 10000 1 0 15:38 14.04.2020
4904 Clouds 12 1017 62 10000 1 0 15:19 14.04.2020
4905 Clouds 13 1017 62 10000 1 0 14:57 14.04.2020
4906 Clouds 13 1017 62 10000 1 0 14:39 14.04.2020
4907 Clouds 13 1017 62 10000 1 0 14:21 14.04.2020
4908 Clouds 14 1016 47 10000 3.6 300 13:44 14.04.2020
4909 Clouds 14 1016 47 10000 3.6 300 13:24 14.04.2020
4910 Clouds 15 1015 44 10000 4.6 310 12:57 14.04.2020
4911 Clouds 15 1015 44 10000 4.6 310 12:38 14.04.2020
4912 Clouds 15 1015 44 10000 4.6 310 12:19 14.04.2020
4913 Clouds 17 1015 39 10000 5.7 310 11:42 14.04.2020
4914 Clouds 17 1015 39 10000 5.7 310 11:24 14.04.2020
4915 Clouds 18 1015 39 10000 5.1 310 10:56 14.04.2020
4916 Clouds 18 1015 39 10000 5.1 310 10:38 14.04.2020
4917 Clouds 18 1015 39 10000 5.1 310 10:20 14.04.2020
4918 Clouds 19 1015 32 10000 4.6 300 09:42 14.04.2020
4919 Clouds 19 1014 32 0 4.47 300 09:23 14.04.2020
4920 Clouds 19 1015 34 10000 5.7 310 08:56 14.04.2020
4921 Clouds 19 1015 34 10000 5.7 310 08:37 14.04.2020
4922 Clouds 19 1015 34 10000 5.7 310 08:19 14.04.2020
4923 Clouds 19 1015 37 10000 6.2 310 07:51 14.04.2020
4924 Clouds 17 1016 40 0 3.71 317 07:26 14.04.2020
4925 Clouds 18 1016 34 10000 5.7 300 06:45 14.04.2020
4926 Clear 16 1017 43 0 3.27 351 05:52 14.04.2020
4927 Clear 16 1017 43 0 3.27 351 03:48 14.04.2020
4928 Clear 14 1017 58 10000 2.6 280 02:38 14.04.2020
4929 Clear 11 1016 66 10000 1 0 01:28 14.04.2020
4930 Clear 10 1016 81 10000 0.5 0 00:52 14.04.2020
4931 Clear 10 1016 81 10000 0.5 0 00:32 14.04.2020
4932 Clear 8 1015 81 0 0.45 50 23:59 13.04.2020
4933 Clear 8 1015 81 0 0.45 50 23:39 13.04.2020
4934 Clear 11 1016 59 0 4.92 355 23:19 13.04.2020
4935 Clear 11 1016 59 0 4.92 355 22:54 13.04.2020
4936 Clear 11 1016 59 0 4.92 355 22:36 13.04.2020
4937 Clear 11 1016 59 0 4.92 355 22:18 13.04.2020
4938 Clear 11 1016 59 0 4.92 355 21:41 13.04.2020
4939 Clouds 11 1015 61 0 5.46 2 21:21 13.04.2020
4940 Clouds 11 1015 61 0 5.46 2 20:58 13.04.2020
4941 Clouds 11 1015 61 0 5.46 2 20:40 13.04.2020
4942 Clouds 11 1015 61 0 5.46 2 20:19 13.04.2020
4943 Clouds 11 1015 61 0 5.46 2 19:58 13.04.2020
4944 Clouds 11 1015 61 0 5.46 2 19:37 13.04.2020
4945 Clouds 11 1015 61 0 5.46 2 19:18 13.04.2020
4946 Clouds 11 1015 61 0 5.46 2 18:56 13.04.2020
4947 Clouds 11 1015 61 0 5.46 2 18:37 13.04.2020
4948 Clouds 11 1014 63 0 8.31 8 18:18 13.04.2020
4949 Clouds 11 1014 63 0 8.31 8 17:56 13.04.2020
4950 Clouds 11 1012 57 10000 7.7 350 17:36 13.04.2020
4951 Clouds 11 1012 57 10000 7.7 350 17:18 13.04.2020
4952 Clouds 11 1012 57 10000 7.7 350 16:56 13.04.2020
4953 Clouds 11 1012 57 10000 7.7 350 16:37 13.04.2020
4954 Clouds 11 1012 57 10000 7.7 350 16:18 13.04.2020
4955 Clouds 11 1012 57 10000 7.7 350 16:18 13.04.2020
4956 Clouds 11 1012 57 10000 4.1 360 15:45 13.04.2020
4957 Clouds 12 1011 58 10000 10.3 350 15:27 13.04.2020
4958 Clouds 12 1011 58 10000 10.3 350 14:57 13.04.2020
4959 Clouds 12 1011 58 10000 10.3 350 14:39 13.04.2020
4960 Clouds 12 1011 58 10000 10.3 350 14:21 13.04.2020
4961 Clouds 11 1011 62 10000 9.3 350 13:56 13.04.2020
4962 Clouds 11 1011 62 10000 9.3 350 13:38 13.04.2020
4963 Clouds 11 1011 62 10000 9.3 350 13:19 13.04.2020
4964 Clouds 10 1010 76 10000 7.7 340 12:58 13.04.2020
4965 Clouds 10 1010 76 10000 7.7 340 12:39 13.04.2020
4966 Clouds 10 1010 76 10000 7.7 340 12:19 13.04.2020
4967 Clouds 10 1010 76 10000 7.7 340 12:19 13.04.2020
4968 Clouds 10 1010 76 10000 7.7 340 12:19 13.04.2020
4969 Rain 10 1009 81 10000 7.7 330 11:44 13.04.2020
4970 Rain 9 1009 81 10000 7.7 330 11:19 13.04.2020
4971 Rain 9 1009 81 10000 7.7 330 11:19 13.04.2020
4972 Rain 9 1009 76 10000 9.3 350 10:57 13.04.2020
4973 Rain 9 1009 76 10000 9.3 350 10:39 13.04.2020
4974 Rain 9 1009 76 10000 9.3 350 10:20 13.04.2020
4975 Rain 10 1008 71 10000 9.3 340 09:58 13.04.2020
4976 Rain 10 1008 71 10000 9.3 340 09:39 13.04.2020
4977 Rain 10 1008 71 10000 9.3 340 09:21 13.04.2020
4978 Rain 10 1008 71 10000 6.7 360 08:45 13.04.2020
4979 Rain 10 1008 71 10000 6.7 360 08:26 13.04.2020
4980 Rain 11 1008 66 10000 11.8 340 07:44 13.04.2020
4981 Rain 11 1008 66 10000 11.8 340 07:26 13.04.2020
4982 Rain 9 1008 87 10000 10.8 350 06:56 13.04.2020
4983 Rain 9 1008 87 10000 10.8 350 06:33 13.04.2020
4984 Clouds 11 1008 66 10000 8.7 330 05:40 13.04.2020
4985 Clouds 11 1008 66 10000 8.7 330 05:19 13.04.2020
4986 Rain 11 1008 71 10000 10.8 340 04:31 13.04.2020
4987 Rain 11 1007 66 10000 10.8 340 03:53 13.04.2020
4988 Rain 11 1007 66 10000 10.8 340 03:33 13.04.2020
4989 Clouds 11 1007 66 10000 8.7 360 02:39 13.04.2020
4990 Rain 10 1006 71 10000 9.3 340 01:45 13.04.2020
4991 Rain 10 1006 71 10000 9.3 340 01:27 13.04.2020
4992 Rain 10 1005 71 10000 11.8 350 00:44 13.04.2020
4993 Rain 9 1005 71 10000 11.8 350 00:24 13.04.2020
4994 Clouds 9 1004 71 10000 10.3 350 23:55 12.04.2020
4995 Rain 10 1005 73 0 11.76 4 23:36 12.04.2020
4996 Rain 10 1005 73 0 11.76 4 23:18 12.04.2020
4997 Rain 10 1005 73 0 11.76 4 22:39 12.04.2020
4998 Rain 10 1005 73 0 11.76 4 22:19 12.04.2020
4999 Rain 10 1005 73 0 11.76 4 21:57 12.04.2020
5000 Rain 10 1005 73 0 11.76 4 21:36 12.04.2020
5001 Rain 10 1002 79 0 12.43 352 21:18 12.04.2020
5002 Rain 10 1002 79 0 12.43 352 20:41 12.04.2020
5003 Rain 10 1002 79 0 12.43 352 20:23 12.04.2020
5004 Rain 10 1002 79 0 12.43 352 19:57 12.04.2020
5005 Rain 10 1002 79 0 12.43 352 19:38 12.04.2020
5006 Rain 11 1002 76 0 5.36 360 19:19 12.04.2020
5007 Rain 11 1002 76 0 5.36 360 18:41 12.04.2020
5008 Rain 11 1002 76 0 5.36 360 18:23 12.04.2020
5009 Rain 11 1002 76 0 5.36 360 17:59 12.04.2020
5010 Rain 11 1002 76 0 5.36 360 17:41 12.04.2020
5011 Clouds 10 1002 81 10000 4.1 10 17:23 12.04.2020
5012 Clouds 10 1002 81 10000 4.1 10 16:58 12.04.2020
5013 Clouds 10 1002 81 10000 4.1 10 16:39 12.04.2020
5014 Clouds 10 1002 81 10000 4.1 10 16:20 12.04.2020
5015 Clouds 10 1002 93 10000 2.6 10 15:48 12.04.2020
5016 Clouds 10 1002 76 10000 5.7 360 15:29 12.04.2020
5017 Clouds 11 1002 76 10000 5.7 360 14:54 12.04.2020
5018 Clouds 11 1002 76 10000 5.7 360 14:36 12.04.2020
5019 Clouds 11 1002 76 10000 5.7 360 14:18 12.04.2020
5020 Clouds 11 1002 76 10000 5.7 360 14:18 12.04.2020
5021 Clouds 11 1002 81 10000 7.2 360 13:41 12.04.2020
5022 Clouds 11 1002 81 10000 7.2 360 13:23 12.04.2020
5023 Clouds 11 1002 81 10000 6.2 360 12:49 12.04.2020
5024 Clouds 11 1002 81 10000 6.2 360 12:23 12.04.2020
5025 Clouds 11 1002 81 10000 6.2 360 12:23 12.04.2020
5026 Clouds 12 1002 76 10000 7.7 350 11:59 12.04.2020
5027 Clouds 12 1002 76 10000 7.7 350 11:40 12.04.2020
5028 Clouds 12 1002 76 10000 7.7 350 11:21 12.04.2020
5029 Rain 12 1002 81 10000 5.7 360 10:58 12.04.2020
5030 Rain 12 1002 81 10000 5.7 360 10:40 12.04.2020
5031 Rain 12 1002 81 10000 5.7 360 10:21 12.04.2020
5032 Rain 12 1002 82 10000 8.2 340 09:59 12.04.2020
5033 Rain 12 1002 82 10000 8.2 340 09:39 12.04.2020
5034 Rain 12 1002 82 10000 8.2 340 09:21 12.04.2020
5035 Clouds 13 1002 76 10000 6.7 360 08:51 12.04.2020
5036 Clouds 13 1002 76 10000 6.7 360 08:33 12.04.2020
5037 Clouds 13 1003 76 10000 3.1 20 07:57 12.04.2020
5038 Clouds 13 1003 76 10000 3.1 20 07:39 12.04.2020
5039 Clouds 13 1003 76 10000 3.1 20 07:18 12.04.2020
5040 Clouds 11 1004 87 10000 1.5 250 06:32 12.04.2020
5041 Clouds 11 1004 87 10000 2.6 170 05:49 12.04.2020
5042 Clouds 11 1004 87 10000 2.6 170 05:28 12.04.2020
5043 Rain 11 1005 87 8000 1 0 03:34 12.04.2020
5044 Rain 10 1006 93 7000 3.1 20 02:55 12.04.2020
5045 Rain 10 1006 93 7000 3.1 20 02:33 12.04.2020
5046 Rain 10 1006 87 7000 1 0 01:34 12.04.2020
5047 Rain 10 1007 93 5000 1.5 40 00:57 12.04.2020
5048 Rain 10 1007 93 4500 1.5 10 00:38 12.04.2020
5049 Rain 10 1007 93 4500 1.5 10 00:19 12.04.2020
5050 Rain 10 1007 93 4500 2.1 300 23:45 11.04.2020
5051 Rain 11 1008 87 0 5.31 39 23:23 11.04.2020
5052 Rain 11 1008 87 0 5.31 39 22:40 11.04.2020
5053 Rain 11 1008 87 0 5.31 39 22:22 11.04.2020
5054 Rain 11 1008 87 0 5.31 39 21:57 11.04.2020
5055 Rain 11 1008 89 0 5.36 34 21:37 11.04.2020
5056 Rain 11 1008 89 0 5.36 34 21:37 11.04.2020
5057 Rain 13 1014 76 0 1.79 320 21:18 11.04.2020
5058 Rain 13 1014 76 0 1.79 320 21:18 11.04.2020
5059 Rain 13 1014 76 0 1.79 320 20:56 11.04.2020
5060 Rain 13 1014 76 0 1.79 320 20:38 11.04.2020
5061 Rain 13 1014 76 0 1.79 320 20:19 11.04.2020
5062 Rain 13 1014 76 0 1.79 320 19:57 11.04.2020
5063 Rain 13 1014 76 0 1.79 320 19:57 11.04.2020
5064 Rain 13 1014 76 0 1.79 320 19:38 11.04.2020
5065 Rain 13 1014 76 0 1.79 320 19:18 11.04.2020
5066 Rain 13 1014 76 0 1.79 320 18:55 11.04.2020
5067 Rain 13 1014 76 0 1.79 320 18:37 11.04.2020
5068 Clouds 13 1014 76 0 1.79 320 18:18 11.04.2020
5069 Clouds 13 1014 76 0 1.79 320 17:58 11.04.2020
5070 Clouds 12 1013 76 10000 5.1 40 17:38 11.04.2020
5071 Clouds 12 1013 76 10000 5.1 40 17:19 11.04.2020
5072 Clouds 12 1013 76 10000 5.1 40 16:42 11.04.2020
5073 Clouds 12 1013 76 10000 5.1 40 16:22 11.04.2020
5074 Clouds 12 1014 71 10000 6.7 40 15:42 11.04.2020
5075 Clouds 12 1014 76 10000 2.1 320 15:22 11.04.2020
5076 Clouds 13 1014 76 10000 2.1 320 14:59 11.04.2020
5077 Clouds 13 1014 76 10000 2.1 320 14:41 11.04.2020
5078 Clouds 13 1014 76 10000 2.1 320 14:23 11.04.2020
5079 Rain 14 1015 67 10000 5.1 340 13:55 11.04.2020
5080 Rain 14 1015 67 10000 5.1 340 13:36 11.04.2020
5081 Rain 14 1015 67 10000 5.1 340 13:18 11.04.2020
5082 Rain 14 1015 71 10000 4.6 320 12:39 11.04.2020
5083 Rain 14 1015 71 10000 4.6 320 12:18 11.04.2020
5084 Clouds 16 1015 51 10000 3.1 310 11:55 11.04.2020
5085 Clouds 16 1015 51 10000 3.1 310 11:36 11.04.2020
5086 Clouds 16 1015 51 10000 3.1 310 11:18 11.04.2020
5087 Clouds 17 1015 42 10000 2.6 330 10:42 11.04.2020
5088 Clouds 17 1015 42 10000 2.6 330 10:22 11.04.2020
5089 Clouds 18 1016 39 10000 2.1 300 09:57 11.04.2020
5090 Clouds 18 1016 39 10000 2.1 300 09:39 11.04.2020
5091 Clouds 18 1016 39 10000 2.1 300 09:20 11.04.2020
5092 Clouds 17 1016 39 10000 2.6 320 08:45 11.04.2020
5093 Clouds 17 1016 39 10000 2.6 320 08:27 11.04.2020
5094 Clouds 17 1017 36 10000 2.1 300 07:49 11.04.2020
5095 Clouds 17 1017 36 10000 2.1 300 07:28 11.04.2020
5096 Clouds 17 1018 42 10000 2.6 10 06:47 11.04.2020
5097 Clouds 17 1018 42 10000 2.6 10 06:18 11.04.2020
5098 Clouds 16 1019 43 10000 1.5 150 05:24 11.04.2020
5099 Clouds 14 1021 50 10000 1 0 03:40 11.04.2020
5100 Clouds 11 1021 66 10000 1 0 01:55 11.04.2020
5101 Clouds 11 1021 66 10000 1 0 01:23 11.04.2020
5102 Clouds 9 1021 71 10000 2.1 100 00:44 11.04.2020
5103 Clouds 9 1021 71 10000 2.1 100 00:19 11.04.2020
5104 Clouds 9 1021 76 10000 3.1 130 23:57 10.04.2020
5105 Clouds 10 1021 76 0 2.68 130 23:38 10.04.2020
5106 Clouds 12 1021 55 0 2.17 66 23:18 10.04.2020
5107 Clouds 12 1021 55 0 2.17 66 23:18 10.04.2020
5108 Clouds 12 1021 55 0 2.17 66 22:43 10.04.2020
5109 Clouds 12 1021 55 0 2.17 66 22:22 10.04.2020
5110 Clouds 12 1021 55 0 2.17 66 21:58 10.04.2020
5111 Clouds 12 1021 55 0 2.17 66 21:40 10.04.2020
5112 Clouds 12 1021 58 0 2.3 47 21:20 10.04.2020
5113 Clouds 12 1021 58 0 2.3 47 20:43 10.04.2020
5114 Clouds 12 1021 58 0 2.3 47 20:24 10.04.2020
5115 Clouds 12 1021 58 0 2.3 47 19:58 10.04.2020
5116 Clouds 12 1021 58 0 2.3 47 19:40 10.04.2020
5117 Clouds 12 1021 58 0 2.3 47 19:20 10.04.2020
5118 Clouds 12 1021 58 0 2.3 47 18:58 10.04.2020
5119 Clouds 12 1021 58 0 2.3 47 18:39 10.04.2020
5120 Clouds 12 1023 62 0 3.22 23 18:21 10.04.2020
5121 Clouds 12 1023 62 0 3.22 23 17:58 10.04.2020
5122 Clouds 10 1023 76 10000 2.1 350 17:39 10.04.2020
5123 Clouds 10 1023 76 10000 2.1 350 17:20 10.04.2020
5124 Clouds 10 1023 76 10000 2.1 350 16:56 10.04.2020
5125 Clouds 10 1023 76 10000 2.1 350 16:38 10.04.2020
5126 Clouds 10 1023 76 10000 2.1 350 16:19 10.04.2020
5127 Clouds 11 1023 66 10000 1.5 10 15:55 10.04.2020
5128 Clouds 11 1023 66 10000 1.5 10 15:55 10.04.2020
5129 Clouds 11 1023 66 10000 1.5 10 15:55 10.04.2020
5130 Clouds 12 1023 58 10000 6.7 340 15:36 10.04.2020
5131 Clear 12 1023 58 10000 6.7 340 15:18 10.04.2020
5132 Clear 13 1023 58 10000 6.7 340 14:56 10.04.2020
5133 Clear 13 1023 58 10000 6.7 340 14:37 10.04.2020
5134 Clear 13 1023 58 10000 6.7 340 14:18 10.04.2020
5135 Clear 13 1023 58 10000 6.7 340 14:18 10.04.2020
5136 Clouds 13 1022 54 10000 4.6 340 13:43 10.04.2020
5137 Clouds 13 1022 54 10000 4.6 340 13:21 10.04.2020
5138 Clear 14 1022 58 10000 5.1 340 12:43 10.04.2020
5139 Clear 14 1022 58 10000 5.1 340 12:23 10.04.2020
5140 Clouds 16 1021 51 10000 5.7 350 11:56 10.04.2020
5141 Clouds 16 1021 51 10000 5.7 350 11:37 10.04.2020
5142 Clouds 16 1021 51 10000 5.7 350 11:18 10.04.2020
5143 Clouds 17 1021 51 10000 5.1 330 10:43 10.04.2020
5144 Clouds 17 1021 51 10000 5.1 330 10:23 10.04.2020
5145 Clouds 17 1021 45 10000 5.7 330 09:56 10.04.2020
5146 Clouds 17 1021 45 10000 5.7 330 09:38 10.04.2020
5147 Clouds 17 1021 45 10000 5.7 330 09:18 10.04.2020
5148 Clouds 18 1021 42 10000 4.1 340 08:42 10.04.2020
5149 Clouds 18 1021 42 10000 4.1 340 08:21 10.04.2020
5150 Clouds 18 1022 39 10000 4.1 290 07:45 10.04.2020
5151 Clouds 18 1022 39 10000 4.1 290 07:23 10.04.2020
5152 Clouds 17 1023 39 10000 3.6 290 06:48 10.04.2020
5153 Clouds 17 1023 39 10000 3.6 290 06:27 10.04.2020
5154 Clouds 17 1023 39 10000 4.1 290 05:40 10.04.2020
5155 Clouds 15 1023 51 10000 4.1 280 04:57 10.04.2020
5156 Clouds 15 1024 51 10000 2.1 0 03:45 10.04.2020
5157 Clouds 15 1024 51 10000 2.1 0 03:24 10.04.2020
5158 Clear 13 1024 54 10000 1.5 0 02:48 10.04.2020
5159 Clear 13 1024 54 10000 1.5 0 02:28 10.04.2020
5160 Clear 11 1023 71 10000 1 0 01:30 10.04.2020
5161 Clear 10 1023 87 10000 0.5 0 00:49 10.04.2020
5162 Clear 10 1023 87 10000 0.5 0 00:23 10.04.2020
5163 Clear 9 1022 87 10000 2.6 130 23:45 09.04.2020
5164 Clear 9 1022 87 0 2.24 130 23:26 09.04.2020
5165 Clear 12 1023 55 0 2.57 31 23:00 09.04.2020
5166 Clear 12 1023 55 0 2.57 31 22:41 09.04.2020
5167 Clear 12 1023 55 0 2.57 31 22:22 09.04.2020
5168 Clear 12 1023 55 0 2.57 31 21:45 09.04.2020
5169 Clear 12 1022 55 0 3.23 351 21:26 09.04.2020
5170 Clear 12 1022 55 0 3.23 351 20:57 09.04.2020
5171 Clear 12 1022 55 0 3.23 351 20:38 09.04.2020
5172 Clear 12 1022 55 0 3.23 351 20:19 09.04.2020
5173 Clear 12 1022 55 0 3.23 351 19:41 09.04.2020
5174 Clear 12 1022 55 0 3.23 351 19:23 09.04.2020
5175 Clear 12 1022 55 0 3.23 351 18:59 09.04.2020
5176 Clear 12 1022 55 0 3.23 351 18:40 09.04.2020
5177 Clear 12 1023 54 0 4.3 343 18:18 09.04.2020
5178 Clear 12 1023 54 0 4.3 343 17:40 09.04.2020
5179 Clear 10 1022 66 10000 2.6 320 17:21 09.04.2020
5180 Clear 10 1022 66 10000 2.6 320 16:42 09.04.2020
5181 Clear 11 1022 66 10000 2.6 320 16:23 09.04.2020
5182 Clear 11 1021 62 10000 2.1 330 15:58 09.04.2020
5183 Clear 12 1021 62 10000 3.1 300 15:39 09.04.2020
5184 Clouds 12 1021 62 10000 3.1 300 15:21 09.04.2020
5185 Clouds 12 1021 62 10000 3.1 300 14:59 09.04.2020
5186 Clouds 12 1021 62 10000 3.1 300 14:38 09.04.2020
5187 Clouds 12 1021 62 10000 3.1 300 14:20 09.04.2020
5188 Clouds 13 1020 54 10000 4.6 310 13:42 09.04.2020
5189 Clouds 13 1020 54 10000 4.6 310 13:24 09.04.2020
5190 Clouds 14 1020 54 10000 6.2 310 12:59 09.04.2020
5191 Clouds 14 1020 54 10000 6.2 310 12:38 09.04.2020
5192 Clouds 14 1020 54 10000 6.2 310 12:20 09.04.2020
5193 Clouds 15 1020 54 10000 5.1 320 11:44 09.04.2020
5194 Clouds 15 1020 54 10000 5.1 320 11:20 09.04.2020
5195 Clouds 17 1019 48 10000 5.7 310 10:59 09.04.2020
5196 Clouds 17 1019 48 10000 5.7 310 10:41 09.04.2020
5197 Clouds 17 1019 48 10000 5.7 310 10:22 09.04.2020
5198 Clouds 19 1019 45 10000 5.7 300 09:57 09.04.2020
5199 Clouds 19 1019 45 10000 5.7 300 09:39 09.04.2020
5200 Clouds 19 1019 45 10000 5.7 300 09:20 09.04.2020
5201 Clouds 19 1019 37 10000 5.7 310 08:44 09.04.2020
5202 Clouds 19 1019 37 10000 5.7 310 08:44 09.04.2020
5203 Clouds 20 1019 37 10000 5.7 310 08:24 09.04.2020
5204 Clouds 19 1019 48 10000 5.7 350 07:59 09.04.2020
5205 Clouds 19 1019 48 10000 5.7 350 07:36 09.04.2020
5206 Clouds 19 1019 48 10000 4.1 350 07:18 09.04.2020
5207 Clouds 19 1019 48 10000 4.1 350 06:26 09.04.2020
5208 Clouds 17 1019 45 10000 2.6 290 05:46 09.04.2020
5209 Clouds 16 1020 51 10000 2.1 260 04:39 09.04.2020
5210 Clouds 13 1020 76 10000 1 0 02:33 09.04.2020
5211 Clouds 11 1020 76 10000 0.5 0 01:44 09.04.2020
5212 Clouds 11 1020 76 10000 0.5 0 01:24 09.04.2020
5213 Clouds 10 1019 81 10000 0.5 0 00:43 09.04.2020
5214 Clouds 10 1019 81 10000 0.5 0 00:20 09.04.2020
5215 Clouds 8 1020 81 10000 1 80 23:59 08.04.2020
5216 Clouds 8 1020 81 10000 1 80 23:41 08.04.2020
5217 Clouds 12 1020 57 0 3.45 330 23:21 08.04.2020
5218 Clouds 12 1020 57 0 3.45 330 22:44 08.04.2020
5219 Clouds 12 1020 57 0 3.45 330 22:24 08.04.2020
5220 Clouds 12 1020 57 0 3.45 330 21:57 08.04.2020
5221 Clouds 12 1020 57 0 3.38 326 21:38 08.04.2020
5222 Clouds 12 1019 66 0 3.58 320 21:19 08.04.2020
5223 Clouds 12 1019 66 0 3.58 320 20:58 08.04.2020
5224 Clouds 12 1019 66 0 3.58 320 20:38 08.04.2020
5225 Clouds 12 1019 66 0 3.58 320 20:20 08.04.2020
5226 Clouds 12 1019 66 0 3.58 320 19:55 08.04.2020
5227 Clouds 12 1019 66 0 3.58 320 19:36 08.04.2020
5228 Clouds 12 1019 66 0 3.58 320 19:18 08.04.2020
5229 Clouds 12 1019 66 0 3.58 320 18:41 08.04.2020
5230 Clouds 12 1019 66 0 3.58 320 18:23 08.04.2020
5231 Clouds 12 1019 66 0 3.58 320 17:44 08.04.2020
5232 Clouds 11 1019 76 10000 2.6 350 17:22 08.04.2020
5233 Clouds 11 1019 76 10000 2.6 350 16:59 08.04.2020
5234 Clouds 11 1019 76 10000 2.6 350 16:41 08.04.2020
5235 Clouds 11 1019 76 10000 2.6 350 16:22 08.04.2020
5236 Clouds 12 1019 62 10000 3.6 290 15:55 08.04.2020
5237 Clouds 12 1019 66 10000 3.6 320 15:36 08.04.2020
5238 Clouds 12 1019 66 10000 3.6 320 15:18 08.04.2020
5239 Clouds 12 1019 66 10000 3.6 320 14:42 08.04.2020
5240 Clouds 12 1019 66 10000 3.6 320 14:24 08.04.2020
5241 Clouds 13 1018 62 10000 4.1 310 13:45 08.04.2020
5242 Clouds 13 1018 62 10000 4.1 310 13:22 08.04.2020
5243 Clouds 13 1017 62 10000 4.6 310 12:59 08.04.2020
5244 Clouds 13 1017 62 10000 4.6 310 12:41 08.04.2020
5245 Clouds 15 1017 58 10000 7.2 340 12:18 08.04.2020
5246 Clouds 15 1017 58 10000 7.2 340 11:54 08.04.2020
5247 Clouds 15 1017 58 10000 7.2 340 11:36 08.04.2020
5248 Clouds 16 1016 55 10000 6.7 340 11:18 08.04.2020
5249 Clouds 17 1016 55 10000 6.7 340 10:41 08.04.2020
5250 Clouds 17 1016 55 10000 6.7 340 10:22 08.04.2020
5251 Clouds 18 1016 48 10000 6.2 340 09:59 08.04.2020
5252 Clouds 18 1016 48 10000 6.2 340 09:41 08.04.2020
5253 Clear 18 1016 48 10000 6.2 340 09:19 08.04.2020
5254 Clouds 19 1016 39 10000 5.7 330 08:58 08.04.2020
5255 Clouds 19 1016 39 10000 5.7 330 08:40 08.04.2020
5256 Clouds 19 1016 39 10000 5.7 330 08:21 08.04.2020
5257 Clear 19 1016 45 10000 7.2 340 07:43 08.04.2020
5258 Clear 19 1016 45 10000 7.2 340 07:22 08.04.2020
5259 Clear 18 1016 48 8000 3.6 340 06:32 08.04.2020
5260 Clear 17 1017 63 10000 2.6 20 04:59 08.04.2020
5261 Clouds 14 1017 71 10000 1 0 02:51 08.04.2020
5262 Clouds 13 1017 71 10000 1 0 02:22 08.04.2020
5263 Clouds 11 1016 87 10000 0.5 0 01:56 08.04.2020
5264 Clouds 11 1016 87 10000 0.5 0 01:28 08.04.2020
5265 Clouds 10 1016 87 10000 0.5 0 00:47 08.04.2020
5266 Clouds 10 1016 87 10000 0.5 0 00:26 08.04.2020
5267 Clear 8 1016 93 10000 1 0 23:57 07.04.2020
5268 Clear 9 1015 93 0 3.17 326 23:37 07.04.2020
5269 Clear 12 1016 71 0 4.02 330 23:18 07.04.2020
5270 Clear 12 1016 71 0 4.02 330 22:55 07.04.2020
5271 Clear 12 1016 71 0 4.02 330 22:37 07.04.2020
5272 Clear 12 1016 71 0 4.02 330 22:18 07.04.2020
5273 Clear 12 1016 71 0 4.02 330 21:42 07.04.2020
5274 Clouds 12 1016 71 0 4.02 330 21:21 07.04.2020
5275 Clouds 12 1016 71 0 4.02 330 20:58 07.04.2020
5276 Clouds 12 1016 71 0 4.02 330 20:39 07.04.2020
5277 Clouds 12 1016 71 0 4.02 330 20:21 07.04.2020
5278 Clouds 12 1016 71 0 4.02 330 19:57 07.04.2020
5279 Clouds 12 1016 71 0 4.02 330 19:38 07.04.2020
5280 Clouds 12 1016 71 0 4.02 330 19:19 07.04.2020
5281 Clouds 12 1016 71 0 4.02 330 18:58 07.04.2020
5282 Clouds 12 1016 71 0 4.02 330 18:58 07.04.2020
5283 Clouds 12 1016 71 0 4.02 330 18:39 07.04.2020
5284 Clouds 12 1016 71 0 4.02 330 18:20 07.04.2020
5285 Clouds 12 1016 71 0 4.02 330 17:46 07.04.2020
5286 Clouds 11 1016 71 10000 3.1 290 17:24 07.04.2020
5287 Clouds 11 1016 71 10000 3.1 290 16:54 07.04.2020
5288 Clouds 11 1016 71 10000 3.1 290 16:36 07.04.2020
5289 Clouds 11 1016 71 10000 3.1 290 16:18 07.04.2020
5290 Clouds 12 1016 66 10000 3.6 280 15:42 07.04.2020
5291 Clouds 12 1016 71 10000 4.1 330 15:23 07.04.2020
5292 Clouds 12 1016 71 10000 4.1 330 15:23 07.04.2020
5293 Clouds 12 1016 71 10000 4.1 330 14:42 07.04.2020
5294 Clouds 12 1016 71 10000 4.1 330 14:23 07.04.2020
5295 Clouds 13 1015 66 10000 4.1 320 13:57 07.04.2020
5296 Clouds 13 1015 66 10000 4.1 320 13:39 07.04.2020
5297 Clouds 13 1015 66 10000 4.1 320 13:18 07.04.2020
5298 Clouds 14 1015 62 10000 5.7 320 12:55 07.04.2020
5299 Clouds 14 1015 62 10000 5.7 320 12:36 07.04.2020
5300 Clear 16 1014 42 10000 4.1 310 12:18 07.04.2020
5301 Clear 17 1014 42 10000 4.1 310 11:44 07.04.2020
5302 Clear 17 1014 42 10000 4.1 310 11:26 07.04.2020
5303 Clear 17 1014 42 10000 4.1 310 11:26 07.04.2020
5304 Clouds 17 1014 45 10000 4.6 320 10:59 07.04.2020
5305 Clouds 17 1014 45 10000 4.6 320 10:38 07.04.2020
5306 Clouds 17 1014 45 10000 4.6 320 10:19 07.04.2020
5307 Clouds 18 1014 45 10000 5.7 330 09:45 07.04.2020
5308 Clouds 18 1014 45 10000 5.7 330 09:19 07.04.2020
5309 Clouds 18 1014 42 10000 5.7 330 08:56 07.04.2020
5310 Clouds 18 1014 42 10000 5.7 330 08:38 07.04.2020
5311 Clouds 18 1014 45 10000 4.1 340 08:18 07.04.2020
5312 Clouds 18 1014 45 10000 4.1 340 07:40 07.04.2020
5313 Clouds 18 1014 45 10000 4.1 340 07:21 07.04.2020
5314 Clouds 17 1015 48 10000 3.1 10 06:51 07.04.2020
5315 Clouds 17 1015 48 10000 3.1 10 06:23 07.04.2020
5316 Clouds 17 1016 51 10000 2.1 0 05:40 07.04.2020
5317 Clouds 16 1016 48 10000 1.5 0 04:56 07.04.2020
5318 Clouds 15 1016 55 10000 3.6 90 03:31 07.04.2020
5319 Clouds 13 1016 58 10000 3.1 140 02:59 07.04.2020
5320 Clouds 11 1016 71 10000 3.1 140 01:50 07.04.2020
5321 Clouds 11 1016 71 10000 3.1 140 01:26 07.04.2020
5322 Clouds 9 1016 81 10000 2.6 140 00:29 07.04.2020
5323 Clouds 9 1017 71 10000 0.5 0 23:56 06.04.2020
5324 Clouds 10 1016 71 0 1.77 306 23:36 06.04.2020
5325 Clouds 12 1016 48 0 1.77 306 23:18 06.04.2020
5326 Clouds 12 1016 48 0 1.77 306 22:39 06.04.2020
5327 Clouds 12 1016 48 0 1.77 306 22:21 06.04.2020
5328 Clouds 12 1016 48 0 1.77 306 21:57 06.04.2020
5329 Clouds 12 1017 51 0 2.32 321 21:39 06.04.2020
5330 Clouds 12 1017 47 0 1.65 325 21:19 06.04.2020
5331 Clouds 12 1017 47 0 1.65 325 21:18 06.04.2020
5332 Clouds 12 1017 47 0 1.65 325 20:55 06.04.2020
5333 Clouds 12 1017 47 0 1.65 325 20:37 06.04.2020
5334 Clouds 12 1017 47 0 1.65 325 20:18 06.04.2020
5335 Clouds 12 1017 47 0 1.65 325 19:41 06.04.2020
5336 Clouds 12 1017 47 0 1.65 325 19:22 06.04.2020
5337 Clouds 12 1017 47 0 1.65 325 18:57 06.04.2020
5338 Clouds 12 1017 47 0 1.65 325 18:39 06.04.2020
5339 Clouds 12 1019 48 0 1.86 348 18:20 06.04.2020
5340 Clouds 12 1019 48 0 1.86 348 17:42 06.04.2020
5341 Clouds 9 1018 66 10000 2.1 330 17:20 06.04.2020
5342 Clouds 9 1018 66 10000 2.1 330 16:50 06.04.2020
5343 Clouds 9 1018 66 10000 2.1 330 16:31 06.04.2020
5344 Clouds 10 1018 61 10000 2.6 290 15:41 06.04.2020
5345 Clouds 13 1018 41 10000 2.1 270 13:46 06.04.2020
5346 Clouds 13 1018 41 10000 2.1 270 13:24 06.04.2020
5347 Clouds 13 1017 41 10000 1 0 13:02 06.04.2020
5348 Clouds 13 1017 41 10000 1 0 13:02 06.04.2020
5349 Clouds 13 1017 41 10000 1 0 13:02 06.04.2020
5350 Clouds 13 1017 41 10000 1 0 13:02 06.04.2020
5351 Clouds 13 1017 41 10000 1 0 12:22 06.04.2020
5352 Clouds 13 1017 41 10000 1 0 12:22 06.04.2020
5353 Clouds 15 1017 47 10000 2.1 290 11:54 06.04.2020
5354 Clouds 15 1017 47 10000 2.1 290 11:54 06.04.2020
5355 Clouds 15 1017 47 10000 2.1 290 11:33 06.04.2020
5356 Clouds 15 1017 47 10000 2.1 290 11:33 06.04.2020
5357 Clouds 15 1017 47 10000 2.1 290 11:33 06.04.2020
5358 Clouds 15 1017 47 10000 2.1 290 11:33 06.04.2020
5359 Clouds 15 1017 47 10000 2.1 290 11:33 06.04.2020
5360 Clouds 16 1017 44 10000 3.1 270 10:51 06.04.2020
5361 Clouds 16 1017 44 10000 3.1 270 10:51 06.04.2020
5362 Clouds 16 1017 44 10000 3.1 270 10:51 06.04.2020
5363 Clouds 16 1017 44 10000 3.1 270 10:51 06.04.2020
5364 Clouds 16 1017 44 10000 3.1 270 10:51 06.04.2020
5365 Clouds 16 1017 44 10000 3.1 270 10:21 06.04.2020
5366 Clouds 16 1017 48 10000 5.7 260 09:47 06.04.2020
5367 Clouds 16 1017 48 10000 5.7 260 09:47 06.04.2020
5368 Clouds 16 1017 48 10000 5.7 260 09:47 06.04.2020
5369 Clouds 16 1017 48 10000 5.7 260 09:47 06.04.2020
5370 Clouds 16 1017 48 10000 5.7 260 09:47 06.04.2020
5371 Clouds 16 1017 48 10000 5.7 260 09:21 06.04.2020
5372 Clouds 16 1017 48 10000 5.7 260 09:21 06.04.2020
5373 Clouds 18 1018 27 10000 3.1 260 08:54 06.04.2020
5374 Clouds 18 1018 27 10000 3.1 260 08:30 06.04.2020
5375 Clouds 17 1019 16 10000 3.6 270 07:30 06.04.2020
5376 Clouds 17 1019 16 10000 3.6 270 07:30 06.04.2020
5377 Clouds 17 1019 16 10000 3.6 270 07:30 06.04.2020
5378 Clouds 16 1019 26 10000 3.6 350 06:41 06.04.2020
5379 Clouds 16 1019 26 10000 3.6 350 06:22 06.04.2020
5380 Clear 14 1021 35 10000 1.5 160 04:18 06.04.2020
5381 Clear 11 1021 50 10000 3.1 150 02:56 06.04.2020
5382 Clear 11 1021 50 10000 3.1 150 02:18 06.04.2020
5383 Clear 8 1021 66 10000 3.1 130 01:23 06.04.2020
5384 Clear 6 1021 81 10000 1.5 120 00:41 06.04.2020
5385 Clear 6 1021 81 10000 1.5 120 00:21 06.04.2020
5386 Clear 6 1021 81 10000 1.5 120 00:21 06.04.2020
5387 Clear 6 1021 81 10000 1.5 120 00:21 06.04.2020
5388 Clear 6 1021 81 10000 1.5 120 00:21 06.04.2020
5389 Clear 4 1021 86 10000 0.5 0 23:43 05.04.2020
5390 Clear 5 1021 86 0 3.83 34 23:23 05.04.2020
5391 Clear 5 1021 86 0 3.83 34 23:23 05.04.2020
5392 Clear 5 1021 86 0 3.83 34 23:23 05.04.2020
5393 Clear 9 1021 51 0 3.83 34 22:55 05.04.2020
5394 Clear 9 1021 51 0 3.83 34 22:55 05.04.2020
5395 Clear 9 1021 51 0 3.83 34 22:36 05.04.2020
5396 Clear 9 1021 51 0 3.83 34 22:18 05.04.2020
5397 Clear 9 1021 51 0 3.83 34 21:44 05.04.2020
5398 Clear 9 1021 51 0 3.83 34 21:44 05.04.2020
5399 Clear 9 1021 51 0 3.83 34 21:44 05.04.2020
5400 Clear 9 1021 51 0 3.83 34 21:23 05.04.2020
5401 Clouds 9 1021 51 0 3.67 34 20:25 05.04.2020
5402 Clouds 9 1021 51 0 3.67 34 20:25 05.04.2020
5403 Clouds 9 1021 51 0 3.67 34 20:25 05.04.2020
5404 Clouds 9 1021 51 0 3.67 34 19:44 05.04.2020
5405 Clouds 9 1021 51 0 3.67 34 19:25 05.04.2020
5406 Clouds 9 1021 51 0 3.67 34 18:50 05.04.2020
5407 Clouds 9 1021 51 0 3.67 34 18:50 05.04.2020
5408 Clouds 9 1021 51 0 3.67 34 18:50 05.04.2020
5409 Clouds 9 1021 51 0 3.67 34 18:50 05.04.2020
5410 Clouds 9 1021 51 0 3.67 34 18:27 05.04.2020
5411 Clouds 9 1021 51 0 3.67 34 18:27 05.04.2020
5412 Clouds 9 1021 51 0 3.67 34 18:27 05.04.2020
5413 Clouds 9 1021 51 0 3.67 34 18:27 05.04.2020
5414 Clouds 9 1021 51 0 3.67 34 18:27 05.04.2020
5415 Clouds 10 1022 50 0 4.42 21 17:49 05.04.2020
5416 Clouds 10 1022 50 0 4.42 21 17:49 05.04.2020
5417 Clouds 10 1022 50 0 4.42 21 17:49 05.04.2020
5418 Clouds 10 1022 50 0 4.42 21 17:49 05.04.2020
5419 Clouds 10 1022 50 0 4.42 21 17:49 05.04.2020
5420 Clouds 8 1021 61 10000 2.1 10 17:22 05.04.2020
5421 Clouds 8 1021 61 10000 2.1 10 16:47 05.04.2020
5422 Clouds 8 1021 61 10000 2.1 10 16:19 05.04.2020
5423 Clouds 6 1021 81 10000 1 360 15:46 05.04.2020
5424 Clouds 8 1020 50 10000 5.7 350 15:28 05.04.2020
5425 Clouds 8 1020 50 10000 5.7 350 15:28 05.04.2020
5426 Clouds 9 1020 53 10000 5.7 350 14:48 05.04.2020
5427 Clouds 9 1020 53 10000 5.7 350 14:48 05.04.2020
5428 Clouds 9 1020 53 10000 5.7 350 14:48 05.04.2020
5429 Clouds 9 1020 53 10000 5.7 350 14:48 05.04.2020
5430 Clouds 9 1020 53 10000 5.7 350 14:48 05.04.2020
5431 Clouds 9 1020 53 10000 6.2 10 13:59 05.04.2020
5432 Clouds 9 1020 53 10000 6.2 10 13:40 05.04.2020
5433 Clouds 9 1020 53 10000 6.2 10 13:40 05.04.2020
5434 Clouds 9 1020 53 10000 6.2 10 13:40 05.04.2020
5435 Clouds 9 1020 53 10000 6.2 10 13:40 05.04.2020
5436 Clouds 9 1020 53 10000 6.2 10 13:40 05.04.2020
5437 Clouds 10 1019 53 10000 7.2 360 12:21 05.04.2020
5438 Clouds 13 1018 43 10000 7.2 340 11:40 05.04.2020
5439 Clouds 13 1018 43 10000 7.2 340 11:20 05.04.2020
5440 Clouds 14 1018 41 10000 7.2 330 10:47 05.04.2020
5441 Clouds 14 1018 41 10000 7.2 330 10:23 05.04.2020
5442 Clouds 15 1018 33 10000 7.2 330 09:55 05.04.2020
5443 Clouds 15 1018 33 10000 7.2 330 09:27 05.04.2020
5444 Clouds 15 1018 38 10000 7.7 340 08:32 05.04.2020
5445 Clouds 16 1018 36 10000 6.7 340 07:19 05.04.2020
5446 Clouds 16 1018 36 10000 6.7 340 07:19 05.04.2020
5447 Clouds 15 1020 38 10000 6.2 340 04:31 05.04.2020
5448 Clouds 14 1020 44 10000 5.1 360 03:28 05.04.2020
5449 Clouds 13 1020 47 10000 7.2 360 02:27 05.04.2020
5450 Clouds 12 1019 62 10000 5.7 360 01:44 05.04.2020
5451 Clouds 12 1019 62 10000 5.7 360 01:22 05.04.2020
5452 Clouds 11 1018 66 10000 6.7 360 00:37 05.04.2020
5453 Clouds 11 1018 66 10000 6.7 360 00:18 05.04.2020
5454 Clouds 11 1018 71 10000 6.2 10 23:41 04.04.2020
5455 Clouds 11 1018 71 10000 6.2 10 23:22 04.04.2020
5456 Clouds 11 1019 73 0 5.49 9 22:57 04.04.2020
5457 Clouds 11 1019 73 0 5.49 9 22:57 04.04.2020
5458 Clouds 11 1019 73 0 5.49 9 22:39 04.04.2020
5459 Clouds 11 1019 73 0 5.49 9 22:20 04.04.2020
5460 Clouds 11 1019 73 0 5.49 9 21:57 04.04.2020
5461 Clouds 11 1019 73 0 5.49 9 21:39 04.04.2020
5462 Clouds 11 1017 75 0 4.96 354 21:19 04.04.2020
5463 Clouds 11 1017 75 0 6.66 354 20:55 04.04.2020
5464 Clouds 11 1017 75 0 6.66 354 20:36 04.04.2020
5465 Clouds 11 1017 75 0 6.66 354 20:18 04.04.2020
5466 Clouds 11 1017 75 0 6.66 354 19:42 04.04.2020
5467 Clouds 11 1017 75 0 6.66 354 19:21 04.04.2020
5468 Clouds 11 1017 75 0 6.66 354 18:59 04.04.2020
5469 Clouds 11 1017 75 0 6.66 354 18:40 04.04.2020
5470 Clouds 11 1017 75 0 6.66 354 18:21 04.04.2020
5471 Clouds 11 1017 75 0 6.66 354 18:21 04.04.2020
5472 Clouds 12 1018 60 0 6.23 315 17:59 04.04.2020
5473 Clouds 12 1018 60 0 6.23 315 17:39 04.04.2020
5474 Clouds 12 1018 60 0 6.23 315 17:39 04.04.2020
5475 Clouds 12 1016 81 10000 2.1 280 17:19 04.04.2020
5476 Clouds 12 1016 81 10000 2.1 280 16:45 04.04.2020
5477 Clouds 12 1016 81 10000 2.1 280 16:27 04.04.2020
5478 Clouds 13 1017 76 10000 1.5 30 15:59 04.04.2020
5479 Clouds 13 1017 76 10000 1.5 30 15:39 04.04.2020
5480 Clouds 14 1017 58 10000 2.6 280 15:20 04.04.2020
5481 Clouds 15 1017 58 10000 2.6 280 14:56 04.04.2020
5482 Clouds 15 1017 58 10000 2.6 280 14:37 04.04.2020
5483 Clouds 15 1017 58 10000 2.6 280 14:18 04.04.2020
5484 Clouds 15 1017 54 10000 1.5 260 13:42 04.04.2020
5485 Clouds 15 1017 54 10000 1.5 260 13:22 04.04.2020
5486 Clouds 13 1016 66 10000 2.6 310 12:58 04.04.2020
5487 Clouds 13 1016 66 10000 2.6 310 12:40 04.04.2020
5488 Clouds 14 1016 66 10000 2.6 310 12:21 04.04.2020
5489 Clouds 15 1016 51 10000 5.1 300 11:42 04.04.2020
5490 Clouds 15 1016 51 10000 5.1 300 11:23 04.04.2020
5491 Clouds 17 1016 36 10000 5.1 330 10:59 04.04.2020
5492 Clouds 17 1016 36 10000 5.1 330 10:41 04.04.2020
5493 Clouds 17 1016 36 10000 5.1 330 10:23 04.04.2020
5494 Clouds 17 1016 31 10000 7.2 310 09:57 04.04.2020
5495 Clouds 18 1016 31 10000 7.2 310 09:39 04.04.2020
5496 Clouds 18 1016 31 10000 7.2 310 09:21 04.04.2020
5497 Clouds 18 1016 34 10000 6.7 310 08:45 04.04.2020
5498 Clouds 18 1016 34 10000 6.7 310 08:25 04.04.2020
5499 Clouds 19 1017 45 10000 7.2 310 07:59 04.04.2020
5500 Clouds 19 1017 45 10000 7.2 310 07:40 04.04.2020
5501 Clouds 19 1017 45 10000 7.2 310 07:21 04.04.2020
5502 Clouds 18 1018 39 10000 5.1 310 06:40 04.04.2020
5503 Clouds 17 1018 42 10000 5.1 300 05:52 04.04.2020
5504 Clouds 17 1018 42 10000 5.1 300 05:52 04.04.2020
5505 Clouds 17 1018 42 10000 5.1 300 05:33 04.04.2020
5506 Clouds 15 1019 59 10000 3.1 350 04:34 04.04.2020
5507 Clouds 15 1019 58 10000 1 0 03:57 04.04.2020
5508 Clouds 15 1019 58 10000 1 0 03:37 04.04.2020
5509 Clouds 13 1019 82 10000 2.1 350 02:48 04.04.2020
5510 Clouds 13 1019 82 10000 2.1 350 02:29 04.04.2020
5511 Clouds 10 1019 87 10000 1 0 01:46 04.04.2020
5512 Clouds 10 1019 87 10000 1 0 01:20 04.04.2020
5513 Clouds 9 1018 93 10000 2.1 130 00:43 04.04.2020
5514 Clouds 9 1018 93 10000 2.1 130 00:23 04.04.2020
5515 Clouds 7 1019 87 10000 0.5 0 23:38 03.04.2020
5516 Clouds 8 1018 87 0 2.61 329 23:19 03.04.2020
5517 Clouds 12 1019 59 0 2.61 329 22:41 03.04.2020
5518 Clouds 12 1019 59 0 2.61 329 22:20 03.04.2020
5519 Clouds 12 1019 59 0 2.61 329 21:59 03.04.2020
5520 Clouds 12 1019 59 0 2.61 329 21:40 03.04.2020
5521 Clouds 12 1019 62 0 3 327 21:21 03.04.2020
5522 Clouds 12 1019 58 0 2.66 307 20:56 03.04.2020
5523 Clouds 12 1019 58 0 2.66 307 20:36 03.04.2020
5524 Clouds 12 1019 58 0 2.66 307 20:36 03.04.2020
5525 Clouds 12 1019 58 0 2.66 307 20:18 03.04.2020
5526 Clouds 12 1019 58 0 2.66 307 19:55 03.04.2020
5527 Clouds 12 1019 58 0 2.66 307 19:36 03.04.2020
5528 Clouds 12 1019 58 0 2.66 307 19:18 03.04.2020
5529 Clouds 12 1019 58 0 2.66 307 18:57 03.04.2020
5530 Clouds 12 1019 58 0 2.66 307 18:39 03.04.2020
5531 Clouds 12 1019 58 0 2.66 307 18:21 03.04.2020
5532 Clouds 13 1020 58 0 2.49 314 17:41 03.04.2020
5533 Clouds 10 1019 81 10000 2.1 310 17:20 03.04.2020
5534 Clouds 10 1019 81 10000 2.1 310 16:55 03.04.2020
5535 Clouds 10 1019 81 10000 2.1 310 16:36 03.04.2020
5536 Clouds 10 1019 81 10000 2.1 310 16:36 03.04.2020
5537 Clouds 10 1019 81 10000 2.1 310 16:18 03.04.2020
5538 Clouds 10 1019 87 10000 2.6 320 15:55 03.04.2020
5539 Clouds 10 1019 87 10000 2.6 320 15:36 03.04.2020
5540 Clouds 13 1020 71 10000 0.5 0 15:18 03.04.2020
5541 Clouds 13 1019 66 0 1.34 290 14:40 03.04.2020
5542 Clouds 13 1019 66 10000 1.5 290 14:22 03.04.2020
5543 Clouds 13 1019 66 10000 1.5 290 13:46 03.04.2020
5544 Clouds 13 1019 66 10000 1.5 290 13:27 03.04.2020
5545 Clouds 15 1019 51 10000 1.5 0 12:58 03.04.2020
5546 Clouds 15 1019 51 10000 1.5 0 12:40 03.04.2020
5547 Clouds 15 1019 51 10000 1.5 0 12:18 03.04.2020
5548 Clouds 17 1018 27 10000 1 0 11:55 03.04.2020
5549 Clouds 17 1018 27 10000 1 0 11:37 03.04.2020
5550 Clouds 17 1018 27 10000 1 0 11:18 03.04.2020
5551 Clouds 17 1018 33 10000 1.5 0 10:56 03.04.2020
5552 Clouds 17 1018 33 10000 1.5 0 10:37 03.04.2020
5553 Clouds 17 1018 33 10000 1.5 0 10:19 03.04.2020
5554 Clouds 17 1018 42 10000 2.6 290 09:55 03.04.2020
5555 Clouds 17 1018 42 10000 2.6 290 09:37 03.04.2020
5556 Clouds 17 1018 42 10000 2.6 290 09:19 03.04.2020
5557 Clouds 17 1018 36 10000 2.1 260 08:44 03.04.2020
5558 Clouds 17 1018 36 10000 2.1 260 08:23 03.04.2020
5559 Clouds 17 1019 48 10000 1 0 07:51 03.04.2020
5560 Clouds 17 1019 48 10000 1 0 07:33 03.04.2020
5561 Clouds 16 1020 55 10000 3.1 360 06:57 03.04.2020
5562 Clouds 16 1020 55 10000 3.1 360 06:27 03.04.2020
5563 Clouds 15 1021 55 10000 1.5 150 05:42 03.04.2020
5564 Clouds 13 1022 66 10000 1.5 170 03:52 03.04.2020
5565 Clouds 13 1022 66 10000 1.5 170 03:31 03.04.2020
5566 Clouds 12 1022 76 10000 1 0 02:30 03.04.2020
5567 Clouds 10 1021 76 10000 1 0 01:24 03.04.2020
5568 Clouds 10 1021 87 10000 0.5 0 00:43 03.04.2020
5569 Clouds 10 1021 87 10000 0.5 0 00:23 03.04.2020
5570 Clouds 10 1021 87 10000 2.6 150 23:43 02.04.2020
5571 Clouds 12 1021 52 0 2.07 43 23:24 02.04.2020
5572 Clouds 12 1021 52 0 2.07 43 23:24 02.04.2020
5573 Clouds 12 1021 52 0 2.07 43 22:59 02.04.2020
5574 Clouds 12 1021 52 0 2.07 43 22:41 02.04.2020
5575 Clouds 12 1021 52 0 2.07 43 22:21 02.04.2020
5576 Clouds 12 1021 52 0 2.07 43 21:57 02.04.2020
5577 Clouds 12 1021 52 0 2.07 43 21:36 02.04.2020
5578 Clouds 12 1021 49 0 0.62 35 21:18 02.04.2020
5579 Clouds 12 1022 50 0 1.57 42 20:44 02.04.2020
5580 Clouds 12 1022 50 0 1.57 42 20:23 02.04.2020
5581 Clouds 12 1022 50 0 1.57 42 19:55 02.04.2020
5582 Clouds 12 1022 50 0 1.57 42 19:37 02.04.2020
5583 Clouds 12 1022 50 0 1.57 42 19:19 02.04.2020
5584 Clouds 12 1022 50 0 1.57 42 18:42 02.04.2020
5585 Clouds 12 1022 50 0 1.57 42 18:21 02.04.2020
5586 Clouds 12 1022 52 0 1.89 50 17:57 02.04.2020
5587 Clouds 12 1022 52 0 1.89 50 17:39 02.04.2020
5588 Clouds 9 1021 76 10000 2.1 310 17:20 02.04.2020
5589 Clouds 9 1021 76 10000 2.1 310 16:57 02.04.2020
5590 Clouds 9 1021 76 10000 2.1 310 16:39 02.04.2020
5591 Clouds 9 1021 76 10000 2.1 310 16:21 02.04.2020
5592 Clouds 8 1021 81 10000 1.5 320 15:55 02.04.2020
5593 Clouds 8 1021 81 10000 1.5 320 15:37 02.04.2020
5594 Clear 11 1020 62 10000 3.6 350 15:18 02.04.2020
5595 Clear 11 1020 62 10000 3.6 350 14:40 02.04.2020
5596 Clear 11 1020 62 10000 3.6 350 14:21 02.04.2020
5597 Clear 12 1020 58 10000 6.2 360 13:59 02.04.2020
5598 Clear 12 1020 58 10000 6.2 360 13:39 02.04.2020
5599 Clear 12 1020 58 10000 6.2 360 13:21 02.04.2020
5600 Clear 13 1019 58 10000 6.7 350 12:57 02.04.2020
5601 Clear 13 1019 58 10000 6.7 350 12:57 02.04.2020
5602 Clear 13 1019 58 10000 6.7 350 12:38 02.04.2020
5603 Clear 13 1019 58 10000 6.7 350 12:19 02.04.2020
5604 Clear 13 1019 58 10000 6.7 350 12:19 02.04.2020
5605 Clear 15 1019 54 10000 6.7 330 11:57 02.04.2020
5606 Clear 15 1019 54 10000 6.7 330 11:57 02.04.2020
5607 Clear 15 1019 54 10000 6.7 330 11:38 02.04.2020
5608 Clear 15 1019 54 10000 6.7 330 11:19 02.04.2020
5609 Clear 16 1018 51 10000 4.1 300 10:55 02.04.2020
5610 Clear 16 1018 51 10000 4.1 300 10:37 02.04.2020
5611 Clear 16 1018 51 10000 4.1 300 10:37 02.04.2020
5612 Clear 16 1018 51 10000 4.1 300 10:19 02.04.2020
5613 Clear 17 1019 45 10000 5.1 310 09:43 02.04.2020
5614 Clear 17 1019 45 10000 5.1 310 09:25 02.04.2020
5615 Clear 17 1019 45 10000 5.7 310 08:59 02.04.2020
5616 Clear 17 1019 45 10000 5.7 310 08:41 02.04.2020
5617 Clear 17 1019 45 10000 5.7 310 08:22 02.04.2020
5618 Clear 17 1019 42 10000 6.2 310 07:45 02.04.2020
5619 Clear 17 1019 42 10000 6.2 310 07:20 02.04.2020
5620 Clouds 17 1020 45 10000 5.7 310 06:58 02.04.2020
5621 Clouds 17 1020 45 10000 5.7 310 06:21 02.04.2020
5622 Clouds 17 1021 48 10000 5.7 330 05:45 02.04.2020
5623 Clouds 15 1021 48 10000 4.6 330 04:33 02.04.2020
5624 Clouds 12 1019 71 10000 3.1 350 01:35 02.04.2020
5625 Clouds 10 1018 76 10000 5.7 360 00:48 02.04.2020
5626 Clouds 10 1018 76 10000 5.7 360 00:26 02.04.2020
5627 Clouds 10 1018 81 10000 5.7 350 23:54 01.04.2020
5628 Clouds 10 1018 81 10000 5.7 350 23:36 01.04.2020
5629 Clouds 10 1018 81 10000 5.7 350 23:18 01.04.2020
5630 Clouds 9 1015 81 0 6.86 14 22:40 01.04.2020
5631 Clouds 9 1015 81 0 6.86 14 22:21 01.04.2020
5632 Clouds 9 1015 81 0 6.86 14 21:55 01.04.2020
5633 Clouds 9 1015 81 0 6.86 14 21:36 01.04.2020
5634 Clear 9 1015 81 0 6.41 320 21:18 01.04.2020
5635 Clear 9 1015 81 0 6.41 320 20:54 01.04.2020
5636 Clear 9 1015 81 0 6.41 320 20:36 01.04.2020
5637 Clear 9 1015 81 0 6.41 320 20:18 01.04.2020
5638 Clear 9 1015 81 0 6.41 320 19:41 01.04.2020
5639 Clear 9 1015 81 0 6.41 320 19:21 01.04.2020
5640 Clear 9 1015 81 0 6.41 320 18:46 01.04.2020
5641 Clear 9 1015 81 0 6.41 320 18:46 01.04.2020
5642 Clear 9 1015 81 0 6.41 320 18:26 01.04.2020
5643 Clear 9 1015 81 0 5.67 312 17:59 01.04.2020
5644 Clear 9 1015 81 0 5.67 312 17:39 01.04.2020
5645 Clear 9 1014 93 10000 1 0 17:20 01.04.2020
5646 Clear 9 1014 93 10000 1 0 16:59 01.04.2020
5647 Clear 9 1014 93 10000 1 0 16:40 01.04.2020
5648 Clear 9 1014 93 10000 1 0 16:22 01.04.2020
5649 Clear 9 1014 93 10000 0.5 0 15:58 01.04.2020
5650 Clear 9 1014 93 10000 0.5 0 15:38 01.04.2020
5651 Clouds 9 1015 81 10000 3.95 328 15:20 01.04.2020
5652 Clouds 9 1015 81 10000 3.95 328 14:56 01.04.2020
5653 Clouds 9 1015 81 10000 3.95 328 14:38 01.04.2020
5654 Clouds 9 1015 81 10000 3.95 328 14:19 01.04.2020
5655 Clouds 11 1014 81 10000 1.5 50 13:57 01.04.2020
5656 Clouds 11 1014 81 10000 1.5 50 13:37 01.04.2020
5657 Clouds 11 1014 81 10000 1.5 50 13:18 01.04.2020
5658 Clouds 11 1013 76 10000 2.1 360 12:54 01.04.2020
5659 Clouds 11 1013 76 10000 2.1 360 12:36 01.04.2020
5660 Clouds 11 1013 76 10000 2.1 360 12:18 01.04.2020
5661 Clouds 13 1012 71 10000 5.1 340 11:40 01.04.2020
5662 Clouds 13 1012 71 10000 5.1 340 11:21 01.04.2020
5663 Clouds 13 1011 71 10000 8.7 360 10:56 01.04.2020
5664 Clouds 13 1011 71 10000 8.7 360 10:37 01.04.2020
5665 Clouds 13 1011 71 10000 8.7 360 10:18 01.04.2020
5666 Clouds 13 1011 76 10000 9.8 350 09:40 01.04.2020
5667 Clouds 13 1011 76 10000 9.8 350 09:22 01.04.2020
5668 Clouds 12 1010 87 10000 9.8 340 08:59 01.04.2020
5669 Clouds 12 1010 87 10000 9.8 340 08:40 01.04.2020
5670 Clouds 12 1010 87 10000 9.8 340 08:40 01.04.2020
5671 Clouds 12 1010 87 10000 9.8 340 08:18 01.04.2020
5672 Clouds 13 1009 82 10000 7.7 360 07:42 01.04.2020
5673 Clouds 12 1009 82 10000 7.7 360 07:20 01.04.2020
5674 Rain 12 1009 81 10000 8.2 360 06:47 01.04.2020
5675 Rain 12 1009 81 10000 8.2 360 06:22 01.04.2020
5676 Rain 12 1009 81 10000 10.3 340 05:53 01.04.2020
5677 Rain 12 1009 93 4500 9.3 340 04:30 01.04.2020
5678 Rain 12 1008 87 7000 9.8 360 03:28 01.04.2020
5679 Rain 13 1007 93 8000 11.8 340 02:49 01.04.2020
5680 Rain 14 1007 100 6000 4.1 340 01:54 01.04.2020
5681 Rain 14 1007 100 6000 4.1 340 01:29 01.04.2020
5682 Rain 14 1007 100 6000 5.7 320 00:58 01.04.2020
5683 Rain 14 1007 100 6000 5.7 320 00:40 01.04.2020
5684 Rain 14 1007 100 6000 4.6 320 00:18 01.04.2020
5685 Rain 14 1006 100 10000 4.6 320 23:41 31.03.2020
5686 Rain 14 1007 100 6000 1.5 300 23:22 31.03.2020
5687 Rain 14 1012 100 0 0.45 310 22:42 31.03.2020
5688 Rain 14 1012 100 0 0.45 310 22:23 31.03.2020
5689 Rain 14 1012 100 0 0.45 310 21:59 31.03.2020
5690 Rain 14 1012 100 0 0.45 310 21:59 31.03.2020
5691 Rain 14 1012 100 0 0.45 310 21:40 31.03.2020
5692 Rain 14 1012 100 0 0.45 310 21:22 31.03.2020
5693 Rain 14 1012 100 0 0.45 310 20:58 31.03.2020
5694 Rain 14 1012 100 0 0.45 310 20:38 31.03.2020
5695 Rain 14 1012 100 0 0.45 310 20:20 31.03.2020
5696 Rain 14 1012 100 0 0.45 310 19:58 31.03.2020
5697 Rain 14 1012 100 0 0.45 310 19:39 31.03.2020
5698 Rain 14 1012 100 0 0.45 310 19:21 31.03.2020
5699 Rain 14 1013 100 0 0.45 310 18:46 31.03.2020
5700 Rain 14 1012 100 0 0.45 310 18:21 31.03.2020
5701 Rain 14 1013 100 0 0.45 310 17:58 31.03.2020
5702 Rain 14 1013 100 0 0.45 310 17:40 31.03.2020
5703 Rain 14 1013 100 0 0.45 310 17:40 31.03.2020
5704 Clouds 14 1012 100 10000 1 340 17:21 31.03.2020
5705 Clouds 14 1012 100 10000 1 340 17:21 31.03.2020
5706 Clouds 14 1012 100 10000 1 340 16:57 31.03.2020
5707 Clouds 14 1012 100 10000 1 340 16:37 31.03.2020
5708 Clouds 14 1012 100 10000 1 340 16:18 31.03.2020
5709 Clouds 14 1013 100 7000 0.5 310 15:56 31.03.2020
5710 Clouds 14 1013 100 7000 0.5 310 15:37 31.03.2020
5711 Clouds 14 1013 100 7000 0.5 310 15:18 31.03.2020
5712 Rain 14 1012 100 7000 1 330 14:43 31.03.2020
5713 Rain 14 1012 100 7000 1 330 14:24 31.03.2020
5714 Rain 14 1013 93 7000 1 310 13:59 31.03.2020
5715 Rain 14 1013 93 7000 1 310 13:41 31.03.2020
5716 Rain 15 1012 93 8000 0.5 0 13:19 31.03.2020
5717 Rain 15 1012 87 10000 0.5 300 12:46 31.03.2020
5718 Rain 15 1012 87 10000 0.5 300 12:21 31.03.2020
5719 Rain 15 1012 87 10000 1 150 11:59 31.03.2020
5720 Rain 15 1012 87 10000 1 150 11:38 31.03.2020
5721 Rain 15 1012 87 10000 1 150 11:19 31.03.2020
5722 Rain 16 1012 82 10000 0.5 0 10:55 31.03.2020
5723 Rain 16 1012 82 10000 0.5 0 10:55 31.03.2020
5724 Rain 16 1012 82 10000 0.5 0 10:37 31.03.2020
5725 Rain 16 1012 82 10000 0.5 0 10:19 31.03.2020
5726 Rain 16 1012 82 10000 1 0 09:44 31.03.2020
5727 Rain 16 1012 82 10000 1 0 09:25 31.03.2020
5728 Clouds 16 1013 77 10000 1 0 08:59 31.03.2020
5729 Clouds 16 1013 77 10000 1 0 08:40 31.03.2020
5730 Clouds 16 1013 77 10000 1 0 08:20 31.03.2020
5731 Rain 16 1013 77 10000 1 0 07:57 31.03.2020
5732 Rain 16 1013 77 10000 1 0 07:38 31.03.2020
5733 Rain 16 1013 77 10000 1 0 07:20 31.03.2020
5734 Clouds 16 1014 77 10000 0.5 0 06:53 31.03.2020
5735 Clouds 16 1014 77 10000 0.5 0 06:35 31.03.2020
5736 Clouds 16 1015 77 10000 2.6 150 05:41 31.03.2020
5737 Clouds 15 1015 82 10000 1.5 220 04:33 31.03.2020
5738 Clouds 13 1016 87 10000 1.5 110 02:30 31.03.2020
5739 Clouds 13 1015 87 10000 2.1 140 01:46 31.03.2020
5740 Clouds 12 1015 93 10000 2.6 150 00:52 31.03.2020
5741 Clouds 12 1015 93 10000 2.6 150 00:25 31.03.2020
5742 Clouds 11 1016 100 10000 0.5 0 23:59 30.03.2020
5743 Clouds 11 1016 100 10000 0.5 0 23:38 30.03.2020
5744 Clouds 11 1016 100 10000 0.5 0 23:19 30.03.2020
5745 Rain 12 1016 87 0 2.24 130 22:56 30.03.2020
5746 Rain 12 1016 87 0 2.24 130 22:37 30.03.2020
5747 Rain 12 1017 87 0 2.24 130 22:18 30.03.2020
5748 Rain 12 1017 87 0 2.24 130 21:55 30.03.2020
5749 Rain 12 1017 87 0 2.24 130 21:37 30.03.2020
5750 Rain 12 1017 87 0 2.24 130 21:18 30.03.2020
5751 Rain 12 1017 87 0 2.24 130 20:42 30.03.2020
5752 Rain 12 1017 87 0 2.24 130 20:24 30.03.2020
5753 Rain 12 1017 87 0 2.24 130 20:24 30.03.2020
5754 Rain 12 1017 87 0 2.24 130 19:59 30.03.2020
5755 Rain 12 1017 87 0 2.24 130 19:40 30.03.2020
5756 Rain 12 1017 87 0 2.24 130 19:21 30.03.2020
5757 Rain 12 1017 87 0 2.24 130 18:57 30.03.2020
5758 Rain 12 1017 87 0 2.24 130 18:38 30.03.2020
5759 Rain 12 1017 87 0 2.24 130 18:20 30.03.2020
5760 Rain 12 1017 87 0 2.24 130 17:57 30.03.2020
5761 Rain 12 1017 87 0 2.24 130 17:38 30.03.2020
5762 Clouds 12 1018 81 10000 3.1 40 17:18 30.03.2020
5763 Clouds 12 1018 81 10000 3.1 40 16:55 30.03.2020
5764 Clouds 12 1018 81 10000 3.1 40 16:36 30.03.2020
5765 Clouds 12 1018 81 10000 3.1 40 16:18 30.03.2020
5766 Clouds 12 1018 81 10000 2.6 30 15:42 30.03.2020
5767 Clouds 12 1017 87 10000 2.6 130 15:22 30.03.2020
5768 Clouds 12 1017 87 10000 2.6 130 14:59 30.03.2020
5769 Clouds 12 1017 87 10000 2.6 130 14:39 30.03.2020
5770 Clouds 12 1017 87 10000 2.6 130 14:19 30.03.2020
5771 Clouds 12 1017 87 10000 2.6 130 14:19 30.03.2020
5772 Clouds 12 1017 93 10000 1.5 120 13:59 30.03.2020
5773 Clouds 12 1017 93 10000 1.5 120 13:40 30.03.2020
5774 Clouds 12 1017 93 10000 1.5 120 13:20 30.03.2020
5775 Rain 12 1017 87 10000 0.5 0 12:54 30.03.2020
5776 Rain 12 1017 87 10000 0.5 0 12:36 30.03.2020
5777 Rain 12 1017 87 10000 0.5 0 12:18 30.03.2020
5778 Rain 12 1016 87 10000 1 0 11:42 30.03.2020
5779 Rain 12 1016 87 10000 1 0 11:22 30.03.2020
5780 Rain 12 1016 87 10000 1 0 11:22 30.03.2020
5781 Rain 12 1016 87 10000 1 0 10:57 30.03.2020
5782 Rain 12 1016 87 10000 1 0 10:38 30.03.2020
5783 Rain 12 1016 87 10000 1 0 10:20 30.03.2020
5784 Rain 12 1017 87 10000 1.5 210 09:41 30.03.2020
5785 Rain 12 1017 87 10000 1.5 210 09:20 30.03.2020
5786 Rain 12 1017 87 10000 1 0 08:58 30.03.2020
5787 Rain 12 1017 87 10000 1 0 08:38 30.03.2020
5788 Rain 12 1017 87 10000 1 0 08:20 30.03.2020
5789 Rain 12 1017 87 10000 3.1 150 07:44 30.03.2020
5790 Rain 12 1017 87 10000 3.1 150 07:23 30.03.2020
5791 Rain 12 1018 87 10000 1.5 110 06:47 30.03.2020
5792 Rain 12 1018 87 10000 1.5 110 06:25 30.03.2020
5793 Rain 12 1018 81 10000 6.2 140 05:44 30.03.2020
5794 Rain 12 1019 76 10000 2.1 130 04:31 30.03.2020
5795 Rain 12 1019 71 10000 1.5 120 03:57 30.03.2020
5796 Rain 12 1018 71 10000 3.6 150 02:45 30.03.2020
5797 Rain 11 1018 71 10000 0.5 0 01:57 30.03.2020
5798 Clouds 11 1017 76 10000 1.5 200 00:59 30.03.2020
5799 Clouds 11 1017 76 10000 1.5 200 00:28 30.03.2020
5800 Clouds 11 1018 76 10000 2.6 340 23:56 29.03.2020
5801 Clouds 11 1018 76 10000 2.6 340 23:37 29.03.2020
5802 Clouds 10 1018 76 10000 4.6 20 23:19 29.03.2020
5803 Clouds 12 1018 70 0 3.48 48 22:40 29.03.2020
5804 Clouds 12 1017 66 0 5.36 360 22:20 29.03.2020
5805 Clouds 12 1017 66 0 5.36 360 21:59 29.03.2020
5806 Clouds 12 1017 66 0 5.36 360 21:38 29.03.2020
5807 Clouds 12 1017 66 0 5.36 360 21:20 29.03.2020
5808 Clouds 12 1017 66 0 5.36 360 20:55 29.03.2020
5809 Clouds 12 1017 66 0 5.36 360 20:37 29.03.2020
5810 Clouds 12 1017 66 0 5.36 360 20:19 29.03.2020
5811 Clouds 12 1017 66 0 5.36 360 19:56 29.03.2020
5812 Clouds 12 1017 66 0 5.36 360 19:38 29.03.2020
5813 Clouds 12 1017 66 0 5.36 360 19:38 29.03.2020
5814 Clouds 12 1017 66 0 5.36 360 19:19 29.03.2020
5815 Clouds 12 1017 66 0 5.36 360 18:57 29.03.2020
5816 Clouds 12 1017 66 0 5.36 360 18:38 29.03.2020
5817 Clouds 12 1017 66 0 5.36 360 18:18 29.03.2020
5818 Clouds 12 1017 66 0 5.36 360 17:55 29.03.2020
5819 Clouds 12 1017 66 0 5.36 360 17:36 29.03.2020
5820 Clouds 11 1018 71 10000 4.1 360 17:18 29.03.2020
5821 Clouds 11 1018 71 10000 4.1 360 16:55 29.03.2020
5822 Clouds 11 1018 71 10000 4.1 360 16:36 29.03.2020
5823 Clouds 11 1018 71 10000 4.1 360 16:36 29.03.2020
5824 Clouds 11 1018 71 10000 4.1 360 16:36 29.03.2020
5825 Clouds 11 1018 71 10000 4.1 360 16:18 29.03.2020
5826 Clouds 11 1018 71 10000 2.6 360 15:41 29.03.2020
5827 Clouds 12 1017 66 10000 5.7 360 15:22 29.03.2020
5828 Clouds 12 1017 66 10000 5.7 360 14:57 29.03.2020
5829 Clouds 12 1017 66 10000 5.7 360 14:38 29.03.2020
5830 Clouds 12 1017 66 10000 5.7 360 14:19 29.03.2020
5831 Clouds 12 1016 62 10000 8.7 360 13:56 29.03.2020
5832 Clouds 12 1016 62 10000 8.7 360 13:37 29.03.2020
5833 Clouds 12 1016 62 10000 8.7 360 13:19 29.03.2020
5834 Clouds 12 1016 62 10000 8.7 360 12:55 29.03.2020
5835 Clouds 12 1016 62 10000 8.7 360 12:37 29.03.2020
5836 Clouds 12 1016 62 10000 8.7 360 12:18 29.03.2020
5837 Clouds 12 1016 62 10000 8.7 360 12:18 29.03.2020
5838 Clouds 13 1016 66 10000 9.3 350 11:39 29.03.2020
5839 Clouds 13 1016 66 10000 9.3 350 11:21 29.03.2020
5840 Clouds 13 1016 67 10000 9.3 340 10:55 29.03.2020
5841 Clouds 13 1016 67 10000 9.3 340 10:37 29.03.2020
5842 Clouds 14 1016 67 10000 9.3 340 10:18 29.03.2020
5843 Clouds 15 1015 59 10000 8.7 340 09:39 29.03.2020
5844 Clouds 16 1015 59 10000 8.7 340 09:19 29.03.2020
5845 Clouds 17 1015 48 10000 6.7 310 08:52 29.03.2020
5846 Clouds 17 1015 48 10000 6.7 310 08:28 29.03.2020
5847 Clouds 17 1016 48 10000 5.7 320 07:56 29.03.2020
5848 Clouds 17 1016 48 10000 5.7 320 07:38 29.03.2020
5849 Clouds 16 1016 48 10000 5.7 320 07:19 29.03.2020
5850 Clouds 15 1017 51 10000 8.2 360 04:59 29.03.2020
5851 Clouds 14 1018 54 10000 6.7 10 03:42 29.03.2020
5852 Clouds 14 1018 54 10000 6.7 10 03:24 29.03.2020
5853 Clouds 13 1018 54 10000 6.2 50 01:50 29.03.2020
5854 Clouds 13 1018 54 10000 6.2 50 01:23 29.03.2020
5855 Clouds 12 1017 62 10000 4.1 20 00:53 29.03.2020
5856 Clouds 12 1017 62 10000 4.1 20 00:29 29.03.2020
5857 Clouds 10 1018 76 10000 3.1 50 23:42 28.03.2020
5858 Clouds 10 1018 76 10000 3.1 50 23:23 28.03.2020
5859 Clouds 10 1018 76 10000 6.2 360 22:57 28.03.2020
5860 Clouds 10 1018 76 10000 6.2 360 22:37 28.03.2020
5861 Clouds 10 1018 76 10000 6.2 360 22:18 28.03.2020
5862 Clouds 11 1014 81 0 5.81 360 21:41 28.03.2020
5863 Clouds 11 1014 81 0 5.81 360 21:23 28.03.2020
5864 Clouds 11 1014 81 0 5.81 360 20:58 28.03.2020
5865 Clouds 11 1014 81 0 5.81 360 20:39 28.03.2020
5866 Clouds 11 1014 81 0 5.81 360 20:21 28.03.2020
5867 Clouds 11 1014 81 0 5.81 360 19:56 28.03.2020
5868 Clouds 11 1014 81 0 5.81 360 19:56 28.03.2020
5869 Clouds 11 1014 81 0 5.81 360 19:37 28.03.2020
5870 Clouds 11 1014 81 0 5.81 360 19:37 28.03.2020
5871 Clouds 11 1014 81 0 5.81 360 19:18 28.03.2020
5872 Clouds 11 1014 81 0 5.81 360 18:47 28.03.2020
5873 Clouds 11 1014 81 0 5.81 360 18:23 28.03.2020
5874 Clouds 11 1014 81 0 5.81 360 17:58 28.03.2020
5875 Clouds 11 1014 81 0 5.81 360 17:38 28.03.2020
5876 Rain 11 1014 81 0 5.81 360 17:19 28.03.2020
5877 Rain 11 1014 81 0 5.81 360 16:42 28.03.2020
5878 Rain 10 1016 87 10000 5.1 10 16:20 28.03.2020
5879 Rain 10 1016 87 10000 5.1 10 16:20 28.03.2020
5880 Rain 10 1016 87 10000 5.1 10 15:56 28.03.2020
5881 Rain 10 1016 87 10000 5.1 10 15:37 28.03.2020
5882 Rain 10 1016 87 10000 5.1 10 15:18 28.03.2020
5883 Rain 10 1015 87 10000 5.1 30 14:42 28.03.2020
5884 Rain 11 1014 81 10000 6.2 360 14:22 28.03.2020
5885 Rain 11 1014 81 10000 6.2 360 13:55 28.03.2020
5886 Rain 11 1014 81 10000 6.2 360 13:36 28.03.2020
5887 Rain 11 1014 81 10000 6.2 360 13:18 28.03.2020
5888 Rain 11 1014 87 10000 7.7 350 12:37 28.03.2020
5889 Rain 11 1014 87 10000 7.7 350 12:19 28.03.2020
5890 Rain 11 1013 87 10000 8.2 350 11:42 28.03.2020
5891 Rain 11 1013 87 10000 8.2 350 11:21 28.03.2020
5892 Rain 11 1013 93 10000 7.2 350 10:43 28.03.2020
5893 Rain 11 1013 93 10000 7.2 350 10:24 28.03.2020
5894 Rain 12 1013 87 9000 7.7 350 09:59 28.03.2020
5895 Rain 12 1013 87 9000 7.7 350 09:39 28.03.2020
5896 Rain 12 1013 87 9000 7.7 350 09:21 28.03.2020
5897 Rain 12 1012 93 10000 8.2 350 08:42 28.03.2020
5898 Rain 12 1012 93 10000 8.2 350 08:24 28.03.2020
5899 Rain 12 1012 87 9000 7.2 350 07:52 28.03.2020
5900 Rain 12 1012 87 9000 7.2 350 07:34 28.03.2020
5901 Rain 12 1012 93 10000 7.7 350 06:45 28.03.2020
5902 Rain 12 1012 93 10000 7.7 350 06:20 28.03.2020
5903 Rain 13 1014 93 10000 8.2 330 05:24 28.03.2020
5904 Rain 13 1014 87 10000 6.2 360 04:48 28.03.2020
5905 Rain 13 1014 87 10000 6.2 360 04:28 28.03.2020
5906 Rain 14 1015 87 10000 5.7 360 02:46 28.03.2020
5907 Rain 14 1015 87 10000 6.7 350 01:46 28.03.2020
5908 Rain 14 1015 87 10000 6.7 350 01:20 28.03.2020
5909 Rain 14 1014 87 10000 6.7 360 00:47 28.03.2020
5910 Rain 14 1014 87 10000 6.7 360 00:20 28.03.2020
5911 Clouds 14 1014 93 10000 4.6 340 23:43 27.03.2020
5912 Clouds 14 1014 93 10000 4.6 340 23:23 27.03.2020
5913 Clouds 14 1014 93 10000 4.6 310 22:56 27.03.2020
5914 Rain 14 1014 93 10000 3.1 30 22:38 27.03.2020
5915 Rain 14 1014 93 10000 3.1 30 22:20 27.03.2020
5916 Clouds 15 1014 93 0 2.68 320 21:55 27.03.2020
5917 Clouds 15 1014 93 0 2.68 320 21:37 27.03.2020
5918 Clouds 15 1014 93 0 2.68 320 21:19 27.03.2020
5919 Clouds 15 1014 93 0 2.68 320 20:42 27.03.2020
5920 Clouds 13 1015 80 0 1.47 346 20:21 27.03.2020
5921 Clouds 14 1014 79 0 3.44 302 19:59 27.03.2020
5922 Clouds 14 1014 79 0 3.44 302 19:40 27.03.2020
5923 Clouds 14 1014 79 0 3.44 302 19:21 27.03.2020
5924 Clouds 14 1014 79 0 3.44 302 18:56 27.03.2020
5925 Clouds 14 1014 79 0 3.44 302 18:38 27.03.2020
5926 Clouds 15 1014 93 0 2.68 320 18:19 27.03.2020
5927 Clouds 15 1014 93 0 2.68 320 17:40 27.03.2020
5928 Clouds 15 1014 93 0 2.68 320 17:20 27.03.2020
5929 Clouds 15 1014 93 0 2.68 320 16:45 27.03.2020
5930 Clouds 15 1014 93 10000 6.2 280 16:27 27.03.2020
5931 Clouds 15 1014 93 10000 6.2 280 15:57 27.03.2020
5932 Clouds 15 1014 93 10000 6.2 280 15:39 27.03.2020
5933 Clouds 15 1014 93 0 2.68 320 15:21 27.03.2020
5934 Clouds 15 1014 93 0 2.68 320 14:45 27.03.2020
5935 Clouds 15 1014 93 10000 3.1 320 14:24 27.03.2020
5936 Clouds 15 1014 93 10000 3.1 320 13:56 27.03.2020
5937 Clouds 15 1014 93 10000 3.1 320 13:37 27.03.2020
5938 Clouds 15 1014 93 10000 3.1 320 13:18 27.03.2020
5939 Clouds 15 1013 93 10000 4.6 320 12:43 27.03.2020
5940 Clouds 15 1013 93 10000 4.6 320 12:19 27.03.2020
5941 Clouds 15 1013 100 10000 5.1 340 11:57 27.03.2020
5942 Clouds 15 1012 100 10000 4.1 360 11:39 27.03.2020
5943 Clouds 15 1012 100 10000 4.1 360 11:21 27.03.2020
5944 Clouds 15 1013 100 9000 4.6 350 10:42 27.03.2020
5945 Clouds 16 1012 93 9000 5.1 310 10:23 27.03.2020
5946 Rain 17 1011 93 10000 3.6 280 09:59 27.03.2020
5947 Rain 17 1011 93 10000 3.6 280 09:41 27.03.2020
5948 Rain 17 1011 93 10000 3.6 280 09:23 27.03.2020
5949 Clouds 17 1011 100 10000 3.6 270 08:59 27.03.2020
5950 Clouds 17 1011 100 10000 3.6 270 08:40 27.03.2020
5951 Clouds 17 1011 100 10000 3.6 270 08:22 27.03.2020
5952 Rain 18 1011 100 3000 2.6 0 07:57 27.03.2020
5953 Rain 18 1011 100 3000 2.6 0 07:57 27.03.2020
5954 Rain 18 1011 100 3000 2.6 0 07:38 27.03.2020
5955 Rain 19 1010 93 3500 1.5 0 07:20 27.03.2020
5956 Rain 20 1010 88 8000 3.6 0 06:39 27.03.2020
5957 Rain 20 1011 88 8000 4.1 0 05:45 27.03.2020
5958 Rain 19 1013 93 3000 2.6 0 03:26 27.03.2020
5959 Rain 20 1013 88 4000 6.7 180 01:55 27.03.2020
5960 Rain 19 1012 88 10000 8.2 170 00:58 27.03.2020
5961 Rain 19 1012 88 10000 8.2 170 00:38 27.03.2020
5962 Rain 19 1012 88 10000 8.2 170 00:18 27.03.2020
5963 Rain 19 1012 88 10000 8.2 170 00:18 27.03.2020
5964 Rain 19 1012 88 6000 8.7 160 23:36 26.03.2020
5965 Rain 19 1012 88 6000 8.7 160 23:18 26.03.2020
5966 Rain 19 1012 88 8000 10.8 170 22:54 26.03.2020
5967 Rain 19 1012 88 8000 10.8 170 22:36 26.03.2020
5968 Rain 19 1012 88 8000 10.8 170 22:18 26.03.2020
5969 Rain 18 1014 92 0 7.73 185 21:39 26.03.2020
5970 Rain 18 1014 92 0 7.73 185 21:21 26.03.2020
5971 Rain 18 1014 92 0 7.73 185 20:58 26.03.2020
5972 Rain 18 1014 92 0 7.73 185 20:39 26.03.2020
5973 Rain 18 1014 92 0 7.73 185 20:20 26.03.2020
5974 Rain 18 1014 91 0 8 181 19:57 26.03.2020
5975 Rain 18 1014 91 0 8 181 19:57 26.03.2020
5976 Rain 18 1014 91 0 8 181 19:39 26.03.2020
5977 Rain 17 1018 93 0 5.81 120 19:20 26.03.2020
5978 Rain 17 1018 93 0 5.81 120 19:20 26.03.2020
5979 Rain 17 1018 93 0 5.81 120 18:58 26.03.2020
5980 Rain 17 1018 93 0 5.81 120 18:58 26.03.2020
5981 Rain 17 1018 93 0 5.81 120 18:39 26.03.2020
5982 Rain 17 1018 93 0 5.81 120 18:21 26.03.2020
5983 Rain 17 1018 93 0 5.81 120 17:43 26.03.2020
5984 Rain 18 1017 88 0 8.28 170 17:19 26.03.2020
5985 Rain 18 1017 88 0 8.28 170 16:47 26.03.2020
5986 Rain 18 1017 88 0 8.28 170 16:28 26.03.2020
5987 Rain 18 1017 88 0 8.28 170 15:59 26.03.2020
5988 Rain 18 1017 88 0 8.28 170 15:41 26.03.2020
5989 Rain 18 1017 88 0 8.28 170 15:22 26.03.2020
5990 Rain 18 1017 88 0 8.28 170 14:58 26.03.2020
5991 Rain 18 1017 88 0 8.28 170 14:39 26.03.2020
5992 Rain 17 1017 93 7000 6.2 120 14:19 26.03.2020
5993 Rain 17 1017 93 7000 6.2 120 13:44 26.03.2020
5994 Rain 17 1017 93 7000 6.2 120 13:24 26.03.2020
5995 Rain 17 1017 93 7000 6.2 120 12:57 26.03.2020
5996 Rain 17 1017 93 5000 4.6 120 12:38 26.03.2020
5997 Rain 16 1016 100 5000 5.1 120 12:19 26.03.2020
5998 Rain 16 1016 100 5000 5.1 120 11:45 26.03.2020
5999 Rain 16 1016 100 5000 5.1 120 11:45 26.03.2020
6000 Rain 16 1016 100 5000 5.1 120 11:21 26.03.2020
6001 Rain 15 1017 100 4500 4.1 140 10:56 26.03.2020
6002 Rain 15 1017 100 5000 4.6 140 10:37 26.03.2020
6003 Rain 15 1017 100 5000 4.6 140 10:18 26.03.2020
6004 Rain 15 1017 100 5000 5.7 140 09:43 26.03.2020
6005 Rain 16 1017 93 5000 4.6 140 09:19 26.03.2020
6006 Rain 16 1017 93 5000 4.6 140 09:19 26.03.2020
6007 Rain 16 1017 100 5000 5.1 120 08:54 26.03.2020
6008 Rain 16 1017 100 5000 5.1 120 08:36 26.03.2020
6009 Rain 16 1017 100 5000 5.1 120 08:18 26.03.2020
6010 Rain 15 1018 100 3000 4.1 150 07:41 26.03.2020
6011 Rain 15 1018 100 3000 4.1 150 07:20 26.03.2020
6012 Rain 14 1018 100 3000 6.2 160 06:47 26.03.2020
6013 Rain 15 1019 93 4500 5.1 160 05:52 26.03.2020
6014 Clouds 15 1019 87 10000 8.2 140 03:58 26.03.2020
6015 Clouds 15 1019 87 10000 8.2 140 03:35 26.03.2020
6016 Clouds 14 1020 93 10000 6.7 160 02:53 26.03.2020
6017 Clouds 14 1019 93 9000 7.7 140 01:50 26.03.2020
6018 Clouds 14 1020 87 9000 5.1 150 00:45 26.03.2020
6019 Rain 14 1020 87 7000 3.1 150 23:47 25.03.2020
6020 Rain 14 1020 87 7000 3.1 150 23:28 25.03.2020
6021 Rain 14 1020 87 10000 6.2 160 22:58 25.03.2020
6022 Rain 14 1020 87 10000 6.2 160 22:38 25.03.2020
6023 Rain 15 1020 87 10000 6.2 160 22:19 25.03.2020
6024 Clouds 15 1020 72 0 2.24 120 21:55 25.03.2020
6025 Clouds 15 1020 72 0 2.24 120 21:37 25.03.2020
6026 Clouds 15 1020 72 0 2.24 120 21:18 25.03.2020
6027 Clouds 15 1020 72 0 2.24 120 20:40 25.03.2020
6028 Clouds 15 1021 72 0 2.24 120 20:20 25.03.2020
6029 Clouds 15 1021 72 0 2.24 120 19:58 25.03.2020
6030 Clouds 15 1021 72 0 2.24 120 19:39 25.03.2020
6031 Clouds 15 1021 72 0 2.24 120 19:21 25.03.2020
6032 Clouds 15 1020 72 0 2.24 120 18:54 25.03.2020
6033 Clouds 15 1020 72 0 2.24 120 18:36 25.03.2020
6034 Clouds 15 1020 72 0 2.24 120 18:18 25.03.2020
6035 Clouds 15 1020 72 0 2.24 120 17:41 25.03.2020
6036 Clouds 15 1020 72 0 2.24 120 17:22 25.03.2020
6037 Clouds 15 1020 72 0 2.24 120 16:59 25.03.2020
6038 Clouds 15 1020 72 0 2.24 120 16:39 25.03.2020
6039 Clouds 15 1020 72 0 2.24 120 16:21 25.03.2020
6040 Clouds 15 1020 72 0 2.24 120 16:21 25.03.2020
6041 Clouds 15 1020 72 0 2.24 120 15:43 25.03.2020
6042 Clouds 15 1020 72 0 2.24 120 15:21 25.03.2020
6043 Clouds 15 1020 72 0 2.24 120 14:59 25.03.2020
6044 Clouds 15 1020 72 0 2.24 120 14:40 25.03.2020
6045 Clouds 15 1020 72 10000 2.6 120 14:20 25.03.2020
6046 Clouds 15 1020 72 10000 2.6 120 13:45 25.03.2020
6047 Clouds 15 1020 72 10000 2.6 120 13:24 25.03.2020
6048 Clouds 15 1020 82 10000 2.1 150 12:40 25.03.2020
6049 Clouds 15 1020 82 10000 2.1 150 12:21 25.03.2020
6050 Clouds 16 1019 72 10000 0.5 300 11:59 25.03.2020
6051 Clouds 16 1019 72 10000 0.5 300 11:41 25.03.2020
6052 Clouds 16 1019 72 10000 0.5 300 11:21 25.03.2020
6053 Clouds 18 1019 59 10000 2.1 270 10:58 25.03.2020
6054 Clouds 18 1019 59 10000 2.1 270 10:40 25.03.2020
6055 Clouds 18 1019 59 10000 2.1 270 10:18 25.03.2020
6056 Clouds 19 1019 52 10000 3.6 270 09:56 25.03.2020
6057 Clouds 19 1019 52 10000 3.6 270 09:38 25.03.2020
6058 Clouds 19 1019 52 10000 3.6 270 09:19 25.03.2020
6059 Clouds 19 1019 52 10000 4.1 280 08:41 25.03.2020
6060 Clouds 19 1019 52 10000 4.1 280 08:23 25.03.2020
6061 Clouds 20 1019 52 10000 4.6 280 07:56 25.03.2020
6062 Clouds 20 1019 52 10000 4.6 280 07:37 25.03.2020
6063 Clouds 20 1019 52 10000 4.6 280 07:18 25.03.2020
6064 Clouds 19 1020 48 10000 3.6 280 06:41 25.03.2020
6065 Clouds 19 1020 48 10000 3.6 280 06:23 25.03.2020
6066 Clouds 19 1021 42 10000 2.6 280 05:47 25.03.2020
6067 Clouds 19 1021 42 10000 2.1 0 04:42 25.03.2020
6068 Clouds 16 1021 44 10000 2.1 350 03:57 25.03.2020
6069 Clouds 16 1021 44 10000 2.1 350 03:32 25.03.2020
6070 Clear 12 1021 62 10000 2.6 140 01:40 25.03.2020
6071 Clear 11 1022 57 10000 2.6 140 00:50 25.03.2020
6072 Clear 11 1022 57 10000 2.6 140 00:27 25.03.2020
6073 Clear 9 1021 70 10000 1.5 120 23:55 24.03.2020
6074 Clear 9 1021 70 10000 1.5 120 23:28 24.03.2020
6075 Clear 8 1021 65 10000 1.5 130 22:58 24.03.2020
6076 Clear 8 1021 65 0 1.34 130 22:38 24.03.2020
6077 Clear 8 1021 65 0 1.34 130 22:38 24.03.2020
6078 Clear 8 1021 65 0 1.34 130 22:20 24.03.2020
6079 Clear 12 1021 53 0 3.09 95 21:58 24.03.2020
6080 Clear 12 1021 53 0 3.09 95 21:40 24.03.2020
6081 Clear 12 1021 53 0 3.09 95 21:19 24.03.2020
6082 Clear 12 1021 53 0 3.09 95 20:58 24.03.2020
6083 Clear 12 1021 53 0 3.09 95 20:39 24.03.2020
6084 Clear 12 1021 53 0 3.09 95 20:21 24.03.2020
6085 Clear 12 1020 53 0 3.09 88 19:47 24.03.2020
6086 Clear 12 1020 53 0 3.09 88 19:22 24.03.2020
6087 Clear 12 1020 53 0 3.09 88 18:57 24.03.2020
6088 Clear 12 1020 53 0 3.09 88 18:38 24.03.2020
6089 Clear 12 1020 53 0 3.09 88 18:20 24.03.2020
6090 Clear 12 1020 53 0 3.09 88 17:56 24.03.2020
6091 Clear 12 1020 53 0 3.09 88 17:38 24.03.2020
6092 Clear 13 1021 51 0 3.9 75 17:19 24.03.2020
6093 Clear 14 1021 56 0 4.87 78 16:56 24.03.2020
6094 Clear 14 1021 56 0 4.87 78 16:37 24.03.2020
6095 Clear 12 1020 57 10000 2.6 360 16:19 24.03.2020
6096 Clear 11 1020 57 10000 2.6 360 15:42 24.03.2020
6097 Clear 11 1020 57 10000 2.6 360 15:23 24.03.2020
6098 Clear 12 1020 56 10000 2.1 30 14:44 24.03.2020
6099 Clear 13 1019 50 10000 6.7 340 14:22 24.03.2020
6100 Clear 13 1019 50 10000 6.7 340 13:58 24.03.2020
6101 Clear 13 1019 50 10000 6.7 340 13:40 24.03.2020
6102 Clear 13 1019 50 10000 6.7 340 13:21 24.03.2020
6103 Clear 14 1019 47 10000 7.7 340 12:42 24.03.2020
6104 Clear 14 1019 47 10000 7.7 340 12:24 24.03.2020
6105 Clear 15 1018 51 10000 6.7 350 11:41 24.03.2020
6106 Clear 14 1018 51 10000 6.7 350 11:21 24.03.2020
6107 Clouds 15 1017 55 10000 3.1 280 10:59 24.03.2020
6108 Clouds 15 1017 55 10000 3.1 280 10:40 24.03.2020
6109 Clouds 15 1017 55 10000 3.1 280 10:40 24.03.2020
6110 Clouds 15 1017 55 10000 3.1 280 10:18 24.03.2020
6111 Clouds 15 1017 55 10000 3.1 280 10:18 24.03.2020
6112 Clouds 15 1017 55 10000 3.1 280 10:18 24.03.2020
6113 Clouds 18 1017 48 10000 2.6 270 09:44 24.03.2020
6114 Clouds 18 1017 48 10000 2.6 270 09:25 24.03.2020
6115 Clouds 19 1017 34 10000 2.1 220 08:57 24.03.2020
6116 Clouds 19 1017 34 10000 2.1 220 08:37 24.03.2020
6117 Clouds 19 1017 34 10000 2.1 220 08:18 24.03.2020
6118 Clouds 19 1017 34 10000 2.1 220 07:44 24.03.2020
6119 Clouds 19 1017 34 10000 2.1 220 07:22 24.03.2020
6120 Clouds 19 1017 34 10000 2.1 220 07:22 24.03.2020
6121 Clouds 18 1017 42 10000 2.1 260 06:38 24.03.2020
6122 Clouds 18 1017 42 10000 2.1 260 06:18 24.03.2020
6123 Clouds 16 1018 55 10000 1 0 04:51 24.03.2020
6124 Clouds 16 1019 59 10000 3.6 160 03:22 24.03.2020
6125 Clouds 15 1019 67 10000 2.6 160 02:41 24.03.2020
6126 Clear 10 1018 76 10000 2.1 130 00:54 24.03.2020
6127 Clear 10 1018 76 10000 2.1 130 00:27 24.03.2020
6128 Clear 8 1017 87 10000 3.6 140 23:56 23.03.2020
6129 Clear 8 1017 87 10000 3.6 140 23:37 23.03.2020
6130 Clear 8 1017 87 10000 3.6 140 23:19 23.03.2020
6131 Clear 8 1017 87 10000 3.6 140 22:44 23.03.2020
6132 Clear 7 1017 87 10000 2.6 40 22:23 23.03.2020
6133 Clear 11 1017 71 0 3.01 337 21:55 23.03.2020
6134 Clear 11 1017 71 0 3.01 337 21:37 23.03.2020
6135 Clear 11 1017 71 0 3.01 337 21:18 23.03.2020
6136 Clear 11 1017 71 0 3.01 337 20:42 23.03.2020
6137 Clear 11 1017 71 0 3.01 337 20:24 23.03.2020
6138 Clear 11 1017 71 0 4.69 329 19:56 23.03.2020
6139 Clear 11 1017 71 0 4.69 329 19:37 23.03.2020
6140 Clear 11 1017 71 0 4.69 329 19:19 23.03.2020
6141 Clear 11 1017 71 0 4.69 329 18:44 23.03.2020
6142 Clear 11 1017 71 0 4.69 329 18:25 23.03.2020
6143 Clear 11 1017 71 0 4.69 329 17:59 23.03.2020
6144 Clear 11 1017 71 0 4.69 329 17:41 23.03.2020
6145 Clear 11 1017 71 0 4.21 330 17:19 23.03.2020
6146 Clear 11 1017 71 0 4.21 330 16:44 23.03.2020
6147 Clouds 10 1016 76 10000 1 20 16:25 23.03.2020
6148 Clouds 10 1016 76 10000 1 20 15:58 23.03.2020
6149 Clouds 10 1016 76 10000 1 20 15:39 23.03.2020
6150 Clouds 10 1016 76 10000 1 20 15:18 23.03.2020
6151 Clear 11 1017 66 10000 1 270 14:37 23.03.2020
6152 Clear 11 1017 66 10000 1 270 14:37 23.03.2020
6153 Clouds 11 1017 66 10000 1 270 14:19 23.03.2020
6154 Clouds 11 1017 71 10000 1 0 13:57 23.03.2020
6155 Clouds 11 1017 71 10000 1 0 13:38 23.03.2020
6156 Clouds 11 1017 71 10000 1 0 13:20 23.03.2020
6157 Clouds 13 1016 66 10000 4.6 300 12:43 23.03.2020
6158 Clouds 13 1016 66 10000 4.6 300 12:23 23.03.2020
6159 Clouds 13 1016 54 10000 5.7 300 11:56 23.03.2020
6160 Clouds 13 1016 54 10000 5.7 300 11:37 23.03.2020
6161 Clouds 13 1016 54 10000 5.7 300 11:37 23.03.2020
6162 Clouds 13 1016 54 10000 5.7 300 11:18 23.03.2020
6163 Clouds 15 1015 48 10000 5.7 310 10:42 23.03.2020
6164 Clouds 15 1015 48 10000 5.7 310 10:23 23.03.2020
6165 Clouds 16 1015 42 10000 7.2 310 09:59 23.03.2020
6166 Clouds 17 1015 42 10000 7.2 310 09:41 23.03.2020
6167 Clouds 17 1015 42 10000 7.2 310 09:19 23.03.2020
6168 Clouds 19 1014 24 10000 3.6 320 08:38 23.03.2020
6169 Clear 19 1014 24 10000 3.6 320 08:20 23.03.2020
6170 Clear 19 1014 24 10000 6.2 350 07:51 23.03.2020
6171 Clear 19 1014 24 10000 6.2 350 07:33 23.03.2020
6172 Clear 20 1015 22 10000 7.2 350 06:55 23.03.2020
6173 Clear 20 1015 22 10000 7.2 350 06:34 23.03.2020
6174 Clouds 19 1015 34 10000 7.7 330 05:44 23.03.2020
6175 Clouds 17 1016 42 10000 7.2 340 03:54 23.03.2020
6176 Clouds 16 1016 48 10000 5.7 340 02:45 23.03.2020
6177 Clouds 15 1016 54 10000 7.2 360 01:50 23.03.2020
6178 Clouds 13 1016 82 10000 5.7 340 00:47 23.03.2020
6179 Clouds 13 1016 82 10000 5.7 340 00:27 23.03.2020
6180 Clouds 12 1015 87 10000 2.6 320 23:42 22.03.2020
6181 Clouds 12 1015 87 10000 2.6 320 23:24 22.03.2020
6182 Clouds 11 1015 87 10000 3.1 340 22:42 22.03.2020
6183 Clouds 11 1015 87 10000 3.1 340 22:21 22.03.2020
6184 Clouds 13 1014 78 0 6.74 344 21:41 22.03.2020
6185 Clouds 13 1014 78 0 6.74 344 21:23 22.03.2020
6186 Clouds 13 1014 78 0 6.74 344 20:59 22.03.2020
6187 Clouds 13 1014 78 0 6.74 344 20:40 22.03.2020
6188 Clouds 14 1015 77 0 5.64 4 20:22 22.03.2020
6189 Clouds 15 1013 81 0 5.14 337 19:56 22.03.2020
6190 Clouds 15 1013 81 0 5.14 337 19:38 22.03.2020
6191 Clouds 15 1013 81 0 5.14 337 19:19 22.03.2020
6192 Clouds 15 1013 81 0 5.14 337 18:57 22.03.2020
6193 Clouds 15 1013 81 0 5.14 337 18:39 22.03.2020
6194 Clouds 15 1013 81 0 5.14 337 18:19 22.03.2020
6195 Clouds 15 1013 81 0 5.14 337 17:56 22.03.2020
6196 Clouds 15 1013 81 0 5.14 337 17:37 22.03.2020
6197 Clouds 16 1013 91 0 2.95 340 17:19 22.03.2020
6198 Clouds 16 1013 91 0 2.95 340 16:55 22.03.2020
6199 Clouds 16 1013 91 0 2.95 340 16:37 22.03.2020
6200 Clouds 14 1012 87 10000 2.1 310 16:19 22.03.2020
6201 Clouds 14 1012 87 10000 2.1 310 16:19 22.03.2020
6202 Clouds 14 1012 87 10000 2.1 310 15:39 22.03.2020
6203 Clouds 14 1012 87 10000 2.1 310 15:19 22.03.2020
6204 Clouds 14 1012 87 10000 4.1 290 14:46 22.03.2020
6205 Clouds 14 1012 87 10000 4.1 290 14:18 22.03.2020
6206 Clouds 14 1012 87 10000 2.1 310 13:42 22.03.2020
6207 Clouds 14 1012 87 10000 2.1 310 13:20 22.03.2020
6208 Clouds 14 1011 87 10000 4.6 320 12:47 22.03.2020
6209 Clouds 14 1011 87 10000 4.6 320 12:23 22.03.2020
6210 Clouds 14 1011 87 10000 4.6 320 12:23 22.03.2020
6211 Clouds 14 1011 87 10000 4.6 320 12:23 22.03.2020
6212 Clouds 16 1010 82 10000 3.1 320 11:59 22.03.2020
6213 Clouds 16 1010 82 10000 3.1 320 11:41 22.03.2020
6214 Clouds 16 1010 82 10000 3.1 320 11:23 22.03.2020
6215 Clouds 17 1010 82 10000 5.7 320 10:57 22.03.2020
6216 Clouds 17 1010 82 10000 5.7 320 10:39 22.03.2020
6217 Clouds 17 1010 82 10000 5.7 320 10:20 22.03.2020
6218 Clouds 19 1009 77 10000 1.5 280 09:42 22.03.2020
6219 Clouds 19 1009 77 10000 1.5 280 09:22 22.03.2020
6220 Clouds 19 1009 77 10000 1.5 280 08:44 22.03.2020
6221 Clouds 19 1009 77 10000 1.5 280 08:24 22.03.2020
6222 Clouds 18 1009 77 10000 2.6 360 07:52 22.03.2020
6223 Clouds 18 1009 77 10000 2.6 360 07:26 22.03.2020
6224 Clouds 18 1010 77 10000 3.1 300 06:35 22.03.2020
6225 Clouds 18 1011 77 10000 2.1 170 05:35 22.03.2020
6226 Clouds 17 1012 88 10000 1 0 03:30 22.03.2020
6227 Rain 15 1012 87 10000 3.1 130 01:27 22.03.2020
6228 Rain 15 1012 87 10000 3.6 150 00:48 22.03.2020
6229 Rain 15 1012 87 10000 3.6 150 00:28 22.03.2020
6230 Clouds 15 1012 87 10000 6.2 140 23:43 21.03.2020
6231 Clouds 15 1012 87 10000 6.2 140 23:19 21.03.2020
6232 Clouds 15 1012 87 10000 4.6 130 22:55 21.03.2020
6233 Clouds 15 1012 87 10000 4.6 130 22:37 21.03.2020
6234 Clouds 15 1012 77 10000 2.6 360 22:18 21.03.2020
6235 Clouds 16 1015 77 0 3.58 120 21:42 21.03.2020
6236 Clouds 16 1015 77 0 3.58 120 21:23 21.03.2020
6237 Clouds 16 1015 77 0 3.58 120 20:59 21.03.2020
6238 Clouds 16 1015 77 0 3.58 120 20:41 21.03.2020
6239 Clouds 16 1015 77 0 3.58 120 20:19 21.03.2020
6240 Clouds 16 1015 77 0 3.58 120 19:44 21.03.2020
6241 Clouds 16 1015 77 0 3.58 120 19:25 21.03.2020
6242 Clouds 16 1015 77 0 3.58 120 18:57 21.03.2020
6243 Clouds 16 1015 77 0 3.58 120 18:38 21.03.2020
6244 Clouds 16 1015 77 0 3.58 120 18:20 21.03.2020
6245 Clouds 16 1015 77 0 3.58 120 18:20 21.03.2020
6246 Clouds 16 1015 77 0 3.58 120 17:55 21.03.2020
6247 Clouds 16 1015 77 0 3.58 120 17:37 21.03.2020
6248 Clouds 16 1015 77 0 3.58 120 17:18 21.03.2020
6249 Clouds 16 1015 77 0 3.58 120 16:41 21.03.2020
6250 Clouds 16 1015 82 10000 4.6 170 16:19 21.03.2020
6251 Clouds 16 1015 82 10000 4.6 170 15:55 21.03.2020
6252 Clouds 16 1015 82 10000 4.6 170 15:37 21.03.2020
6253 Clouds 16 1015 82 10000 4.6 170 15:18 21.03.2020
6254 Clouds 16 1015 77 10000 3.6 190 14:54 21.03.2020
6255 Clouds 16 1015 77 10000 3.6 190 14:36 21.03.2020
6256 Clouds 16 1015 77 10000 3.6 190 14:18 21.03.2020
6257 Clouds 16 1015 77 10000 3.6 120 13:56 21.03.2020
6258 Clouds 16 1015 77 10000 3.6 120 13:38 21.03.2020
6259 Clouds 16 1015 77 10000 3.6 120 13:19 21.03.2020
6260 Clouds 15 1014 77 10000 3.1 120 12:39 21.03.2020
6261 Clouds 15 1014 77 10000 3.1 120 12:19 21.03.2020
6262 Clouds 15 1014 77 10000 4.1 140 11:58 21.03.2020
6263 Clouds 15 1014 77 10000 4.1 140 11:38 21.03.2020
6264 Clouds 15 1014 77 10000 4.1 140 11:19 21.03.2020
6265 Clouds 18 1015 52 10000 3.1 190 10:57 21.03.2020
6266 Clouds 18 1015 52 10000 3.1 190 10:38 21.03.2020
6267 Clouds 18 1015 52 10000 3.1 190 10:20 21.03.2020
6268 Clouds 18 1015 52 10000 2.6 210 09:56 21.03.2020
6269 Clouds 18 1015 52 10000 2.6 210 09:37 21.03.2020
6270 Clouds 18 1015 52 10000 2.6 210 09:19 21.03.2020
6271 Clouds 18 1015 52 10000 2.6 210 09:19 21.03.2020
6272 Clouds 20 1015 45 10000 2.6 0 08:44 21.03.2020
6273 Clouds 20 1015 45 10000 2.6 0 08:44 21.03.2020
6274 Clouds 20 1015 45 10000 2.6 0 08:25 21.03.2020
6275 Clear 20 1015 52 10000 3.1 0 07:47 21.03.2020
6276 Clear 20 1015 52 10000 3.1 0 07:28 21.03.2020
6277 Clear 20 1016 49 10000 3.1 210 06:48 21.03.2020
6278 Clear 20 1016 49 10000 3.1 210 06:28 21.03.2020
6279 Clear 19 1016 49 10000 1.5 250 05:48 21.03.2020
6280 Clear 19 1016 49 10000 1.5 250 05:18 21.03.2020
6281 Clouds 16 1018 52 10000 5.1 130 03:26 21.03.2020
6282 Clouds 14 1018 62 10000 5.7 130 02:34 21.03.2020
6283 Clouds 12 1018 71 10000 7.2 130 01:38 21.03.2020
6284 Clouds 12 1018 71 10000 7.2 130 01:18 21.03.2020
6285 Clouds 11 1018 71 10000 4.6 120 00:38 21.03.2020
6286 Clouds 8 1017 81 10000 4.6 130 23:58 20.03.2020
6287 Clouds 8 1017 81 10000 4.6 130 23:40 20.03.2020
6288 Clouds 8 1017 81 10000 4.6 130 23:18 20.03.2020
6289 Clouds 8 1017 76 10000 4.6 130 22:41 20.03.2020
6290 Clouds 7 1017 76 10000 4.6 130 22:22 20.03.2020
6291 Clear 9 1017 66 0 1.34 90 21:56 20.03.2020
6292 Clear 9 1017 66 0 1.34 90 21:38 20.03.2020
6293 Clear 9 1017 66 0 1.34 90 21:18 20.03.2020
6294 Clear 9 1017 66 0 1.34 90 20:56 20.03.2020
6295 Clear 9 1017 66 0 1.34 90 20:38 20.03.2020
6296 Clear 9 1017 66 0 1.34 90 20:18 20.03.2020
6297 Clear 9 1017 66 0 1.34 90 19:44 20.03.2020
6298 Clear 9 1017 66 0 1.34 90 19:19 20.03.2020
6299 Clear 9 1017 66 0 1.34 90 18:55 20.03.2020
6300 Clear 9 1017 66 0 1.34 90 18:37 20.03.2020
6301 Clear 9 1017 66 0 1.34 90 18:19 20.03.2020
6302 Clear 9 1017 66 0 1.34 90 17:39 20.03.2020
6303 Clear 9 1017 66 0 1.34 90 17:21 20.03.2020
6304 Clear 9 1017 66 0 1.34 90 17:21 20.03.2020
6305 Clear 9 1017 66 0 1.34 90 16:58 20.03.2020
6306 Clear 9 1017 66 0 1.34 90 16:39 20.03.2020
6307 Clear 9 1017 70 10000 1 0 16:18 20.03.2020
6308 Clear 8 1017 70 10000 1 0 15:42 20.03.2020
6309 Clear 8 1017 70 10000 1 0 15:21 20.03.2020
6310 Clear 9 1017 70 10000 1.5 300 14:55 20.03.2020
6311 Clear 9 1017 70 10000 1.5 300 14:37 20.03.2020
6312 Clear 9 1017 70 10000 1.5 300 14:18 20.03.2020
6313 Clear 9 1017 66 10000 1.5 90 13:42 20.03.2020
6314 Clear 9 1017 66 10000 1.5 90 13:19 20.03.2020
6315 Clear 10 1017 57 10000 0.5 0 12:40 20.03.2020
6316 Clear 10 1017 57 10000 0.5 0 12:22 20.03.2020
6317 Clear 11 1016 50 10000 3.1 310 11:57 20.03.2020
6318 Clear 11 1016 50 10000 3.1 310 11:38 20.03.2020
6319 Clear 11 1016 50 10000 3.1 310 11:19 20.03.2020
6320 Clear 13 1016 43 10000 4.1 300 10:41 20.03.2020
6321 Clear 13 1016 43 10000 4.1 300 10:21 20.03.2020
6322 Clear 14 1015 41 10000 4.1 290 09:56 20.03.2020
6323 Clear 14 1015 41 10000 4.1 290 09:56 20.03.2020
6324 Clear 14 1015 41 10000 4.1 290 09:37 20.03.2020
6325 Clear 14 1015 41 10000 4.1 290 09:18 20.03.2020
6326 Clear 15 1015 41 10000 6.7 330 08:42 20.03.2020
6327 Clear 15 1015 41 10000 6.7 330 08:22 20.03.2020
6328 Clear 15 1015 38 10000 5.7 340 07:49 20.03.2020
6329 Clear 15 1015 38 10000 5.7 340 07:30 20.03.2020
6330 Clear 15 1016 38 10000 5.7 350 06:58 20.03.2020
6331 Clear 15 1016 38 10000 5.7 350 06:40 20.03.2020
6332 Clear 14 1017 41 10000 4.6 340 04:51 20.03.2020
6333 Clear 12 1017 46 10000 3.1 30 03:21 20.03.2020
6334 Clear 11 1017 50 10000 0.5 0 01:57 20.03.2020
6335 Clear 10 1017 53 10000 2.6 130 00:51 20.03.2020
6336 Clear 10 1017 53 10000 2.6 130 00:29 20.03.2020
6337 Clouds 8 1016 61 10000 0.5 0 23:47 19.03.2020
6338 Clouds 8 1016 61 10000 0.5 0 23:28 19.03.2020
6339 Clear 7 1016 56 10000 1.5 0 22:56 19.03.2020
6340 Clear 7 1016 56 10000 1.5 0 22:56 19.03.2020
6341 Clear 7 1016 56 10000 1.5 0 22:38 19.03.2020
6342 Clear 7 1016 56 10000 1.5 0 22:19 19.03.2020
6343 Clear 11 1017 52 0 8.32 342 21:42 19.03.2020
6344 Clear 11 1017 52 0 8.32 342 21:20 19.03.2020
6345 Clear 11 1017 52 0 8.32 342 20:59 19.03.2020
6346 Clear 11 1017 52 0 8.32 342 20:41 19.03.2020
6347 Clear 11 1017 52 0 8.32 342 20:22 19.03.2020
6348 Clouds 11 1017 51 0 9.21 329 19:55 19.03.2020
6349 Clouds 11 1017 51 0 9.21 329 19:37 19.03.2020
6350 Clouds 11 1017 51 0 9.21 329 19:19 19.03.2020
6351 Clouds 11 1017 51 0 9.21 329 18:42 19.03.2020
6352 Clouds 11 1017 51 0 9.21 329 18:22 19.03.2020
6353 Clouds 11 1017 51 0 9.21 329 17:58 19.03.2020
6354 Clouds 11 1017 51 0 9.21 329 17:40 19.03.2020
6355 Clouds 12 1016 52 0 9.88 334 17:19 19.03.2020
6356 Clouds 12 1016 52 0 9.88 334 16:43 19.03.2020
6357 Clouds 10 1014 52 10000 6.7 300 16:23 19.03.2020
6358 Clouds 10 1014 52 10000 6.7 300 15:45 19.03.2020
6359 Clouds 10 1014 52 10000 6.7 300 15:27 19.03.2020
6360 Clouds 11 1013 50 10000 6.7 300 14:55 19.03.2020
6361 Clouds 11 1013 50 10000 6.7 300 14:37 19.03.2020
6362 Clouds 11 1013 50 10000 6.7 300 14:19 19.03.2020
6363 Clouds 12 1012 46 10000 9.3 300 13:39 19.03.2020
6364 Clouds 12 1012 46 10000 9.3 300 13:19 19.03.2020
6365 Clouds 13 1011 47 10000 9.8 300 12:55 19.03.2020
6366 Clouds 13 1011 47 10000 9.8 300 12:37 19.03.2020
6367 Clouds 13 1011 47 10000 9.8 300 12:18 19.03.2020
6368 Clouds 14 1010 54 10000 9.8 300 11:41 19.03.2020
6369 Clouds 14 1010 54 10000 9.8 300 11:23 19.03.2020
6370 Clouds 15 1008 72 10000 4.6 260 10:44 19.03.2020
6371 Clouds 16 1008 72 10000 4.6 260 10:22 19.03.2020
6372 Clouds 17 1007 72 10000 6.2 260 09:59 19.03.2020
6373 Clouds 17 1007 72 10000 6.2 260 09:40 19.03.2020
6374 Clouds 18 1007 72 10000 6.2 260 09:22 19.03.2020
6375 Clouds 18 1007 72 10000 3.6 0 08:48 19.03.2020
6376 Clouds 18 1007 72 10000 3.6 0 08:23 19.03.2020
6377 Clouds 18 1007 72 10000 3.6 0 07:49 19.03.2020
6378 Clouds 18 1007 72 10000 3.6 0 07:31 19.03.2020
6379 Clouds 18 1008 72 10000 3.1 0 06:55 19.03.2020
6380 Clouds 18 1008 72 10000 3.1 0 06:18 19.03.2020
6381 Clouds 19 1009 72 10000 2.6 0 05:24 19.03.2020
6382 Clouds 18 1010 68 10000 2.1 220 04:46 19.03.2020
6383 Clouds 18 1010 68 10000 4.6 130 03:44 19.03.2020
6384 Clouds 14 1011 93 10000 2.1 130 01:45 19.03.2020
6385 Clouds 12 1011 100 10000 2.6 140 00:39 19.03.2020
6386 Clouds 11 1011 93 10000 4.6 140 00:18 19.03.2020
6387 Clouds 11 1011 93 10000 4.6 140 23:41 18.03.2020
6388 Clouds 11 1011 93 10000 4.6 140 23:21 18.03.2020
6389 Clouds 11 1012 93 10000 4.1 140 22:42 18.03.2020
6390 Clouds 11 1012 93 10000 4.1 140 22:22 18.03.2020
6391 Clear 13 1015 87 0 1.34 150 21:55 18.03.2020
6392 Clear 13 1015 87 0 1.34 150 21:37 18.03.2020
6393 Clear 13 1015 87 0 1.34 150 21:19 18.03.2020
6394 Clear 13 1015 87 0 1.34 150 20:54 18.03.2020
6395 Clear 13 1015 87 0 1.34 150 20:36 18.03.2020
6396 Clear 13 1015 87 0 1.34 150 20:18 18.03.2020
6397 Clear 13 1015 87 0 1.34 150 19:40 18.03.2020
6398 Clear 13 1015 87 0 1.34 150 19:21 18.03.2020
6399 Clear 13 1015 87 0 1.34 150 18:56 18.03.2020
6400 Clear 13 1015 87 0 1.34 150 18:38 18.03.2020
6401 Clear 13 1015 87 0 1.34 150 18:19 18.03.2020
6402 Clear 13 1015 87 0 1.34 150 17:54 18.03.2020
6403 Clear 13 1015 87 0 1.34 150 17:36 18.03.2020
6404 Clear 13 1015 87 0 1.34 150 17:18 18.03.2020
6405 Clear 13 1015 87 0 1.34 150 16:42 18.03.2020
6406 Clouds 13 1015 93 10000 1.5 140 16:20 18.03.2020
6407 Clouds 13 1015 93 10000 1.5 140 15:56 18.03.2020
6408 Clouds 13 1015 93 10000 1.5 140 15:37 18.03.2020
6409 Clouds 13 1015 93 10000 1.5 140 15:19 18.03.2020
6410 Clouds 13 1015 87 10000 3.6 200 14:42 18.03.2020
6411 Clouds 13 1015 87 10000 3.6 200 14:21 18.03.2020
6412 Clouds 13 1015 87 10000 1.5 150 13:41 18.03.2020
6413 Clouds 13 1015 87 10000 1.5 150 13:19 18.03.2020
6414 Clouds 14 1015 87 10000 1.5 150 12:44 18.03.2020
6415 Clouds 14 1015 87 10000 1.5 150 12:21 18.03.2020
6416 Clouds 15 1015 77 10000 1 0 11:59 18.03.2020
6417 Clouds 15 1015 77 10000 1 0 11:37 18.03.2020
6418 Clouds 15 1015 77 10000 1 0 11:37 18.03.2020
6419 Clouds 15 1015 77 10000 1 0 11:18 18.03.2020
6420 Clouds 16 1015 72 10000 1.5 0 10:56 18.03.2020
6421 Clouds 16 1015 72 10000 1.5 0 10:56 18.03.2020
6422 Clouds 16 1015 72 10000 1.5 0 10:36 18.03.2020
6423 Clouds 16 1015 72 10000 1.5 0 10:18 18.03.2020
6424 Clouds 17 1015 63 10000 1.5 0 09:42 18.03.2020
6425 Clouds 17 1015 63 10000 1.5 0 09:23 18.03.2020
6426 Clouds 17 1015 67 10000 3.1 280 08:54 18.03.2020
6427 Clouds 17 1015 67 10000 3.1 280 08:36 18.03.2020
6428 Clouds 17 1015 67 10000 3.1 280 08:18 18.03.2020
6429 Clouds 17 1015 63 10000 4.1 270 07:39 18.03.2020
6430 Clouds 17 1015 63 10000 4.1 270 07:21 18.03.2020
6431 Clouds 17 1015 63 10000 4.1 270 06:42 18.03.2020
6432 Clouds 17 1016 55 10000 2.6 240 05:43 18.03.2020
6433 Clouds 16 1017 59 10000 1.5 0 04:58 18.03.2020
6434 Clouds 15 1017 63 10000 2.6 150 03:21 18.03.2020
6435 Clouds 14 1018 67 10000 3.1 150 02:37 18.03.2020
6436 Clouds 14 1018 67 10000 3.1 150 02:37 18.03.2020
6437 Clouds 14 1018 67 10000 3.1 150 02:37 18.03.2020
6438 Clouds 12 1017 81 10000 2.1 150 01:43 18.03.2020
6439 Clouds 11 1017 87 10000 1 0 01:19 18.03.2020
6440 Clouds 9 1017 93 10000 1.5 110 00:21 18.03.2020
6441 Clouds 8 1017 93 10000 1.5 110 23:42 17.03.2020
6442 Clouds 8 1017 93 10000 4.1 150 23:21 17.03.2020
6443 Clouds 8 1017 93 10000 4.1 150 22:46 17.03.2020
6444 Clouds 8 1017 93 10000 4.1 150 22:28 17.03.2020
6445 Clouds 11 1018 87 0 0.89 140 21:46 17.03.2020
6446 Clouds 11 1018 87 0 0.89 140 21:25 17.03.2020
6447 Clouds 11 1018 87 0 0.89 140 20:58 17.03.2020
6448 Clouds 11 1018 87 0 0.89 140 20:38 17.03.2020
6449 Clouds 11 1018 87 0 0.89 140 20:19 17.03.2020
6450 Clouds 11 1018 87 0 0.89 140 19:42 17.03.2020
6451 Clouds 11 1018 87 0 0.89 140 19:21 17.03.2020
6452 Clouds 11 1018 87 0 0.89 140 18:58 17.03.2020
6453 Clouds 11 1018 87 0 0.89 140 18:39 17.03.2020
6454 Clouds 11 1018 87 0 0.89 140 18:21 17.03.2020
6455 Clouds 11 1018 87 0 0.89 140 17:56 17.03.2020
6456 Clouds 11 1018 87 0 0.89 140 17:38 17.03.2020
6457 Clouds 11 1018 87 0 0.89 140 17:18 17.03.2020
6458 Clouds 11 1018 87 0 0.89 140 16:42 17.03.2020
6459 Clouds 11 1017 87 10000 3.1 180 16:19 17.03.2020
6460 Clouds 11 1017 87 10000 3.1 180 16:19 17.03.2020
6461 Clouds 11 1017 87 10000 3.1 180 15:45 17.03.2020
6462 Clouds 11 1017 87 10000 3.1 180 15:23 17.03.2020
6463 Clouds 11 1017 87 10000 3.6 200 14:47 17.03.2020
6464 Clouds 11 1017 87 10000 3.6 200 14:26 17.03.2020
6465 Clouds 11 1018 87 10000 1 140 13:58 17.03.2020
6466 Clouds 11 1018 87 10000 1 140 13:40 17.03.2020
6467 Clouds 11 1018 87 10000 1 140 13:21 17.03.2020
6468 Clouds 13 1018 76 10000 1 0 12:44 17.03.2020
6469 Clouds 13 1018 76 10000 1 0 12:24 17.03.2020
6470 Clouds 13 1017 71 10000 1.5 180 11:56 17.03.2020
6471 Clouds 13 1017 71 10000 1.5 180 11:37 17.03.2020
6472 Clouds 13 1017 71 10000 1.5 180 11:19 17.03.2020
6473 Clouds 14 1017 62 10000 4.6 210 10:54 17.03.2020
6474 Clouds 14 1017 62 10000 4.6 210 10:36 17.03.2020
6475 Clouds 14 1017 62 10000 4.6 210 10:18 17.03.2020
6476 Clouds 15 1018 58 10000 3.1 210 09:44 17.03.2020
6477 Clouds 15 1018 58 10000 3.1 210 09:20 17.03.2020
6478 Clouds 15 1018 54 10000 2.1 0 08:51 17.03.2020
6479 Clouds 15 1018 54 10000 2.1 0 08:24 17.03.2020
6480 Clouds 14 1018 58 10000 3.1 210 07:58 17.03.2020
6481 Clouds 14 1018 58 10000 3.1 210 07:40 17.03.2020
6482 Clouds 14 1018 58 10000 3.1 210 07:19 17.03.2020
6483 Clouds 14 1019 54 10000 2.6 230 06:41 17.03.2020
6484 Clouds 14 1019 54 10000 3.1 0 06:19 17.03.2020
6485 Clouds 14 1019 54 10000 3.1 0 06:19 17.03.2020
6486 Clouds 14 1020 54 10000 2.1 0 04:51 17.03.2020
6487 Clouds 12 1021 58 10000 3.6 130 03:19 17.03.2020
6488 Clouds 9 1021 57 10000 3.6 130 01:49 17.03.2020
6489 Clouds 9 1021 57 10000 3.6 130 01:28 17.03.2020
6490 Clouds 7 1021 75 10000 4.1 130 00:48 17.03.2020
6491 Clouds 6 1021 81 10000 3.6 140 23:51 16.03.2020
6492 Clouds 5 1021 81 10000 3.6 140 23:32 16.03.2020
6493 Clouds 5 1021 87 10000 3.1 140 22:45 16.03.2020
6494 Clouds 5 1021 87 10000 3.1 140 22:26 16.03.2020
6495 Clouds 8 1022 61 0 1.34 30 21:59 16.03.2020
6496 Clouds 8 1022 61 0 1.34 30 21:41 16.03.2020
6497 Clouds 8 1022 61 0 1.34 30 21:23 16.03.2020
6498 Clouds 8 1022 61 0 1.34 30 20:57 16.03.2020
6499 Clouds 8 1022 61 0 1.34 30 20:38 16.03.2020
6500 Clouds 10 1021 55 0 2.05 324 20:19 16.03.2020
6501 Clouds 9 1022 55 0 1.79 348 19:42 16.03.2020
6502 Clouds 9 1022 55 0 1.79 348 19:22 16.03.2020
6503 Clouds 9 1022 55 0 1.79 348 18:56 16.03.2020
6504 Clouds 9 1022 55 0 1.79 348 18:37 16.03.2020
6505 Clouds 9 1022 55 0 1.79 348 18:18 16.03.2020
6506 Clouds 9 1022 55 0 1.79 348 17:42 16.03.2020
6507 Clouds 9 1022 55 0 1.79 348 17:22 16.03.2020
6508 Clouds 9 1023 57 0 3.52 335 16:46 16.03.2020
6509 Clouds 4 1022 86 10000 2.1 40 16:28 16.03.2020
6510 Clouds 4 1022 86 10000 2.1 40 15:56 16.03.2020
6511 Clouds 4 1022 86 10000 2.1 40 15:37 16.03.2020
6512 Clouds 4 1022 86 10000 2.1 40 15:18 16.03.2020
6513 Clouds 5 1022 86 10000 2.1 300 14:42 16.03.2020
6514 Clouds 7 1022 86 10000 2.1 300 14:19 16.03.2020
6515 Clouds 7 1022 61 10000 1.5 30 13:42 16.03.2020
6516 Clouds 7 1022 61 10000 1.5 30 13:23 16.03.2020
6517 Clouds 8 1022 57 10000 2.6 360 12:46 16.03.2020
6518 Clouds 8 1022 57 10000 2.6 360 12:26 16.03.2020
6519 Clouds 8 1022 53 10000 3.6 360 11:58 16.03.2020
6520 Clouds 8 1022 53 10000 3.6 360 11:39 16.03.2020
6521 Clouds 10 1022 53 10000 3.6 360 11:18 16.03.2020
6522 Clouds 10 1021 53 10000 7.2 340 10:41 16.03.2020
6523 Clouds 10 1021 53 10000 7.2 340 10:19 16.03.2020
6524 Clouds 11 1020 40 10000 5.7 320 09:44 16.03.2020
6525 Clouds 11 1020 40 10000 5.7 320 09:24 16.03.2020
6526 Clouds 12 1020 40 10000 6.7 320 08:54 16.03.2020
6527 Clouds 12 1020 40 10000 6.7 320 08:25 16.03.2020
6528 Clouds 12 1019 40 10000 4.6 340 07:50 16.03.2020
6529 Clouds 12 1019 40 10000 4.6 340 07:27 16.03.2020
6530 Clouds 11 1019 48 10000 8.7 360 06:54 16.03.2020
6531 Clouds 11 1019 48 10000 8.7 360 06:25 16.03.2020
6532 Clouds 12 1020 48 10000 5.7 330 05:42 16.03.2020
6533 Rain 8 1021 61 10000 2.1 330 02:44 16.03.2020
6534 Clouds 6 1021 70 10000 1.5 330 01:20 16.03.2020
6535 Rain 6 1020 70 10000 5.1 330 00:39 16.03.2020
6536 Rain 6 1020 70 10000 5.1 330 00:39 16.03.2020
6537 Clouds 6 1019 48 10000 6.7 340 23:47 15.03.2020
6538 Clouds 6 1019 48 10000 6.7 340 23:20 15.03.2020
6539 Clouds 5 1019 48 10000 7.2 350 22:43 15.03.2020
6540 Clouds 5 1019 48 10000 7.2 350 22:23 15.03.2020
6541 Clouds 5 1019 48 10000 7.2 350 22:23 15.03.2020
6542 Snow 7 1019 58 0 11.22 350 21:58 15.03.2020
6543 Snow 7 1019 58 0 11.22 350 21:38 15.03.2020
6544 Snow 7 1019 58 0 11.22 350 21:18 15.03.2020
6545 Snow 7 1019 58 0 11.22 350 20:42 15.03.2020
6546 Snow 7 1019 58 0 11.22 350 20:21 15.03.2020
6547 Clouds 7 1016 76 0 14.82 313 19:58 15.03.2020
6548 Clouds 7 1016 76 0 14.82 313 19:39 15.03.2020
6549 Clouds 7 1016 76 0 14.82 313 19:20 15.03.2020
6550 Clouds 7 1016 76 0 14.82 313 18:56 15.03.2020
6551 Clouds 7 1016 76 0 14.82 313 18:37 15.03.2020
6552 Clouds 7 1016 76 0 14.82 313 18:19 15.03.2020
6553 Clouds 7 1016 76 0 14.82 313 17:41 15.03.2020
6554 Clouds 7 1016 76 0 14.82 313 17:21 15.03.2020
6555 Rain 11 1015 65 0 16.46 296 16:58 15.03.2020
6556 Rain 11 1015 65 0 16.46 296 16:40 15.03.2020
6557 Clouds 9 1012 65 10000 7.2 300 16:21 15.03.2020
6558 Clouds 9 1012 65 10000 7.2 300 15:48 15.03.2020
6559 Clouds 9 1012 65 10000 7.2 300 15:30 15.03.2020
6560 Clouds 10 1011 46 10000 8.2 290 14:58 15.03.2020
6561 Clouds 10 1011 46 10000 8.2 290 14:38 15.03.2020
6562 Clouds 10 1011 46 10000 8.2 290 14:19 15.03.2020
6563 Rain 11 1012 50 10000 15.4 300 13:55 15.03.2020
6564 Rain 11 1012 50 10000 15.4 300 13:55 15.03.2020
6565 Rain 11 1012 50 10000 15.4 300 13:37 15.03.2020
6566 Rain 11 1012 50 10000 15.4 300 13:18 15.03.2020
6567 Rain 11 1012 50 10000 15.4 300 13:18 15.03.2020
6568 Rain 11 1012 50 10000 15.4 300 13:18 15.03.2020
6569 Clouds 12 1011 37 10000 9.3 290 12:40 15.03.2020
6570 Clouds 12 1011 37 10000 9.3 290 12:21 15.03.2020
6571 Clouds 12 1011 46 10000 7.2 280 11:43 15.03.2020
6572 Clouds 12 1011 46 10000 7.2 280 11:24 15.03.2020
6573 Clouds 13 1010 52 10000 9.8 290 10:58 15.03.2020
6574 Clouds 13 1010 52 10000 9.8 290 10:39 15.03.2020
6575 Clouds 13 1010 52 10000 9.8 290 10:21 15.03.2020
6576 Clouds 13 1010 47 10000 8.2 260 09:44 15.03.2020
6577 Clouds 13 1010 47 10000 8.2 260 09:25 15.03.2020
6578 Clouds 13 1010 33 10000 6.7 280 08:59 15.03.2020
6579 Clouds 13 1010 33 10000 6.7 280 08:40 15.03.2020
6580 Clouds 13 1010 33 10000 6.7 280 08:18 15.03.2020
6581 Clouds 14 1011 33 10000 6.2 290 07:44 15.03.2020
6582 Clouds 14 1011 33 10000 6.2 290 07:18 15.03.2020
6583 Clouds 15 1011 30 10000 7.2 280 06:36 15.03.2020
6584 Clouds 15 1012 28 10000 5.7 290 05:46 15.03.2020
6585 Clouds 14 1013 33 10000 7.7 310 04:50 15.03.2020
6586 Clouds 14 1013 33 10000 7.7 310 04:32 15.03.2020
6587 Clouds 14 1013 35 10000 8.2 310 03:59 15.03.2020
6588 Clouds 12 1014 46 10000 7.7 310 02:48 15.03.2020
6589 Clouds 10 1014 71 9000 5.7 260 01:56 15.03.2020
6590 Rain 8 1014 81 10000 2.6 260 00:51 15.03.2020
6591 Rain 8 1014 81 10000 2.6 260 00:51 15.03.2020
6592 Rain 8 1014 81 10000 2.6 260 00:28 15.03.2020
6593 Clouds 7 1013 65 10000 1.5 90 23:58 14.03.2020
6594 Clouds 7 1013 65 10000 1.5 90 23:37 14.03.2020
6595 Clouds 7 1013 65 10000 1.5 90 23:18 14.03.2020
6596 Clouds 7 1013 61 10000 5.1 10 22:44 14.03.2020
6597 Clouds 6 1013 61 10000 5.1 10 22:26 14.03.2020
6598 Rain 8 1014 45 0 1.34 40 21:57 14.03.2020
6599 Rain 8 1014 45 0 1.34 40 21:37 14.03.2020
6600 Rain 8 1014 45 0 1.34 40 21:18 14.03.2020
6601 Rain 8 1014 45 0 1.34 40 20:59 14.03.2020
6602 Rain 8 1014 45 0 1.34 40 20:40 14.03.2020
6603 Clouds 10 1014 52 0 9.85 315 20:19 14.03.2020
6604 Clouds 10 1014 52 0 9.85 315 19:56 14.03.2020
6605 Clouds 10 1014 52 0 9.85 315 19:38 14.03.2020
6606 Clouds 10 1014 52 0 9.85 315 19:19 14.03.2020
6607 Clouds 10 1014 52 0 9.85 315 18:37 14.03.2020
6608 Clouds 10 1014 52 0 9.85 315 18:19 14.03.2020
6609 Clouds 10 1014 52 0 9.85 315 17:39 14.03.2020
6610 Clear 10 1016 42 0 5.62 338 17:20 14.03.2020
6611 Clear 10 1016 42 0 5.62 338 16:41 14.03.2020
6612 Clouds 7 1014 42 10000 3.6 260 16:23 14.03.2020
6613 Clouds 7 1014 42 10000 3.6 260 16:23 14.03.2020
6614 Clouds 7 1014 42 10000 3.6 260 15:58 14.03.2020
6615 Clouds 7 1014 42 10000 3.6 260 15:27 14.03.2020
6616 Clouds 6 1014 60 10000 3.1 260 14:58 14.03.2020
6617 Clouds 6 1014 60 10000 3.1 260 14:37 14.03.2020
6618 Clouds 7 1014 60 10000 3.1 260 14:18 14.03.2020
6619 Clouds 7 1014 45 10000 1.5 40 13:42 14.03.2020
6620 Clouds 7 1014 45 10000 1.5 40 13:24 14.03.2020
6621 Clouds 7 1013 45 10000 5.7 340 12:57 14.03.2020
6622 Clouds 7 1013 45 10000 5.7 340 12:38 14.03.2020
6623 Clouds 7 1013 45 10000 5.7 340 12:19 14.03.2020
6624 Clouds 8 1013 45 10000 8.2 320 11:42 14.03.2020
6625 Clouds 8 1013 45 10000 8.2 320 11:24 14.03.2020
6626 Clouds 9 1013 45 10000 7.7 310 10:46 14.03.2020
6627 Clouds 9 1013 45 10000 7.7 310 10:27 14.03.2020
6628 Clouds 10 1012 43 10000 8.2 310 09:58 14.03.2020
6629 Clouds 10 1012 43 10000 8.2 310 09:40 14.03.2020
6630 Clouds 10 1012 43 10000 8.2 310 09:20 14.03.2020
6631 Clouds 11 1012 32 10000 9.3 310 08:45 14.03.2020
6632 Clouds 11 1012 32 10000 9.3 310 08:45 14.03.2020
6633 Clouds 11 1012 32 10000 9.3 310 08:23 14.03.2020
6634 Clouds 13 1011 32 10000 7.7 310 07:39 14.03.2020
6635 Clouds 13 1011 32 10000 7.7 310 07:39 14.03.2020
6636 Clouds 13 1011 32 10000 7.7 310 07:20 14.03.2020
6637 Clouds 13 1011 37 10000 6.7 300 06:41 14.03.2020
6638 Clouds 14 1012 41 10000 8.2 310 05:56 14.03.2020
6639 Clouds 14 1013 47 10000 8.7 310 04:51 14.03.2020
6640 Clouds 14 1013 54 10000 7.7 330 03:25 14.03.2020
6641 Clouds 12 1013 71 10000 4.1 300 02:35 14.03.2020
6642 Clouds 11 1013 66 10000 1.5 0 01:27 14.03.2020
6643 Clouds 10 1013 76 10000 1 0 00:20 14.03.2020
6644 Clouds 10 1013 71 10000 1.5 270 23:32 13.03.2020
6645 Clouds 9 1014 81 10000 4.1 320 22:57 13.03.2020
6646 Clouds 9 1014 81 10000 4.1 320 22:38 13.03.2020
6647 Clouds 9 1014 81 10000 4.1 320 22:19 13.03.2020
6648 Rain 11 1014 77 0 12.01 317 21:39 13.03.2020
6649 Rain 11 1014 77 0 12.01 317 21:18 13.03.2020
6650 Rain 11 1014 77 0 12.01 317 20:41 13.03.2020
6651 Rain 11 1015 79 0 12.72 313 20:22 13.03.2020
6652 Rain 12 1015 73 0 6.22 334 19:49 13.03.2020
6653 Rain 12 1015 73 0 6.22 334 19:31 13.03.2020
6654 Rain 12 1015 73 0 6.22 334 18:55 13.03.2020
6655 Rain 12 1015 73 0 6.22 334 18:36 13.03.2020
6656 Rain 12 1016 87 0 1.34 160 18:18 13.03.2020
6657 Rain 12 1016 87 0 1.34 160 17:41 13.03.2020
6658 Rain 12 1016 87 0 1.34 160 17:21 13.03.2020
6659 Clouds 12 1016 87 0 1.34 160 16:55 13.03.2020
6660 Clouds 12 1016 87 0 1.34 160 16:36 13.03.2020
6661 Clouds 11 1016 87 10000 2.1 330 16:18 13.03.2020
6662 Clouds 11 1016 87 10000 2.1 330 15:41 13.03.2020
6663 Clouds 11 1016 87 10000 2.1 330 15:21 13.03.2020
6664 Clouds 11 1016 87 10000 2.1 330 14:44 13.03.2020
6665 Clouds 11 1016 87 10000 2.1 330 14:44 13.03.2020
6666 Clouds 12 1016 87 10000 2.1 330 14:23 13.03.2020
6667 Clouds 12 1016 87 10000 1.5 160 13:58 13.03.2020
6668 Clouds 12 1016 87 10000 1.5 160 13:40 13.03.2020
6669 Clouds 12 1016 87 10000 1.5 160 13:20 13.03.2020
6670 Clouds 12 1016 81 10000 1 0 12:55 13.03.2020
6671 Clouds 12 1016 81 10000 1 0 12:37 13.03.2020
6672 Clouds 12 1016 81 10000 2.6 320 12:18 13.03.2020
6673 Clouds 12 1016 81 10000 2.6 320 11:43 13.03.2020
6674 Clouds 12 1016 81 10000 2.6 320 11:25 13.03.2020
6675 Clouds 13 1016 76 10000 1.5 10 10:57 13.03.2020
6676 Clouds 13 1016 76 10000 1.5 10 10:39 13.03.2020
6677 Clouds 13 1016 76 10000 1.5 10 10:21 13.03.2020
6678 Clouds 13 1016 71 10000 0.5 0 09:44 13.03.2020
6679 Clouds 13 1016 71 10000 0.5 0 09:25 13.03.2020
6680 Clouds 14 1017 67 10000 2.1 300 08:47 13.03.2020
6681 Clouds 14 1017 67 10000 2.1 300 08:23 13.03.2020
6682 Clouds 14 1017 62 10000 2.6 320 07:58 13.03.2020
6683 Clouds 14 1017 62 10000 2.6 320 07:38 13.03.2020
6684 Clouds 14 1017 62 10000 2.6 320 07:18 13.03.2020
6685 Clouds 15 1017 54 10000 2.6 280 06:43 13.03.2020
6686 Clouds 13 1018 76 10000 3.1 340 05:56 13.03.2020
6687 Clouds 13 1018 76 10000 3.1 340 05:37 13.03.2020
6688 Clouds 13 1020 71 10000 3.1 160 04:38 13.03.2020
6689 Clouds 12 1021 71 10000 0.5 0 03:43 13.03.2020
6690 Clouds 9 1021 76 10000 1 0 01:47 13.03.2020
6691 Clouds 9 1021 76 10000 1 0 01:19 13.03.2020
6692 Clouds 9 1021 76 10000 4.6 140 00:54 13.03.2020
6693 Clouds 9 1021 76 10000 4.6 140 00:28 13.03.2020
6694 Clouds 8 1020 81 10000 5.7 150 23:59 12.03.2020
6695 Clouds 8 1020 81 10000 5.7 150 23:28 12.03.2020
6696 Clouds 8 1021 76 10000 4.1 130 22:57 12.03.2020
6697 Clouds 8 1021 76 10000 4.1 130 22:39 12.03.2020
6698 Clouds 8 1021 76 10000 4.1 130 22:21 12.03.2020
6699 Clouds 12 1021 59 0 1.67 82 21:45 12.03.2020
6700 Clouds 12 1021 59 0 1.67 82 21:27 12.03.2020
6701 Clouds 12 1021 59 0 1.67 82 20:57 12.03.2020
6702 Clouds 12 1021 59 0 1.67 82 20:38 12.03.2020
6703 Clouds 10 1022 76 0 3.58 130 20:19 12.03.2020
6704 Clouds 10 1022 76 0 3.58 130 19:41 12.03.2020
6705 Clouds 10 1022 76 0 3.58 130 19:20 12.03.2020
6706 Clouds 10 1022 76 0 3.58 130 18:44 12.03.2020
6707 Clouds 10 1022 76 0 3.58 130 18:24 12.03.2020
6708 Clouds 10 1022 76 0 3.58 130 17:57 12.03.2020
6709 Clouds 10 1022 76 0 3.58 130 17:38 12.03.2020
6710 Clouds 10 1022 76 0 3.58 130 17:19 12.03.2020
6711 Clouds 10 1022 76 0 3.58 130 16:55 12.03.2020
6712 Clouds 10 1022 76 0 3.58 130 16:37 12.03.2020
6713 Clouds 11 1022 66 10000 4.1 200 16:18 12.03.2020
6714 Clouds 11 1022 66 10000 4.1 200 15:44 12.03.2020
6715 Clouds 11 1022 66 10000 4.1 200 15:26 12.03.2020
6716 Clouds 10 1022 76 10000 2.1 170 14:40 12.03.2020
6717 Clouds 10 1022 76 10000 2.1 170 14:21 12.03.2020
6718 Clouds 10 1022 76 10000 3.6 130 13:56 12.03.2020
6719 Clouds 10 1022 76 10000 3.6 130 13:36 12.03.2020
6720 Clouds 10 1022 76 10000 3.6 130 13:18 12.03.2020
6721 Clouds 11 1022 71 10000 2.01 209 12:41 12.03.2020